<?xml version='1.0' encoding='UTF-8'?><gpx version="1.1" creator="JPX - https://github.com/jenetics/jpx" xmlns="http://www.topografix.com/GPX/1/1"><trk><trkseg><trkpt lat="44.77126777519382" lon="7.795143097775416"><ele>280.0</ele><time>2026-04-10T09:26:34Z</time></trkpt><trkpt lat="44.771246769429936" lon="7.795011842285112"><ele>280.0</ele><time>2026-04-10T09:26:37Z</time></trkpt><trkpt lat="44.77121730421583" lon="7.794897164667572"><ele>280.0</ele><time>2026-04-10T09:26:40Z</time></trkpt><trkpt lat="44.771185993746585" lon="7.7948040673867425"><ele>280.0</ele><time>2026-04-10T09:26:42Z</time></trkpt><trkpt lat="44.77114035990592" lon="7.794705724287633"><ele>280.0</ele><time>2026-04-10T09:26:44Z</time></trkpt><trkpt lat="44.77107868789104" lon="7.794608154511606"><ele>280.0</ele><time>2026-04-10T09:26:46Z</time></trkpt><trkpt lat="44.77103081620878" lon="7.794483661613929"><ele>279.75</ele><time>2026-04-10T09:26:48Z</time></trkpt><trkpt lat="44.77096679735598" lon="7.794361200673296"><ele>279.5</ele><time>2026-04-10T09:26:50Z</time></trkpt><trkpt lat="44.77088848776216" lon="7.794237323080573"><ele>279.25</ele><time>2026-04-10T09:26:52Z</time></trkpt><trkpt lat="44.770868217956945" lon="7.79407984994404"><ele>279.0</ele><time>2026-04-10T09:26:54Z</time></trkpt><trkpt lat="44.770918198646264" lon="7.7939197824773085"><ele>279.0</ele><time>2026-04-10T09:26:56Z</time></trkpt><trkpt lat="44.77100156399034" lon="7.7937924351406656"><ele>279.0</ele><time>2026-04-10T09:26:58Z</time></trkpt><trkpt lat="44.77104416248153" lon="7.793724972290083"><ele>279.0</ele><time>2026-04-10T09:26:59Z</time></trkpt><trkpt lat="44.77109278678798" lon="7.7936620394676375"><ele>279.0</ele><time>2026-04-10T09:27:00Z</time></trkpt><trkpt lat="44.771138061861336" lon="7.793596628760611"><ele>279.0</ele><time>2026-04-10T09:27:01Z</time></trkpt><trkpt lat="44.771212785237296" lon="7.79345835268125"><ele>279.0</ele><time>2026-04-10T09:27:03Z</time></trkpt><trkpt lat="44.77128792365975" lon="7.793348817342983"><ele>278.3333333333333</ele><time>2026-04-10T09:27:05Z</time></trkpt><trkpt lat="44.7713408405263" lon="7.793253323903251"><ele>277.6666666666667</ele><time>2026-04-10T09:27:07Z</time></trkpt><trkpt lat="44.77139899303235" lon="7.793210051274463"><ele>277.0</ele><time>2026-04-10T09:27:09Z</time></trkpt><trkpt lat="44.771463461715676" lon="7.793133897782551"><ele>276.33333333333337</ele><time>2026-04-10T09:27:12Z</time></trkpt><trkpt lat="44.77152732379751" lon="7.793124118580456"><ele>275.6666666666667</ele><time>2026-04-10T09:27:15Z</time></trkpt><trkpt lat="44.77152778300099" lon="7.793268919101039"><ele>275.0</ele><time>2026-04-10T09:27:16Z</time></trkpt><trkpt lat="44.77155612178559" lon="7.793394298040206"><ele>275.0</ele><time>2026-04-10T09:27:19Z</time></trkpt><trkpt lat="44.77158054067172" lon="7.793491201815212"><ele>275.0</ele><time>2026-04-10T09:27:21Z</time></trkpt><trkpt lat="44.77160484673805" lon="7.7935818996777435"><ele>275.0</ele><time>2026-04-10T09:27:23Z</time></trkpt><trkpt lat="44.771635668054" lon="7.793683697564865"><ele>275.0</ele><time>2026-04-10T09:27:25Z</time></trkpt><trkpt lat="44.77167285167125" lon="7.793781826432582"><ele>275.0</ele><time>2026-04-10T09:27:27Z</time></trkpt><trkpt lat="44.771718456362805" lon="7.793869254306208"><ele>275.0</ele><time>2026-04-10T09:27:29Z</time></trkpt><trkpt lat="44.77176765769564" lon="7.793946648940396"><ele>275.33333333333337</ele><time>2026-04-10T09:27:31Z</time></trkpt><trkpt lat="44.77182261399102" lon="7.794025898940923"><ele>275.6666666666667</ele><time>2026-04-10T09:27:33Z</time></trkpt><trkpt lat="44.77187806183907" lon="7.7941022775666475"><ele>276.0</ele><time>2026-04-10T09:27:35Z</time></trkpt><trkpt lat="44.77194037445237" lon="7.794184807592164"><ele>276.3333333333333</ele><time>2026-04-10T09:27:37Z</time></trkpt><trkpt lat="44.771995792794385" lon="7.794260188700382"><ele>276.66666666666663</ele><time>2026-04-10T09:27:39Z</time></trkpt><trkpt lat="44.77205652316914" lon="7.794313269123754"><ele>277.0</ele><time>2026-04-10T09:27:41Z</time></trkpt><trkpt lat="44.77209954080972" lon="7.794408314130732"><ele>277.3333333333333</ele><time>2026-04-10T09:27:43Z</time></trkpt><trkpt lat="44.772160185780855" lon="7.794477758428213"><ele>277.66666666666663</ele><time>2026-04-10T09:27:45Z</time></trkpt><trkpt lat="44.772209280720055" lon="7.794557659319245"><ele>278.0</ele><time>2026-04-10T09:27:47Z</time></trkpt><trkpt lat="44.77225475422798" lon="7.794641163783138"><ele>278.3333333333333</ele><time>2026-04-10T09:27:49Z</time></trkpt><trkpt lat="44.77231628101529" lon="7.7947274183424415"><ele>278.6666666666667</ele><time>2026-04-10T09:27:51Z</time></trkpt><trkpt lat="44.772364249702086" lon="7.794814629347518"><ele>279.0</ele><time>2026-04-10T09:27:53Z</time></trkpt><trkpt lat="44.77241717923544" lon="7.794897344737076"><ele>278.99999999999994</ele><time>2026-04-10T09:27:55Z</time></trkpt><trkpt lat="44.77245525840465" lon="7.794987082899809"><ele>279.0</ele><time>2026-04-10T09:27:57Z</time></trkpt><trkpt lat="44.772485587020064" lon="7.795067939949151"><ele>279.0</ele><time>2026-04-10T09:27:59Z</time></trkpt><trkpt lat="44.77251246550686" lon="7.795168087312482"><ele>279.0</ele><time>2026-04-10T09:28:01Z</time></trkpt><trkpt lat="44.772537568158945" lon="7.795262476651915"><ele>279.0</ele><time>2026-04-10T09:28:03Z</time></trkpt><trkpt lat="44.77255338816061" lon="7.795375434200801"><ele>278.99999999999994</ele><time>2026-04-10T09:28:04.999Z</time></trkpt><trkpt lat="44.7725751810162" lon="7.795471240531242"><ele>279.0</ele><time>2026-04-10T09:28:06.999Z</time></trkpt><trkpt lat="44.7726003923319" lon="7.7955820751754565"><ele>278.8333333333333</ele><time>2026-04-10T09:28:08.999Z</time></trkpt><trkpt lat="44.77262651730095" lon="7.79569425044977"><ele>278.6666666666667</ele><time>2026-04-10T09:28:10.999Z</time></trkpt><trkpt lat="44.772652571243775" lon="7.795800885831637"><ele>278.5</ele><time>2026-04-10T09:28:12.999Z</time></trkpt><trkpt lat="44.77267631395304" lon="7.795898061637154"><ele>278.33333333333337</ele><time>2026-04-10T09:28:14.999Z</time></trkpt><trkpt lat="44.7727018331421" lon="7.7960025083359135"><ele>278.1666666666667</ele><time>2026-04-10T09:28:16.999Z</time></trkpt><trkpt lat="44.772727267014695" lon="7.796106605835879"><ele>278.0</ele><time>2026-04-10T09:28:18.999Z</time></trkpt><trkpt lat="44.772752376594696" lon="7.796209376059115"><ele>278.0</ele><time>2026-04-10T09:28:20.999Z</time></trkpt><trkpt lat="44.77277584642512" lon="7.796305435001943"><ele>278.0</ele><time>2026-04-10T09:28:22.999Z</time></trkpt><trkpt lat="44.7728016962181" lon="7.796411234820682"><ele>278.0</ele><time>2026-04-10T09:28:24.999Z</time></trkpt><trkpt lat="44.772826292244346" lon="7.796518616369303"><ele>278.0</ele><time>2026-04-10T09:28:26.999Z</time></trkpt><trkpt lat="44.77285078714931" lon="7.796625490858237"><ele>278.0</ele><time>2026-04-10T09:28:28.999Z</time></trkpt><trkpt lat="44.77287481190448" lon="7.796735558731146"><ele>278.0</ele><time>2026-04-10T09:28:30.999Z</time></trkpt><trkpt lat="44.772899258628165" lon="7.796847559834792"><ele>278.0</ele><time>2026-04-10T09:28:33Z</time></trkpt><trkpt lat="44.77292152655603" lon="7.796955482641848"><ele>278.0</ele><time>2026-04-10T09:28:35Z</time></trkpt><trkpt lat="44.772943757630436" lon="7.797065290678254"><ele>278.0</ele><time>2026-04-10T09:28:37Z</time></trkpt><trkpt lat="44.772963921936714" lon="7.7971744096601645"><ele>278.0</ele><time>2026-04-10T09:28:39Z</time></trkpt><trkpt lat="44.77298151640288" lon="7.797284642339985"><ele>278.0</ele><time>2026-04-10T09:28:41Z</time></trkpt><trkpt lat="44.772996756868096" lon="7.7973971461732905"><ele>278.0</ele><time>2026-04-10T09:28:43Z</time></trkpt><trkpt lat="44.77300668385769" lon="7.797509090070668"><ele>278.0</ele><time>2026-04-10T09:28:45Z</time></trkpt><trkpt lat="44.77300725314842" lon="7.797619058512747"><ele>278.0</ele><time>2026-04-10T09:28:47Z</time></trkpt><trkpt lat="44.773013653871274" lon="7.79773906700057"><ele>278.0</ele><time>2026-04-10T09:28:49Z</time></trkpt><trkpt lat="44.77305509715856" lon="7.797852514282084"><ele>278.0</ele><time>2026-04-10T09:28:51Z</time></trkpt><trkpt lat="44.77306914182319" lon="7.797965965236497"><ele>278.0</ele><time>2026-04-10T09:28:53Z</time></trkpt><trkpt lat="44.77305977417052" lon="7.798088916226404"><ele>278.0</ele><time>2026-04-10T09:28:55Z</time></trkpt><trkpt lat="44.773071514365995" lon="7.7982035376353505"><ele>278.0</ele><time>2026-04-10T09:28:57Z</time></trkpt><trkpt lat="44.77307324138029" lon="7.798307763376873"><ele>278.0</ele><time>2026-04-10T09:28:59Z</time></trkpt><trkpt lat="44.773079342360994" lon="7.798417163599483"><ele>278.0</ele><time>2026-04-10T09:29:01Z</time></trkpt><trkpt lat="44.77310030500266" lon="7.7985331261594295"><ele>278.0</ele><time>2026-04-10T09:29:03Z</time></trkpt><trkpt lat="44.773101216637144" lon="7.798641801273359"><ele>278.0</ele><time>2026-04-10T09:29:05Z</time></trkpt><trkpt lat="44.77311067081804" lon="7.798754753407301"><ele>278.0</ele><time>2026-04-10T09:29:07Z</time></trkpt><trkpt lat="44.77311044867645" lon="7.798867994911107"><ele>278.33333333333337</ele><time>2026-04-10T09:29:09Z</time></trkpt><trkpt lat="44.77311505810161" lon="7.798981953186928"><ele>278.6666666666667</ele><time>2026-04-10T09:29:11Z</time></trkpt><trkpt lat="44.77311950435942" lon="7.799092133702691"><ele>279.0</ele><time>2026-04-10T09:29:13Z</time></trkpt><trkpt lat="44.77311018979745" lon="7.7992031239977075"><ele>279.3333333333333</ele><time>2026-04-10T09:29:15Z</time></trkpt><trkpt lat="44.77311320328854" lon="7.799313290866014"><ele>279.66666666666663</ele><time>2026-04-10T09:29:17Z</time></trkpt><trkpt lat="44.7731132902841" lon="7.799418728980585"><ele>280.0</ele><time>2026-04-10T09:29:19Z</time></trkpt><trkpt lat="44.77311162518307" lon="7.79953039583944"><ele>280.0</ele><time>2026-04-10T09:29:21Z</time></trkpt><trkpt lat="44.77310926758443" lon="7.7996416094400844"><ele>280.0</ele><time>2026-04-10T09:29:23Z</time></trkpt><trkpt lat="44.773119917047275" lon="7.7997521716126075"><ele>280.0</ele><time>2026-04-10T09:29:25Z</time></trkpt><trkpt lat="44.77311501775463" lon="7.799862432462154"><ele>280.0</ele><time>2026-04-10T09:29:27Z</time></trkpt><trkpt lat="44.77311436580097" lon="7.799971795361848"><ele>280.0</ele><time>2026-04-10T09:29:29Z</time></trkpt><trkpt lat="44.773111750782356" lon="7.800081143553984"><ele>280.0</ele><time>2026-04-10T09:29:31Z</time></trkpt><trkpt lat="44.77310734829375" lon="7.800191866623224"><ele>280.2857142857143</ele><time>2026-04-10T09:29:33Z</time></trkpt><trkpt lat="44.773103792788625" lon="7.8003035357803014"><ele>280.57142857142856</ele><time>2026-04-10T09:29:35Z</time></trkpt><trkpt lat="44.773084054775765" lon="7.80041146729621"><ele>280.8571428571429</ele><time>2026-04-10T09:29:37Z</time></trkpt><trkpt lat="44.77307692653787" lon="7.800508568902269"><ele>281.1428571428571</ele><time>2026-04-10T09:29:39Z</time></trkpt><trkpt lat="44.7730700994809" lon="7.80059928997911"><ele>281.42857142857144</ele><time>2026-04-10T09:29:41Z</time></trkpt><trkpt lat="44.77305947272148" lon="7.800712826272743"><ele>281.7142857142857</ele><time>2026-04-10T09:29:44Z</time></trkpt><trkpt lat="44.7730479309408" lon="7.8008162019523235"><ele>282.0</ele><time>2026-04-10T09:29:47Z</time></trkpt><trkpt lat="44.77303477790837" lon="7.800922998622189"><ele>282.14285714285717</ele><time>2026-04-10T09:29:50Z</time></trkpt><trkpt lat="44.77302123676891" lon="7.801018481427456"><ele>282.2857142857143</ele><time>2026-04-10T09:29:53Z</time></trkpt><trkpt lat="44.77300404570725" lon="7.801132787336167"><ele>282.42857142857144</ele><time>2026-04-10T09:29:56Z</time></trkpt><trkpt lat="44.77298792056819" lon="7.801240005778921"><ele>282.57142857142856</ele><time>2026-04-10T09:29:59Z</time></trkpt><trkpt lat="44.77297287363829" lon="7.801340055043402"><ele>282.7142857142857</ele><time>2026-04-10T09:30:02Z</time></trkpt><trkpt lat="44.77296901768539" lon="7.801448666182867"><ele>282.8571428571429</ele><time>2026-04-10T09:30:05Z</time></trkpt><trkpt lat="44.773001415048114" lon="7.801529815529466"><ele>283.0</ele><time>2026-04-10T09:30:08Z</time></trkpt><trkpt lat="44.773531712023676" lon="7.801702555479396"><ele>283.8571428571429</ele><time>2026-04-10T09:30:09.999Z</time></trkpt><trkpt lat="44.773600609791345" lon="7.801741939979174"><ele>284.7142857142857</ele><time>2026-04-10T09:30:12.999Z</time></trkpt><trkpt lat="44.773676507584625" lon="7.801754583802593"><ele>285.57142857142856</ele><time>2026-04-10T09:30:15.999Z</time></trkpt><trkpt lat="44.77373660530672" lon="7.80178648888902"><ele>286.42857142857144</ele><time>2026-04-10T09:30:18.999Z</time></trkpt><trkpt lat="44.77377641091653" lon="7.801864072095864"><ele>287.2857142857143</ele><time>2026-04-10T09:30:21.999Z</time></trkpt><trkpt lat="44.77378299806867" lon="7.8019717944435"><ele>288.14285714285717</ele><time>2026-04-10T09:30:24.999Z</time></trkpt><trkpt lat="44.773776330195574" lon="7.802082689164063"><ele>289.0</ele><time>2026-04-10T09:30:27.999Z</time></trkpt><trkpt lat="44.77376930474245" lon="7.802182042759926"><ele>290.0</ele><time>2026-04-10T09:30:31Z</time></trkpt><trkpt lat="44.773766604238716" lon="7.802278249381621"><ele>291.0</ele><time>2026-04-10T09:30:34Z</time></trkpt><trkpt lat="44.77376905903277" lon="7.8023739899792055"><ele>292.0</ele><time>2026-04-10T09:30:37Z</time></trkpt><trkpt lat="44.77376805647834" lon="7.802466766218603"><ele>293.0</ele><time>2026-04-10T09:30:40Z</time></trkpt><trkpt lat="44.77377495087826" lon="7.802559557229419"><ele>294.0</ele><time>2026-04-10T09:30:43Z</time></trkpt><trkpt lat="44.77379441189552" lon="7.802674953481383"><ele>295.0</ele><time>2026-04-10T09:30:47Z</time></trkpt><trkpt lat="44.77381167154795" lon="7.802762461631435"><ele>296.0</ele><time>2026-04-10T09:30:50Z</time></trkpt><trkpt lat="44.773853566141575" lon="7.802851908101698"><ele>296.2857142857143</ele><time>2026-04-10T09:30:54Z</time></trkpt><trkpt lat="44.7739038433874" lon="7.802922932639532"><ele>296.57142857142856</ele><time>2026-04-10T09:30:58Z</time></trkpt><trkpt lat="44.773954937049986" lon="7.802996132043824"><ele>296.85714285714283</ele><time>2026-04-10T09:31:02Z</time></trkpt><trkpt lat="44.77400556576103" lon="7.803069476882513"><ele>297.1428571428571</ele><time>2026-04-10T09:31:06Z</time></trkpt><trkpt lat="44.77405543050494" lon="7.8031492284338215"><ele>297.4285714285714</ele><time>2026-04-10T09:31:10Z</time></trkpt><trkpt lat="44.77411108943681" lon="7.8032309359663445"><ele>297.7142857142857</ele><time>2026-04-10T09:31:14Z</time></trkpt><trkpt lat="44.77416747991683" lon="7.803301304792217"><ele>298.0</ele><time>2026-04-10T09:31:18Z</time></trkpt><trkpt lat="44.774224713083896" lon="7.803381218400757"><ele>298.0</ele><time>2026-04-10T09:31:22Z</time></trkpt><trkpt lat="44.774287698838336" lon="7.803447336724272"><ele>298.0</ele><time>2026-04-10T09:31:26Z</time></trkpt><trkpt lat="44.77434859365501" lon="7.803508543253249"><ele>298.0</ele><time>2026-04-10T09:31:30Z</time></trkpt><trkpt lat="44.77441603005933" lon="7.803566185705352"><ele>298.0</ele><time>2026-04-10T09:31:35Z</time></trkpt><trkpt lat="44.77447942996558" lon="7.803593277833557"><ele>298.0</ele><time>2026-04-10T09:31:39Z</time></trkpt><trkpt lat="44.774549556104056" lon="7.80359730294538"><ele>298.0</ele><time>2026-04-10T09:31:48Z</time></trkpt><trkpt lat="44.77461622449627" lon="7.8036185949191985"><ele>298.0</ele><time>2026-04-10T09:31:54Z</time></trkpt><trkpt lat="44.774679269899906" lon="7.803644942795882"><ele>299.0</ele><time>2026-04-10T09:32:00Z</time></trkpt><trkpt lat="44.774741772048046" lon="7.803683974099898"><ele>300.0</ele><time>2026-04-10T09:32:06Z</time></trkpt><trkpt lat="44.774798334944094" lon="7.803726691395355"><ele>301.0</ele><time>2026-04-10T09:32:12Z</time></trkpt><trkpt lat="44.77485666294952" lon="7.803770962740687"><ele>302.0</ele><time>2026-04-10T09:32:17.999Z</time></trkpt><trkpt lat="44.774928471753654" lon="7.803802994744923"><ele>303.0</ele><time>2026-04-10T09:32:25.999Z</time></trkpt><trkpt lat="44.77499355121422" lon="7.803832744212729"><ele>304.0</ele><time>2026-04-10T09:32:28.999Z</time></trkpt><trkpt lat="44.77505646211356" lon="7.803869147254351"><ele>305.0</ele><time>2026-04-10T09:32:32Z</time></trkpt><trkpt lat="44.775130075648924" lon="7.803912227222338"><ele>304.83333333333337</ele><time>2026-04-10T09:32:35Z</time></trkpt><trkpt lat="44.77520444238503" lon="7.803946262879207"><ele>304.6666666666667</ele><time>2026-04-10T09:32:38Z</time></trkpt><trkpt lat="44.77528902902104" lon="7.803995737071157"><ele>304.5</ele><time>2026-04-10T09:32:41Z</time></trkpt><trkpt lat="44.77537816884383" lon="7.804027980815786"><ele>304.3333333333333</ele><time>2026-04-10T09:32:44Z</time></trkpt><trkpt lat="44.77544697642356" lon="7.804063622538514"><ele>304.16666666666663</ele><time>2026-04-10T09:32:46Z</time></trkpt><trkpt lat="44.77549367496321" lon="7.804144362692954"><ele>304.0</ele><time>2026-04-10T09:32:48Z</time></trkpt><trkpt lat="44.77547562877356" lon="7.804231629296869"><ele>304.0</ele><time>2026-04-10T09:32:50Z</time></trkpt><trkpt lat="44.77544807881688" lon="7.8043127977886675"><ele>304.0</ele><time>2026-04-10T09:32:52Z</time></trkpt><trkpt lat="44.7754054502242" lon="7.804431424723918"><ele>304.0</ele><time>2026-04-10T09:32:55Z</time></trkpt><trkpt lat="44.77538081069352" lon="7.804516962782766"><ele>304.0</ele><time>2026-04-10T09:32:57Z</time></trkpt><trkpt lat="44.775355306758556" lon="7.804603195974944"><ele>304.0</ele><time>2026-04-10T09:32:59Z</time></trkpt><trkpt lat="44.77533492208585" lon="7.804691631940106"><ele>304.0</ele><time>2026-04-10T09:33:01Z</time></trkpt><trkpt lat="44.77531840236908" lon="7.804784899396188"><ele>304.0</ele><time>2026-04-10T09:33:03Z</time></trkpt><trkpt lat="44.77530013617249" lon="7.804876965765317"><ele>304.0</ele><time>2026-04-10T09:33:05Z</time></trkpt><trkpt lat="44.775295679765044" lon="7.805009937019517"><ele>304.0</ele><time>2026-04-10T09:33:08Z</time></trkpt><trkpt lat="44.77530977157839" lon="7.805096445824914"><ele>304.0</ele><time>2026-04-10T09:33:10Z</time></trkpt><trkpt lat="44.7753258139238" lon="7.8051857709310815"><ele>304.0</ele><time>2026-04-10T09:33:12Z</time></trkpt><trkpt lat="44.775354732610985" lon="7.805266742418539"><ele>304.0</ele><time>2026-04-10T09:33:14Z</time></trkpt><trkpt lat="44.77539451171435" lon="7.805382141690418"><ele>304.0</ele><time>2026-04-10T09:33:17Z</time></trkpt><trkpt lat="44.7754303056833" lon="7.8055081862859845"><ele>304.0</ele><time>2026-04-10T09:33:20Z</time></trkpt><trkpt lat="44.77545534318314" lon="7.805591904189657"><ele>304.0</ele><time>2026-04-10T09:33:22Z</time></trkpt><trkpt lat="44.77547910192636" lon="7.8057034409925"><ele>304.0</ele><time>2026-04-10T09:33:25Z</time></trkpt><trkpt lat="44.77547278455604" lon="7.805824122857758"><ele>304.0</ele><time>2026-04-10T09:33:28Z</time></trkpt><trkpt lat="44.7754236636001" lon="7.8058823511237465"><ele>304.0</ele><time>2026-04-10T09:33:30Z</time></trkpt><trkpt lat="44.77538524764478" lon="7.805953018562363"><ele>304.0</ele><time>2026-04-10T09:33:32Z</time></trkpt><trkpt lat="44.77534645431478" lon="7.8060243801678535"><ele>304.0</ele><time>2026-04-10T09:33:34Z</time></trkpt><trkpt lat="44.7753042916133" lon="7.806102234833295"><ele>304.2857142857143</ele><time>2026-04-10T09:33:36Z</time></trkpt><trkpt lat="44.77526057033078" lon="7.806184352998833"><ele>304.5714285714286</ele><time>2026-04-10T09:33:38Z</time></trkpt><trkpt lat="44.77521648887361" lon="7.806267147651236"><ele>304.8571428571429</ele><time>2026-04-10T09:33:40Z</time></trkpt><trkpt lat="44.77517396143094" lon="7.8063470235257055"><ele>305.1428571428571</ele><time>2026-04-10T09:33:42Z</time></trkpt><trkpt lat="44.77512956555436" lon="7.806430408713766"><ele>305.42857142857144</ele><time>2026-04-10T09:33:44Z</time></trkpt><trkpt lat="44.7750842665436" lon="7.806515490238938"><ele>305.7142857142857</ele><time>2026-04-10T09:33:46Z</time></trkpt><trkpt lat="44.77504805068136" lon="7.806617497347101"><ele>306.0</ele><time>2026-04-10T09:33:48Z</time></trkpt><trkpt lat="44.774997981019375" lon="7.806715589171857"><ele>306.0</ele><time>2026-04-10T09:33:50Z</time></trkpt><trkpt lat="44.77494343250609" lon="7.806807646082615"><ele>306.0</ele><time>2026-04-10T09:33:52Z</time></trkpt><trkpt lat="44.77489123298045" lon="7.806907296353036"><ele>306.0</ele><time>2026-04-10T09:33:54Z</time></trkpt><trkpt lat="44.7748414466205" lon="7.807009266385535"><ele>306.0</ele><time>2026-04-10T09:33:56Z</time></trkpt><trkpt lat="44.774783705378944" lon="7.807104103256076"><ele>306.0</ele><time>2026-04-10T09:33:58Z</time></trkpt><trkpt lat="44.774733526998304" lon="7.8072052191858985"><ele>306.0</ele><time>2026-04-10T09:34:00Z</time></trkpt><trkpt lat="44.77468313521635" lon="7.8073021688781035"><ele>306.0</ele><time>2026-04-10T09:34:02Z</time></trkpt><trkpt lat="44.77463185686878" lon="7.807402103791945"><ele>306.0</ele><time>2026-04-10T09:34:04Z</time></trkpt><trkpt lat="44.774582980373516" lon="7.807498710862121"><ele>306.0</ele><time>2026-04-10T09:34:06Z</time></trkpt><trkpt lat="44.77453545782923" lon="7.807598240874173"><ele>306.0</ele><time>2026-04-10T09:34:08Z</time></trkpt><trkpt lat="44.77448829614599" lon="7.807698770157271"><ele>306.0</ele><time>2026-04-10T09:34:10Z</time></trkpt><trkpt lat="44.77444233910386" lon="7.8078017026954125"><ele>306.0</ele><time>2026-04-10T09:34:12Z</time></trkpt><trkpt lat="44.77439840756779" lon="7.807903601314286"><ele>306.0</ele><time>2026-04-10T09:34:14Z</time></trkpt><trkpt lat="44.774352022043416" lon="7.80800315349512"><ele>306.0</ele><time>2026-04-10T09:34:16Z</time></trkpt><trkpt lat="44.774304744745564" lon="7.8080967187034105"><ele>306.0</ele><time>2026-04-10T09:34:18Z</time></trkpt><trkpt lat="44.77426287045081" lon="7.8081996068088495"><ele>306.0</ele><time>2026-04-10T09:34:20Z</time></trkpt><trkpt lat="44.774215411518504" lon="7.808307848378422"><ele>306.0</ele><time>2026-04-10T09:34:21.999Z</time></trkpt><trkpt lat="44.77416154698118" lon="7.808419936209933"><ele>306.0</ele><time>2026-04-10T09:34:23.999Z</time></trkpt><trkpt lat="44.77409877894891" lon="7.808531953097595"><ele>306.0</ele><time>2026-04-10T09:34:25.999Z</time></trkpt><trkpt lat="44.7740340068032" lon="7.8086420581496245"><ele>306.0</ele><time>2026-04-10T09:34:27.999Z</time></trkpt><trkpt lat="44.77395644809395" lon="7.808732656573829"><ele>306.0</ele><time>2026-04-10T09:34:29.999Z</time></trkpt><trkpt lat="44.7738876765847" lon="7.808838482082643"><ele>306.0</ele><time>2026-04-10T09:34:31.999Z</time></trkpt><trkpt lat="44.77381908467023" lon="7.80894789892843"><ele>306.0</ele><time>2026-04-10T09:34:34Z</time></trkpt><trkpt lat="44.77374816526867" lon="7.809063396600563"><ele>306.0</ele><time>2026-04-10T09:34:36Z</time></trkpt><trkpt lat="44.773677282499314" lon="7.80918396021623"><ele>306.0</ele><time>2026-04-10T09:34:38Z</time></trkpt><trkpt lat="44.77361583428531" lon="7.809302429586458"><ele>306.0</ele><time>2026-04-10T09:34:40Z</time></trkpt><trkpt lat="44.773557335969606" lon="7.809431636270476"><ele>306.0</ele><time>2026-04-10T09:34:42Z</time></trkpt><trkpt lat="44.77350601397635" lon="7.809558739385156"><ele>306.0</ele><time>2026-04-10T09:34:44Z</time></trkpt><trkpt lat="44.7734563219215" lon="7.809687233373848"><ele>306.6</ele><time>2026-04-10T09:34:46Z</time></trkpt><trkpt lat="44.77341567815374" lon="7.809823029961697"><ele>307.20000000000005</ele><time>2026-04-10T09:34:48Z</time></trkpt><trkpt lat="44.77336669340721" lon="7.809950715023316"><ele>307.79999999999995</ele><time>2026-04-10T09:34:50Z</time></trkpt><trkpt lat="44.77331777564158" lon="7.810071842880853"><ele>308.4</ele><time>2026-04-10T09:34:52Z</time></trkpt><trkpt lat="44.773272503626295" lon="7.810197587457933"><ele>309.0</ele><time>2026-04-10T09:34:54Z</time></trkpt><trkpt lat="44.7732249445832" lon="7.81031820143789"><ele>309.0</ele><time>2026-04-10T09:34:56Z</time></trkpt><trkpt lat="44.77317057473976" lon="7.8104357566927725"><ele>309.0</ele><time>2026-04-10T09:34:58Z</time></trkpt><trkpt lat="44.77312261905102" lon="7.810560985654368"><ele>309.0</ele><time>2026-04-10T09:35:00Z</time></trkpt><trkpt lat="44.773077328037935" lon="7.810680624902638"><ele>309.0</ele><time>2026-04-10T09:35:02Z</time></trkpt><trkpt lat="44.77303870002983" lon="7.810803638855833"><ele>309.0</ele><time>2026-04-10T09:35:04Z</time></trkpt><trkpt lat="44.77299404640793" lon="7.810916963382869"><ele>308.8</ele><time>2026-04-10T09:35:06Z</time></trkpt><trkpt lat="44.77295174076609" lon="7.811032125208041"><ele>308.59999999999997</ele><time>2026-04-10T09:35:08Z</time></trkpt><trkpt lat="44.77291694490293" lon="7.811148990842328"><ele>308.4</ele><time>2026-04-10T09:35:10Z</time></trkpt><trkpt lat="44.772875022347584" lon="7.811260595166343"><ele>308.2</ele><time>2026-04-10T09:35:12Z</time></trkpt><trkpt lat="44.77283700546509" lon="7.811369962764993"><ele>308.0</ele><time>2026-04-10T09:35:14Z</time></trkpt><trkpt lat="44.772788963930736" lon="7.811480111105143"><ele>308.0</ele><time>2026-04-10T09:35:16Z</time></trkpt><trkpt lat="44.772756774149066" lon="7.811609125316539"><ele>308.0</ele><time>2026-04-10T09:35:18Z</time></trkpt><trkpt lat="44.77271289680418" lon="7.811725159432117"><ele>308.0</ele><time>2026-04-10T09:35:20Z</time></trkpt><trkpt lat="44.772658229581786" lon="7.811830431497768"><ele>308.0</ele><time>2026-04-10T09:35:22Z</time></trkpt><trkpt lat="44.77259086381745" lon="7.811922426363665"><ele>308.0</ele><time>2026-04-10T09:35:24Z</time></trkpt><trkpt lat="44.77251867122389" lon="7.812012657603514"><ele>308.4</ele><time>2026-04-10T09:35:26Z</time></trkpt><trkpt lat="44.77244513426204" lon="7.812100507776626"><ele>308.8</ele><time>2026-04-10T09:35:28Z</time></trkpt><trkpt lat="44.7723724202674" lon="7.812183644876706"><ele>309.2</ele><time>2026-04-10T09:35:30Z</time></trkpt><trkpt lat="44.772297139143845" lon="7.812263527905844"><ele>309.6</ele><time>2026-04-10T09:35:32Z</time></trkpt><trkpt lat="44.772220034581" lon="7.812343494978336"><ele>310.0</ele><time>2026-04-10T09:35:34Z</time></trkpt><trkpt lat="44.772144556369334" lon="7.8124243884675"><ele>310.0</ele><time>2026-04-10T09:35:36Z</time></trkpt><trkpt lat="44.77205767371202" lon="7.812493613687394"><ele>310.0</ele><time>2026-04-10T09:35:38Z</time></trkpt><trkpt lat="44.771992525828644" lon="7.812596886562317"><ele>310.0</ele><time>2026-04-10T09:35:40Z</time></trkpt><trkpt lat="44.771916816122435" lon="7.812695558669751"><ele>310.0</ele><time>2026-04-10T09:35:42Z</time></trkpt><trkpt lat="44.77184685200893" lon="7.812816386364993"><ele>310.0</ele><time>2026-04-10T09:35:44Z</time></trkpt><trkpt lat="44.771789824390474" lon="7.812963949051959"><ele>310.75</ele><time>2026-04-10T09:35:46Z</time></trkpt><trkpt lat="44.77175607040067" lon="7.813124256465237"><ele>311.5</ele><time>2026-04-10T09:35:48Z</time></trkpt><trkpt lat="44.77171202463447" lon="7.81328082052748"><ele>312.25</ele><time>2026-04-10T09:35:50Z</time></trkpt><trkpt lat="44.771699432152964" lon="7.813448356383397"><ele>313.0</ele><time>2026-04-10T09:35:52Z</time></trkpt><trkpt lat="44.771679287779754" lon="7.813613146593219"><ele>313.0</ele><time>2026-04-10T09:35:54Z</time></trkpt><trkpt lat="44.77166255877577" lon="7.813776136122243"><ele>313.0</ele><time>2026-04-10T09:35:56Z</time></trkpt><trkpt lat="44.7716660479056" lon="7.813940248327208"><ele>313.0</ele><time>2026-04-10T09:35:58Z</time></trkpt><trkpt lat="44.771688184093954" lon="7.814099967851913"><ele>313.0</ele><time>2026-04-10T09:36:00Z</time></trkpt><trkpt lat="44.77173389782691" lon="7.814248720950394"><ele>313.2</ele><time>2026-04-10T09:36:02Z</time></trkpt><trkpt lat="44.771784757538605" lon="7.814387455973651"><ele>313.4</ele><time>2026-04-10T09:36:04.001Z</time></trkpt><trkpt lat="44.771840029466794" lon="7.814523139138171"><ele>313.59999999999997</ele><time>2026-04-10T09:36:06.001Z</time></trkpt><trkpt lat="44.771871256449984" lon="7.814666651760321"><ele>313.8</ele><time>2026-04-10T09:36:08.001Z</time></trkpt><trkpt lat="44.771882567241434" lon="7.814812072448018"><ele>314.0</ele><time>2026-04-10T09:36:10.001Z</time></trkpt><trkpt lat="44.77186861700983" lon="7.814943554670012"><ele>314.0</ele><time>2026-04-10T09:36:12.001Z</time></trkpt><trkpt lat="44.77182697547954" lon="7.815049947209686"><ele>314.0</ele><time>2026-04-10T09:36:14.001Z</time></trkpt><trkpt lat="44.77177485340032" lon="7.815122287804754"><ele>314.0</ele><time>2026-04-10T09:36:16.001Z</time></trkpt><trkpt lat="44.771706615774896" lon="7.815164061444336"><ele>314.0</ele><time>2026-04-10T09:36:18.001Z</time></trkpt><trkpt lat="44.771650341363575" lon="7.81524141178154"><ele>314.0</ele><time>2026-04-10T09:36:20.001Z</time></trkpt><trkpt lat="44.771574468953844" lon="7.815287456938989"><ele>314.0</ele><time>2026-04-10T09:36:22.001Z</time></trkpt><trkpt lat="44.77151794825073" lon="7.815366308260909"><ele>314.1428571428571</ele><time>2026-04-10T09:36:24.001Z</time></trkpt><trkpt lat="44.77145404153467" lon="7.815418790494875"><ele>314.2857142857143</ele><time>2026-04-10T09:36:26.001Z</time></trkpt><trkpt lat="44.771385440629224" lon="7.815462005777017"><ele>314.42857142857144</ele><time>2026-04-10T09:36:28Z</time></trkpt><trkpt lat="44.771328749990126" lon="7.81552751113056"><ele>314.57142857142856</ele><time>2026-04-10T09:36:30Z</time></trkpt><trkpt lat="44.77126736444832" lon="7.815586990278714"><ele>314.7142857142857</ele><time>2026-04-10T09:36:32Z</time></trkpt><trkpt lat="44.771206939339166" lon="7.815644288727167"><ele>314.85714285714283</ele><time>2026-04-10T09:36:34Z</time></trkpt><trkpt lat="44.77114227025064" lon="7.815705988796278"><ele>315.0</ele><time>2026-04-10T09:36:36Z</time></trkpt><trkpt lat="44.77107460470079" lon="7.815766695026558"><ele>315.1666666666667</ele><time>2026-04-10T09:36:38Z</time></trkpt><trkpt lat="44.77101701321659" lon="7.815836853015803"><ele>315.3333333333333</ele><time>2026-04-10T09:36:40Z</time></trkpt><trkpt lat="44.77095443670353" lon="7.815912204974537"><ele>315.5</ele><time>2026-04-10T09:36:42Z</time></trkpt><trkpt lat="44.770888168014466" lon="7.815988309613678"><ele>315.66666666666663</ele><time>2026-04-10T09:36:44Z</time></trkpt><trkpt lat="44.770860223156554" lon="7.816106675510447"><ele>315.8333333333333</ele><time>2026-04-10T09:36:46Z</time></trkpt><trkpt lat="44.77086230639666" lon="7.816236497191457"><ele>316.0</ele><time>2026-04-10T09:36:48Z</time></trkpt><trkpt lat="44.770875769961314" lon="7.81636560529348"><ele>316.0</ele><time>2026-04-10T09:36:50Z</time></trkpt><trkpt lat="44.7709082586075" lon="7.8164903273859165"><ele>316.0</ele><time>2026-04-10T09:36:52Z</time></trkpt><trkpt lat="44.770945932198174" lon="7.816610253223451"><ele>316.0</ele><time>2026-04-10T09:36:54Z</time></trkpt><trkpt lat="44.77098051921608" lon="7.816725159291094"><ele>316.0</ele><time>2026-04-10T09:36:56Z</time></trkpt><trkpt lat="44.77101846333059" lon="7.816848784283935"><ele>316.0</ele><time>2026-04-10T09:36:58Z</time></trkpt><trkpt lat="44.77106376481174" lon="7.816960749099634"><ele>315.6</ele><time>2026-04-10T09:37:00Z</time></trkpt><trkpt lat="44.77110916442937" lon="7.817085749787886"><ele>315.20000000000005</ele><time>2026-04-10T09:37:02Z</time></trkpt><trkpt lat="44.77116086070855" lon="7.817204867366677"><ele>314.79999999999995</ele><time>2026-04-10T09:37:04Z</time></trkpt><trkpt lat="44.771215987953056" lon="7.817323070149956"><ele>314.4</ele><time>2026-04-10T09:37:06Z</time></trkpt><trkpt lat="44.77127147009058" lon="7.8174410029418375"><ele>314.0</ele><time>2026-04-10T09:37:08Z</time></trkpt><trkpt lat="44.77133007149093" lon="7.817557256498175"><ele>314.4</ele><time>2026-04-10T09:37:10Z</time></trkpt><trkpt lat="44.771386574994565" lon="7.817678012396092"><ele>314.79999999999995</ele><time>2026-04-10T09:37:12Z</time></trkpt><trkpt lat="44.7714404788114" lon="7.817799416268705"><ele>315.20000000000005</ele><time>2026-04-10T09:37:14Z</time></trkpt><trkpt lat="44.77149467684573" lon="7.8179233478358"><ele>315.6</ele><time>2026-04-10T09:37:16Z</time></trkpt><trkpt lat="44.77154738510867" lon="7.818049643437498"><ele>316.0</ele><time>2026-04-10T09:37:18Z</time></trkpt><trkpt lat="44.77159358755541" lon="7.818178674880793"><ele>316.0</ele><time>2026-04-10T09:37:20Z</time></trkpt><trkpt lat="44.77163311980503" lon="7.818311345873865"><ele>316.0</ele><time>2026-04-10T09:37:22Z</time></trkpt><trkpt lat="44.77166604118936" lon="7.818441270346913"><ele>316.0</ele><time>2026-04-10T09:37:24Z</time></trkpt><trkpt lat="44.771691158893184" lon="7.8185710277614975"><ele>316.0</ele><time>2026-04-10T09:37:26Z</time></trkpt><trkpt lat="44.771723985805885" lon="7.818699535981584"><ele>316.0</ele><time>2026-04-10T09:37:28Z</time></trkpt><trkpt lat="44.771742127225544" lon="7.8188342869286105"><ele>316.40000000000003</ele><time>2026-04-10T09:37:30Z</time></trkpt><trkpt lat="44.771769746998196" lon="7.818963569237947"><ele>316.8</ele><time>2026-04-10T09:37:32Z</time></trkpt><trkpt lat="44.77179551268453" lon="7.819090892214631"><ele>317.20000000000005</ele><time>2026-04-10T09:37:34Z</time></trkpt><trkpt lat="44.77182247522717" lon="7.819217045868227"><ele>317.6</ele><time>2026-04-10T09:37:36Z</time></trkpt><trkpt lat="44.771854565744135" lon="7.819339776943319"><ele>318.0</ele><time>2026-04-10T09:37:38Z</time></trkpt><trkpt lat="44.77187492167207" lon="7.8194674060298635"><ele>318.6666666666667</ele><time>2026-04-10T09:37:40Z</time></trkpt><trkpt lat="44.77190193112249" lon="7.819589537667184"><ele>319.3333333333333</ele><time>2026-04-10T09:37:42Z</time></trkpt><trkpt lat="44.771926783672306" lon="7.819710823478597"><ele>320.0</ele><time>2026-04-10T09:37:44Z</time></trkpt><trkpt lat="44.77195259864429" lon="7.819829346801593"><ele>320.66666666666663</ele><time>2026-04-10T09:37:46Z</time></trkpt><trkpt lat="44.771979958546034" lon="7.819950254582813"><ele>321.3333333333333</ele><time>2026-04-10T09:37:48Z</time></trkpt><trkpt lat="44.772006700313" lon="7.8200673097665705"><ele>322.0</ele><time>2026-04-10T09:37:50Z</time></trkpt><trkpt lat="44.77202958235497" lon="7.820188554015782"><ele>322.0</ele><time>2026-04-10T09:37:52Z</time></trkpt><trkpt lat="44.772046457181915" lon="7.820311755642998"><ele>322.0</ele><time>2026-04-10T09:37:54.001Z</time></trkpt><trkpt lat="44.77203760075536" lon="7.820431951868929"><ele>322.0</ele><time>2026-04-10T09:37:56.001Z</time></trkpt><trkpt lat="44.771992103748296" lon="7.820534134349703"><ele>322.0</ele><time>2026-04-10T09:37:58.001Z</time></trkpt><trkpt lat="44.771915078706904" lon="7.8205790054454445"><ele>322.0</ele><time>2026-04-10T09:38:00.001Z</time></trkpt><trkpt lat="44.771845620806786" lon="7.820618828988731"><ele>322.0</ele><time>2026-04-10T09:38:02.001Z</time></trkpt><trkpt lat="44.7717788149932" lon="7.820679255288644"><ele>322.0</ele><time>2026-04-10T09:38:04.001Z</time></trkpt><trkpt lat="44.77170725719611" lon="7.820717816960955"><ele>322.0</ele><time>2026-04-10T09:38:06.001Z</time></trkpt><trkpt lat="44.77164108861598" lon="7.8207751330908035"><ele>322.0</ele><time>2026-04-10T09:38:08.001Z</time></trkpt><trkpt lat="44.77159062648863" lon="7.8208392963749045"><ele>322.0</ele><time>2026-04-10T09:38:10.001Z</time></trkpt><trkpt lat="44.77155029877896" lon="7.820918112491125"><ele>322.0</ele><time>2026-04-10T09:38:12.001Z</time></trkpt><trkpt lat="44.77152613861575" lon="7.821011717748252"><ele>322.0</ele><time>2026-04-10T09:38:14.001Z</time></trkpt><trkpt lat="44.771519510148984" lon="7.821107537281255"><ele>322.0</ele><time>2026-04-10T09:38:16.001Z</time></trkpt><trkpt lat="44.7715218130232" lon="7.82120448336507"><ele>322.0</ele><time>2026-04-10T09:38:18.001Z</time></trkpt><trkpt lat="44.77153252926542" lon="7.821301900281537"><ele>322.0</ele><time>2026-04-10T09:38:20.001Z</time></trkpt><trkpt lat="44.77154400100881" lon="7.821408259666928"><ele>322.0</ele><time>2026-04-10T09:38:22.001Z</time></trkpt><trkpt lat="44.77156282814379" lon="7.82153173567924"><ele>322.0</ele><time>2026-04-10T09:38:24.001Z</time></trkpt><trkpt lat="44.771582099523094" lon="7.821665362353885"><ele>322.0</ele><time>2026-04-10T09:38:26.001Z</time></trkpt><trkpt lat="44.77160295472769" lon="7.821798279632721"><ele>322.0</ele><time>2026-04-10T09:38:28.001Z</time></trkpt><trkpt lat="44.77162147962294" lon="7.82193661224035"><ele>321.8</ele><time>2026-04-10T09:38:30.001Z</time></trkpt><trkpt lat="44.77163652163289" lon="7.8220775784263"><ele>321.6</ele><time>2026-04-10T09:38:32.001Z</time></trkpt><trkpt lat="44.77165591657293" lon="7.822216941597709"><ele>321.40000000000003</ele><time>2026-04-10T09:38:34Z</time></trkpt><trkpt lat="44.77167280562116" lon="7.822364133981874"><ele>321.20000000000005</ele><time>2026-04-10T09:38:36Z</time></trkpt><trkpt lat="44.77168910753846" lon="7.822505294473858"><ele>321.0</ele><time>2026-04-10T09:38:38Z</time></trkpt><trkpt lat="44.77170233702303" lon="7.822645868694481"><ele>321.6</ele><time>2026-04-10T09:38:40Z</time></trkpt><trkpt lat="44.7717140990228" lon="7.822789178782401"><ele>322.20000000000005</ele><time>2026-04-10T09:38:42Z</time></trkpt><trkpt lat="44.77172409598076" lon="7.822923985430847"><ele>322.79999999999995</ele><time>2026-04-10T09:38:44Z</time></trkpt><trkpt lat="44.77172558756486" lon="7.823059347120159"><ele>323.4</ele><time>2026-04-10T09:38:46Z</time></trkpt><trkpt lat="44.77171005770503" lon="7.82319241225127"><ele>324.0</ele><time>2026-04-10T09:38:48Z</time></trkpt><trkpt lat="44.77169123183856" lon="7.823322827236044"><ele>324.0</ele><time>2026-04-10T09:38:50Z</time></trkpt><trkpt lat="44.77166440665842" lon="7.823451095314588"><ele>324.0</ele><time>2026-04-10T09:38:52Z</time></trkpt><trkpt lat="44.77163783023893" lon="7.823575079867991"><ele>324.0</ele><time>2026-04-10T09:38:54Z</time></trkpt><trkpt lat="44.77161431502529" lon="7.823696792267282"><ele>324.0</ele><time>2026-04-10T09:38:56Z</time></trkpt><trkpt lat="44.771606015369116" lon="7.823820604771882"><ele>324.0</ele><time>2026-04-10T09:38:58Z</time></trkpt><trkpt lat="44.77158162954198" lon="7.823938565023698"><ele>323.8333333333333</ele><time>2026-04-10T09:39:00Z</time></trkpt><trkpt lat="44.771552087798476" lon="7.824052907262026"><ele>323.6666666666667</ele><time>2026-04-10T09:39:02Z</time></trkpt><trkpt lat="44.771520774670265" lon="7.824169265951324"><ele>323.5</ele><time>2026-04-10T09:39:04Z</time></trkpt><trkpt lat="44.771483528219626" lon="7.824283862289367"><ele>323.33333333333337</ele><time>2026-04-10T09:39:06Z</time></trkpt><trkpt lat="44.77144237562205" lon="7.824399266738881"><ele>323.1666666666667</ele><time>2026-04-10T09:39:08Z</time></trkpt><trkpt lat="44.77139926612678" lon="7.824508469591523"><ele>323.0</ele><time>2026-04-10T09:39:10Z</time></trkpt><trkpt lat="44.7713531454663" lon="7.824619204617469"><ele>323.0</ele><time>2026-04-10T09:39:12Z</time></trkpt><trkpt lat="44.771305153713435" lon="7.824725660861229"><ele>323.0</ele><time>2026-04-10T09:39:14Z</time></trkpt><trkpt lat="44.77123958669301" lon="7.82482359090891"><ele>323.0</ele><time>2026-04-10T09:39:16Z</time></trkpt><trkpt lat="44.77118157568306" lon="7.824930084739867"><ele>323.0</ele><time>2026-04-10T09:39:18Z</time></trkpt><trkpt lat="44.77112322793221" lon="7.825035801309215"><ele>323.0</ele><time>2026-04-10T09:39:20Z</time></trkpt><trkpt lat="44.77108080638697" lon="7.8251500617374505"><ele>323.0</ele><time>2026-04-10T09:39:22Z</time></trkpt><trkpt lat="44.771030036377425" lon="7.825258881864753"><ele>323.0</ele><time>2026-04-10T09:39:24Z</time></trkpt><trkpt lat="44.77098840980613" lon="7.825369654453401"><ele>323.0</ele><time>2026-04-10T09:39:26Z</time></trkpt><trkpt lat="44.770948853349616" lon="7.825486998225953"><ele>323.0</ele><time>2026-04-10T09:39:28Z</time></trkpt><trkpt lat="44.770908984561274" lon="7.825598125920186"><ele>323.0</ele><time>2026-04-10T09:39:30Z</time></trkpt><trkpt lat="44.77085973463578" lon="7.825685370426258"><ele>323.0</ele><time>2026-04-10T09:39:32Z</time></trkpt><trkpt lat="44.77080422992404" lon="7.8257527917397045"><ele>323.42857142857144</ele><time>2026-04-10T09:39:34Z</time></trkpt><trkpt lat="44.77074843551362" lon="7.825809116376985"><ele>323.8571428571429</ele><time>2026-04-10T09:39:36Z</time></trkpt><trkpt lat="44.770694276746504" lon="7.825862517668704"><ele>324.28571428571433</ele><time>2026-04-10T09:39:38Z</time></trkpt><trkpt lat="44.770629489243234" lon="7.825869829406238"><ele>324.7142857142857</ele><time>2026-04-10T09:39:40Z</time></trkpt><trkpt lat="44.770560765251616" lon="7.8258955530259415"><ele>325.1428571428571</ele><time>2026-04-10T09:39:42Z</time></trkpt><trkpt lat="44.77048374771471" lon="7.825914740242063"><ele>325.5714285714286</ele><time>2026-04-10T09:39:44Z</time></trkpt><trkpt lat="44.77040608455789" lon="7.825930611568379"><ele>326.0</ele><time>2026-04-10T09:39:46Z</time></trkpt><trkpt lat="44.7703280304264" lon="7.8259696650492545"><ele>326.33333333333337</ele><time>2026-04-10T09:39:48Z</time></trkpt><trkpt lat="44.770246758764" lon="7.825985539971774"><ele>326.6666666666667</ele><time>2026-04-10T09:39:50.001Z</time></trkpt><trkpt lat="44.7701650356178" lon="7.825998279783244"><ele>327.0</ele><time>2026-04-10T09:39:52.001Z</time></trkpt><trkpt lat="44.770080158219336" lon="7.826011159671875"><ele>327.3333333333333</ele><time>2026-04-10T09:39:54.001Z</time></trkpt><trkpt lat="44.76999604772025" lon="7.826030750044136"><ele>327.66666666666663</ele><time>2026-04-10T09:39:56.001Z</time></trkpt><trkpt lat="44.76991250259602" lon="7.826046596518538"><ele>328.0</ele><time>2026-04-10T09:39:58.001Z</time></trkpt><trkpt lat="44.76982849592345" lon="7.826066781060722"><ele>328.16666666666663</ele><time>2026-04-10T09:40:00.001Z</time></trkpt><trkpt lat="44.769744786166214" lon="7.826082171844077"><ele>328.3333333333333</ele><time>2026-04-10T09:40:02.001Z</time></trkpt><trkpt lat="44.76966140076349" lon="7.826097352788384"><ele>328.5</ele><time>2026-04-10T09:40:04.001Z</time></trkpt><trkpt lat="44.76957602529674" lon="7.826111145803325"><ele>328.6666666666667</ele><time>2026-04-10T09:40:06.001Z</time></trkpt><trkpt lat="44.769492731995186" lon="7.826125693892863"><ele>328.83333333333337</ele><time>2026-04-10T09:40:08.001Z</time></trkpt><trkpt lat="44.769410061895336" lon="7.8261438975655775"><ele>329.0</ele><time>2026-04-10T09:40:10.001Z</time></trkpt><trkpt lat="44.76932313234017" lon="7.826135127820718"><ele>329.1666666666667</ele><time>2026-04-10T09:40:12.001Z</time></trkpt><trkpt lat="44.76923734941283" lon="7.82615113466853"><ele>329.33333333333337</ele><time>2026-04-10T09:40:14.001Z</time></trkpt><trkpt lat="44.76915621063447" lon="7.82618985964435"><ele>329.5</ele><time>2026-04-10T09:40:16.001Z</time></trkpt><trkpt lat="44.76907238945475" lon="7.8262079509797005"><ele>329.6666666666667</ele><time>2026-04-10T09:40:18.001Z</time></trkpt><trkpt lat="44.76899381114231" lon="7.826244268154476"><ele>329.8333333333333</ele><time>2026-04-10T09:40:20.001Z</time></trkpt><trkpt lat="44.76892946775085" lon="7.826314031660668"><ele>330.0</ele><time>2026-04-10T09:40:22.001Z</time></trkpt><trkpt lat="44.7688906173058" lon="7.8264164282673665"><ele>330.0</ele><time>2026-04-10T09:40:24.001Z</time></trkpt><trkpt lat="44.76884119832397" lon="7.826502635827317"><ele>330.0</ele><time>2026-04-10T09:40:26.001Z</time></trkpt><trkpt lat="44.76889675729716" lon="7.826590322289919"><ele>330.0</ele><time>2026-04-10T09:40:27.001Z</time></trkpt><trkpt lat="44.768945615165066" lon="7.826678098619802"><ele>330.0</ele><time>2026-04-10T09:40:29.001Z</time></trkpt><trkpt lat="44.76899455256223" lon="7.826766791616807"><ele>330.0</ele><time>2026-04-10T09:40:31.001Z</time></trkpt><trkpt lat="44.76904019433012" lon="7.826860851389212"><ele>330.0</ele><time>2026-04-10T09:40:33.001Z</time></trkpt><trkpt lat="44.76908317677779" lon="7.826953906919247"><ele>330.1666666666667</ele><time>2026-04-10T09:40:35.001Z</time></trkpt><trkpt lat="44.76912237241686" lon="7.827048713911902"><ele>330.3333333333333</ele><time>2026-04-10T09:40:37.001Z</time></trkpt><trkpt lat="44.76915719518554" lon="7.8271517625757445"><ele>330.5</ele><time>2026-04-10T09:40:39.001Z</time></trkpt><trkpt lat="44.769191711861026" lon="7.827254801647224"><ele>330.66666666666663</ele><time>2026-04-10T09:40:41Z</time></trkpt><trkpt lat="44.76921233158191" lon="7.827358510240083"><ele>330.8333333333333</ele><time>2026-04-10T09:40:43Z</time></trkpt><trkpt lat="44.76922930275698" lon="7.827457802661508"><ele>331.0</ele><time>2026-04-10T09:40:45Z</time></trkpt><trkpt lat="44.76923840536773" lon="7.827560986880728"><ele>330.8333333333333</ele><time>2026-04-10T09:40:47Z</time></trkpt><trkpt lat="44.769253744589484" lon="7.827649453082046"><ele>330.66666666666663</ele><time>2026-04-10T09:40:49Z</time></trkpt><trkpt lat="44.76926066526207" lon="7.8277481333611645"><ele>330.5</ele><time>2026-04-10T09:40:51Z</time></trkpt><trkpt lat="44.769280032627236" lon="7.827858193609454"><ele>330.3333333333333</ele><time>2026-04-10T09:40:53Z</time></trkpt><trkpt lat="44.769281666761195" lon="7.8279874043768585"><ele>330.1666666666667</ele><time>2026-04-10T09:40:55Z</time></trkpt><trkpt lat="44.76930060732732" lon="7.828132279037107"><ele>330.0</ele><time>2026-04-10T09:40:57Z</time></trkpt><trkpt lat="44.769324482694564" lon="7.828280953728588"><ele>330.0</ele><time>2026-04-10T09:40:59Z</time></trkpt><trkpt lat="44.76935285681982" lon="7.82843646014077"><ele>330.0</ele><time>2026-04-10T09:41:01Z</time></trkpt><trkpt lat="44.76938234027238" lon="7.828591174555749"><ele>330.0</ele><time>2026-04-10T09:41:03Z</time></trkpt><trkpt lat="44.76941278025249" lon="7.828750617020544"><ele>330.0</ele><time>2026-04-10T09:41:05Z</time></trkpt><trkpt lat="44.769453253613314" lon="7.82890492387423"><ele>329.6</ele><time>2026-04-10T09:41:07Z</time></trkpt><trkpt lat="44.76948599961484" lon="7.829060346861153"><ele>329.2</ele><time>2026-04-10T09:41:09Z</time></trkpt><trkpt lat="44.769513684821376" lon="7.829213664427793"><ele>328.79999999999995</ele><time>2026-04-10T09:41:11Z</time></trkpt><trkpt lat="44.769544007806395" lon="7.829362245748125"><ele>328.4</ele><time>2026-04-10T09:41:13Z</time></trkpt><trkpt lat="44.7695671025176" lon="7.829506561230176"><ele>328.0</ele><time>2026-04-10T09:41:15Z</time></trkpt><trkpt lat="44.76958640843262" lon="7.82964856772363"><ele>328.0</ele><time>2026-04-10T09:41:17Z</time></trkpt><trkpt lat="44.7696053799449" lon="7.829779946052427"><ele>328.0</ele><time>2026-04-10T09:41:19Z</time></trkpt><trkpt lat="44.76962524942596" lon="7.829916055572882"><ele>328.0</ele><time>2026-04-10T09:41:21Z</time></trkpt><trkpt lat="44.769643476956986" lon="7.830053935585134"><ele>328.0</ele><time>2026-04-10T09:41:23Z</time></trkpt><trkpt lat="44.769661335089154" lon="7.83018536539801"><ele>328.0</ele><time>2026-04-10T09:41:25Z</time></trkpt><trkpt lat="44.76966750800571" lon="7.830319723551992"><ele>328.3333333333333</ele><time>2026-04-10T09:41:27Z</time></trkpt><trkpt lat="44.76966322208274" lon="7.830449249174848"><ele>328.66666666666663</ele><time>2026-04-10T09:41:29Z</time></trkpt><trkpt lat="44.769629482692665" lon="7.830565387072241"><ele>329.0</ele><time>2026-04-10T09:41:31Z</time></trkpt><trkpt lat="44.7695742473788" lon="7.830655587248487"><ele>329.3333333333333</ele><time>2026-04-10T09:41:33Z</time></trkpt><trkpt lat="44.769501918847844" lon="7.830718918290375"><ele>329.6666666666667</ele><time>2026-04-10T09:41:35Z</time></trkpt><trkpt lat="44.769436711876864" lon="7.830757626614498"><ele>330.0</ele><time>2026-04-10T09:41:37Z</time></trkpt><trkpt lat="44.769364094646996" lon="7.830802086419264"><ele>329.8333333333333</ele><time>2026-04-10T09:41:39Z</time></trkpt><trkpt lat="44.769291052093934" lon="7.830837220465685"><ele>329.6666666666667</ele><time>2026-04-10T09:41:41Z</time></trkpt><trkpt lat="44.76921783399559" lon="7.83088009789828"><ele>329.5</ele><time>2026-04-10T09:41:43Z</time></trkpt><trkpt lat="44.769143135747925" lon="7.830919761084086"><ele>329.33333333333337</ele><time>2026-04-10T09:41:45Z</time></trkpt><trkpt lat="44.76906707814443" lon="7.830968723623681"><ele>329.1666666666667</ele><time>2026-04-10T09:41:47Z</time></trkpt><trkpt lat="44.76899114914283" lon="7.831012938535384"><ele>329.0</ele><time>2026-04-10T09:41:49Z</time></trkpt><trkpt lat="44.76891661226444" lon="7.831066117567097"><ele>329.0</ele><time>2026-04-10T09:41:51.001Z</time></trkpt><trkpt lat="44.76883971772457" lon="7.83111461724989"><ele>329.0</ele><time>2026-04-10T09:41:53.001Z</time></trkpt><trkpt lat="44.76876351210878" lon="7.831154779187878"><ele>329.0</ele><time>2026-04-10T09:41:55.001Z</time></trkpt><trkpt lat="44.76869136581866" lon="7.831202166658162"><ele>329.0</ele><time>2026-04-10T09:41:57.001Z</time></trkpt><trkpt lat="44.768619905999124" lon="7.831251607901678"><ele>329.0</ele><time>2026-04-10T09:41:59.001Z</time></trkpt><trkpt lat="44.768547463707826" lon="7.831287103711272"><ele>329.0</ele><time>2026-04-10T09:42:01.001Z</time></trkpt><trkpt lat="44.768477248339344" lon="7.831343756050509"><ele>329.33333333333337</ele><time>2026-04-10T09:42:03.001Z</time></trkpt><trkpt lat="44.76840053659402" lon="7.831395271084323"><ele>329.6666666666667</ele><time>2026-04-10T09:42:05.001Z</time></trkpt><trkpt lat="44.76832471618705" lon="7.831445014218753"><ele>330.0</ele><time>2026-04-10T09:42:07.001Z</time></trkpt><trkpt lat="44.768251257771716" lon="7.8315003064041555"><ele>330.3333333333333</ele><time>2026-04-10T09:42:09.001Z</time></trkpt><trkpt lat="44.76818067223855" lon="7.831554812193243"><ele>330.66666666666663</ele><time>2026-04-10T09:42:11.001Z</time></trkpt><trkpt lat="44.76811236096183" lon="7.831610724537918"><ele>331.0</ele><time>2026-04-10T09:42:13.001Z</time></trkpt><trkpt lat="44.76804994666245" lon="7.831680084303076"><ele>331.0</ele><time>2026-04-10T09:42:15.001Z</time></trkpt><trkpt lat="44.76798166244124" lon="7.831741436787896"><ele>331.0</ele><time>2026-04-10T09:42:17.001Z</time></trkpt><trkpt lat="44.76792099807643" lon="7.831814516099854"><ele>331.0</ele><time>2026-04-10T09:42:19.001Z</time></trkpt><trkpt lat="44.767859392217744" lon="7.83188964119547"><ele>331.0</ele><time>2026-04-10T09:42:21.001Z</time></trkpt><trkpt lat="44.76779436692843" lon="7.831971025807754"><ele>331.0</ele><time>2026-04-10T09:42:23.001Z</time></trkpt><trkpt lat="44.76773504124771" lon="7.832057037443121"><ele>331.0</ele><time>2026-04-10T09:42:25.001Z</time></trkpt><trkpt lat="44.76768050422305" lon="7.832138257175815"><ele>331.3333333333333</ele><time>2026-04-10T09:42:27.001Z</time></trkpt><trkpt lat="44.767621645397654" lon="7.832229001999305"><ele>331.66666666666663</ele><time>2026-04-10T09:42:29.001Z</time></trkpt><trkpt lat="44.76756087628624" lon="7.8323140933249915"><ele>332.0</ele><time>2026-04-10T09:42:31.001Z</time></trkpt><trkpt lat="44.767506242919275" lon="7.832403869828076"><ele>332.3333333333333</ele><time>2026-04-10T09:42:33.001Z</time></trkpt><trkpt lat="44.76744720205431" lon="7.832489358823112"><ele>332.6666666666667</ele><time>2026-04-10T09:42:35.001Z</time></trkpt><trkpt lat="44.76738495320916" lon="7.832569235087241"><ele>333.0</ele><time>2026-04-10T09:42:37.001Z</time></trkpt><trkpt lat="44.76732231606599" lon="7.83265643836835"><ele>333.2</ele><time>2026-04-10T09:42:39.001Z</time></trkpt><trkpt lat="44.767271238947245" lon="7.832761284942151"><ele>333.4</ele><time>2026-04-10T09:42:41.001Z</time></trkpt><trkpt lat="44.767228455990704" lon="7.832875839476856"><ele>333.59999999999997</ele><time>2026-04-10T09:42:43.001Z</time></trkpt><trkpt lat="44.76720552202871" lon="7.833007257317319"><ele>333.79999999999995</ele><time>2026-04-10T09:42:45.001Z</time></trkpt><trkpt lat="44.76721352907775" lon="7.833142361877785"><ele>334.0</ele><time>2026-04-10T09:42:46.999Z</time></trkpt><trkpt lat="44.76723400161151" lon="7.833280676557347"><ele>334.0</ele><time>2026-04-10T09:42:48.999Z</time></trkpt><trkpt lat="44.76726118972303" lon="7.833419973810811"><ele>334.0</ele><time>2026-04-10T09:42:50.999Z</time></trkpt><trkpt lat="44.767272847970546" lon="7.8335520702332495"><ele>334.0</ele><time>2026-04-10T09:42:52.999Z</time></trkpt><trkpt lat="44.767281912697904" lon="7.83369255712429"><ele>334.0</ele><time>2026-04-10T09:42:54.999Z</time></trkpt><trkpt lat="44.767285200142446" lon="7.833836614625673"><ele>334.0</ele><time>2026-04-10T09:42:56.999Z</time></trkpt><trkpt lat="44.767287126582154" lon="7.833970378541228"><ele>334.6</ele><time>2026-04-10T09:42:58.999Z</time></trkpt><trkpt lat="44.767286911605765" lon="7.834118991330552"><ele>335.2</ele><time>2026-04-10T09:43:01Z</time></trkpt><trkpt lat="44.76728150352419" lon="7.834252613997424"><ele>335.8</ele><time>2026-04-10T09:43:03Z</time></trkpt><trkpt lat="44.767274226278516" lon="7.834391966427006"><ele>336.40000000000003</ele><time>2026-04-10T09:43:05Z</time></trkpt><trkpt lat="44.76726533264383" lon="7.834521809051534"><ele>337.0</ele><time>2026-04-10T09:43:07Z</time></trkpt><trkpt lat="44.767253054064554" lon="7.834656074423956"><ele>337.0</ele><time>2026-04-10T09:43:09Z</time></trkpt><trkpt lat="44.767240577736395" lon="7.834786918226028"><ele>337.0</ele><time>2026-04-10T09:43:11Z</time></trkpt><trkpt lat="44.767229150990886" lon="7.83491013586829"><ele>337.0</ele><time>2026-04-10T09:43:13Z</time></trkpt><trkpt lat="44.7672228012328" lon="7.835029911398533"><ele>337.0</ele><time>2026-04-10T09:43:15Z</time></trkpt><trkpt lat="44.76721572174743" lon="7.835149338317249"><ele>337.0</ele><time>2026-04-10T09:43:17Z</time></trkpt><trkpt lat="44.76721294650196" lon="7.835274662386728"><ele>337.0</ele><time>2026-04-10T09:43:19Z</time></trkpt><trkpt lat="44.76719754268305" lon="7.835397983863152"><ele>337.0</ele><time>2026-04-10T09:43:21Z</time></trkpt><trkpt lat="44.76718621493468" lon="7.835522621834307"><ele>337.0</ele><time>2026-04-10T09:43:23Z</time></trkpt><trkpt lat="44.76717294433583" lon="7.835650216399523"><ele>337.0</ele><time>2026-04-10T09:43:25Z</time></trkpt><trkpt lat="44.76715800399702" lon="7.835777547722456"><ele>337.0</ele><time>2026-04-10T09:43:27Z</time></trkpt><trkpt lat="44.767144497538766" lon="7.835907367231768"><ele>337.0</ele><time>2026-04-10T09:43:29Z</time></trkpt><trkpt lat="44.76712866178189" lon="7.836029528212724"><ele>337.0</ele><time>2026-04-10T09:43:31Z</time></trkpt><trkpt lat="44.76711325510911" lon="7.836153644128734"><ele>337.0</ele><time>2026-04-10T09:43:33Z</time></trkpt><trkpt lat="44.767107691621476" lon="7.836284653515568"><ele>337.0</ele><time>2026-04-10T09:43:35Z</time></trkpt><trkpt lat="44.76709903033407" lon="7.836421003109855"><ele>337.0</ele><time>2026-04-10T09:43:37Z</time></trkpt><trkpt lat="44.767096629720506" lon="7.836555701463608"><ele>337.0</ele><time>2026-04-10T09:43:39Z</time></trkpt><trkpt lat="44.767094111506154" lon="7.83667557621732"><ele>336.66666666666663</ele><time>2026-04-10T09:43:41Z</time></trkpt><trkpt lat="44.76708707810949" lon="7.836809350187402"><ele>336.3333333333333</ele><time>2026-04-10T09:43:43Z</time></trkpt><trkpt lat="44.7671090044888" lon="7.836919048141278"><ele>336.0</ele><time>2026-04-10T09:43:45Z</time></trkpt><trkpt lat="44.76713474358395" lon="7.837013023370052"><ele>335.6666666666667</ele><time>2026-04-10T09:43:47Z</time></trkpt><trkpt lat="44.767172008184964" lon="7.837098236600477"><ele>335.33333333333337</ele><time>2026-04-10T09:43:49Z</time></trkpt><trkpt lat="44.76721880441284" lon="7.837175919654915"><ele>335.0</ele><time>2026-04-10T09:43:51Z</time></trkpt><trkpt lat="44.76726157158133" lon="7.8372652582545985"><ele>335.0</ele><time>2026-04-10T09:43:53Z</time></trkpt><trkpt lat="44.76730229016772" lon="7.837365778884839"><ele>335.0</ele><time>2026-04-10T09:43:55Z</time></trkpt><trkpt lat="44.767338092476884" lon="7.837494849064189"><ele>335.0</ele><time>2026-04-10T09:43:57Z</time></trkpt><trkpt lat="44.76738604576237" lon="7.8376114966185515"><ele>335.0</ele><time>2026-04-10T09:43:59Z</time></trkpt><trkpt lat="44.767445998620126" lon="7.837730050709784"><ele>335.0</ele><time>2026-04-10T09:44:01.001Z</time></trkpt><trkpt lat="44.767502988882256" lon="7.837847544886584"><ele>334.6</ele><time>2026-04-10T09:44:03.001Z</time></trkpt><trkpt lat="44.76756181909426" lon="7.8379575587468135"><ele>334.2</ele><time>2026-04-10T09:44:05.001Z</time></trkpt><trkpt lat="44.76762289747602" lon="7.838070787613056"><ele>333.79999999999995</ele><time>2026-04-10T09:44:07.001Z</time></trkpt><trkpt lat="44.767689162207006" lon="7.838164357508566"><ele>333.4</ele><time>2026-04-10T09:44:09.001Z</time></trkpt><trkpt lat="44.767759471546704" lon="7.8382552975207265"><ele>333.0</ele><time>2026-04-10T09:44:11.001Z</time></trkpt><trkpt lat="44.76784619365216" lon="7.8383532989889435"><ele>332.1666666666667</ele><time>2026-04-10T09:44:13.001Z</time></trkpt><trkpt lat="44.767945671272344" lon="7.838466363808498"><ele>331.3333333333333</ele><time>2026-04-10T09:44:15.001Z</time></trkpt><trkpt lat="44.76800130501316" lon="7.838519198501547"><ele>330.5</ele><time>2026-04-10T09:44:16.001Z</time></trkpt><trkpt lat="44.76805543864199" lon="7.838580213798773"><ele>329.66666666666663</ele><time>2026-04-10T09:44:17.001Z</time></trkpt><trkpt lat="44.76811788225695" lon="7.8386324553243165"><ele>328.8333333333333</ele><time>2026-04-10T09:44:18.001Z</time></trkpt><trkpt lat="44.76817937157505" lon="7.838693920051702"><ele>328.0</ele><time>2026-04-10T09:44:19.001Z</time></trkpt><trkpt lat="44.76824016707613" lon="7.838758747603901"><ele>327.99999999999994</ele><time>2026-04-10T09:44:20.001Z</time></trkpt><trkpt lat="44.76830728891751" lon="7.838825760091938"><ele>328.0</ele><time>2026-04-10T09:44:21.001Z</time></trkpt><trkpt lat="44.76836605058005" lon="7.838896607125254"><ele>328.0</ele><time>2026-04-10T09:44:22.001Z</time></trkpt><trkpt lat="44.76840489033915" lon="7.838976227916615"><ele>328.0</ele><time>2026-04-10T09:44:23.001Z</time></trkpt><trkpt lat="44.768425930575184" lon="7.8390690632965185"><ele>328.0</ele><time>2026-04-10T09:44:24.001Z</time></trkpt><trkpt lat="44.768424760208184" lon="7.839162718821243"><ele>327.99999999999994</ele><time>2026-04-10T09:44:25.001Z</time></trkpt><trkpt lat="44.76840951372329" lon="7.83926002405452"><ele>328.0</ele><time>2026-04-10T09:44:26.001Z</time></trkpt><trkpt lat="44.76837154382264" lon="7.839425763598011"><ele>328.66666666666663</ele><time>2026-04-10T09:44:28.001Z</time></trkpt><trkpt lat="44.76835146555436" lon="7.839569821224726"><ele>329.3333333333333</ele><time>2026-04-10T09:44:30.001Z</time></trkpt><trkpt lat="44.76833278450148" lon="7.839682878522555"><ele>330.0</ele><time>2026-04-10T09:44:32.001Z</time></trkpt><trkpt lat="44.76831943023888" lon="7.839803955664467"><ele>330.6666666666667</ele><time>2026-04-10T09:44:34.001Z</time></trkpt><trkpt lat="44.76829259226251" lon="7.839917673445523"><ele>331.33333333333337</ele><time>2026-04-10T09:44:36.001Z</time></trkpt><trkpt lat="44.76825478458285" lon="7.840013612875325"><ele>332.0</ele><time>2026-04-10T09:44:38.001Z</time></trkpt><trkpt lat="44.76822287504859" lon="7.840106553791739"><ele>332.5</ele><time>2026-04-10T09:44:40.001Z</time></trkpt><trkpt lat="44.76818453417014" lon="7.840189085163374"><ele>333.0</ele><time>2026-04-10T09:44:42.001Z</time></trkpt><trkpt lat="44.76814879858536" lon="7.840293327284503"><ele>333.5</ele><time>2026-04-10T09:44:44.001Z</time></trkpt><trkpt lat="44.76809216509415" lon="7.840382342781525"><ele>334.0</ele><time>2026-04-10T09:44:46.001Z</time></trkpt><trkpt lat="44.76803185708354" lon="7.840471025247971"><ele>334.5</ele><time>2026-04-10T09:44:48.001Z</time></trkpt><trkpt lat="44.767979123239805" lon="7.840556946586788"><ele>335.0</ele><time>2026-04-10T09:44:50.001Z</time></trkpt><trkpt lat="44.76792032677748" lon="7.840653314759726"><ele>335.0</ele><time>2026-04-10T09:44:51.999Z</time></trkpt><trkpt lat="44.767863653827426" lon="7.8407489577514164"><ele>335.0</ele><time>2026-04-10T09:44:53.999Z</time></trkpt><trkpt lat="44.76779559729713" lon="7.840808551042778"><ele>335.0</ele><time>2026-04-10T09:44:55.999Z</time></trkpt><trkpt lat="44.76773828067763" lon="7.840892534912773"><ele>335.0</ele><time>2026-04-10T09:44:57.999Z</time></trkpt><trkpt lat="44.76769938518052" lon="7.8409821175269965"><ele>335.0</ele><time>2026-04-10T09:44:59.999Z</time></trkpt><trkpt lat="44.76766999073474" lon="7.841093850238848"><ele>335.0</ele><time>2026-04-10T09:45:01.999Z</time></trkpt><trkpt lat="44.76763897591147" lon="7.841194765713046"><ele>335.5</ele><time>2026-04-10T09:45:03.999Z</time></trkpt><trkpt lat="44.76762177349248" lon="7.8412999072395815"><ele>336.0</ele><time>2026-04-10T09:45:05.999Z</time></trkpt><trkpt lat="44.76762129297153" lon="7.841412088134208"><ele>336.5</ele><time>2026-04-10T09:45:08Z</time></trkpt><trkpt lat="44.76762444522154" lon="7.841522699348708"><ele>337.0</ele><time>2026-04-10T09:45:10Z</time></trkpt><trkpt lat="44.767616806778626" lon="7.841629969285781"><ele>337.5</ele><time>2026-04-10T09:45:12Z</time></trkpt><trkpt lat="44.767632794998626" lon="7.841737335496833"><ele>338.0</ele><time>2026-04-10T09:45:14Z</time></trkpt><trkpt lat="44.76765387843206" lon="7.841833020060894"><ele>338.0</ele><time>2026-04-10T09:45:16Z</time></trkpt><trkpt lat="44.767676052964774" lon="7.84192165659672"><ele>338.0</ele><time>2026-04-10T09:45:18Z</time></trkpt><trkpt lat="44.76771169895083" lon="7.842023846125752"><ele>338.0</ele><time>2026-04-10T09:45:21Z</time></trkpt><trkpt lat="44.76774244087901" lon="7.842135075203342"><ele>338.0</ele><time>2026-04-10T09:45:24Z</time></trkpt><trkpt lat="44.76777290599187" lon="7.842245175898995"><ele>338.0</ele><time>2026-04-10T09:45:27Z</time></trkpt><trkpt lat="44.76781113795982" lon="7.842342013300399"><ele>338.0</ele><time>2026-04-10T09:45:30Z</time></trkpt><trkpt lat="44.76784881806566" lon="7.842448957894659"><ele>338.0</ele><time>2026-04-10T09:45:33Z</time></trkpt><trkpt lat="44.767883029059455" lon="7.842560149280911"><ele>338.0</ele><time>2026-04-10T09:45:36Z</time></trkpt><trkpt lat="44.767915833244146" lon="7.8426676032965235"><ele>338.0</ele><time>2026-04-10T09:45:39Z</time></trkpt><trkpt lat="44.767943617801194" lon="7.842772702091934"><ele>338.0</ele><time>2026-04-10T09:45:42Z</time></trkpt><trkpt lat="44.76796389479421" lon="7.842886221527293"><ele>338.0</ele><time>2026-04-10T09:45:45Z</time></trkpt><trkpt lat="44.76795138490718" lon="7.842996272367202"><ele>338.0</ele><time>2026-04-10T09:45:48Z</time></trkpt><trkpt lat="44.76791027207117" lon="7.843096557203936"><ele>338.1666666666667</ele><time>2026-04-10T09:45:51Z</time></trkpt><trkpt lat="44.767859169312025" lon="7.843176543242929"><ele>338.33333333333337</ele><time>2026-04-10T09:45:54Z</time></trkpt><trkpt lat="44.76779813428536" lon="7.843257195615955"><ele>338.5</ele><time>2026-04-10T09:45:57Z</time></trkpt><trkpt lat="44.7677326364333" lon="7.843338383505234"><ele>338.6666666666667</ele><time>2026-04-10T09:46:00.001Z</time></trkpt><trkpt lat="44.76765739341516" lon="7.843412173948761"><ele>338.8333333333333</ele><time>2026-04-10T09:46:03.001Z</time></trkpt><trkpt lat="44.7675890032274" lon="7.843477069368932"><ele>339.0</ele><time>2026-04-10T09:46:06.001Z</time></trkpt><trkpt lat="44.767522512899035" lon="7.843539957857997"><ele>339.3333333333333</ele><time>2026-04-10T09:46:09.001Z</time></trkpt><trkpt lat="44.76744870205283" lon="7.843599922806582"><ele>339.6666666666667</ele><time>2026-04-10T09:46:12.001Z</time></trkpt><trkpt lat="44.767374026006884" lon="7.843676408189893"><ele>340.0</ele><time>2026-04-10T09:46:15.001Z</time></trkpt><trkpt lat="44.76729768860018" lon="7.843762083360043"><ele>340.33333333333337</ele><time>2026-04-10T09:46:18.001Z</time></trkpt><trkpt lat="44.76722938450119" lon="7.843840041137307"><ele>340.6666666666667</ele><time>2026-04-10T09:46:21.001Z</time></trkpt><trkpt lat="44.7671579845692" lon="7.843897598857994"><ele>341.0</ele><time>2026-04-10T09:46:24.001Z</time></trkpt><trkpt lat="44.76708712538147" lon="7.843973358501811"><ele>341.0</ele><time>2026-04-10T09:46:27.001Z</time></trkpt><trkpt lat="44.76701290768575" lon="7.844038744588452"><ele>341.0</ele><time>2026-04-10T09:46:30.001Z</time></trkpt><trkpt lat="44.76694430379077" lon="7.844110621664126"><ele>341.0</ele><time>2026-04-10T09:46:33.001Z</time></trkpt><trkpt lat="44.76687157942818" lon="7.844169418525717"><ele>341.0</ele><time>2026-04-10T09:46:36.001Z</time></trkpt><trkpt lat="44.76679887991119" lon="7.844235242915887"><ele>341.0</ele><time>2026-04-10T09:46:39.001Z</time></trkpt><trkpt lat="44.766730280280804" lon="7.844317054058179"><ele>341.0</ele><time>2026-04-10T09:46:42.001Z</time></trkpt><trkpt lat="44.76668005531134" lon="7.844374625026161"><ele>341.5</ele><time>2026-04-10T09:46:44.001Z</time></trkpt><trkpt lat="44.76660893645862" lon="7.844437245855748"><ele>342.0</ele><time>2026-04-10T09:46:47.001Z</time></trkpt><trkpt lat="44.76652803575127" lon="7.844507212936075"><ele>342.5</ele><time>2026-04-10T09:46:50.001Z</time></trkpt><trkpt lat="44.766454738096336" lon="7.844569739936358"><ele>343.0</ele><time>2026-04-10T09:46:53.001Z</time></trkpt><trkpt lat="44.76638180140798" lon="7.844644075725194"><ele>343.5</ele><time>2026-04-10T09:46:56.001Z</time></trkpt><trkpt lat="44.76631196856748" lon="7.844727274966065"><ele>344.0</ele><time>2026-04-10T09:46:58.999Z</time></trkpt><trkpt lat="44.76625929999608" lon="7.844779048399489"><ele>344.0</ele><time>2026-04-10T09:47:00.999Z</time></trkpt><trkpt lat="44.76618156453132" lon="7.844846562340178"><ele>344.0</ele><time>2026-04-10T09:47:03.999Z</time></trkpt><trkpt lat="44.766122592080535" lon="7.844911293968607"><ele>344.0</ele><time>2026-04-10T09:47:05.999Z</time></trkpt><trkpt lat="44.766064515784926" lon="7.8449594811580114"><ele>344.0</ele><time>2026-04-10T09:47:07.999Z</time></trkpt><trkpt lat="44.76600012825461" lon="7.845015949823582"><ele>344.0</ele><time>2026-04-10T09:47:09.999Z</time></trkpt><trkpt lat="44.76594484044278" lon="7.845072107038141"><ele>344.0</ele><time>2026-04-10T09:47:11.999Z</time></trkpt><trkpt lat="44.76587039516818" lon="7.845127178622085"><ele>344.7142857142857</ele><time>2026-04-10T09:47:13.999Z</time></trkpt><trkpt lat="44.76583037807048" lon="7.845198951260846"><ele>345.42857142857144</ele><time>2026-04-10T09:47:15.999Z</time></trkpt><trkpt lat="44.76581929765876" lon="7.84528831518185"><ele>346.1428571428571</ele><time>2026-04-10T09:47:17.999Z</time></trkpt><trkpt lat="44.76583803298448" lon="7.845388028645774"><ele>346.8571428571429</ele><time>2026-04-10T09:47:19.999Z</time></trkpt><trkpt lat="44.76587997895533" lon="7.845486372903382"><ele>347.57142857142856</ele><time>2026-04-10T09:47:22Z</time></trkpt><trkpt lat="44.7659270839329" lon="7.8455827414789825"><ele>348.2857142857143</ele><time>2026-04-10T09:47:24Z</time></trkpt><trkpt lat="44.76597337828476" lon="7.845669500435019"><ele>349.0</ele><time>2026-04-10T09:47:26Z</time></trkpt><trkpt lat="44.76602807434726" lon="7.84574848470442"><ele>348.57142857142856</ele><time>2026-04-10T09:47:28Z</time></trkpt><trkpt lat="44.766075026873914" lon="7.845837032822908"><ele>348.1428571428571</ele><time>2026-04-10T09:47:30Z</time></trkpt><trkpt lat="44.76612741572051" lon="7.845906879710325"><ele>347.71428571428567</ele><time>2026-04-10T09:47:32Z</time></trkpt><trkpt lat="44.76617632393564" lon="7.84598537052697"><ele>347.2857142857143</ele><time>2026-04-10T09:47:34Z</time></trkpt><trkpt lat="44.76621880496267" lon="7.846064814325196"><ele>346.8571428571429</ele><time>2026-04-10T09:47:36Z</time></trkpt><trkpt lat="44.7662503795976" lon="7.846151194053844"><ele>346.4285714285714</ele><time>2026-04-10T09:47:38Z</time></trkpt><trkpt lat="44.76629502757593" lon="7.846243350076214"><ele>346.0</ele><time>2026-04-10T09:47:40Z</time></trkpt><trkpt lat="44.7663479733733" lon="7.846337813727082"><ele>346.0</ele><time>2026-04-10T09:47:42Z</time></trkpt><trkpt lat="44.76639005853995" lon="7.84643737742465"><ele>346.0</ele><time>2026-04-10T09:47:44Z</time></trkpt><trkpt lat="44.766439057159815" lon="7.846534568752572"><ele>346.0</ele><time>2026-04-10T09:47:46Z</time></trkpt><trkpt lat="44.766488513713014" lon="7.8466455221158204"><ele>346.0</ele><time>2026-04-10T09:47:48Z</time></trkpt><trkpt lat="44.76653452312352" lon="7.846749477392017"><ele>346.0</ele><time>2026-04-10T09:47:50Z</time></trkpt><trkpt lat="44.766581539103136" lon="7.846846715291019"><ele>346.0</ele><time>2026-04-10T09:47:52Z</time></trkpt><trkpt lat="44.766629709879645" lon="7.8469421007969915"><ele>346.3333333333333</ele><time>2026-04-10T09:47:54Z</time></trkpt><trkpt lat="44.7666647769325" lon="7.847040874892177"><ele>346.66666666666663</ele><time>2026-04-10T09:47:56Z</time></trkpt><trkpt lat="44.766709459409235" lon="7.847133525159399"><ele>347.0</ele><time>2026-04-10T09:47:58Z</time></trkpt><trkpt lat="44.766754645456025" lon="7.847223276299216"><ele>347.3333333333333</ele><time>2026-04-10T09:48:00Z</time></trkpt><trkpt lat="44.76679826758841" lon="7.847311496802347"><ele>347.6666666666667</ele><time>2026-04-10T09:48:02Z</time></trkpt><trkpt lat="44.76684906473781" lon="7.84740193651257"><ele>348.0</ele><time>2026-04-10T09:48:04Z</time></trkpt><trkpt lat="44.766876484368396" lon="7.847503556023821"><ele>348.0</ele><time>2026-04-10T09:48:06Z</time></trkpt><trkpt lat="44.766821622148655" lon="7.8476159786143596"><ele>348.0</ele><time>2026-04-10T09:48:09.001Z</time></trkpt><trkpt lat="44.76675386340996" lon="7.847674746517271"><ele>348.0</ele><time>2026-04-10T09:48:12.001Z</time></trkpt><trkpt lat="44.76669361005653" lon="7.847737857631858"><ele>348.0</ele><time>2026-04-10T09:48:15.001Z</time></trkpt><trkpt lat="44.76662111466071" lon="7.8478189290673495"><ele>348.0</ele><time>2026-04-10T09:48:18.001Z</time></trkpt><trkpt lat="44.766551504099176" lon="7.84790188713335"><ele>348.0</ele><time>2026-04-10T09:48:21.001Z</time></trkpt><trkpt lat="44.76647840776073" lon="7.847976363611649"><ele>347.6666666666667</ele><time>2026-04-10T09:48:24.001Z</time></trkpt><trkpt lat="44.766428706568696" lon="7.848042184954842"><ele>347.3333333333333</ele><time>2026-04-10T09:48:26.001Z</time></trkpt><trkpt lat="44.766340260849475" lon="7.848095043042687"><ele>347.0</ele><time>2026-04-10T09:48:29.001Z</time></trkpt><trkpt lat="44.766254846449705" lon="7.84810312846485"><ele>346.66666666666663</ele><time>2026-04-10T09:48:32.001Z</time></trkpt><trkpt lat="44.76619101885476" lon="7.848083243538977"><ele>346.3333333333333</ele><time>2026-04-10T09:48:34.001Z</time></trkpt><trkpt lat="44.76612149015288" lon="7.848063001427153"><ele>346.0</ele><time>2026-04-10T09:48:36.001Z</time></trkpt><trkpt lat="44.76604401450951" lon="7.848046472497331"><ele>345.8333333333333</ele><time>2026-04-10T09:48:38.001Z</time></trkpt><trkpt lat="44.76595806415243" lon="7.848022614805952"><ele>345.66666666666663</ele><time>2026-04-10T09:48:40.001Z</time></trkpt><trkpt lat="44.765875704031835" lon="7.847982469464685"><ele>345.5</ele><time>2026-04-10T09:48:42.001Z</time></trkpt><trkpt lat="44.76579725572291" lon="7.847955509770266"><ele>345.3333333333333</ele><time>2026-04-10T09:48:44.001Z</time></trkpt><trkpt lat="44.76572184931946" lon="7.847921631104282"><ele>345.1666666666667</ele><time>2026-04-10T09:48:46.001Z</time></trkpt><trkpt lat="44.76564478992162" lon="7.847905086887441"><ele>345.0</ele><time>2026-04-10T09:48:48.001Z</time></trkpt><trkpt lat="44.7655713897285" lon="7.847874784422303"><ele>345.0</ele><time>2026-04-10T09:48:50.001Z</time></trkpt><trkpt lat="44.765487676414516" lon="7.847867339427771"><ele>345.0</ele><time>2026-04-10T09:48:52.001Z</time></trkpt><trkpt lat="44.76540951183466" lon="7.847852108317446"><ele>345.0</ele><time>2026-04-10T09:48:54.001Z</time></trkpt><trkpt lat="44.765340379853875" lon="7.84782224857347"><ele>345.0</ele><time>2026-04-10T09:48:56.001Z</time></trkpt><trkpt lat="44.7652509519573" lon="7.8478043124480275"><ele>345.0</ele><time>2026-04-10T09:48:59.001Z</time></trkpt><trkpt lat="44.76517649768124" lon="7.847799462217783"><ele>345.0</ele><time>2026-04-10T09:49:03.001Z</time></trkpt><trkpt lat="44.765110956732954" lon="7.8477851841757795"><ele>345.6666666666667</ele><time>2026-04-10T09:49:08Z</time></trkpt><trkpt lat="44.76503135269734" lon="7.84775809177604"><ele>346.3333333333333</ele><time>2026-04-10T09:49:12Z</time></trkpt><trkpt lat="44.764954797966936" lon="7.8477194494668785"><ele>347.0</ele><time>2026-04-10T09:49:15Z</time></trkpt><trkpt lat="44.764867347690526" lon="7.847734447431961"><ele>347.66666666666663</ele><time>2026-04-10T09:49:18Z</time></trkpt><trkpt lat="44.764809130939824" lon="7.847777919867706"><ele>348.3333333333333</ele><time>2026-04-10T09:49:20Z</time></trkpt><trkpt lat="44.76473575978783" lon="7.847849183247866"><ele>349.0</ele><time>2026-04-10T09:49:23Z</time></trkpt><trkpt lat="44.76468780074316" lon="7.847909719936599"><ele>349.0</ele><time>2026-04-10T09:49:25Z</time></trkpt><trkpt lat="44.764632078493264" lon="7.8479752898240145"><ele>349.0</ele><time>2026-04-10T09:49:28Z</time></trkpt><trkpt lat="44.76457574792572" lon="7.848050525413425"><ele>349.0</ele><time>2026-04-10T09:49:31.001Z</time></trkpt><trkpt lat="44.76462230983134" lon="7.847985807334165"><ele>349.0</ele><time>2026-04-10T09:50:10.001Z</time></trkpt><trkpt lat="44.76470001815129" lon="7.847894859446135"><ele>349.0</ele><time>2026-04-10T09:50:13.001Z</time></trkpt><trkpt lat="44.76478152984537" lon="7.847804137927149"><ele>349.0</ele><time>2026-04-10T09:50:15.001Z</time></trkpt><trkpt lat="44.76487031745678" lon="7.847733998879384"><ele>349.0</ele><time>2026-04-10T09:50:17.001Z</time></trkpt><trkpt lat="44.764965334560955" lon="7.847739499159226"><ele>349.0</ele><time>2026-04-10T09:50:19.001Z</time></trkpt><trkpt lat="44.765050075577754" lon="7.84774445237492"><ele>349.0</ele><time>2026-04-10T09:50:21.001Z</time></trkpt><trkpt lat="44.76513060922232" lon="7.84777533282619"><ele>349.0</ele><time>2026-04-10T09:50:23.001Z</time></trkpt><trkpt lat="44.765045695654436" lon="7.847633200630432"><ele>349.0</ele><time>2026-04-10T09:50:25.001Z</time></trkpt><trkpt lat="44.765195645150236" lon="7.848000297802579"><ele>349.0</ele><time>2026-04-10T09:50:26.001Z</time></trkpt><trkpt lat="44.7651914826064" lon="7.848134571558471"><ele>349.0</ele><time>2026-04-10T09:50:28.001Z</time></trkpt><trkpt lat="44.765187021629075" lon="7.848262984981612"><ele>349.0</ele><time>2026-04-10T09:50:30.001Z</time></trkpt><trkpt lat="44.76518666949228" lon="7.8483762593301245"><ele>349.0</ele><time>2026-04-10T09:50:32.001Z</time></trkpt><trkpt lat="44.76520637336625" lon="7.8484746005684745"><ele>349.0</ele><time>2026-04-10T09:50:34.001Z</time></trkpt><trkpt lat="44.76524035858345" lon="7.848564426087873"><ele>349.0</ele><time>2026-04-10T09:50:36.002Z</time></trkpt><trkpt lat="44.76530018826853" lon="7.848672348955777"><ele>347.79999999999995</ele><time>2026-04-10T09:50:39.002Z</time></trkpt><trkpt lat="44.76538285016483" lon="7.848755185698161"><ele>346.59999999999997</ele><time>2026-04-10T09:50:41.002Z</time></trkpt><trkpt lat="44.76546631882646" lon="7.84882443064211"><ele>345.4</ele><time>2026-04-10T09:50:43.002Z</time></trkpt><trkpt lat="44.765497027254376" lon="7.848959584338277"><ele>344.2</ele><time>2026-04-10T09:50:45.002Z</time></trkpt><trkpt lat="44.76552679601463" lon="7.84909019049569"><ele>343.0</ele><time>2026-04-10T09:50:47.002Z</time></trkpt><trkpt lat="44.76556132011678" lon="7.849219211823069"><ele>343.5</ele><time>2026-04-10T09:50:49.002Z</time></trkpt><trkpt lat="44.76559809134043" lon="7.849343448623544"><ele>344.0</ele><time>2026-04-10T09:50:51.002Z</time></trkpt><trkpt lat="44.76563203426531" lon="7.849450916276985"><ele>344.5</ele><time>2026-04-10T09:50:53.002Z</time></trkpt><trkpt lat="44.76566859311565" lon="7.849555346721225"><ele>345.0</ele><time>2026-04-10T09:50:55.002Z</time></trkpt><trkpt lat="44.76569636097239" lon="7.8496675617010006"><ele>345.5</ele><time>2026-04-10T09:50:57.002Z</time></trkpt><trkpt lat="44.76572475452692" lon="7.849757496912925"><ele>346.0</ele><time>2026-04-10T09:50:59.002Z</time></trkpt><trkpt lat="44.76578300737215" lon="7.849799658949147"><ele>346.0</ele><time>2026-04-10T09:51:00.002Z</time></trkpt><trkpt lat="44.765787369791745" lon="7.849916907897141"><ele>346.0</ele><time>2026-04-10T09:51:03.002Z</time></trkpt><trkpt lat="44.76577292723808" lon="7.8500248713653225"><ele>346.0</ele><time>2026-04-10T09:51:05.002Z</time></trkpt><trkpt lat="44.765826437045384" lon="7.8501053050793805"><ele>346.0</ele><time>2026-04-10T09:51:08.002Z</time></trkpt><trkpt lat="44.765884889953405" lon="7.850178699988636"><ele>346.0</ele><time>2026-04-10T09:51:13.001Z</time></trkpt><trkpt lat="44.76597536275932" lon="7.850210517705425"><ele>346.0</ele><time>2026-04-10T09:51:16.001Z</time></trkpt><trkpt lat="44.76606757643243" lon="7.850227015416377"><ele>345.0</ele><time>2026-04-10T09:51:19.001Z</time></trkpt><trkpt lat="44.76616932343569" lon="7.8502640439120235"><ele>344.0</ele><time>2026-04-10T09:51:22.001Z</time></trkpt><trkpt lat="44.766246369068774" lon="7.850303807945154"><ele>343.0</ele><time>2026-04-10T09:51:24.001Z</time></trkpt><trkpt lat="44.76633605946464" lon="7.850275654755463"><ele>342.0</ele><time>2026-04-10T09:51:26.001Z</time></trkpt><trkpt lat="44.76642817496687" lon="7.850291539959374"><ele>341.0</ele><time>2026-04-10T09:51:28.001Z</time></trkpt><trkpt lat="44.76649473088311" lon="7.850347304266749"><ele>340.0</ele><time>2026-04-10T09:51:30.001Z</time></trkpt><trkpt lat="44.766558271236796" lon="7.850401985614448"><ele>340.0</ele><time>2026-04-10T09:51:32.001Z</time></trkpt><trkpt lat="44.76662032386799" lon="7.850421495282735"><ele>340.0</ele><time>2026-04-10T09:51:33.001Z</time></trkpt><trkpt lat="44.766691588017224" lon="7.850475772549791"><ele>340.0</ele><time>2026-04-10T09:51:35.001Z</time></trkpt><trkpt lat="44.76676803020726" lon="7.85049357032701"><ele>340.0</ele><time>2026-04-10T09:51:37.001Z</time></trkpt><trkpt lat="44.76683293672101" lon="7.850543144116998"><ele>340.0</ele><time>2026-04-10T09:51:38.001Z</time></trkpt><trkpt lat="44.76688151570373" lon="7.850629291784847"><ele>340.0</ele><time>2026-04-10T09:51:40.001Z</time></trkpt><trkpt lat="44.76691898044806" lon="7.850713863231496"><ele>340.0</ele><time>2026-04-10T09:51:43.001Z</time></trkpt><trkpt lat="44.76696870540882" lon="7.850789884308258"><ele>339.66666666666663</ele><time>2026-04-10T09:51:48.001Z</time></trkpt><trkpt lat="44.7669978262404" lon="7.850887845049534"><ele>339.3333333333333</ele><time>2026-04-10T09:51:52.001Z</time></trkpt><trkpt lat="44.76698484522944" lon="7.850987753145004"><ele>339.0</ele><time>2026-04-10T09:51:55.001Z</time></trkpt><trkpt lat="44.76695586878819" lon="7.851115629290206"><ele>338.6666666666667</ele><time>2026-04-10T09:51:57.001Z</time></trkpt><trkpt lat="44.76698345630297" lon="7.851240674504349"><ele>338.33333333333337</ele><time>2026-04-10T09:51:59.001Z</time></trkpt><trkpt lat="44.76701680949861" lon="7.851318186681568"><ele>338.0</ele><time>2026-04-10T09:52:04.001Z</time></trkpt><trkpt lat="44.767072255858935" lon="7.851361262495276"><ele>338.0</ele><time>2026-04-10T09:52:07.001Z</time></trkpt><trkpt lat="44.76710353462019" lon="7.851454293303344"><ele>338.0</ele><time>2026-04-10T09:52:14.001Z</time></trkpt><trkpt lat="44.767100257374175" lon="7.851558410635076"><ele>338.0</ele><time>2026-04-10T09:52:23.001Z</time></trkpt><trkpt lat="44.767128559027945" lon="7.851659199747296"><ele>338.0</ele><time>2026-04-10T09:52:27.001Z</time></trkpt><trkpt lat="44.767127933778866" lon="7.8517579401365305"><ele>338.0</ele><time>2026-04-10T09:52:30.001Z</time></trkpt><trkpt lat="44.76713370168069" lon="7.851862261524265"><ele>338.0</ele><time>2026-04-10T09:52:33.001Z</time></trkpt><trkpt lat="44.76711446655218" lon="7.851962647020622"><ele>338.0</ele><time>2026-04-10T09:52:36.002Z</time></trkpt><trkpt lat="44.76706157012317" lon="7.852036168095281"><ele>337.83333333333337</ele><time>2026-04-10T09:52:39.002Z</time></trkpt><trkpt lat="44.7670385031144" lon="7.852122744997943"><ele>337.6666666666667</ele><time>2026-04-10T09:52:41.002Z</time></trkpt><trkpt lat="44.76702635872735" lon="7.8522338717524205"><ele>337.5</ele><time>2026-04-10T09:52:43.002Z</time></trkpt><trkpt lat="44.767011761825806" lon="7.8523480052185475"><ele>337.3333333333333</ele><time>2026-04-10T09:52:46.002Z</time></trkpt><trkpt lat="44.766964088144995" lon="7.852438806499435"><ele>337.16666666666663</ele><time>2026-04-10T09:52:48.002Z</time></trkpt><trkpt lat="44.766940894964826" lon="7.8525350126495"><ele>337.0</ele><time>2026-04-10T09:52:50.002Z</time></trkpt><trkpt lat="44.76691763707125" lon="7.852641030024299"><ele>337.40000000000003</ele><time>2026-04-10T09:52:52.002Z</time></trkpt><trkpt lat="44.7669036660391" lon="7.8527475378550005"><ele>337.8</ele><time>2026-04-10T09:52:54.002Z</time></trkpt><trkpt lat="44.76690406333363" lon="7.8528478347454"><ele>338.2</ele><time>2026-04-10T09:52:56.002Z</time></trkpt><trkpt lat="44.76688374406401" lon="7.852999875263124"><ele>338.6</ele><time>2026-04-10T09:52:58.002Z</time></trkpt><trkpt lat="44.766864585830795" lon="7.853155223580619"><ele>339.0</ele><time>2026-04-10T09:53:00.002Z</time></trkpt><trkpt lat="44.76682764426309" lon="7.853285696126788"><ele>339.0</ele><time>2026-04-10T09:53:02.002Z</time></trkpt><trkpt lat="44.7668161660651" lon="7.853425856346007"><ele>339.0</ele><time>2026-04-10T09:53:04.002Z</time></trkpt><trkpt lat="44.76682735875316" lon="7.853549395596623"><ele>339.0</ele><time>2026-04-10T09:53:06.002Z</time></trkpt><trkpt lat="44.766821433692414" lon="7.85367445442454"><ele>339.0</ele><time>2026-04-10T09:53:08.002Z</time></trkpt><trkpt lat="44.7668173144625" lon="7.853819885322158"><ele>339.0</ele><time>2026-04-10T09:53:10.002Z</time></trkpt><trkpt lat="44.766768666523895" lon="7.853939557150286"><ele>338.1666666666667</ele><time>2026-04-10T09:53:12.002Z</time></trkpt><trkpt lat="44.76670381974691" lon="7.854081330255609"><ele>337.3333333333333</ele><time>2026-04-10T09:53:14.002Z</time></trkpt><trkpt lat="44.76665362196856" lon="7.854142776957627"><ele>336.5</ele><time>2026-04-10T09:53:22.001Z</time></trkpt><trkpt lat="44.76657460966964" lon="7.854176413012652"><ele>335.66666666666663</ele><time>2026-04-10T09:53:26.001Z</time></trkpt><trkpt lat="44.76649322527156" lon="7.85418801560411"><ele>334.8333333333333</ele><time>2026-04-10T09:53:29.001Z</time></trkpt><trkpt lat="44.766426293613755" lon="7.854216840848071"><ele>334.0</ele><time>2026-04-10T09:53:31.001Z</time></trkpt><trkpt lat="44.76636149080345" lon="7.854211056785666"><ele>334.0</ele><time>2026-04-10T09:53:33.001Z</time></trkpt><trkpt lat="44.76627135840444" lon="7.854195685583366"><ele>334.0</ele><time>2026-04-10T09:53:36.001Z</time></trkpt><trkpt lat="44.76619744050859" lon="7.854200682214399"><ele>334.0</ele><time>2026-04-10T09:53:39.001Z</time></trkpt><trkpt lat="44.7661136062607" lon="7.854174513591986"><ele>334.0</ele><time>2026-04-10T09:53:42.001Z</time></trkpt><trkpt lat="44.76605455420673" lon="7.854208604094649"><ele>334.0</ele><time>2026-04-10T09:53:45.001Z</time></trkpt><trkpt lat="44.76604747035069" lon="7.85430261990276"><ele>334.0</ele><time>2026-04-10T09:53:47.001Z</time></trkpt><trkpt lat="44.7660054730121" lon="7.854376964273835"><ele>334.0</ele><time>2026-04-10T09:53:50.001Z</time></trkpt><trkpt lat="44.765922381912034" lon="7.854441705966922"><ele>334.16666666666663</ele><time>2026-04-10T09:53:52.001Z</time></trkpt><trkpt lat="44.76583452240889" lon="7.854492096265161"><ele>334.3333333333333</ele><time>2026-04-10T09:53:55.001Z</time></trkpt><trkpt lat="44.76574554451775" lon="7.854536260586143"><ele>334.5</ele><time>2026-04-10T09:53:58.001Z</time></trkpt><trkpt lat="44.76566329619863" lon="7.854566403196148"><ele>334.6666666666667</ele><time>2026-04-10T09:54:01.001Z</time></trkpt><trkpt lat="44.76559274433156" lon="7.854633560642575"><ele>334.83333333333337</ele><time>2026-04-10T09:54:04.001Z</time></trkpt><trkpt lat="44.76553065219111" lon="7.854663482790752"><ele>335.0</ele><time>2026-04-10T09:54:06.001Z</time></trkpt><trkpt lat="44.765464937562506" lon="7.854697658520939"><ele>334.99999999999994</ele><time>2026-04-10T09:54:09.001Z</time></trkpt><trkpt lat="44.765372998905896" lon="7.854722210603363"><ele>335.0</ele><time>2026-04-10T09:54:13.001Z</time></trkpt><trkpt lat="44.76529803913016" lon="7.8547628052186225"><ele>335.0</ele><time>2026-04-10T09:54:16.001Z</time></trkpt><trkpt lat="44.76523540318898" lon="7.854750685230965"><ele>335.0</ele><time>2026-04-10T09:54:18.001Z</time></trkpt><trkpt lat="44.76516888925635" lon="7.854722938837897"><ele>335.0</ele><time>2026-04-10T09:54:21.001Z</time></trkpt><trkpt lat="44.765116050879755" lon="7.85465387085004"><ele>334.99999999999994</ele><time>2026-04-10T09:54:24.001Z</time></trkpt><trkpt lat="44.76505960753334" lon="7.854594862104914"><ele>335.0</ele><time>2026-04-10T09:54:27.001Z</time></trkpt><trkpt lat="44.76507416606668" lon="7.854501115876018"><ele>335.5</ele><time>2026-04-10T09:54:29.001Z</time></trkpt><trkpt lat="44.765100246990016" lon="7.85440231124223"><ele>336.0</ele><time>2026-04-10T09:54:32.001Z</time></trkpt><trkpt lat="44.76512581024376" lon="7.85427457117829"><ele>336.5</ele><time>2026-04-10T09:54:35.001Z</time></trkpt><trkpt lat="44.765132702382424" lon="7.854157938367209"><ele>337.0</ele><time>2026-04-10T09:54:38.001Z</time></trkpt><trkpt lat="44.76507912620698" lon="7.854072188463819"><ele>337.5</ele><time>2026-04-10T09:54:41.001Z</time></trkpt><trkpt lat="44.76500500121907" lon="7.854049525075824"><ele>338.0</ele><time>2026-04-10T09:54:44.001Z</time></trkpt><trkpt lat="44.76491979830263" lon="7.854040706876048"><ele>339.0</ele><time>2026-04-10T09:54:47.001Z</time></trkpt><trkpt lat="44.76484091682779" lon="7.8540403200773"><ele>340.0</ele><time>2026-04-10T09:54:50.001Z</time></trkpt><trkpt lat="44.764766495421824" lon="7.854019989684636"><ele>341.0</ele><time>2026-04-10T09:54:53.001Z</time></trkpt><trkpt lat="44.764696016187074" lon="7.853977173293122"><ele>342.0</ele><time>2026-04-10T09:54:56.001Z</time></trkpt><trkpt lat="44.764667721042606" lon="7.8538734803686445"><ele>343.0</ele><time>2026-04-10T09:54:59.001Z</time></trkpt><trkpt lat="44.764659127990534" lon="7.853772268584838"><ele>344.0</ele><time>2026-04-10T09:55:02.001Z</time></trkpt><trkpt lat="44.76466467650824" lon="7.853639785933406"><ele>344.00000000000006</ele><time>2026-04-10T09:55:05.001Z</time></trkpt><trkpt lat="44.76464079286677" lon="7.853531686188657"><ele>344.0</ele><time>2026-04-10T09:55:08.002Z</time></trkpt><trkpt lat="44.76462727043974" lon="7.853437616303255"><ele>344.0</ele><time>2026-04-10T09:55:11.002Z</time></trkpt><trkpt lat="44.76463552472551" lon="7.8533458610094735"><ele>344.0</ele><time>2026-04-10T09:55:14.002Z</time></trkpt><trkpt lat="44.7646271583706" lon="7.853255182685155"><ele>344.0</ele><time>2026-04-10T09:55:16.002Z</time></trkpt><trkpt lat="44.764619104717895" lon="7.853166349007343"><ele>344.00000000000006</ele><time>2026-04-10T09:55:18.002Z</time></trkpt><trkpt lat="44.764597463990505" lon="7.853075120943058"><ele>344.0</ele><time>2026-04-10T09:55:20.002Z</time></trkpt><trkpt lat="44.76456241509897" lon="7.852986112186699"><ele>344.33333333333337</ele><time>2026-04-10T09:55:22.001Z</time></trkpt><trkpt lat="44.764540580729914" lon="7.852862038495293"><ele>344.6666666666667</ele><time>2026-04-10T09:55:25.001Z</time></trkpt><trkpt lat="44.76449927372694" lon="7.852751176549825"><ele>345.0</ele><time>2026-04-10T09:55:28.001Z</time></trkpt><trkpt lat="44.76444855975923" lon="7.852667201728266"><ele>345.3333333333333</ele><time>2026-04-10T09:55:32.001Z</time></trkpt><trkpt lat="44.76436903829328" lon="7.852660604636432"><ele>345.66666666666663</ele><time>2026-04-10T09:55:35.001Z</time></trkpt><trkpt lat="44.76430657250043" lon="7.852644919202258"><ele>346.0</ele><time>2026-04-10T09:55:38.001Z</time></trkpt><trkpt lat="44.76424490530664" lon="7.852678114351114"><ele>347.16666666666663</ele><time>2026-04-10T09:55:41.001Z</time></trkpt><trkpt lat="44.76418136109244" lon="7.852730770815176"><ele>348.3333333333333</ele><time>2026-04-10T09:55:44.001Z</time></trkpt><trkpt lat="44.76412684617469" lon="7.852804523819263"><ele>349.5</ele><time>2026-04-10T09:55:48.001Z</time></trkpt><trkpt lat="44.76409231108275" lon="7.85291130005029"><ele>350.6666666666667</ele><time>2026-04-10T09:55:52.001Z</time></trkpt><trkpt lat="44.764061631677606" lon="7.853001381430034"><ele>351.83333333333337</ele><time>2026-04-10T09:55:56.001Z</time></trkpt><trkpt lat="44.763996607142275" lon="7.853089363556203"><ele>353.0</ele><time>2026-04-10T09:56:00.001Z</time></trkpt><trkpt lat="44.763926063302854" lon="7.853068203914029"><ele>353.0</ele><time>2026-04-10T09:56:02.001Z</time></trkpt><trkpt lat="44.763875187971735" lon="7.853000576918167"><ele>353.0</ele><time>2026-04-10T09:56:04.001Z</time></trkpt><trkpt lat="44.7638129698916" lon="7.852920288421588"><ele>353.0</ele><time>2026-04-10T09:56:07.001Z</time></trkpt><trkpt lat="44.76372348916869" lon="7.852914178447029"><ele>353.0</ele><time>2026-04-10T09:56:10.001Z</time></trkpt><trkpt lat="44.76364114447322" lon="7.852894030425325"><ele>353.0</ele><time>2026-04-10T09:56:12.001Z</time></trkpt><trkpt lat="44.763581626403536" lon="7.852862393178362"><ele>353.0</ele><time>2026-04-10T09:56:14.001Z</time></trkpt><trkpt lat="44.76352569885959" lon="7.852788596322488"><ele>352.5</ele><time>2026-04-10T09:56:17.001Z</time></trkpt><trkpt lat="44.76346778376435" lon="7.852701178017851"><ele>352.0</ele><time>2026-04-10T09:56:20.001Z</time></trkpt><trkpt lat="44.763419747174034" lon="7.852589048439771"><ele>351.5</ele><time>2026-04-10T09:56:23.001Z</time></trkpt><trkpt lat="44.76337100723289" lon="7.852527725299787"><ele>351.0</ele><time>2026-04-10T09:56:25.001Z</time></trkpt><trkpt lat="44.763352297891586" lon="7.852361091820727"><ele>350.5</ele><time>2026-04-10T09:56:28.001Z</time></trkpt><trkpt lat="44.76328166183369" lon="7.852327779989862"><ele>350.0</ele><time>2026-04-10T09:56:31.001Z</time></trkpt><trkpt lat="44.76318929199285" lon="7.8523180678450535"><ele>350.0</ele><time>2026-04-10T09:56:33.001Z</time></trkpt><trkpt lat="44.76309545694786" lon="7.8522576957371095"><ele>350.0</ele><time>2026-04-10T09:56:35.001Z</time></trkpt><trkpt lat="44.76298512205284" lon="7.852212494364024"><ele>350.0</ele><time>2026-04-10T09:56:37.001Z</time></trkpt><trkpt lat="44.76288079017619" lon="7.852173833191671"><ele>350.0</ele><time>2026-04-10T09:56:39.001Z</time></trkpt><trkpt lat="44.762811944549114" lon="7.852157910154865"><ele>350.0</ele><time>2026-04-10T09:56:40.001Z</time></trkpt><trkpt lat="44.762695446783475" lon="7.852100904072621"><ele>349.0</ele><time>2026-04-10T09:56:42.001Z</time></trkpt><trkpt lat="44.762588742253" lon="7.8520462050897"><ele>348.0</ele><time>2026-04-10T09:56:44.001Z</time></trkpt><trkpt lat="44.76251912139366" lon="7.852015584500082"><ele>347.0</ele><time>2026-04-10T09:56:45.001Z</time></trkpt><trkpt lat="44.76245210451768" lon="7.851987546609748"><ele>346.0</ele><time>2026-04-10T09:56:46.001Z</time></trkpt><trkpt lat="44.762379407035965" lon="7.851953173102999"><ele>345.0</ele><time>2026-04-10T09:56:47.001Z</time></trkpt><trkpt lat="44.76229591139116" lon="7.8519184395255905"><ele>344.0</ele><time>2026-04-10T09:56:48.001Z</time></trkpt><trkpt lat="44.76224109179767" lon="7.851865450205278"><ele>344.0</ele><time>2026-04-10T09:56:49.001Z</time></trkpt><trkpt lat="44.76212419698895" lon="7.851819604299168"><ele>344.0</ele><time>2026-04-10T09:56:51.001Z</time></trkpt><trkpt lat="44.76202813173532" lon="7.851801702910251"><ele>344.0</ele><time>2026-04-10T09:56:53.001Z</time></trkpt><trkpt lat="44.76196813872507" lon="7.851861817935242"><ele>344.0</ele><time>2026-04-10T09:57:17.001Z</time></trkpt><trkpt lat="44.762045754870165" lon="7.851770644754495"><ele>344.0</ele><time>2026-04-10T09:58:07.001Z</time></trkpt><trkpt lat="44.76200450837679" lon="7.851843364476133"><ele>344.4</ele><time>2026-04-10T10:00:00Z</time></trkpt><trkpt lat="44.76178965352311" lon="7.851821478617458"><ele>344.79999999999995</ele><time>2026-04-10T10:00:36Z</time></trkpt><trkpt lat="44.76171561354129" lon="7.851783616301093"><ele>345.20000000000005</ele><time>2026-04-10T10:00:39Z</time></trkpt><trkpt lat="44.76165001011451" lon="7.851732581680292"><ele>345.6</ele><time>2026-04-10T10:00:42Z</time></trkpt><trkpt lat="44.76158354791921" lon="7.851701964305088"><ele>346.0</ele><time>2026-04-10T10:00:45Z</time></trkpt><trkpt lat="44.76152231396975" lon="7.851639681671477"><ele>346.0</ele><time>2026-04-10T10:00:48Z</time></trkpt><trkpt lat="44.76144399875492" lon="7.851603761202324"><ele>346.0</ele><time>2026-04-10T10:00:51Z</time></trkpt><trkpt lat="44.76136260171596" lon="7.851573805038029"><ele>346.0</ele><time>2026-04-10T10:00:54Z</time></trkpt><trkpt lat="44.76130194965459" lon="7.85152298971612"><ele>346.0</ele><time>2026-04-10T10:00:57Z</time></trkpt><trkpt lat="44.76121852390512" lon="7.8514940057072105"><ele>346.0</ele><time>2026-04-10T10:01:00Z</time></trkpt><trkpt lat="44.761144361260065" lon="7.851444868462323"><ele>346.0</ele><time>2026-04-10T10:01:03Z</time></trkpt><trkpt lat="44.76106018342051" lon="7.85141502236041"><ele>347.2857142857143</ele><time>2026-04-10T10:01:06Z</time></trkpt><trkpt lat="44.76098681401645" lon="7.851388512104963"><ele>348.5714285714286</ele><time>2026-04-10T10:01:09.001Z</time></trkpt><trkpt lat="44.76091220397722" lon="7.851421766040347"><ele>349.8571428571429</ele><time>2026-04-10T10:01:11.001Z</time></trkpt><trkpt lat="44.76083960931198" lon="7.851437031465494"><ele>351.1428571428571</ele><time>2026-04-10T10:01:13.001Z</time></trkpt><trkpt lat="44.76077551329987" lon="7.851443082938671"><ele>352.42857142857144</ele><time>2026-04-10T10:01:15.001Z</time></trkpt><trkpt lat="44.76070533390962" lon="7.851467393509245"><ele>353.7142857142857</ele><time>2026-04-10T10:01:17.001Z</time></trkpt><trkpt lat="44.76063386969855" lon="7.851504328411523"><ele>355.0</ele><time>2026-04-10T10:01:19.001Z</time></trkpt><trkpt lat="44.76056549795293" lon="7.851553218758749"><ele>355.0</ele><time>2026-04-10T10:01:21.001Z</time></trkpt><trkpt lat="44.76050521734156" lon="7.851580678865914"><ele>355.0</ele><time>2026-04-10T10:01:23.001Z</time></trkpt><trkpt lat="44.76043834505888" lon="7.851636223965591"><ele>355.0</ele><time>2026-04-10T10:01:25.001Z</time></trkpt><trkpt lat="44.760378056257075" lon="7.851693235945808"><ele>355.0</ele><time>2026-04-10T10:01:27.001Z</time></trkpt><trkpt lat="44.76031980103384" lon="7.851755712282021"><ele>355.0</ele><time>2026-04-10T10:01:29.001Z</time></trkpt><trkpt lat="44.76025894508893" lon="7.8518286456842885"><ele>355.0</ele><time>2026-04-10T10:01:31.001Z</time></trkpt><trkpt lat="44.760180089213584" lon="7.851870506909138"><ele>356.0</ele><time>2026-04-10T10:01:34.001Z</time></trkpt><trkpt lat="44.76011241027789" lon="7.851924899104988"><ele>357.0</ele><time>2026-04-10T10:01:36.001Z</time></trkpt><trkpt lat="44.76002805550782" lon="7.8519167166773265"><ele>358.0</ele><time>2026-04-10T10:01:39.001Z</time></trkpt><trkpt lat="44.75996006133391" lon="7.851914167747465"><ele>359.0</ele><time>2026-04-10T10:01:41.001Z</time></trkpt><trkpt lat="44.75988947508319" lon="7.851903593218935"><ele>360.0</ele><time>2026-04-10T10:01:43.001Z</time></trkpt><trkpt lat="44.75982368540362" lon="7.851910186199603"><ele>361.0</ele><time>2026-04-10T10:01:45.001Z</time></trkpt><trkpt lat="44.759760376727584" lon="7.85190534188345"><ele>362.0</ele><time>2026-04-10T10:01:47.001Z</time></trkpt><trkpt lat="44.75968356628537" lon="7.851927287212783"><ele>362.0</ele><time>2026-04-10T10:01:50.001Z</time></trkpt><trkpt lat="44.75961926916366" lon="7.851947779923853"><ele>362.0</ele><time>2026-04-10T10:01:52.001Z</time></trkpt><trkpt lat="44.75955756275702" lon="7.852003203988122"><ele>362.0</ele><time>2026-04-10T10:01:55Z</time></trkpt><trkpt lat="44.759489420339484" lon="7.8520458612875155"><ele>362.0</ele><time>2026-04-10T10:01:58Z</time></trkpt><trkpt lat="44.75943679749155" lon="7.851980896513924"><ele>362.0</ele><time>2026-04-10T10:02:01Z</time></trkpt><trkpt lat="44.759398412197804" lon="7.851900880106913"><ele>362.0</ele><time>2026-04-10T10:02:04Z</time></trkpt><trkpt lat="44.7593394097638" lon="7.8518307735803825"><ele>362.0</ele><time>2026-04-10T10:02:07Z</time></trkpt><trkpt lat="44.759293877072395" lon="7.851751981511317"><ele>362.57142857142856</ele><time>2026-04-10T10:02:10Z</time></trkpt><trkpt lat="44.759234634275444" lon="7.851699307961605"><ele>363.1428571428571</ele><time>2026-04-10T10:02:13Z</time></trkpt><trkpt lat="44.759168434105106" lon="7.85164460628884"><ele>363.7142857142857</ele><time>2026-04-10T10:02:17Z</time></trkpt><trkpt lat="44.759111226118854" lon="7.851572632181403"><ele>364.2857142857143</ele><time>2026-04-10T10:02:21Z</time></trkpt><trkpt lat="44.759054984816665" lon="7.851531697929392"><ele>364.8571428571429</ele><time>2026-04-10T10:02:24Z</time></trkpt><trkpt lat="44.758980909839664" lon="7.851520832366333"><ele>365.42857142857144</ele><time>2026-04-10T10:02:27Z</time></trkpt><trkpt lat="44.75890763975393" lon="7.8515406575097355"><ele>366.0</ele><time>2026-04-10T10:02:31Z</time></trkpt><trkpt lat="44.75883643491937" lon="7.851576933048608"><ele>366.0</ele><time>2026-04-10T10:02:34Z</time></trkpt><trkpt lat="44.7587656315721" lon="7.851522606075647"><ele>366.0</ele><time>2026-04-10T10:02:38Z</time></trkpt><trkpt lat="44.758782713673185" lon="7.851402283547671"><ele>366.0</ele><time>2026-04-10T10:02:42Z</time></trkpt><trkpt lat="44.75873806059349" lon="7.851293883165023"><ele>366.0</ele><time>2026-04-10T10:02:46Z</time></trkpt><trkpt lat="44.75870262687561" lon="7.851201685967217"><ele>366.0</ele><time>2026-04-10T10:02:49Z</time></trkpt><trkpt lat="44.75868241989128" lon="7.851109970825953"><ele>366.0</ele><time>2026-04-10T10:02:52Z</time></trkpt><trkpt lat="44.75864390961257" lon="7.851039684023266"><ele>366.0</ele><time>2026-04-10T10:02:55Z</time></trkpt><trkpt lat="44.758598447160445" lon="7.850957642216928"><ele>366.0</ele><time>2026-04-10T10:02:59Z</time></trkpt><trkpt lat="44.75852666609584" lon="7.85089274459364"><ele>366.0</ele><time>2026-04-10T10:03:03Z</time></trkpt><trkpt lat="44.75844220367816" lon="7.85087987801696"><ele>366.0</ele><time>2026-04-10T10:03:07Z</time></trkpt><trkpt lat="44.75838576184845" lon="7.850819603240459"><ele>366.0</ele><time>2026-04-10T10:03:10Z</time></trkpt><trkpt lat="44.75834410118339" lon="7.850714319889419"><ele>366.0</ele><time>2026-04-10T10:03:14Z</time></trkpt><trkpt lat="44.75830486629703" lon="7.8506432513885684"><ele>367.14285714285717</ele><time>2026-04-10T10:03:18Z</time></trkpt><trkpt lat="44.75823219449494" lon="7.8506044299735365"><ele>368.28571428571433</ele><time>2026-04-10T10:03:21Z</time></trkpt><trkpt lat="44.75816710016097" lon="7.85056295030468"><ele>369.42857142857144</ele><time>2026-04-10T10:03:25Z</time></trkpt><trkpt lat="44.75810657483971" lon="7.850493696916525"><ele>370.57142857142856</ele><time>2026-04-10T10:03:29Z</time></trkpt><trkpt lat="44.75804689912892" lon="7.850440140321437"><ele>371.7142857142857</ele><time>2026-04-10T10:03:34Z</time></trkpt><trkpt lat="44.75796973644585" lon="7.8504416755167385"><ele>372.85714285714283</ele><time>2026-04-10T10:03:39Z</time></trkpt><trkpt lat="44.757902378381225" lon="7.850445464349095"><ele>374.0</ele><time>2026-04-10T10:03:43Z</time></trkpt><trkpt lat="44.757831882413036" lon="7.850430490694741"><ele>374.0</ele><time>2026-04-10T10:03:48Z</time></trkpt><trkpt lat="44.75775634617495" lon="7.850419827036774"><ele>374.0</ele><time>2026-04-10T10:03:53Z</time></trkpt><trkpt lat="44.757689128048376" lon="7.850404595523747"><ele>374.0</ele><time>2026-04-10T10:03:58Z</time></trkpt><trkpt lat="44.7576173082184" lon="7.850399743144357"><ele>374.0</ele><time>2026-04-10T10:04:04Z</time></trkpt><trkpt lat="44.75755796275337" lon="7.850361676205881"><ele>374.0</ele><time>2026-04-10T10:04:09Z</time></trkpt><trkpt lat="44.75750808760893" lon="7.850301794420806"><ele>374.0</ele><time>2026-04-10T10:04:13Z</time></trkpt><trkpt lat="44.75747631183187" lon="7.850218330988438"><ele>374.0</ele><time>2026-04-10T10:04:18Z</time></trkpt><trkpt lat="44.75743577878303" lon="7.850140419966151"><ele>374.1428571428571</ele><time>2026-04-10T10:04:23Z</time></trkpt><trkpt lat="44.75739389403908" lon="7.8500550804258875"><ele>374.28571428571433</ele><time>2026-04-10T10:04:28Z</time></trkpt><trkpt lat="44.75735677177224" lon="7.849977781138506"><ele>374.42857142857144</ele><time>2026-04-10T10:04:33Z</time></trkpt><trkpt lat="44.7573190915498" lon="7.849891232187338"><ele>374.57142857142856</ele><time>2026-04-10T10:04:39Z</time></trkpt><trkpt lat="44.75724461949053" lon="7.849845599117938"><ele>374.71428571428567</ele><time>2026-04-10T10:04:44Z</time></trkpt><trkpt lat="44.757180803301566" lon="7.849884708462909"><ele>374.8571428571429</ele><time>2026-04-10T10:04:48Z</time></trkpt><trkpt lat="44.75711693165032" lon="7.849930952513465"><ele>375.0</ele><time>2026-04-10T10:04:52Z</time></trkpt><trkpt lat="44.75704478405411" lon="7.849982210383328"><ele>375.0</ele><time>2026-04-10T10:04:56Z</time></trkpt><trkpt lat="44.75698515352164" lon="7.850029477892232"><ele>375.0</ele><time>2026-04-10T10:04:59Z</time></trkpt><trkpt lat="44.75693304049688" lon="7.850088279813426"><ele>375.0</ele><time>2026-04-10T10:05:02Z</time></trkpt><trkpt lat="44.7568947837564" lon="7.850167452047271"><ele>375.0</ele><time>2026-04-10T10:05:05Z</time></trkpt><trkpt lat="44.756865946800616" lon="7.850254660407417"><ele>375.0</ele><time>2026-04-10T10:05:08Z</time></trkpt><trkpt lat="44.756841259324354" lon="7.850356690759143"><ele>375.0</ele><time>2026-04-10T10:05:11Z</time></trkpt><trkpt lat="44.75682317706444" lon="7.850459703833018"><ele>375.0</ele><time>2026-04-10T10:05:14Z</time></trkpt><trkpt lat="44.75681892954524" lon="7.850571104155696"><ele>375.0</ele><time>2026-04-10T10:05:17Z</time></trkpt><trkpt lat="44.756815600729304" lon="7.8506883962394065"><ele>375.0</ele><time>2026-04-10T10:05:20Z</time></trkpt><trkpt lat="44.75680654383045" lon="7.85081534997681"><ele>375.0</ele><time>2026-04-10T10:05:23Z</time></trkpt><trkpt lat="44.756824407988496" lon="7.850919694226177"><ele>375.0</ele><time>2026-04-10T10:05:26Z</time></trkpt><trkpt lat="44.75682071054497" lon="7.851020869424828"><ele>375.0</ele><time>2026-04-10T10:05:28Z</time></trkpt><trkpt lat="44.75683143912002" lon="7.851160132749621"><ele>375.0</ele><time>2026-04-10T10:05:31Z</time></trkpt><trkpt lat="44.7568320911544" lon="7.8512610960975655"><ele>375.0</ele><time>2026-04-10T10:05:33Z</time></trkpt><trkpt lat="44.75682701341147" lon="7.8513613786539675"><ele>375.0</ele><time>2026-04-10T10:05:35Z</time></trkpt><trkpt lat="44.756822075270755" lon="7.851456309264644"><ele>375.0</ele><time>2026-04-10T10:05:37Z</time></trkpt><trkpt lat="44.75682233993571" lon="7.8515915247827675"><ele>375.0</ele><time>2026-04-10T10:05:40Z</time></trkpt><trkpt lat="44.75681785607791" lon="7.851684088884096"><ele>375.0</ele><time>2026-04-10T10:05:42Z</time></trkpt><trkpt lat="44.75681234014956" lon="7.85177521770796"><ele>375.0</ele><time>2026-04-10T10:05:44Z</time></trkpt><trkpt lat="44.756806269038876" lon="7.851873235860996"><ele>375.0</ele><time>2026-04-10T10:05:46Z</time></trkpt><trkpt lat="44.75680796059401" lon="7.852001331244844"><ele>375.6666666666667</ele><time>2026-04-10T10:05:49Z</time></trkpt><trkpt lat="44.75679289733824" lon="7.852128151331565"><ele>376.3333333333333</ele><time>2026-04-10T10:05:52Z</time></trkpt><trkpt lat="44.75678747545682" lon="7.852216590712206"><ele>377.0</ele><time>2026-04-10T10:05:54Z</time></trkpt><trkpt lat="44.75678114424717" lon="7.852305146940015"><ele>377.66666666666663</ele><time>2026-04-10T10:05:56Z</time></trkpt><trkpt lat="44.75677227605612" lon="7.852413248760182"><ele>378.3333333333333</ele><time>2026-04-10T10:05:59Z</time></trkpt><trkpt lat="44.75677373067438" lon="7.852543073878526"><ele>379.0</ele><time>2026-04-10T10:06:02Z</time></trkpt><trkpt lat="44.75678826375595" lon="7.8526441715241075"><ele>379.3333333333333</ele><time>2026-04-10T10:06:04Z</time></trkpt><trkpt lat="44.756807940728805" lon="7.8527422986178"><ele>379.66666666666663</ele><time>2026-04-10T10:06:06Z</time></trkpt><trkpt lat="44.75683516763451" lon="7.852842870589393"><ele>380.0</ele><time>2026-04-10T10:06:08Z</time></trkpt><trkpt lat="44.75685502328626" lon="7.852949812076021"><ele>380.3333333333333</ele><time>2026-04-10T10:06:10Z</time></trkpt><trkpt lat="44.756845667187655" lon="7.853078740581702"><ele>380.6666666666667</ele><time>2026-04-10T10:06:12Z</time></trkpt><trkpt lat="44.756836792846336" lon="7.853177300243081"><ele>381.0</ele><time>2026-04-10T10:06:15Z</time></trkpt><trkpt lat="44.756800433386665" lon="7.853307453046128"><ele>381.0</ele><time>2026-04-10T10:06:17Z</time></trkpt><trkpt lat="44.75676684071414" lon="7.853401441370883"><ele>381.0</ele><time>2026-04-10T10:06:19Z</time></trkpt><trkpt lat="44.756729573268146" lon="7.853541480539348"><ele>381.0</ele><time>2026-04-10T10:06:22Z</time></trkpt><trkpt lat="44.756693009448526" lon="7.8536195548737116"><ele>381.0</ele><time>2026-04-10T10:06:24Z</time></trkpt><trkpt lat="44.756666933820284" lon="7.853707743028166"><ele>381.0</ele><time>2026-04-10T10:06:26Z</time></trkpt><trkpt lat="44.75661250276036" lon="7.853850674638623"><ele>381.0</ele><time>2026-04-10T10:06:28Z</time></trkpt><trkpt lat="44.75658864945248" lon="7.853974008729126"><ele>381.4285714285714</ele><time>2026-04-10T10:06:32Z</time></trkpt><trkpt lat="44.756566718379005" lon="7.854067155776098"><ele>381.8571428571429</ele><time>2026-04-10T10:06:35Z</time></trkpt><trkpt lat="44.75655747188173" lon="7.854172288612898"><ele>382.2857142857143</ele><time>2026-04-10T10:06:38Z</time></trkpt><trkpt lat="44.75655148609991" lon="7.854272168735978"><ele>382.71428571428567</ele><time>2026-04-10T10:06:41Z</time></trkpt><trkpt lat="44.75651686169535" lon="7.85438674085805"><ele>383.1428571428571</ele><time>2026-04-10T10:06:44Z</time></trkpt><trkpt lat="44.756486206324276" lon="7.8544805300553255"><ele>383.57142857142856</ele><time>2026-04-10T10:06:47Z</time></trkpt><trkpt lat="44.75643852774888" lon="7.854539960711042"><ele>384.0</ele><time>2026-04-10T10:06:49Z</time></trkpt><trkpt lat="44.75640041446179" lon="7.854630681228547"><ele>383.99999999999994</ele><time>2026-04-10T10:06:52Z</time></trkpt><trkpt lat="44.756349862787324" lon="7.854703958876371"><ele>384.0</ele><time>2026-04-10T10:06:56Z</time></trkpt><trkpt lat="44.756311711678386" lon="7.854784599241728"><ele>384.0</ele><time>2026-04-10T10:07:01Z</time></trkpt><trkpt lat="44.7562636321558" lon="7.8548958103787605"><ele>384.0</ele><time>2026-04-10T10:07:06Z</time></trkpt><trkpt lat="44.75622908414824" lon="7.854973427980927"><ele>384.0</ele><time>2026-04-10T10:07:10Z</time></trkpt><trkpt lat="44.75618077475392" lon="7.855074675633039"><ele>383.99999999999994</ele><time>2026-04-10T10:07:14Z</time></trkpt><trkpt lat="44.756128734900095" lon="7.855126160878001"><ele>384.0</ele><time>2026-04-10T10:07:17Z</time></trkpt><trkpt lat="44.756062712331364" lon="7.855194667236541"><ele>384.5</ele><time>2026-04-10T10:07:20Z</time></trkpt><trkpt lat="44.755997142073355" lon="7.855282959411835"><ele>385.0</ele><time>2026-04-10T10:07:24Z</time></trkpt><trkpt lat="44.75593449344664" lon="7.855345549689869"><ele>385.5</ele><time>2026-04-10T10:07:27Z</time></trkpt><trkpt lat="44.75588827639385" lon="7.855423470733181"><ele>386.0</ele><time>2026-04-10T10:07:31Z</time></trkpt><trkpt lat="44.755861357874245" lon="7.855526980501202"><ele>386.5</ele><time>2026-04-10T10:07:34Z</time></trkpt><trkpt lat="44.75582564674701" lon="7.855618146393679"><ele>387.0</ele><time>2026-04-10T10:07:37Z</time></trkpt><trkpt lat="44.755783177939286" lon="7.85570577317768"><ele>387.0</ele><time>2026-04-10T10:07:40Z</time></trkpt><trkpt lat="44.755750082166" lon="7.855804980748093"><ele>387.0</ele><time>2026-04-10T10:07:42Z</time></trkpt><trkpt lat="44.755701487744105" lon="7.855914291458102"><ele>387.0</ele><time>2026-04-10T10:07:45Z</time></trkpt><trkpt lat="44.75565343064602" lon="7.856004970244905"><ele>387.0</ele><time>2026-04-10T10:07:48Z</time></trkpt><trkpt lat="44.75561016052445" lon="7.856104631211537"><ele>387.0</ele><time>2026-04-10T10:07:51Z</time></trkpt><trkpt lat="44.755575332567375" lon="7.856184608362108"><ele>387.0</ele><time>2026-04-10T10:07:53Z</time></trkpt><trkpt lat="44.75554395167625" lon="7.856286857968949"><ele>387.14285714285717</ele><time>2026-04-10T10:07:55Z</time></trkpt><trkpt lat="44.75551360644593" lon="7.856368763936694"><ele>387.28571428571433</ele><time>2026-04-10T10:07:57Z</time></trkpt><trkpt lat="44.75548150541685" lon="7.8564626507175985"><ele>387.42857142857144</ele><time>2026-04-10T10:07:59Z</time></trkpt><trkpt lat="44.75545166270816" lon="7.856565640929677"><ele>387.57142857142856</ele><time>2026-04-10T10:08:01Z</time></trkpt><trkpt lat="44.75542650072854" lon="7.856658985479858"><ele>387.7142857142857</ele><time>2026-04-10T10:08:03Z</time></trkpt><trkpt lat="44.7553961449462" lon="7.856763725860859"><ele>387.85714285714283</ele><time>2026-04-10T10:08:06Z</time></trkpt><trkpt lat="44.755369590023896" lon="7.856863401361817"><ele>388.0</ele><time>2026-04-10T10:08:08Z</time></trkpt><trkpt lat="44.75533606940109" lon="7.856970582270861"><ele>387.57142857142856</ele><time>2026-04-10T10:08:10Z</time></trkpt><trkpt lat="44.75530728846955" lon="7.857052895046048"><ele>387.14285714285717</ele><time>2026-04-10T10:08:12Z</time></trkpt><trkpt lat="44.755341179652305" lon="7.857130333159572"><ele>386.7142857142857</ele><time>2026-04-10T10:08:18Z</time></trkpt><trkpt lat="44.75540433717357" lon="7.857194884777696"><ele>386.2857142857143</ele><time>2026-04-10T10:08:22Z</time></trkpt><trkpt lat="44.755470224732456" lon="7.857196645074089"><ele>385.8571428571429</ele><time>2026-04-10T10:08:24Z</time></trkpt><trkpt lat="44.755551169192216" lon="7.8571976521078435"><ele>385.42857142857144</ele><time>2026-04-10T10:08:26Z</time></trkpt><trkpt lat="44.75561726973495" lon="7.8571731353005605"><ele>385.0</ele><time>2026-04-10T10:08:28Z</time></trkpt><trkpt lat="44.75569542468009" lon="7.857172897347642"><ele>385.00000000000006</ele><time>2026-04-10T10:08:30Z</time></trkpt><trkpt lat="44.75576665742433" lon="7.857160455004032"><ele>385.0</ele><time>2026-04-10T10:08:32Z</time></trkpt><trkpt lat="44.75584661163984" lon="7.857124021395596"><ele>385.0</ele><time>2026-04-10T10:08:34Z</time></trkpt><trkpt lat="44.75592377982944" lon="7.857067972828325"><ele>385.0</ele><time>2026-04-10T10:08:36Z</time></trkpt><trkpt lat="44.755997369503355" lon="7.857037901465493"><ele>385.00000000000006</ele><time>2026-04-10T10:08:38Z</time></trkpt><trkpt lat="44.75609993361123" lon="7.857043403152189"><ele>385.0</ele><time>2026-04-10T10:08:40Z</time></trkpt><trkpt lat="44.75618793662614" lon="7.857030023918552"><ele>383.8</ele><time>2026-04-10T10:08:42Z</time></trkpt><trkpt lat="44.75627940798498" lon="7.857030542253741"><ele>382.6</ele><time>2026-04-10T10:08:44Z</time></trkpt><trkpt lat="44.75637285880811" lon="7.857028181469675"><ele>381.4</ele><time>2026-04-10T10:08:46Z</time></trkpt><trkpt lat="44.75648040411173" lon="7.857001224970937"><ele>380.2</ele><time>2026-04-10T10:08:48Z</time></trkpt><trkpt lat="44.75654816405847" lon="7.856949828798218"><ele>379.0</ele><time>2026-04-10T10:08:50Z</time></trkpt><trkpt lat="44.756599125638985" lon="7.856865646319723"><ele>379.6</ele><time>2026-04-10T10:08:52Z</time></trkpt><trkpt lat="44.75659733778182" lon="7.8567707791279275"><ele>380.2</ele><time>2026-04-10T10:08:54Z</time></trkpt><trkpt lat="44.75671435929024" lon="7.856692070733783"><ele>380.8</ele><time>2026-04-10T10:08:57Z</time></trkpt><trkpt lat="44.75681267463757" lon="7.856669192055672"><ele>381.40000000000003</ele><time>2026-04-10T10:08:59Z</time></trkpt><trkpt lat="44.75691853454685" lon="7.856601539585248"><ele>382.0</ele><time>2026-04-10T10:09:01Z</time></trkpt><trkpt lat="44.75696948181663" lon="7.856528696430599"><ele>379.8333333333333</ele><time>2026-04-10T10:09:03Z</time></trkpt><trkpt lat="44.757040436998516" lon="7.856467420575051"><ele>377.66666666666663</ele><time>2026-04-10T10:09:06Z</time></trkpt><trkpt lat="44.75710415360436" lon="7.856428254342069"><ele>375.5</ele><time>2026-04-10T10:09:09Z</time></trkpt><trkpt lat="44.757173390017684" lon="7.856405449182405"><ele>373.3333333333333</ele><time>2026-04-10T10:09:13Z</time></trkpt><trkpt lat="44.75726246917625" lon="7.856392974138996"><ele>371.1666666666667</ele><time>2026-04-10T10:09:16Z</time></trkpt><trkpt lat="44.75732195494606" lon="7.856329865058816"><ele>369.0</ele><time>2026-04-10T10:09:19Z</time></trkpt><trkpt lat="44.757358056641465" lon="7.856247909679067"><ele>369.0</ele><time>2026-04-10T10:09:22Z</time></trkpt><trkpt lat="44.757358829068885" lon="7.856131099474845"><ele>369.0</ele><time>2026-04-10T10:09:25Z</time></trkpt><trkpt lat="44.757301463542774" lon="7.856068131851012"><ele>369.0</ele><time>2026-04-10T10:09:28Z</time></trkpt><trkpt lat="44.75723550568558" lon="7.856023423591925"><ele>369.0</ele><time>2026-04-10T10:09:30Z</time></trkpt><trkpt lat="44.757153122587475" lon="7.855969943468613"><ele>369.0</ele><time>2026-04-10T10:09:33Z</time></trkpt><trkpt lat="44.75713241856972" lon="7.855878591745326"><ele>369.0</ele><time>2026-04-10T10:09:36Z</time></trkpt><trkpt lat="44.757170078496" lon="7.855765045187955"><ele>369.3333333333333</ele><time>2026-04-10T10:09:40Z</time></trkpt><trkpt lat="44.757239854701915" lon="7.855711205838825"><ele>369.6666666666667</ele><time>2026-04-10T10:09:43Z</time></trkpt><trkpt lat="44.75730280633663" lon="7.855612212345059"><ele>370.0</ele><time>2026-04-10T10:09:46Z</time></trkpt><trkpt lat="44.75738080715583" lon="7.855508520782789"><ele>370.33333333333337</ele><time>2026-04-10T10:09:48Z</time></trkpt><trkpt lat="44.757427216030216" lon="7.855424066665348"><ele>370.6666666666667</ele><time>2026-04-10T10:09:49Z</time></trkpt><trkpt lat="44.75749432382983" lon="7.85537395874064"><ele>371.0</ele><time>2026-04-10T10:09:51Z</time></trkpt><trkpt lat="44.75754175322962" lon="7.855311159894475"><ele>371.0</ele><time>2026-04-10T10:09:53Z</time></trkpt><trkpt lat="44.75758343789087" lon="7.8552434910942965"><ele>371.0</ele><time>2026-04-10T10:09:55Z</time></trkpt><trkpt lat="44.75762017465404" lon="7.855150564486436"><ele>371.0</ele><time>2026-04-10T10:09:57Z</time></trkpt><trkpt lat="44.757678137152624" lon="7.85511465096955"><ele>371.0</ele><time>2026-04-10T10:09:58Z</time></trkpt><trkpt lat="44.75786522122282" lon="7.855135718104074"><ele>371.0</ele><time>2026-04-10T10:10:03Z</time></trkpt><trkpt lat="44.75793293118022" lon="7.855158876710429"><ele>370.42857142857144</ele><time>2026-04-10T10:10:05Z</time></trkpt><trkpt lat="44.75799617662331" lon="7.855181345920659"><ele>369.8571428571429</ele><time>2026-04-10T10:10:07Z</time></trkpt><trkpt lat="44.7580627984125" lon="7.855212954099365"><ele>369.2857142857143</ele><time>2026-04-10T10:10:09Z</time></trkpt><trkpt lat="44.758128430404376" lon="7.855240588145098"><ele>368.7142857142857</ele><time>2026-04-10T10:10:11Z</time></trkpt><trkpt lat="44.75818712950022" lon="7.855282729223444"><ele>368.14285714285717</ele><time>2026-04-10T10:10:13Z</time></trkpt><trkpt lat="44.75826241767948" lon="7.855309197279305"><ele>367.57142857142856</ele><time>2026-04-10T10:10:15Z</time></trkpt><trkpt lat="44.758333044314135" lon="7.855318103303611"><ele>367.0</ele><time>2026-04-10T10:10:18Z</time></trkpt><trkpt lat="44.75841932110824" lon="7.855292691693864"><ele>367.0</ele><time>2026-04-10T10:10:21Z</time></trkpt><trkpt lat="44.758484725967946" lon="7.855229617729621"><ele>367.0</ele><time>2026-04-10T10:10:24Z</time></trkpt><trkpt lat="44.75854684518828" lon="7.855170458153299"><ele>367.0</ele><time>2026-04-10T10:10:27Z</time></trkpt><trkpt lat="44.758608817061344" lon="7.855100874814132"><ele>367.0</ele><time>2026-04-10T10:10:30Z</time></trkpt><trkpt lat="44.758679973674575" lon="7.855039072751797"><ele>367.0</ele><time>2026-04-10T10:10:33Z</time></trkpt><trkpt lat="44.758747448773654" lon="7.854978611961522"><ele>367.0</ele><time>2026-04-10T10:10:36Z</time></trkpt><trkpt lat="44.75881248475108" lon="7.854927176729067"><ele>367.2857142857143</ele><time>2026-04-10T10:10:39Z</time></trkpt><trkpt lat="44.75886932299002" lon="7.854885491595489"><ele>367.5714285714286</ele><time>2026-04-10T10:10:42Z</time></trkpt><trkpt lat="44.75893515227761" lon="7.854838524906434"><ele>367.8571428571429</ele><time>2026-04-10T10:10:45Z</time></trkpt><trkpt lat="44.7589925653143" lon="7.854796397028474"><ele>368.1428571428571</ele><time>2026-04-10T10:10:48Z</time></trkpt><trkpt lat="44.75905822972331" lon="7.854760520273077"><ele>368.42857142857144</ele><time>2026-04-10T10:10:52Z</time></trkpt><trkpt lat="44.75912762109674" lon="7.854723297792265"><ele>368.7142857142857</ele><time>2026-04-10T10:10:57Z</time></trkpt><trkpt lat="44.75918739074321" lon="7.85468803684557"><ele>369.0</ele><time>2026-04-10T10:11:01Z</time></trkpt><trkpt lat="44.75925867231988" lon="7.854652711277102"><ele>369.0</ele><time>2026-04-10T10:11:06Z</time></trkpt><trkpt lat="44.759329121253536" lon="7.854654232059638"><ele>369.0</ele><time>2026-04-10T10:11:11Z</time></trkpt><trkpt lat="44.759394976959804" lon="7.854650243507366"><ele>369.0</ele><time>2026-04-10T10:11:14Z</time></trkpt><trkpt lat="44.759467152006174" lon="7.854651990756476"><ele>369.0</ele><time>2026-04-10T10:11:17Z</time></trkpt><trkpt lat="44.75953896115462" lon="7.854636877800606"><ele>369.0</ele><time>2026-04-10T10:11:21Z</time></trkpt><trkpt lat="44.75960845922242" lon="7.8546339191785846"><ele>369.0</ele><time>2026-04-10T10:11:25Z</time></trkpt><trkpt lat="44.7596900257366" lon="7.854633858979637"><ele>369.0</ele><time>2026-04-10T10:11:29Z</time></trkpt><trkpt lat="44.75972885344136" lon="7.854705316006762"><ele>369.0</ele><time>2026-04-10T10:11:33Z</time></trkpt><trkpt lat="44.75971196097953" lon="7.854798855760716"><ele>369.0</ele><time>2026-04-10T10:11:37Z</time></trkpt><trkpt lat="44.75968394348974" lon="7.854884111185958"><ele>369.0</ele><time>2026-04-10T10:11:41Z</time></trkpt><trkpt lat="44.759663294634734" lon="7.854970353533955"><ele>369.0</ele><time>2026-04-10T10:11:45Z</time></trkpt><trkpt lat="44.75962623979867" lon="7.855065674246269"><ele>369.0</ele><time>2026-04-10T10:11:49Z</time></trkpt><trkpt lat="44.75960105528964" lon="7.855171555761711"><ele>369.0</ele><time>2026-04-10T10:11:54Z</time></trkpt><trkpt lat="44.75952982471135" lon="7.855233594486473"><ele>369.0</ele><time>2026-04-10T10:11:57Z</time></trkpt><trkpt lat="44.75949454708143" lon="7.8553178419878344"><ele>369.2857142857143</ele><time>2026-04-10T10:12:00Z</time></trkpt><trkpt lat="44.75945692348304" lon="7.85540981522764"><ele>369.57142857142856</ele><time>2026-04-10T10:12:04Z</time></trkpt><trkpt lat="44.75941985318766" lon="7.855508863933405"><ele>369.8571428571429</ele><time>2026-04-10T10:12:07Z</time></trkpt><trkpt lat="44.75938410436367" lon="7.8556129849722796"><ele>370.1428571428571</ele><time>2026-04-10T10:12:11Z</time></trkpt><trkpt lat="44.75935716615309" lon="7.855698464517138"><ele>370.42857142857144</ele><time>2026-04-10T10:12:14Z</time></trkpt><trkpt lat="44.75932864977447" lon="7.855792372510133"><ele>370.7142857142857</ele><time>2026-04-10T10:12:17Z</time></trkpt><trkpt lat="44.75930236305329" lon="7.85588235147001"><ele>371.0</ele><time>2026-04-10T10:12:20Z</time></trkpt><trkpt lat="44.75927676705742" lon="7.855970164831178"><ele>372.33333333333337</ele><time>2026-04-10T10:12:23Z</time></trkpt><trkpt lat="44.75925063217239" lon="7.856063068095124"><ele>373.6666666666667</ele><time>2026-04-10T10:12:26Z</time></trkpt><trkpt lat="44.75922342213513" lon="7.856164763063795"><ele>375.0</ele><time>2026-04-10T10:12:29Z</time></trkpt><trkpt lat="44.75919689781069" lon="7.856263895198346"><ele>376.3333333333333</ele><time>2026-04-10T10:12:32Z</time></trkpt><trkpt lat="44.759165565157524" lon="7.8563806707501085"><ele>377.66666666666663</ele><time>2026-04-10T10:12:35Z</time></trkpt><trkpt lat="44.759143487933585" lon="7.85650417067965"><ele>379.0</ele><time>2026-04-10T10:12:38Z</time></trkpt><trkpt lat="44.75911305151797" lon="7.85661060150267"><ele>379.00000000000006</ele><time>2026-04-10T10:12:41Z</time></trkpt><trkpt lat="44.75906970738969" lon="7.856711907209604"><ele>379.0</ele><time>2026-04-10T10:12:44Z</time></trkpt><trkpt lat="44.75904539512916" lon="7.8568064752885824"><ele>379.0</ele><time>2026-04-10T10:12:46Z</time></trkpt><trkpt lat="44.759028236390265" lon="7.856897536657511"><ele>379.0</ele><time>2026-04-10T10:12:48Z</time></trkpt><trkpt lat="44.758996795554886" lon="7.856978220167074"><ele>379.0</ele><time>2026-04-10T10:12:50Z</time></trkpt><trkpt lat="44.7589676039125" lon="7.85706000794878"><ele>379.00000000000006</ele><time>2026-04-10T10:12:52Z</time></trkpt><trkpt lat="44.75893423821346" lon="7.857187082545897"><ele>379.0</ele><time>2026-04-10T10:12:55Z</time></trkpt><trkpt lat="44.75890603449738" lon="7.857271791078593"><ele>379.3333333333333</ele><time>2026-04-10T10:12:57Z</time></trkpt><trkpt lat="44.758863440315686" lon="7.857359396662597"><ele>379.66666666666663</ele><time>2026-04-10T10:12:59Z</time></trkpt><trkpt lat="44.75883407857677" lon="7.857443494292343"><ele>380.0</ele><time>2026-04-10T10:13:01Z</time></trkpt><trkpt lat="44.75881789092464" lon="7.8575375233269416"><ele>380.3333333333333</ele><time>2026-04-10T10:13:03Z</time></trkpt><trkpt lat="44.758773742466104" lon="7.85762182610654"><ele>380.6666666666667</ele><time>2026-04-10T10:13:05Z</time></trkpt><trkpt lat="44.75873570213685" lon="7.857717777816198"><ele>381.0</ele><time>2026-04-10T10:13:08Z</time></trkpt><trkpt lat="44.75869555822152" lon="7.857829683138083"><ele>381.2857142857143</ele><time>2026-04-10T10:13:11Z</time></trkpt><trkpt lat="44.75866532407551" lon="7.857915318635821"><ele>381.5714285714286</ele><time>2026-04-10T10:13:13Z</time></trkpt><trkpt lat="44.758627352017726" lon="7.858022871021691"><ele>381.8571428571429</ele><time>2026-04-10T10:13:16Z</time></trkpt><trkpt lat="44.758611658876816" lon="7.85811683889998"><ele>382.1428571428571</ele><time>2026-04-10T10:13:18Z</time></trkpt><trkpt lat="44.75857958434452" lon="7.858205294618753"><ele>382.42857142857144</ele><time>2026-04-10T10:13:20Z</time></trkpt><trkpt lat="44.75854501576165" lon="7.858297666536577"><ele>382.7142857142857</ele><time>2026-04-10T10:13:22Z</time></trkpt><trkpt lat="44.75851348338228" lon="7.858394553172885"><ele>383.0</ele><time>2026-04-10T10:13:25Z</time></trkpt><trkpt lat="44.7584736697323" lon="7.858478813582191"><ele>383.33333333333337</ele><time>2026-04-10T10:13:27Z</time></trkpt><trkpt lat="44.75843632324199" lon="7.858583310834067"><ele>383.6666666666667</ele><time>2026-04-10T10:13:30Z</time></trkpt><trkpt lat="44.758403366654164" lon="7.858693391223231"><ele>384.0</ele><time>2026-04-10T10:13:33Z</time></trkpt><trkpt lat="44.7583741883011" lon="7.858780446119989"><ele>384.33333333333337</ele><time>2026-04-10T10:13:36Z</time></trkpt><trkpt lat="44.758323825913195" lon="7.858886759379457"><ele>384.6666666666667</ele><time>2026-04-10T10:13:39Z</time></trkpt><trkpt lat="44.75829079377308" lon="7.859007433310005"><ele>385.0</ele><time>2026-04-10T10:13:42Z</time></trkpt><trkpt lat="44.75826587647545" lon="7.8590983422323895"><ele>385.00000000000006</ele><time>2026-04-10T10:13:45Z</time></trkpt><trkpt lat="44.75823139137629" lon="7.85917959739908"><ele>385.0</ele><time>2026-04-10T10:13:47Z</time></trkpt><trkpt lat="44.75820534646641" lon="7.859276126383017"><ele>385.0</ele><time>2026-04-10T10:13:50Z</time></trkpt><trkpt lat="44.75817004353857" lon="7.859390565567758"><ele>385.0</ele><time>2026-04-10T10:13:53Z</time></trkpt><trkpt lat="44.75812657942465" lon="7.859470467301898"><ele>385.00000000000006</ele><time>2026-04-10T10:13:55Z</time></trkpt><trkpt lat="44.75809668869211" lon="7.859585396822345"><ele>385.0</ele><time>2026-04-10T10:13:58Z</time></trkpt><trkpt lat="44.75807343028748" lon="7.8596724344278615"><ele>385.00000000000006</ele><time>2026-04-10T10:14:00Z</time></trkpt><trkpt lat="44.7580309559751" lon="7.8597469057036795"><ele>385.0</ele><time>2026-04-10T10:14:02Z</time></trkpt><trkpt lat="44.75798675819415" lon="7.859864100443056"><ele>385.0</ele><time>2026-04-10T10:14:05Z</time></trkpt><trkpt lat="44.75795239362306" lon="7.859949331568048"><ele>385.0</ele><time>2026-04-10T10:14:07Z</time></trkpt><trkpt lat="44.75791823652071" lon="7.860027635451532"><ele>385.00000000000006</ele><time>2026-04-10T10:14:09Z</time></trkpt><trkpt lat="44.75786972256398" lon="7.860130527037048"><ele>385.0</ele><time>2026-04-10T10:14:12Z</time></trkpt><trkpt lat="44.75782628446708" lon="7.860218775745137"><ele>385.50000000000006</ele><time>2026-04-10T10:14:15Z</time></trkpt><trkpt lat="44.75776683482395" lon="7.860323885253606"><ele>386.0</ele><time>2026-04-10T10:14:18Z</time></trkpt><trkpt lat="44.757707544799516" lon="7.860398647485624"><ele>386.5</ele><time>2026-04-10T10:14:21Z</time></trkpt><trkpt lat="44.75763570994396" lon="7.860470422313797"><ele>387.0</ele><time>2026-04-10T10:14:24Z</time></trkpt><trkpt lat="44.7575801806445" lon="7.860524062592322"><ele>387.50000000000006</ele><time>2026-04-10T10:14:26Z</time></trkpt><trkpt lat="44.75753099579912" lon="7.860593598991853"><ele>388.0</ele><time>2026-04-10T10:14:29Z</time></trkpt><trkpt lat="44.75745885033883" lon="7.860651183491827"><ele>388.00000000000006</ele><time>2026-04-10T10:14:32Z</time></trkpt><trkpt lat="44.75737816073299" lon="7.860712979344914"><ele>388.0</ele><time>2026-04-10T10:14:35Z</time></trkpt><trkpt lat="44.75731538713862" lon="7.860754549354177"><ele>388.0</ele><time>2026-04-10T10:14:37Z</time></trkpt><trkpt lat="44.757253301279036" lon="7.860792691533186"><ele>388.0</ele><time>2026-04-10T10:14:39Z</time></trkpt><trkpt lat="44.75717032336074" lon="7.860837162411581"><ele>388.00000000000006</ele><time>2026-04-10T10:14:42Z</time></trkpt><trkpt lat="44.75710158936135" lon="7.860867424335108"><ele>388.0</ele><time>2026-04-10T10:14:45Z</time></trkpt><trkpt lat="44.7570386133239" lon="7.860889504215589"><ele>388.00000000000006</ele><time>2026-04-10T10:14:47Z</time></trkpt><trkpt lat="44.75695249981326" lon="7.860909937075232"><ele>388.0</ele><time>2026-04-10T10:14:51Z</time></trkpt><trkpt lat="44.75687905908082" lon="7.860920601718222"><ele>388.0</ele><time>2026-04-10T10:14:54Z</time></trkpt><trkpt lat="44.75680708750709" lon="7.860939309726396"><ele>388.0</ele><time>2026-04-10T10:14:57Z</time></trkpt><trkpt lat="44.75672129422031" lon="7.860944768362416"><ele>388.00000000000006</ele><time>2026-04-10T10:15:00Z</time></trkpt><trkpt lat="44.75664576194436" lon="7.860954979763094"><ele>388.0</ele><time>2026-04-10T10:15:03Z</time></trkpt><trkpt lat="44.756554256055026" lon="7.860979525060855"><ele>387.6666666666667</ele><time>2026-04-10T10:15:06Z</time></trkpt><trkpt lat="44.75645624077481" lon="7.860978167720081"><ele>387.33333333333337</ele><time>2026-04-10T10:15:09Z</time></trkpt><trkpt lat="44.75638112502456" lon="7.861005133983718"><ele>387.0</ele><time>2026-04-10T10:15:11Z</time></trkpt><trkpt lat="44.75630844180299" lon="7.861037438686458"><ele>386.66666666666663</ele><time>2026-04-10T10:15:14Z</time></trkpt><trkpt lat="44.75622728605294" lon="7.861078376670825"><ele>386.3333333333333</ele><time>2026-04-10T10:15:17Z</time></trkpt><trkpt lat="44.756163579416395" lon="7.861113850160774"><ele>386.0</ele><time>2026-04-10T10:15:19Z</time></trkpt><trkpt lat="44.75607606134647" lon="7.861166935890368"><ele>386.42857142857144</ele><time>2026-04-10T10:15:22Z</time></trkpt><trkpt lat="44.7560067343908" lon="7.861213951201241"><ele>386.8571428571429</ele><time>2026-04-10T10:15:25Z</time></trkpt><trkpt lat="44.75593980790349" lon="7.861234487861181"><ele>387.28571428571433</ele><time>2026-04-10T10:15:27Z</time></trkpt><trkpt lat="44.755877978873244" lon="7.861264405224387"><ele>387.7142857142857</ele><time>2026-04-10T10:15:29Z</time></trkpt><trkpt lat="44.755816201539574" lon="7.861283979889963"><ele>388.1428571428571</ele><time>2026-04-10T10:15:31Z</time></trkpt><trkpt lat="44.75573507087514" lon="7.861324894455958"><ele>388.5714285714286</ele><time>2026-04-10T10:15:34Z</time></trkpt><trkpt lat="44.75567348802862" lon="7.8613480103093405"><ele>389.0</ele><time>2026-04-10T10:15:36Z</time></trkpt><trkpt lat="44.75561556959488" lon="7.861393837445318"><ele>388.99999999999994</ele><time>2026-04-10T10:15:38Z</time></trkpt><trkpt lat="44.755559051863386" lon="7.861467194917217"><ele>389.0</ele><time>2026-04-10T10:15:40Z</time></trkpt><trkpt lat="44.75547931595268" lon="7.8615071211184"><ele>389.0</ele><time>2026-04-10T10:15:43Z</time></trkpt><trkpt lat="44.75541858233246" lon="7.861558042864312"><ele>389.0</ele><time>2026-04-10T10:15:45Z</time></trkpt><trkpt lat="44.75536139594778" lon="7.8616128122856965"><ele>388.99999999999994</ele><time>2026-04-10T10:15:47Z</time></trkpt><trkpt lat="44.75528614065241" lon="7.861709316755847"><ele>389.0</ele><time>2026-04-10T10:15:50Z</time></trkpt><trkpt lat="44.75521104364547" lon="7.861765888192664"><ele>389.3333333333333</ele><time>2026-04-10T10:15:53Z</time></trkpt><trkpt lat="44.75514878211436" lon="7.86181301135411"><ele>389.66666666666663</ele><time>2026-04-10T10:15:55Z</time></trkpt><trkpt lat="44.75509368189457" lon="7.861875477274914"><ele>390.0</ele><time>2026-04-10T10:15:57Z</time></trkpt><trkpt lat="44.755017091909224" lon="7.8619508264481395"><ele>390.33333333333337</ele><time>2026-04-10T10:16:00Z</time></trkpt><trkpt lat="44.75494329020613" lon="7.862030641877111"><ele>390.6666666666667</ele><time>2026-04-10T10:16:03Z</time></trkpt><trkpt lat="44.754869671959085" lon="7.862121958669188"><ele>391.0</ele><time>2026-04-10T10:16:06Z</time></trkpt><trkpt lat="44.75481739370654" lon="7.862197963408815"><ele>391.00000000000006</ele><time>2026-04-10T10:16:08Z</time></trkpt><trkpt lat="44.75474008987813" lon="7.8622755343604505"><ele>391.0</ele><time>2026-04-10T10:16:11Z</time></trkpt><trkpt lat="44.75467612263725" lon="7.86233451586683"><ele>391.0</ele><time>2026-04-10T10:16:13Z</time></trkpt><trkpt lat="44.754601639905026" lon="7.862417213501879"><ele>391.0</ele><time>2026-04-10T10:16:16Z</time></trkpt><trkpt lat="44.754527842345425" lon="7.862486802192415"><ele>391.00000000000006</ele><time>2026-04-10T10:16:19Z</time></trkpt><trkpt lat="44.75446020836256" lon="7.862577158069099"><ele>391.0</ele><time>2026-04-10T10:16:22Z</time></trkpt><trkpt lat="44.75441364196198" lon="7.86264482181069"><ele>391.83333333333337</ele><time>2026-04-10T10:16:24Z</time></trkpt><trkpt lat="44.75435261788605" lon="7.862741643731288"><ele>392.6666666666667</ele><time>2026-04-10T10:16:27Z</time></trkpt><trkpt lat="44.7542940675209" lon="7.862808913840388"><ele>393.5</ele><time>2026-04-10T10:16:30Z</time></trkpt><trkpt lat="44.75424033141868" lon="7.862890796583717"><ele>394.33333333333337</ele><time>2026-04-10T10:16:32Z</time></trkpt><trkpt lat="44.754193139606414" lon="7.86297350661892"><ele>395.1666666666667</ele><time>2026-04-10T10:16:34Z</time></trkpt><trkpt lat="44.754143947474184" lon="7.86303946316878"><ele>396.0</ele><time>2026-04-10T10:16:36Z</time></trkpt><trkpt lat="44.75409262406585" lon="7.863119645013871"><ele>396.0</ele><time>2026-04-10T10:16:38Z</time></trkpt><trkpt lat="44.754044338347434" lon="7.8631770492835"><ele>396.0</ele><time>2026-04-10T10:16:40Z</time></trkpt><trkpt lat="44.75399576653048" lon="7.8632511000198475"><ele>396.0</ele><time>2026-04-10T10:16:42Z</time></trkpt><trkpt lat="44.7539469158645" lon="7.86331908312344"><ele>396.0</ele><time>2026-04-10T10:16:44Z</time></trkpt><trkpt lat="44.7538952517442" lon="7.8633737344684596"><ele>396.0</ele><time>2026-04-10T10:16:46Z</time></trkpt><trkpt lat="44.75385870527576" lon="7.863459992096034"><ele>396.0</ele><time>2026-04-10T10:16:48Z</time></trkpt><trkpt lat="44.753824897838044" lon="7.863558621531238"><ele>396.0</ele><time>2026-04-10T10:16:50Z</time></trkpt><trkpt lat="44.75376633179541" lon="7.863610193917245"><ele>396.0</ele><time>2026-04-10T10:16:52Z</time></trkpt><trkpt lat="44.75372141722553" lon="7.863689083673493"><ele>396.0</ele><time>2026-04-10T10:16:54Z</time></trkpt><trkpt lat="44.75365245474764" lon="7.863722864938206"><ele>396.0</ele><time>2026-04-10T10:16:56Z</time></trkpt><trkpt lat="44.75360777299887" lon="7.863796489282243"><ele>396.0</ele><time>2026-04-10T10:16:59Z</time></trkpt><trkpt lat="44.753671474886914" lon="7.863849569647429"><ele>396.0</ele><time>2026-04-10T10:17:02Z</time></trkpt><trkpt lat="44.753353411389135" lon="7.863751048888893"><ele>396.0</ele><time>2026-04-10T10:17:06Z</time></trkpt><trkpt lat="44.75327011295703" lon="7.863765048757135"><ele>396.0</ele><time>2026-04-10T10:17:09Z</time></trkpt><trkpt lat="44.75319990149439" lon="7.863771313850652"><ele>396.0</ele><time>2026-04-10T10:17:12Z</time></trkpt><trkpt lat="44.75312799199935" lon="7.8637798459598365"><ele>396.0</ele><time>2026-04-10T10:17:15Z</time></trkpt><trkpt lat="44.753049319995576" lon="7.863785961917968"><ele>396.0</ele><time>2026-04-10T10:17:18Z</time></trkpt><trkpt lat="44.752957421826686" lon="7.8637985300988085"><ele>396.0</ele><time>2026-04-10T10:17:21Z</time></trkpt><trkpt lat="44.75287756357347" lon="7.863810646659363"><ele>396.0</ele><time>2026-04-10T10:17:24Z</time></trkpt><trkpt lat="44.75280708037422" lon="7.863815947331767"><ele>396.0</ele><time>2026-04-10T10:17:27Z</time></trkpt><trkpt lat="44.75273575971695" lon="7.863820036676586"><ele>396.0</ele><time>2026-04-10T10:17:31Z</time></trkpt><trkpt lat="44.75265813372328" lon="7.8638389446791885"><ele>396.0</ele><time>2026-04-10T10:17:35Z</time></trkpt><trkpt lat="44.75258214818557" lon="7.863860703037629"><ele>396.0</ele><time>2026-04-10T10:17:38Z</time></trkpt><trkpt lat="44.752502954391645" lon="7.86386779512199"><ele>396.0</ele><time>2026-04-10T10:17:41Z</time></trkpt><trkpt lat="44.75242123367009" lon="7.8638938288301"><ele>396.0</ele><time>2026-04-10T10:17:44Z</time></trkpt><trkpt lat="44.75233384376893" lon="7.863918172701484"><ele>396.0</ele><time>2026-04-10T10:17:47Z</time></trkpt><trkpt lat="44.7522501917574" lon="7.8639377748171055"><ele>396.0</ele><time>2026-04-10T10:17:50Z</time></trkpt><trkpt lat="44.752160266901356" lon="7.863947864871818"><ele>396.0</ele><time>2026-04-10T10:17:53Z</time></trkpt><trkpt lat="44.75207745026176" lon="7.863969163415031"><ele>396.0</ele><time>2026-04-10T10:17:56Z</time></trkpt><trkpt lat="44.75199113053657" lon="7.863980582765135"><ele>396.0</ele><time>2026-04-10T10:17:59Z</time></trkpt><trkpt lat="44.75190759395936" lon="7.864001276841302"><ele>396.1666666666667</ele><time>2026-04-10T10:18:02Z</time></trkpt><trkpt lat="44.75183110047657" lon="7.864014432942095"><ele>396.33333333333337</ele><time>2026-04-10T10:18:05Z</time></trkpt><trkpt lat="44.75175513256871" lon="7.8640204493190256"><ele>396.5</ele><time>2026-04-10T10:18:08Z</time></trkpt><trkpt lat="44.75167338166518" lon="7.863984998010693"><ele>396.6666666666667</ele><time>2026-04-10T10:18:11Z</time></trkpt><trkpt lat="44.751655666240005" lon="7.863854260723889"><ele>396.83333333333337</ele><time>2026-04-10T10:18:14Z</time></trkpt><trkpt lat="44.75166467696458" lon="7.8637595677593595"><ele>397.0</ele><time>2026-04-10T10:18:16Z</time></trkpt><trkpt lat="44.75167168100807" lon="7.863659294239915"><ele>397.0</ele><time>2026-04-10T10:18:18Z</time></trkpt><trkpt lat="44.75169316374784" lon="7.863533557984946"><ele>397.0</ele><time>2026-04-10T10:18:21Z</time></trkpt><trkpt lat="44.75169713492054" lon="7.86338778366321"><ele>397.0</ele><time>2026-04-10T10:18:24Z</time></trkpt><trkpt lat="44.75164121970753" lon="7.863161111730677"><ele>397.0</ele><time>2026-04-10T10:18:28Z</time></trkpt><trkpt lat="44.75163090029613" lon="7.863047495423889"><ele>397.0</ele><time>2026-04-10T10:18:30Z</time></trkpt><trkpt lat="44.75162137584187" lon="7.8629317860893275"><ele>396.85714285714283</ele><time>2026-04-10T10:18:32Z</time></trkpt><trkpt lat="44.751615362172956" lon="7.862808297758295"><ele>396.71428571428567</ele><time>2026-04-10T10:18:34Z</time></trkpt><trkpt lat="44.75159172834533" lon="7.862699419196123"><ele>396.57142857142856</ele><time>2026-04-10T10:18:36Z</time></trkpt><trkpt lat="44.75157369407584" lon="7.862609669239811"><ele>396.42857142857144</ele><time>2026-04-10T10:18:38Z</time></trkpt><trkpt lat="44.75158959254669" lon="7.862520217464174"><ele>396.2857142857143</ele><time>2026-04-10T10:18:42Z</time></trkpt><trkpt lat="44.751617656749" lon="7.862436828400371"><ele>396.14285714285717</ele><time>2026-04-10T10:18:47Z</time></trkpt><trkpt lat="44.75166908123966" lon="7.862365611734506"><ele>396.0</ele><time>2026-04-10T10:18:52Z</time></trkpt><trkpt lat="44.75171514435553" lon="7.862288427304628"><ele>396.0</ele><time>2026-04-10T10:18:55Z</time></trkpt><trkpt lat="44.75177101906964" lon="7.86221865254611"><ele>396.0</ele><time>2026-04-10T10:18:58Z</time></trkpt><trkpt lat="44.75179616086571" lon="7.862100974601216"><ele>396.0</ele><time>2026-04-10T10:19:00Z</time></trkpt><trkpt lat="44.751794543259024" lon="7.861971690725593"><ele>396.0</ele><time>2026-04-10T10:19:02Z</time></trkpt><trkpt lat="44.751791965744715" lon="7.861862190677893"><ele>396.0</ele><time>2026-04-10T10:19:04Z</time></trkpt><trkpt lat="44.75175659144982" lon="7.861747830615251"><ele>396.0</ele><time>2026-04-10T10:19:06Z</time></trkpt><trkpt lat="44.75169630478615" lon="7.861661452975018"><ele>396.1666666666667</ele><time>2026-04-10T10:19:08Z</time></trkpt><trkpt lat="44.7516694974297" lon="7.8615363990170355"><ele>396.33333333333337</ele><time>2026-04-10T10:19:10Z</time></trkpt><trkpt lat="44.75164967625056" lon="7.861434601915538"><ele>396.5</ele><time>2026-04-10T10:19:12Z</time></trkpt><trkpt lat="44.75158267366064" lon="7.8613441690560295"><ele>396.6666666666667</ele><time>2026-04-10T10:19:14Z</time></trkpt><trkpt lat="44.75155117935532" lon="7.861241147504"><ele>396.83333333333337</ele><time>2026-04-10T10:19:17Z</time></trkpt><trkpt lat="44.75152956227232" lon="7.861125716219347"><ele>397.0</ele><time>2026-04-10T10:19:19Z</time></trkpt><trkpt lat="44.75153236690872" lon="7.860990391673654"><ele>396.50000000000006</ele><time>2026-04-10T10:19:22Z</time></trkpt><trkpt lat="44.75150249304405" lon="7.860877090494593"><ele>396.0</ele><time>2026-04-10T10:19:24Z</time></trkpt><trkpt lat="44.751469053833084" lon="7.8607756346773865"><ele>395.5</ele><time>2026-04-10T10:19:27Z</time></trkpt><trkpt lat="44.75146229223922" lon="7.860676292663609"><ele>395.0</ele><time>2026-04-10T10:19:29Z</time></trkpt><trkpt lat="44.75142316657874" lon="7.860581680929338"><ele>394.50000000000006</ele><time>2026-04-10T10:19:31Z</time></trkpt><trkpt lat="44.751408605836986" lon="7.860474658485665"><ele>394.0</ele><time>2026-04-10T10:19:33Z</time></trkpt><trkpt lat="44.75139060591291" lon="7.860341270724184"><ele>394.0</ele><time>2026-04-10T10:19:35Z</time></trkpt><trkpt lat="44.751365710270214" lon="7.860231409958984"><ele>394.0</ele><time>2026-04-10T10:19:37Z</time></trkpt><trkpt lat="44.75129882721924" lon="7.860164418907264"><ele>394.0</ele><time>2026-04-10T10:19:39Z</time></trkpt><trkpt lat="44.75122635214585" lon="7.8600796124383505"><ele>394.0</ele><time>2026-04-10T10:19:41Z</time></trkpt><trkpt lat="44.7511829152813" lon="7.859951738674065"><ele>394.0</ele><time>2026-04-10T10:19:43Z</time></trkpt><trkpt lat="44.75119120847684" lon="7.859820408155222"><ele>393.50000000000006</ele><time>2026-04-10T10:19:45Z</time></trkpt><trkpt lat="44.75120730517141" lon="7.859711652428251"><ele>393.0</ele><time>2026-04-10T10:19:47Z</time></trkpt><trkpt lat="44.751203981224535" lon="7.859600574150963"><ele>392.5</ele><time>2026-04-10T10:19:49Z</time></trkpt><trkpt lat="44.75120941777494" lon="7.859483528393151"><ele>392.0</ele><time>2026-04-10T10:19:51Z</time></trkpt><trkpt lat="44.75119470666633" lon="7.859356904501604"><ele>391.50000000000006</ele><time>2026-04-10T10:19:53Z</time></trkpt><trkpt lat="44.75118765245088" lon="7.8592371525018105"><ele>391.0</ele><time>2026-04-10T10:19:55Z</time></trkpt><trkpt lat="44.75117298908954" lon="7.859126011061933"><ele>390.1666666666667</ele><time>2026-04-10T10:19:57Z</time></trkpt><trkpt lat="44.751190950627915" lon="7.85902145872885"><ele>389.33333333333337</ele><time>2026-04-10T10:19:59Z</time></trkpt><trkpt lat="44.75122217241517" lon="7.85891575316558"><ele>388.5</ele><time>2026-04-10T10:20:01Z</time></trkpt><trkpt lat="44.7512597008112" lon="7.858808351295353"><ele>387.66666666666663</ele><time>2026-04-10T10:20:03Z</time></trkpt><trkpt lat="44.75129795521799" lon="7.8586798822940365"><ele>386.8333333333333</ele><time>2026-04-10T10:20:05Z</time></trkpt><trkpt lat="44.75128533235602" lon="7.8585693366989995"><ele>386.0</ele><time>2026-04-10T10:20:07Z</time></trkpt><trkpt lat="44.75128250980176" lon="7.858449887917512"><ele>385.8</ele><time>2026-04-10T10:20:09Z</time></trkpt><trkpt lat="44.751283915115195" lon="7.85830961341695"><ele>385.6</ele><time>2026-04-10T10:20:11Z</time></trkpt><trkpt lat="44.751287297539264" lon="7.858161017468281"><ele>385.4</ele><time>2026-04-10T10:20:13Z</time></trkpt><trkpt lat="44.75127844121244" lon="7.858043816026047"><ele>385.2</ele><time>2026-04-10T10:20:15Z</time></trkpt><trkpt lat="44.75124301962938" lon="7.85792681959649"><ele>385.0</ele><time>2026-04-10T10:20:17Z</time></trkpt><trkpt lat="44.75120236879496" lon="7.857803293456567"><ele>385.0</ele><time>2026-04-10T10:20:19Z</time></trkpt><trkpt lat="44.75122429949602" lon="7.857714949934476"><ele>385.0</ele><time>2026-04-10T10:20:21Z</time></trkpt><trkpt lat="44.75124101468925" lon="7.85758086827011"><ele>385.0</ele><time>2026-04-10T10:20:24Z</time></trkpt><trkpt lat="44.75125344354214" lon="7.857428670670843"><ele>385.0</ele><time>2026-04-10T10:20:26Z</time></trkpt><trkpt lat="44.75129240860175" lon="7.857289381798298"><ele>385.0</ele><time>2026-04-10T10:20:29Z</time></trkpt><trkpt lat="44.75130985676178" lon="7.857167738458004"><ele>384.6</ele><time>2026-04-10T10:20:31Z</time></trkpt><trkpt lat="44.75132004426477" lon="7.857055666228309"><ele>384.2</ele><time>2026-04-10T10:20:33Z</time></trkpt><trkpt lat="44.751337343986066" lon="7.856914869831635"><ele>383.79999999999995</ele><time>2026-04-10T10:20:35Z</time></trkpt><trkpt lat="44.751354281916925" lon="7.856804468201335"><ele>383.4</ele><time>2026-04-10T10:20:36Z</time></trkpt><trkpt lat="44.75134355342843" lon="7.85668424190328"><ele>383.0</ele><time>2026-04-10T10:20:38Z</time></trkpt><trkpt lat="44.751354065688474" lon="7.856541224980443"><ele>382.0</ele><time>2026-04-10T10:20:40Z</time></trkpt><trkpt lat="44.75138378640294" lon="7.856394961551377"><ele>381.0</ele><time>2026-04-10T10:20:42Z</time></trkpt><trkpt lat="44.751397947287096" lon="7.8562395263809925"><ele>380.0</ele><time>2026-04-10T10:20:44Z</time></trkpt><trkpt lat="44.751424987143" lon="7.8561079055047305"><ele>379.0</ele><time>2026-04-10T10:20:46Z</time></trkpt><trkpt lat="44.751440103755286" lon="7.856021617865642"><ele>378.0</ele><time>2026-04-10T10:20:48Z</time></trkpt><trkpt lat="44.751454321299846" lon="7.855904638032329"><ele>377.6666666666667</ele><time>2026-04-10T10:20:50Z</time></trkpt><trkpt lat="44.751483665914776" lon="7.85581926492823"><ele>377.3333333333333</ele><time>2026-04-10T10:20:52Z</time></trkpt><trkpt lat="44.751507372603506" lon="7.855705816350369"><ele>377.0</ele><time>2026-04-10T10:20:54Z</time></trkpt><trkpt lat="44.7515430763483" lon="7.855602585807857"><ele>376.66666666666663</ele><time>2026-04-10T10:20:56Z</time></trkpt><trkpt lat="44.751595260241096" lon="7.85551964062437"><ele>376.3333333333333</ele><time>2026-04-10T10:20:58Z</time></trkpt><trkpt lat="44.75161057423584" lon="7.855361500897894"><ele>376.0</ele><time>2026-04-10T10:21:00Z</time></trkpt><trkpt lat="44.75165885054812" lon="7.855266349706076"><ele>376.0</ele><time>2026-04-10T10:21:02Z</time></trkpt><trkpt lat="44.75169417452826" lon="7.855143687844796"><ele>376.0</ele><time>2026-04-10T10:21:05Z</time></trkpt><trkpt lat="44.75170378275287" lon="7.855040628303517"><ele>376.0</ele><time>2026-04-10T10:21:07Z</time></trkpt><trkpt lat="44.751760665940836" lon="7.854904887932075"><ele>376.0</ele><time>2026-04-10T10:21:09Z</time></trkpt><trkpt lat="44.751825571279745" lon="7.854848336415954"><ele>376.0</ele><time>2026-04-10T10:21:11Z</time></trkpt><trkpt lat="44.75188618216523" lon="7.854777143183447"><ele>376.0</ele><time>2026-04-10T10:21:14Z</time></trkpt><trkpt lat="44.75191686098152" lon="7.854670048532154"><ele>373.0</ele><time>2026-04-10T10:21:18Z</time></trkpt><trkpt lat="44.75192366755417" lon="7.854563848268049"><ele>370.0</ele><time>2026-04-10T10:21:21Z</time></trkpt><trkpt lat="44.75192327652815" lon="7.85443293393955"><ele>367.0</ele><time>2026-04-10T10:21:23Z</time></trkpt><trkpt lat="44.75191404724454" lon="7.85433243684656"><ele>364.0</ele><time>2026-04-10T10:21:25Z</time></trkpt><trkpt lat="44.75195615075084" lon="7.854222020472633"><ele>361.0</ele><time>2026-04-10T10:21:27Z</time></trkpt><trkpt lat="44.75200145779374" lon="7.854135061906432"><ele>358.0</ele><time>2026-04-10T10:21:29Z</time></trkpt><trkpt lat="44.75201486073326" lon="7.854041732940586"><ele>357.7142857142857</ele><time>2026-04-10T10:21:32Z</time></trkpt><trkpt lat="44.75203937340356" lon="7.8539483040973"><ele>357.42857142857144</ele><time>2026-04-10T10:21:36Z</time></trkpt><trkpt lat="44.75206486078103" lon="7.853837485426971"><ele>357.1428571428571</ele><time>2026-04-10T10:21:41Z</time></trkpt><trkpt lat="44.75212808294922" lon="7.853783572727516"><ele>356.8571428571429</ele><time>2026-04-10T10:21:44Z</time></trkpt><trkpt lat="44.75219029447363" lon="7.853804418002138"><ele>356.57142857142856</ele><time>2026-04-10T10:21:46Z</time></trkpt><trkpt lat="44.75224292339919" lon="7.853854993635581"><ele>356.2857142857143</ele><time>2026-04-10T10:21:49Z</time></trkpt><trkpt lat="44.7522934422173" lon="7.85392037663457"><ele>356.0</ele><time>2026-04-10T10:21:51Z</time></trkpt><trkpt lat="44.75234920764677" lon="7.854000717111753"><ele>356.0</ele><time>2026-04-10T10:21:53Z</time></trkpt><trkpt lat="44.752412826883635" lon="7.854053835172955"><ele>356.0</ele><time>2026-04-10T10:21:55Z</time></trkpt><trkpt lat="44.75247617580848" lon="7.853996579210014"><ele>356.0</ele><time>2026-04-10T10:21:58Z</time></trkpt><trkpt lat="44.75248517530936" lon="7.853862386988373"><ele>356.0</ele><time>2026-04-10T10:22:02Z</time></trkpt><trkpt lat="44.75244984420669" lon="7.853752092380522"><ele>356.0</ele><time>2026-04-10T10:22:04Z</time></trkpt><trkpt lat="44.75241716488863" lon="7.853646167899258"><ele>356.0</ele><time>2026-04-10T10:22:07Z</time></trkpt><trkpt lat="44.752428616446124" lon="7.85354559532332"><ele>356.0</ele><time>2026-04-10T10:22:09Z</time></trkpt><trkpt lat="44.75242933771451" lon="7.853456763529221"><ele>356.0</ele><time>2026-04-10T10:22:11Z</time></trkpt><trkpt lat="44.75239114260344" lon="7.853336067152783"><ele>356.0</ele><time>2026-04-10T10:22:15Z</time></trkpt><trkpt lat="44.75235940093078" lon="7.85323363235664"><ele>356.0</ele><time>2026-04-10T10:22:17Z</time></trkpt><trkpt lat="44.75231492544896" lon="7.853109316888898"><ele>356.0</ele><time>2026-04-10T10:22:19Z</time></trkpt><trkpt lat="44.75228259202451" lon="7.852981480947781"><ele>356.0</ele><time>2026-04-10T10:22:21Z</time></trkpt><trkpt lat="44.752239372713895" lon="7.852914636169394"><ele>355.6</ele><time>2026-04-10T10:22:22Z</time></trkpt><trkpt lat="44.75217112429562" lon="7.852820343695157"><ele>355.20000000000005</ele><time>2026-04-10T10:22:24Z</time></trkpt><trkpt lat="44.75210087802338" lon="7.852737907806717"><ele>354.79999999999995</ele><time>2026-04-10T10:22:26Z</time></trkpt><trkpt lat="44.75203815740343" lon="7.85268581895675"><ele>354.4</ele><time>2026-04-10T10:22:28Z</time></trkpt><trkpt lat="44.75192971901422" lon="7.852663682483249"><ele>354.0</ele><time>2026-04-10T10:22:30Z</time></trkpt><trkpt lat="44.751836787623795" lon="7.852701986300686"><ele>353.4</ele><time>2026-04-10T10:22:33Z</time></trkpt><trkpt lat="44.751771167590185" lon="7.8527592925712675"><ele>352.79999999999995</ele><time>2026-04-10T10:22:35Z</time></trkpt><trkpt lat="44.75167169171432" lon="7.852839075808477"><ele>352.20000000000005</ele><time>2026-04-10T10:22:37Z</time></trkpt><trkpt lat="44.75157159906853" lon="7.852861604596964"><ele>351.6</ele><time>2026-04-10T10:22:39Z</time></trkpt><trkpt lat="44.751487889930786" lon="7.852937189478769"><ele>351.0</ele><time>2026-04-10T10:22:41Z</time></trkpt><trkpt lat="44.75142647938579" lon="7.852967484391063"><ele>351.0</ele><time>2026-04-10T10:22:42Z</time></trkpt><trkpt lat="44.75136469174706" lon="7.853006265742717"><ele>351.0</ele><time>2026-04-10T10:22:43Z</time></trkpt><trkpt lat="44.751268637762095" lon="7.8530211643170365"><ele>351.0</ele><time>2026-04-10T10:22:45Z</time></trkpt><trkpt lat="44.751186829137716" lon="7.85306477261899"><ele>351.0</ele><time>2026-04-10T10:22:47Z</time></trkpt><trkpt lat="44.751123077145415" lon="7.853093447074991"><ele>351.0</ele><time>2026-04-10T10:22:49Z</time></trkpt><trkpt lat="44.75105762314259" lon="7.853186930390027"><ele>351.0</ele><time>2026-04-10T10:22:51Z</time></trkpt><trkpt lat="44.75101662268812" lon="7.853312209505104"><ele>350.8333333333333</ele><time>2026-04-10T10:22:53Z</time></trkpt><trkpt lat="44.75099752053449" lon="7.85342232083538"><ele>350.6666666666667</ele><time>2026-04-10T10:22:55Z</time></trkpt><trkpt lat="44.75096995985343" lon="7.8535215620329355"><ele>350.5</ele><time>2026-04-10T10:22:57Z</time></trkpt><trkpt lat="44.75091209399345" lon="7.853605170377774"><ele>350.33333333333337</ele><time>2026-04-10T10:22:59Z</time></trkpt><trkpt lat="44.75084856959285" lon="7.853710540809094"><ele>350.1666666666667</ele><time>2026-04-10T10:23:01Z</time></trkpt><trkpt lat="44.750790229615525" lon="7.853770185666794"><ele>350.0</ele><time>2026-04-10T10:23:03Z</time></trkpt><trkpt lat="44.75073753208839" lon="7.853864266850241"><ele>350.0</ele><time>2026-04-10T10:23:05Z</time></trkpt><trkpt lat="44.75067655418763" lon="7.853941907975814"><ele>350.0</ele><time>2026-04-10T10:23:07Z</time></trkpt><trkpt lat="44.75060539435942" lon="7.854002237348811"><ele>350.0</ele><time>2026-04-10T10:23:10Z</time></trkpt><trkpt lat="44.75055133936433" lon="7.854048532838896"><ele>350.0</ele><time>2026-04-10T10:23:13Z</time></trkpt><trkpt lat="44.75049675658671" lon="7.854111273687485"><ele>350.0</ele><time>2026-04-10T10:23:22Z</time></trkpt><trkpt lat="44.7504409766767" lon="7.854183730442823"><ele>350.0</ele><time>2026-04-10T10:23:29Z</time></trkpt><trkpt lat="44.75038891366746" lon="7.854235186613779"><ele>350.0</ele><time>2026-04-10T10:23:34Z</time></trkpt><trkpt lat="44.75032250702265" lon="7.854266097196633"><ele>351.42857142857144</ele><time>2026-04-10T10:23:39Z</time></trkpt><trkpt lat="44.750254940628515" lon="7.854303787311563"><ele>352.8571428571429</ele><time>2026-04-10T10:23:44Z</time></trkpt><trkpt lat="44.75020998171127" lon="7.854386858595849"><ele>354.2857142857143</ele><time>2026-04-10T10:25:03Z</time></trkpt><trkpt lat="44.75022632338019" lon="7.854484229852779"><ele>355.7142857142857</ele><time>2026-04-10T10:25:08Z</time></trkpt><trkpt lat="44.75023157442785" lon="7.854574011832024"><ele>357.14285714285717</ele><time>2026-04-10T10:25:11Z</time></trkpt><trkpt lat="44.75022907420296" lon="7.854669949727611"><ele>358.57142857142856</ele><time>2026-04-10T10:25:15Z</time></trkpt><trkpt lat="44.75022647354994" lon="7.854567135381746"><ele>360.0</ele><time>2026-04-10T10:25:46Z</time></trkpt><trkpt lat="44.750222906677465" lon="7.854478010101656"><ele>360.0</ele><time>2026-04-10T10:25:51Z</time></trkpt><trkpt lat="44.7502197992671" lon="7.854382812844213"><ele>360.0</ele><time>2026-04-10T10:25:57Z</time></trkpt><trkpt lat="44.7501560032101" lon="7.854317253998899"><ele>360.0</ele><time>2026-04-10T10:26:11Z</time></trkpt><trkpt lat="44.75009758496822" lon="7.854263158921835"><ele>360.0</ele><time>2026-04-10T10:26:17Z</time></trkpt><trkpt lat="44.75002750429097" lon="7.854222228317801"><ele>360.0</ele><time>2026-04-10T10:26:46Z</time></trkpt><trkpt lat="44.74996938048904" lon="7.854164330426716"><ele>360.0</ele><time>2026-04-10T10:26:49Z</time></trkpt><trkpt lat="44.74989241331752" lon="7.85408565846143"><ele>357.4285714285714</ele><time>2026-04-10T10:26:52Z</time></trkpt><trkpt lat="44.74983110721732" lon="7.854029445428761"><ele>354.8571428571429</ele><time>2026-04-10T10:26:54Z</time></trkpt><trkpt lat="44.74977850111611" lon="7.853980345283161"><ele>352.2857142857143</ele><time>2026-04-10T10:26:56Z</time></trkpt><trkpt lat="44.74970445680527" lon="7.853931307961027"><ele>349.71428571428567</ele><time>2026-04-10T10:26:59Z</time></trkpt><trkpt lat="44.74963299746328" lon="7.853918122109704"><ele>347.1428571428571</ele><time>2026-04-10T10:27:01Z</time></trkpt><trkpt lat="44.74956992873452" lon="7.85397368067744"><ele>344.57142857142856</ele><time>2026-04-10T10:27:04Z</time></trkpt><trkpt lat="44.74950970054102" lon="7.854029313610658"><ele>342.0</ele><time>2026-04-10T10:27:06Z</time></trkpt><trkpt lat="44.74943758585704" lon="7.854109934784819"><ele>342.0</ele><time>2026-04-10T10:27:09Z</time></trkpt><trkpt lat="44.74938346630922" lon="7.854158094161369"><ele>342.0</ele><time>2026-04-10T10:27:11Z</time></trkpt><trkpt lat="44.74929136662744" lon="7.854209937225948"><ele>342.0</ele><time>2026-04-10T10:27:14Z</time></trkpt><trkpt lat="44.749232388804245" lon="7.854248037838452"><ele>342.0</ele><time>2026-04-10T10:27:16Z</time></trkpt><trkpt lat="44.74916568307137" lon="7.854272429336306"><ele>342.0</ele><time>2026-04-10T10:27:18Z</time></trkpt><trkpt lat="44.74908819312565" lon="7.854340331114881"><ele>342.0</ele><time>2026-04-10T10:27:21Z</time></trkpt><trkpt lat="44.74902029640931" lon="7.854361586086271"><ele>342.3333333333333</ele><time>2026-04-10T10:27:23Z</time></trkpt><trkpt lat="44.748939293595875" lon="7.854427980830621"><ele>342.6666666666667</ele><time>2026-04-10T10:27:26Z</time></trkpt><trkpt lat="44.74888014499104" lon="7.854484435277049"><ele>343.0</ele><time>2026-04-10T10:27:28Z</time></trkpt><trkpt lat="44.74882757644271" lon="7.854545467008575"><ele>343.33333333333337</ele><time>2026-04-10T10:27:30Z</time></trkpt><trkpt lat="44.7487608297949" lon="7.854640564855227"><ele>343.6666666666667</ele><time>2026-04-10T10:27:33Z</time></trkpt><trkpt lat="44.748719853327785" lon="7.854713538576047"><ele>344.0</ele><time>2026-04-10T10:27:35Z</time></trkpt><trkpt lat="44.748684495454356" lon="7.854788589609825"><ele>344.00000000000006</ele><time>2026-04-10T10:27:37Z</time></trkpt><trkpt lat="44.74864901563302" lon="7.854867883768829"><ele>344.0</ele><time>2026-04-10T10:27:39Z</time></trkpt><trkpt lat="44.74861156273874" lon="7.854946998726536"><ele>344.0</ele><time>2026-04-10T10:27:41Z</time></trkpt><trkpt lat="44.74857019888102" lon="7.85502275459789"><ele>344.0</ele><time>2026-04-10T10:27:43Z</time></trkpt><trkpt lat="44.74852654596931" lon="7.855097490841391"><ele>344.0</ele><time>2026-04-10T10:27:45Z</time></trkpt><trkpt lat="44.74847880172233" lon="7.855171648265779"><ele>344.00000000000006</ele><time>2026-04-10T10:27:47Z</time></trkpt><trkpt lat="44.748425149157015" lon="7.855249740403736"><ele>344.0</ele><time>2026-04-10T10:27:49Z</time></trkpt><trkpt lat="44.74837147563236" lon="7.855322195460238"><ele>344.33333333333337</ele><time>2026-04-10T10:27:51Z</time></trkpt><trkpt lat="44.74831029208062" lon="7.8553970390964984"><ele>344.6666666666667</ele><time>2026-04-10T10:27:53Z</time></trkpt><trkpt lat="44.74825114207952" lon="7.8554599725386"><ele>345.0</ele><time>2026-04-10T10:27:55Z</time></trkpt><trkpt lat="44.748187665049166" lon="7.85552036691366"><ele>345.3333333333333</ele><time>2026-04-10T10:27:57Z</time></trkpt><trkpt lat="44.74811797493587" lon="7.855585073083278"><ele>345.66666666666663</ele><time>2026-04-10T10:27:59Z</time></trkpt><trkpt lat="44.74804977492871" lon="7.85563336927787"><ele>346.0</ele><time>2026-04-10T10:28:01Z</time></trkpt><trkpt lat="44.7479792567889" lon="7.855681982509332"><ele>346.0</ele><time>2026-04-10T10:28:03Z</time></trkpt><trkpt lat="44.74791030466385" lon="7.855728485127138"><ele>346.0</ele><time>2026-04-10T10:28:05Z</time></trkpt><trkpt lat="44.74783809268162" lon="7.855777475773494"><ele>346.0</ele><time>2026-04-10T10:28:07Z</time></trkpt><trkpt lat="44.74777458248254" lon="7.8558438288399195"><ele>346.0</ele><time>2026-04-10T10:28:09Z</time></trkpt><trkpt lat="44.74770567733853" lon="7.855882282081646"><ele>346.0</ele><time>2026-04-10T10:28:11Z</time></trkpt><trkpt lat="44.74764345513135" lon="7.855925536527134"><ele>346.0</ele><time>2026-04-10T10:28:13Z</time></trkpt><trkpt lat="44.747581525039394" lon="7.855971255260001"><ele>346.0</ele><time>2026-04-10T10:28:15Z</time></trkpt><trkpt lat="44.747528087942435" lon="7.856039390223862"><ele>346.5</ele><time>2026-04-10T10:28:17Z</time></trkpt><trkpt lat="44.747481207913395" lon="7.856120646321377"><ele>347.0</ele><time>2026-04-10T10:28:19Z</time></trkpt><trkpt lat="44.74740918779985" lon="7.856223070109555"><ele>347.5</ele><time>2026-04-10T10:28:22Z</time></trkpt><trkpt lat="44.74736275762971" lon="7.856293047932164"><ele>348.0</ele><time>2026-04-10T10:28:24Z</time></trkpt><trkpt lat="44.74731660037148" lon="7.856354230329475"><ele>348.5</ele><time>2026-04-10T10:28:26Z</time></trkpt><trkpt lat="44.74725161675277" lon="7.85642935695473"><ele>349.0</ele><time>2026-04-10T10:28:29Z</time></trkpt><trkpt lat="44.74719439114718" lon="7.85649366842718"><ele>348.99999999999994</ele><time>2026-04-10T10:28:31Z</time></trkpt><trkpt lat="44.74714221203244" lon="7.856561856194905"><ele>349.0</ele><time>2026-04-10T10:28:33Z</time></trkpt><trkpt lat="44.747091880871906" lon="7.856620651729207"><ele>349.0</ele><time>2026-04-10T10:28:35Z</time></trkpt><trkpt lat="44.747031236489725" lon="7.856679343593172"><ele>349.0</ele><time>2026-04-10T10:28:37Z</time></trkpt><trkpt lat="44.74696435262363" lon="7.856727983604542"><ele>349.0</ele><time>2026-04-10T10:28:39Z</time></trkpt><trkpt lat="44.74692490717339" lon="7.856808914782792"><ele>348.99999999999994</ele><time>2026-04-10T10:28:41Z</time></trkpt><trkpt lat="44.74685846504092" lon="7.8568832142656735"><ele>349.0</ele><time>2026-04-10T10:28:44Z</time></trkpt><trkpt lat="44.74681259386787" lon="7.856955249405884"><ele>349.3333333333333</ele><time>2026-04-10T10:28:46Z</time></trkpt><trkpt lat="44.74675498879808" lon="7.85701315925653"><ele>349.66666666666663</ele><time>2026-04-10T10:28:48Z</time></trkpt><trkpt lat="44.74669834074776" lon="7.8570960517231985"><ele>350.0</ele><time>2026-04-10T10:28:51Z</time></trkpt><trkpt lat="44.74665284257513" lon="7.857157522101765"><ele>350.3333333333333</ele><time>2026-04-10T10:28:53Z</time></trkpt><trkpt lat="44.74658412001842" lon="7.857262196748788"><ele>350.6666666666667</ele><time>2026-04-10T10:28:56Z</time></trkpt><trkpt lat="44.74653280896375" lon="7.857356420101294"><ele>351.0</ele><time>2026-04-10T10:28:58Z</time></trkpt><trkpt lat="44.7465104959412" lon="7.8574798179873735"><ele>351.0</ele><time>2026-04-10T10:29:00Z</time></trkpt><trkpt lat="44.746478093633094" lon="7.85756639969461"><ele>351.0</ele><time>2026-04-10T10:29:02Z</time></trkpt><trkpt lat="44.74645701829911" lon="7.8576869826545055"><ele>351.0</ele><time>2026-04-10T10:29:04Z</time></trkpt><trkpt lat="44.74643264228009" lon="7.857818121620353"><ele>351.0</ele><time>2026-04-10T10:29:06Z</time></trkpt><trkpt lat="44.74640497350441" lon="7.857942146927161"><ele>351.0</ele><time>2026-04-10T10:29:08Z</time></trkpt><trkpt lat="44.74636885283806" lon="7.858050805860015"><ele>351.0</ele><time>2026-04-10T10:29:10Z</time></trkpt><trkpt lat="44.74632549048086" lon="7.858155397992337"><ele>351.0</ele><time>2026-04-10T10:29:12Z</time></trkpt><trkpt lat="44.74627583800734" lon="7.8582354378361465"><ele>351.0</ele><time>2026-04-10T10:29:14Z</time></trkpt><trkpt lat="44.746221911100484" lon="7.858290526828693"><ele>351.0</ele><time>2026-04-10T10:29:16Z</time></trkpt><trkpt lat="44.746145806854905" lon="7.8583595879036565"><ele>351.0</ele><time>2026-04-10T10:29:18Z</time></trkpt><trkpt lat="44.74608701445297" lon="7.858442721225744"><ele>351.0</ele><time>2026-04-10T10:29:20Z</time></trkpt><trkpt lat="44.746009981766896" lon="7.858508492109665"><ele>351.0</ele><time>2026-04-10T10:29:22Z</time></trkpt><trkpt lat="44.745968249579676" lon="7.8585924871411015"><ele>351.6666666666667</ele><time>2026-04-10T10:29:24Z</time></trkpt><trkpt lat="44.74593495254833" lon="7.858714975469957"><ele>352.3333333333333</ele><time>2026-04-10T10:29:26Z</time></trkpt><trkpt lat="44.74588363516475" lon="7.858799408943863"><ele>353.0</ele><time>2026-04-10T10:29:28Z</time></trkpt><trkpt lat="44.745835616579555" lon="7.858906313567664"><ele>353.66666666666663</ele><time>2026-04-10T10:29:30Z</time></trkpt><trkpt lat="44.74578986083901" lon="7.859013462844674"><ele>354.3333333333333</ele><time>2026-04-10T10:29:32Z</time></trkpt><trkpt lat="44.745728548448305" lon="7.859115981006455"><ele>355.0</ele><time>2026-04-10T10:29:34Z</time></trkpt><trkpt lat="44.745679802931235" lon="7.859213324495304"><ele>354.8</ele><time>2026-04-10T10:29:36Z</time></trkpt><trkpt lat="44.74561007708452" lon="7.859330384763246"><ele>354.6</ele><time>2026-04-10T10:29:39Z</time></trkpt><trkpt lat="44.745538918637635" lon="7.859416996503865"><ele>354.4</ele><time>2026-04-10T10:29:41Z</time></trkpt><trkpt lat="44.745468746046036" lon="7.859501279453178"><ele>354.2</ele><time>2026-04-10T10:29:43Z</time></trkpt><trkpt lat="44.74539545237022" lon="7.859574926746507"><ele>354.0</ele><time>2026-04-10T10:29:45Z</time></trkpt><trkpt lat="44.745343975160345" lon="7.859660004670746"><ele>354.0</ele><time>2026-04-10T10:29:47Z</time></trkpt><trkpt lat="44.74528027902903" lon="7.859771326060642"><ele>354.0</ele><time>2026-04-10T10:29:49Z</time></trkpt><trkpt lat="44.745217513783075" lon="7.8598478399599205"><ele>354.0</ele><time>2026-04-10T10:29:51Z</time></trkpt><trkpt lat="44.74516359343343" lon="7.859942616004563"><ele>354.0</ele><time>2026-04-10T10:29:53Z</time></trkpt><trkpt lat="44.7451045289922" lon="7.860063554747237"><ele>354.0</ele><time>2026-04-10T10:29:55Z</time></trkpt><trkpt lat="44.745052692986" lon="7.860195172994527"><ele>353.8333333333333</ele><time>2026-04-10T10:29:57Z</time></trkpt><trkpt lat="44.74499833432993" lon="7.860338813535416"><ele>353.6666666666667</ele><time>2026-04-10T10:30:00Z</time></trkpt><trkpt lat="44.744966155080014" lon="7.860477983978597"><ele>353.5</ele><time>2026-04-10T10:30:02Z</time></trkpt><trkpt lat="44.744929951634866" lon="7.860567843560761"><ele>353.33333333333337</ele><time>2026-04-10T10:30:04Z</time></trkpt><trkpt lat="44.74490089987733" lon="7.86065791216695"><ele>353.1666666666667</ele><time>2026-04-10T10:30:06Z</time></trkpt><trkpt lat="44.74486549144164" lon="7.860767135511124"><ele>353.0</ele><time>2026-04-10T10:30:08Z</time></trkpt><trkpt lat="44.744822009594095" lon="7.86086517808439"><ele>353.0</ele><time>2026-04-10T10:30:10Z</time></trkpt><trkpt lat="44.74481171552674" lon="7.860991918157317"><ele>353.0</ele><time>2026-04-10T10:30:12Z</time></trkpt><trkpt lat="44.74477224571268" lon="7.861068761464624"><ele>353.0</ele><time>2026-04-10T10:30:14Z</time></trkpt><trkpt lat="44.744741332347985" lon="7.8612004830874715"><ele>353.0</ele><time>2026-04-10T10:30:16Z</time></trkpt><trkpt lat="44.74471221792056" lon="7.86131169721207"><ele>353.0</ele><time>2026-04-10T10:30:18Z</time></trkpt><trkpt lat="44.74467150528153" lon="7.861389139062023"><ele>353.0</ele><time>2026-04-10T10:30:20Z</time></trkpt><trkpt lat="44.74464328449921" lon="7.861508866253551"><ele>353.0</ele><time>2026-04-10T10:30:22Z</time></trkpt><trkpt lat="44.74459759839289" lon="7.861627503667062"><ele>353.0</ele><time>2026-04-10T10:30:24Z</time></trkpt><trkpt lat="44.74454279619794" lon="7.861734760002443"><ele>353.0</ele><time>2026-04-10T10:30:27Z</time></trkpt><trkpt lat="44.744485308879355" lon="7.8618320168589575"><ele>353.0</ele><time>2026-04-10T10:30:29Z</time></trkpt><trkpt lat="44.7444303870117" lon="7.861936303769101"><ele>353.0</ele><time>2026-04-10T10:30:31Z</time></trkpt><trkpt lat="44.744393790685855" lon="7.862020872749969"><ele>353.0</ele><time>2026-04-10T10:30:33Z</time></trkpt><trkpt lat="44.74433033765625" lon="7.862085648451835"><ele>353.1428571428571</ele><time>2026-04-10T10:30:35Z</time></trkpt><trkpt lat="44.74427706448848" lon="7.862161519002966"><ele>353.28571428571433</ele><time>2026-04-10T10:30:37Z</time></trkpt><trkpt lat="44.74421627136627" lon="7.862218992195808"><ele>353.42857142857144</ele><time>2026-04-10T10:30:39Z</time></trkpt><trkpt lat="44.74414749923393" lon="7.862250244795369"><ele>353.57142857142856</ele><time>2026-04-10T10:30:41Z</time></trkpt><trkpt lat="44.74408395849584" lon="7.8623000157542355"><ele>353.71428571428567</ele><time>2026-04-10T10:30:43Z</time></trkpt><trkpt lat="44.74401648897024" lon="7.862321008296708"><ele>353.8571428571429</ele><time>2026-04-10T10:30:45Z</time></trkpt><trkpt lat="44.74394899843024" lon="7.862378719925931"><ele>354.0</ele><time>2026-04-10T10:30:47Z</time></trkpt><trkpt lat="44.74388649575175" lon="7.862429207481212"><ele>354.0</ele><time>2026-04-10T10:30:49Z</time></trkpt><trkpt lat="44.74381214144758" lon="7.862436934213006"><ele>354.0</ele><time>2026-04-10T10:30:51Z</time></trkpt><trkpt lat="44.74374319610637" lon="7.8624854369972885"><ele>354.0</ele><time>2026-04-10T10:30:53Z</time></trkpt><trkpt lat="44.743657560709075" lon="7.862501379298271"><ele>354.0</ele><time>2026-04-10T10:30:55Z</time></trkpt><trkpt lat="44.743577657016324" lon="7.86251031473115"><ele>354.0</ele><time>2026-04-10T10:30:57Z</time></trkpt><trkpt lat="44.743508233529205" lon="7.862521419296197"><ele>354.0</ele><time>2026-04-10T10:30:59Z</time></trkpt><trkpt lat="44.74341954322165" lon="7.8625970422950875"><ele>354.0</ele><time>2026-04-10T10:31:02Z</time></trkpt><trkpt lat="44.74332083664701" lon="7.862672534141423"><ele>354.0</ele><time>2026-04-10T10:32:44Z</time></trkpt><trkpt lat="44.743272734594456" lon="7.862738198800163"><ele>354.0</ele><time>2026-04-10T10:32:52Z</time></trkpt><trkpt lat="44.74322868868827" lon="7.862810423979291"><ele>354.0</ele><time>2026-04-10T10:32:55Z</time></trkpt><trkpt lat="44.74317851172282" lon="7.862898660684816"><ele>354.0</ele><time>2026-04-10T10:32:58Z</time></trkpt><trkpt lat="44.743136573424174" lon="7.8629796440209665"><ele>354.0</ele><time>2026-04-10T10:33:01Z</time></trkpt><trkpt lat="44.74310475490703" lon="7.863080661228786"><ele>354.0</ele><time>2026-04-10T10:33:04Z</time></trkpt><trkpt lat="44.7430624519374" lon="7.863149371431973"><ele>354.0</ele><time>2026-04-10T10:33:06Z</time></trkpt><trkpt lat="44.743001613438175" lon="7.863238500037493"><ele>354.0</ele><time>2026-04-10T10:33:10Z</time></trkpt><trkpt lat="44.742969426781684" lon="7.863321694420478"><ele>354.0</ele><time>2026-04-10T10:33:12Z</time></trkpt><trkpt lat="44.74292777227802" lon="7.8634212463456015"><ele>354.0</ele><time>2026-04-10T10:33:15Z</time></trkpt><trkpt lat="44.742904339785916" lon="7.863504516039248"><ele>354.0</ele><time>2026-04-10T10:33:17Z</time></trkpt><trkpt lat="44.742846672588705" lon="7.863609240154212"><ele>354.14285714285717</ele><time>2026-04-10T10:33:20Z</time></trkpt><trkpt lat="44.74281488477019" lon="7.863695482042033"><ele>354.2857142857143</ele><time>2026-04-10T10:33:22Z</time></trkpt><trkpt lat="44.74277112827444" lon="7.863774079417525"><ele>354.42857142857144</ele><time>2026-04-10T10:33:24Z</time></trkpt><trkpt lat="44.742726277256295" lon="7.863852629692203"><ele>354.57142857142856</ele><time>2026-04-10T10:33:26Z</time></trkpt><trkpt lat="44.74268188310914" lon="7.863929616998202"><ele>354.7142857142857</ele><time>2026-04-10T10:33:28Z</time></trkpt><trkpt lat="44.7426277743285" lon="7.864013471697069"><ele>354.85714285714283</ele><time>2026-04-10T10:33:30Z</time></trkpt><trkpt lat="44.74256940411525" lon="7.864083224498554"><ele>355.0</ele><time>2026-04-10T10:33:32Z</time></trkpt><trkpt lat="44.74249453472434" lon="7.86416927190895"><ele>355.0</ele><time>2026-04-10T10:33:35Z</time></trkpt><trkpt lat="44.74243348687858" lon="7.864245355050003"><ele>355.0</ele><time>2026-04-10T10:33:37Z</time></trkpt><trkpt lat="44.742377236878326" lon="7.864315813690598"><ele>355.0</ele><time>2026-04-10T10:33:39Z</time></trkpt><trkpt lat="44.74232050919045" lon="7.864380283800199"><ele>355.0</ele><time>2026-04-10T10:33:41Z</time></trkpt><trkpt lat="44.742258083719065" lon="7.864441650161217"><ele>355.0</ele><time>2026-04-10T10:33:43Z</time></trkpt><trkpt lat="44.74219570906953" lon="7.86452977616497"><ele>355.0</ele><time>2026-04-10T10:33:46Z</time></trkpt><trkpt lat="44.74213873641873" lon="7.86460314273776"><ele>355.16666666666663</ele><time>2026-04-10T10:33:48Z</time></trkpt><trkpt lat="44.742073554161735" lon="7.864674457943664"><ele>355.3333333333333</ele><time>2026-04-10T10:33:50Z</time></trkpt><trkpt lat="44.742003829216955" lon="7.864767162483799"><ele>355.5</ele><time>2026-04-10T10:33:53Z</time></trkpt><trkpt lat="44.74195033066256" lon="7.864832827445013"><ele>355.6666666666667</ele><time>2026-04-10T10:33:55Z</time></trkpt><trkpt lat="44.74189259931161" lon="7.8649064203558385"><ele>355.83333333333337</ele><time>2026-04-10T10:33:57Z</time></trkpt><trkpt lat="44.74183452378181" lon="7.864957568634479"><ele>356.0</ele><time>2026-04-10T10:33:59Z</time></trkpt><trkpt lat="44.741785382388635" lon="7.865015130628559"><ele>356.0</ele><time>2026-04-10T10:34:01Z</time></trkpt><trkpt lat="44.74173088777356" lon="7.865074616076441"><ele>356.0</ele><time>2026-04-10T10:34:03Z</time></trkpt><trkpt lat="44.74166508926971" lon="7.86514396146879"><ele>356.0</ele><time>2026-04-10T10:34:06Z</time></trkpt><trkpt lat="44.74159783327514" lon="7.8652166734914575"><ele>356.0</ele><time>2026-04-10T10:34:09Z</time></trkpt><trkpt lat="44.74153940954841" lon="7.865275316527639"><ele>356.0</ele><time>2026-04-10T10:34:12Z</time></trkpt><trkpt lat="44.74146732897726" lon="7.865369951817879"><ele>356.0</ele><time>2026-04-10T10:34:14Z</time></trkpt><trkpt lat="44.74141340922602" lon="7.865437056053714"><ele>356.1666666666667</ele><time>2026-04-10T10:34:16Z</time></trkpt><trkpt lat="44.74135064693722" lon="7.8655060972472715"><ele>356.33333333333337</ele><time>2026-04-10T10:34:18Z</time></trkpt><trkpt lat="44.7412819825627" lon="7.8655638694106855"><ele>356.5</ele><time>2026-04-10T10:34:20Z</time></trkpt><trkpt lat="44.74123738851518" lon="7.865645338546395"><ele>356.6666666666667</ele><time>2026-04-10T10:34:22Z</time></trkpt><trkpt lat="44.741178403615265" lon="7.865716086152865"><ele>356.8333333333333</ele><time>2026-04-10T10:34:24Z</time></trkpt><trkpt lat="44.74111826374194" lon="7.8658133011858835"><ele>357.0</ele><time>2026-04-10T10:34:26Z</time></trkpt><trkpt lat="44.74107060771505" lon="7.865902417496645"><ele>357.8333333333333</ele><time>2026-04-10T10:34:28Z</time></trkpt><trkpt lat="44.7410266403726" lon="7.865969694181871"><ele>358.6666666666667</ele><time>2026-04-10T10:34:30Z</time></trkpt><trkpt lat="44.74098475947828" lon="7.866057398015278"><ele>359.5</ele><time>2026-04-10T10:34:32Z</time></trkpt><trkpt lat="44.74094735206178" lon="7.866165915484767"><ele>360.33333333333337</ele><time>2026-04-10T10:34:34Z</time></trkpt><trkpt lat="44.74090489952254" lon="7.866257774166892"><ele>361.1666666666667</ele><time>2026-04-10T10:34:36Z</time></trkpt><trkpt lat="44.74086835984664" lon="7.866367046594583"><ele>362.0</ele><time>2026-04-10T10:34:38Z</time></trkpt><trkpt lat="44.74083225852982" lon="7.866471474646232"><ele>362.0</ele><time>2026-04-10T10:34:40Z</time></trkpt><trkpt lat="44.7407846293073" lon="7.866559633311798"><ele>362.0</ele><time>2026-04-10T10:34:42Z</time></trkpt><trkpt lat="44.74073926365709" lon="7.866643727166513"><ele>362.0</ele><time>2026-04-10T10:34:44Z</time></trkpt><trkpt lat="44.740695010281385" lon="7.866713082519801"><ele>362.0</ele><time>2026-04-10T10:34:46Z</time></trkpt><trkpt lat="44.740647801769484" lon="7.866785767218717"><ele>362.0</ele><time>2026-04-10T10:34:48Z</time></trkpt><trkpt lat="44.740597966288945" lon="7.866843312365519"><ele>362.0</ele><time>2026-04-10T10:34:50Z</time></trkpt><trkpt lat="44.74054503878668" lon="7.866900405097008"><ele>362.0</ele><time>2026-04-10T10:34:52Z</time></trkpt><trkpt lat="44.740488964212346" lon="7.866961385148002"><ele>362.0</ele><time>2026-04-10T10:34:54Z</time></trkpt><trkpt lat="44.740436837851746" lon="7.867028038101077"><ele>362.0</ele><time>2026-04-10T10:34:56Z</time></trkpt><trkpt lat="44.74038187684938" lon="7.8670910495766195"><ele>362.0</ele><time>2026-04-10T10:34:58Z</time></trkpt><trkpt lat="44.740324491424786" lon="7.867153354349314"><ele>362.0</ele><time>2026-04-10T10:35:00Z</time></trkpt><trkpt lat="44.74027632401392" lon="7.8672150076413265"><ele>362.0</ele><time>2026-04-10T10:35:02Z</time></trkpt><trkpt lat="44.740217071371745" lon="7.867270717594531"><ele>362.0</ele><time>2026-04-10T10:35:04Z</time></trkpt><trkpt lat="44.74016730908397" lon="7.867325755978686"><ele>362.0</ele><time>2026-04-10T10:35:06Z</time></trkpt><trkpt lat="44.740111191050346" lon="7.867388386013147"><ele>361.85714285714283</ele><time>2026-04-10T10:35:08Z</time></trkpt><trkpt lat="44.74005664846583" lon="7.867449471037336"><ele>361.71428571428567</ele><time>2026-04-10T10:35:10Z</time></trkpt><trkpt lat="44.740003401686174" lon="7.867512735290146"><ele>361.57142857142856</ele><time>2026-04-10T10:35:12Z</time></trkpt><trkpt lat="44.73995000565185" lon="7.867577210980584"><ele>361.42857142857144</ele><time>2026-04-10T10:35:14Z</time></trkpt><trkpt lat="44.739897062055235" lon="7.867638868558673"><ele>361.2857142857143</ele><time>2026-04-10T10:35:16Z</time></trkpt><trkpt lat="44.73984708995642" lon="7.86770331395826"><ele>361.14285714285717</ele><time>2026-04-10T10:35:18Z</time></trkpt><trkpt lat="44.73979204204673" lon="7.867775100129854"><ele>361.0</ele><time>2026-04-10T10:35:20Z</time></trkpt><trkpt lat="44.73973522116719" lon="7.867842439813447"><ele>360.8333333333333</ele><time>2026-04-10T10:35:22Z</time></trkpt><trkpt lat="44.73967978351656" lon="7.867906249533843"><ele>360.66666666666663</ele><time>2026-04-10T10:35:24Z</time></trkpt><trkpt lat="44.739626263488695" lon="7.867975951039721"><ele>360.5</ele><time>2026-04-10T10:35:26Z</time></trkpt><trkpt lat="44.73956750495169" lon="7.868047960054725"><ele>360.3333333333333</ele><time>2026-04-10T10:35:28Z</time></trkpt><trkpt lat="44.739498731870746" lon="7.868097032457168"><ele>360.1666666666667</ele><time>2026-04-10T10:35:30Z</time></trkpt><trkpt lat="44.73944043452782" lon="7.86816687600726"><ele>360.0</ele><time>2026-04-10T10:35:32Z</time></trkpt><trkpt lat="44.739382482591736" lon="7.868236305758384"><ele>360.0</ele><time>2026-04-10T10:35:34Z</time></trkpt><trkpt lat="44.7393291722237" lon="7.86830017459919"><ele>360.0</ele><time>2026-04-10T10:35:36Z</time></trkpt><trkpt lat="44.73927396740809" lon="7.868366313138506"><ele>360.0</ele><time>2026-04-10T10:35:38Z</time></trkpt><trkpt lat="44.73921562063049" lon="7.868436538563604"><ele>360.0</ele><time>2026-04-10T10:35:40Z</time></trkpt><trkpt lat="44.739158768353725" lon="7.868504990195764"><ele>360.0</ele><time>2026-04-10T10:35:42Z</time></trkpt><trkpt lat="44.739101321599804" lon="7.868574157581629"><ele>360.0</ele><time>2026-04-10T10:35:44Z</time></trkpt><trkpt lat="44.739048434799635" lon="7.868635985182652"><ele>360.0</ele><time>2026-04-10T10:35:46Z</time></trkpt><trkpt lat="44.738998072513304" lon="7.868717994331265"><ele>360.0</ele><time>2026-04-10T10:35:48Z</time></trkpt><trkpt lat="44.73893705560901" lon="7.8687800499134815"><ele>360.0</ele><time>2026-04-10T10:35:50Z</time></trkpt><trkpt lat="44.738878136041095" lon="7.8688415490137915"><ele>360.0</ele><time>2026-04-10T10:35:52Z</time></trkpt><trkpt lat="44.73881440111264" lon="7.868899248085596"><ele>360.0</ele><time>2026-04-10T10:35:54Z</time></trkpt><trkpt lat="44.73874758336931" lon="7.868944875623218"><ele>360.0</ele><time>2026-04-10T10:35:56Z</time></trkpt><trkpt lat="44.73868464726431" lon="7.869002262240993"><ele>360.0</ele><time>2026-04-10T10:35:58Z</time></trkpt><trkpt lat="44.738624343202495" lon="7.869051069004945"><ele>360.0</ele><time>2026-04-10T10:36:00Z</time></trkpt><trkpt lat="44.73856193499592" lon="7.869098918580525"><ele>360.1428571428571</ele><time>2026-04-10T10:36:02Z</time></trkpt><trkpt lat="44.73849897997784" lon="7.869142870808829"><ele>360.28571428571433</ele><time>2026-04-10T10:36:04Z</time></trkpt><trkpt lat="44.73843727120012" lon="7.86917455568316"><ele>360.42857142857144</ele><time>2026-04-10T10:36:06Z</time></trkpt><trkpt lat="44.738382113755144" lon="7.8692290322038225"><ele>360.57142857142856</ele><time>2026-04-10T10:36:08Z</time></trkpt><trkpt lat="44.73832775316612" lon="7.869281349942268"><ele>360.71428571428567</ele><time>2026-04-10T10:36:10Z</time></trkpt><trkpt lat="44.7382758470074" lon="7.869333784985166"><ele>360.8571428571429</ele><time>2026-04-10T10:36:12Z</time></trkpt><trkpt lat="44.738227185393264" lon="7.869393106638132"><ele>361.0</ele><time>2026-04-10T10:36:14Z</time></trkpt><trkpt lat="44.73817738405969" lon="7.869463439069209"><ele>361.0</ele><time>2026-04-10T10:36:16Z</time></trkpt><trkpt lat="44.738132734618404" lon="7.869533421449939"><ele>361.0</ele><time>2026-04-10T10:36:18Z</time></trkpt><trkpt lat="44.73809039621489" lon="7.869606222449638"><ele>361.0</ele><time>2026-04-10T10:36:20Z</time></trkpt><trkpt lat="44.73804387896879" lon="7.869679071538725"><ele>361.0</ele><time>2026-04-10T10:36:22Z</time></trkpt><trkpt lat="44.7380020120641" lon="7.869755849874787"><ele>361.0</ele><time>2026-04-10T10:36:24Z</time></trkpt><trkpt lat="44.73795219055841" lon="7.869827444565749"><ele>361.0</ele><time>2026-04-10T10:36:26Z</time></trkpt><trkpt lat="44.73790274871828" lon="7.869902654455906"><ele>361.0</ele><time>2026-04-10T10:36:28Z</time></trkpt><trkpt lat="44.73784920454854" lon="7.869965267296488"><ele>361.0</ele><time>2026-04-10T10:36:30Z</time></trkpt><trkpt lat="44.73780497588343" lon="7.870031669154996"><ele>361.0</ele><time>2026-04-10T10:36:32Z</time></trkpt><trkpt lat="44.73775971229609" lon="7.87010961176964"><ele>361.0</ele><time>2026-04-10T10:36:34Z</time></trkpt><trkpt lat="44.73770186605064" lon="7.870166444124552"><ele>361.0</ele><time>2026-04-10T10:36:36Z</time></trkpt><trkpt lat="44.73764799392892" lon="7.870227323519303"><ele>361.0</ele><time>2026-04-10T10:36:38Z</time></trkpt><trkpt lat="44.737593269407654" lon="7.870285353150125"><ele>361.0</ele><time>2026-04-10T10:36:40Z</time></trkpt><trkpt lat="44.737537965888045" lon="7.870333173390057"><ele>361.0</ele><time>2026-04-10T10:36:42Z</time></trkpt><trkpt lat="44.73747416736962" lon="7.8703925978724865"><ele>361.42857142857144</ele><time>2026-04-10T10:36:44Z</time></trkpt><trkpt lat="44.737417142754346" lon="7.870449469360775"><ele>361.85714285714283</ele><time>2026-04-10T10:36:46Z</time></trkpt><trkpt lat="44.73736187051642" lon="7.8704969439909505"><ele>362.2857142857143</ele><time>2026-04-10T10:36:48Z</time></trkpt><trkpt lat="44.73730382252133" lon="7.870549585352572"><ele>362.7142857142857</ele><time>2026-04-10T10:36:50Z</time></trkpt><trkpt lat="44.737249985030125" lon="7.870604737426987"><ele>363.1428571428571</ele><time>2026-04-10T10:36:52Z</time></trkpt><trkpt lat="44.737205280075955" lon="7.870673984333807"><ele>363.57142857142856</ele><time>2026-04-10T10:36:54Z</time></trkpt><trkpt lat="44.73715440999596" lon="7.870757795587062"><ele>364.0</ele><time>2026-04-10T10:36:56Z</time></trkpt><trkpt lat="44.73710680565841" lon="7.870834881357361"><ele>364.0</ele><time>2026-04-10T10:36:58Z</time></trkpt><trkpt lat="44.737050470169464" lon="7.8709118234307125"><ele>364.0</ele><time>2026-04-10T10:37:00Z</time></trkpt><trkpt lat="44.73699825785191" lon="7.871007997332478"><ele>364.0</ele><time>2026-04-10T10:37:02Z</time></trkpt><trkpt lat="44.73693853687499" lon="7.871095987049955"><ele>364.0</ele><time>2026-04-10T10:37:04Z</time></trkpt><trkpt lat="44.73687564480738" lon="7.8711817820258645"><ele>364.0</ele><time>2026-04-10T10:37:06Z</time></trkpt><trkpt lat="44.73681359224399" lon="7.871267553600286"><ele>364.0</ele><time>2026-04-10T10:37:08Z</time></trkpt><trkpt lat="44.73675707001718" lon="7.871353869686643"><ele>364.16666666666663</ele><time>2026-04-10T10:37:10Z</time></trkpt><trkpt lat="44.73670637620803" lon="7.871442539498689"><ele>364.3333333333333</ele><time>2026-04-10T10:37:12Z</time></trkpt><trkpt lat="44.73666098460596" lon="7.871534207509292"><ele>364.5</ele><time>2026-04-10T10:37:14Z</time></trkpt><trkpt lat="44.736616031927426" lon="7.8716356700417975"><ele>364.6666666666667</ele><time>2026-04-10T10:37:16Z</time></trkpt><trkpt lat="44.73657220163315" lon="7.871734825964548"><ele>364.83333333333337</ele><time>2026-04-10T10:37:18Z</time></trkpt><trkpt lat="44.73652184500357" lon="7.871830458294238"><ele>365.0</ele><time>2026-04-10T10:37:20Z</time></trkpt><trkpt lat="44.73647975961719" lon="7.871929975840284"><ele>364.6666666666667</ele><time>2026-04-10T10:37:22Z</time></trkpt><trkpt lat="44.73643486370827" lon="7.872020558095266"><ele>364.33333333333337</ele><time>2026-04-10T10:37:24Z</time></trkpt><trkpt lat="44.73639087448343" lon="7.872118093861181"><ele>364.0</ele><time>2026-04-10T10:37:26Z</time></trkpt><trkpt lat="44.736347595003934" lon="7.872206204952361"><ele>363.6666666666667</ele><time>2026-04-10T10:37:28Z</time></trkpt><trkpt lat="44.73630096155551" lon="7.872296829287958"><ele>363.3333333333333</ele><time>2026-04-10T10:37:30Z</time></trkpt><trkpt lat="44.73625296628718" lon="7.872383807077188"><ele>363.0</ele><time>2026-04-10T10:37:32Z</time></trkpt><trkpt lat="44.73620205062085" lon="7.872473205286811"><ele>362.99999999999994</ele><time>2026-04-10T10:37:34Z</time></trkpt><trkpt lat="44.73614656287012" lon="7.872555114647109"><ele>363.0</ele><time>2026-04-10T10:37:36Z</time></trkpt><trkpt lat="44.73609739098277" lon="7.872640288315161"><ele>363.0</ele><time>2026-04-10T10:37:38Z</time></trkpt><trkpt lat="44.7360610014561" lon="7.872721226475377"><ele>363.0</ele><time>2026-04-10T10:37:40Z</time></trkpt><trkpt lat="44.73601566557794" lon="7.872808673386274"><ele>363.0</ele><time>2026-04-10T10:37:42Z</time></trkpt><trkpt lat="44.73597542878117" lon="7.872884905424081"><ele>362.99999999999994</ele><time>2026-04-10T10:37:44Z</time></trkpt><trkpt lat="44.7359235261478" lon="7.872963345500715"><ele>363.0</ele><time>2026-04-10T10:37:46Z</time></trkpt><trkpt lat="44.735875726451894" lon="7.8730388019416155"><ele>363.57142857142856</ele><time>2026-04-10T10:37:48Z</time></trkpt><trkpt lat="44.73582428109488" lon="7.873107287794775"><ele>364.1428571428571</ele><time>2026-04-10T10:37:50Z</time></trkpt><trkpt lat="44.73576714619411" lon="7.873180534009603"><ele>364.71428571428567</ele><time>2026-04-10T10:37:52Z</time></trkpt><trkpt lat="44.73571156755994" lon="7.873259501604987"><ele>365.2857142857143</ele><time>2026-04-10T10:37:54Z</time></trkpt><trkpt lat="44.73566010633001" lon="7.8733216857937265"><ele>365.8571428571429</ele><time>2026-04-10T10:37:56Z</time></trkpt><trkpt lat="44.735605286214266" lon="7.873396581379078"><ele>366.4285714285714</ele><time>2026-04-10T10:37:58Z</time></trkpt><trkpt lat="44.73555299269039" lon="7.873470167265641"><ele>367.0</ele><time>2026-04-10T10:38:00Z</time></trkpt><trkpt lat="44.73549739875907" lon="7.8735421564480115"><ele>367.1428571428571</ele><time>2026-04-10T10:38:02Z</time></trkpt><trkpt lat="44.7354445379724" lon="7.8736078447298095"><ele>367.28571428571433</ele><time>2026-04-10T10:38:04Z</time></trkpt><trkpt lat="44.73539230436277" lon="7.873682860660589"><ele>367.42857142857144</ele><time>2026-04-10T10:38:06Z</time></trkpt><trkpt lat="44.735335866793605" lon="7.873747249185325"><ele>367.57142857142856</ele><time>2026-04-10T10:38:08Z</time></trkpt><trkpt lat="44.73529282201995" lon="7.8738201459208526"><ele>367.71428571428567</ele><time>2026-04-10T10:38:10Z</time></trkpt><trkpt lat="44.73524330137463" lon="7.873885901709216"><ele>367.8571428571429</ele><time>2026-04-10T10:38:12Z</time></trkpt><trkpt lat="44.73520003175589" lon="7.873953328184095"><ele>368.0</ele><time>2026-04-10T10:38:14Z</time></trkpt><trkpt lat="44.73513707294609" lon="7.874034554424847"><ele>368.14285714285717</ele><time>2026-04-10T10:38:17Z</time></trkpt><trkpt lat="44.73508883206467" lon="7.87409162729905"><ele>368.2857142857143</ele><time>2026-04-10T10:38:19Z</time></trkpt><trkpt lat="44.735040136939084" lon="7.87415981983513"><ele>368.42857142857144</ele><time>2026-04-10T10:38:21Z</time></trkpt><trkpt lat="44.734981392744174" lon="7.874215858304825"><ele>368.57142857142856</ele><time>2026-04-10T10:38:23Z</time></trkpt><trkpt lat="44.73492505052022" lon="7.874279631080781"><ele>368.71428571428567</ele><time>2026-04-10T10:38:25Z</time></trkpt><trkpt lat="44.73487588348814" lon="7.874338972727975"><ele>368.85714285714283</ele><time>2026-04-10T10:38:27Z</time></trkpt><trkpt lat="44.73481855994573" lon="7.87439996925964"><ele>369.0</ele><time>2026-04-10T10:38:29Z</time></trkpt><trkpt lat="44.73475615225628" lon="7.874470241368407"><ele>369.0</ele><time>2026-04-10T10:38:31Z</time></trkpt><trkpt lat="44.73468885822426" lon="7.874549441620707"><ele>369.0</ele><time>2026-04-10T10:38:33Z</time></trkpt><trkpt lat="44.734618795035225" lon="7.87461681445815"><ele>369.0</ele><time>2026-04-10T10:38:35Z</time></trkpt><trkpt lat="44.73455507068247" lon="7.874685347204138"><ele>369.0</ele><time>2026-04-10T10:38:37Z</time></trkpt><trkpt lat="44.73449189554857" lon="7.87476091689694"><ele>369.0</ele><time>2026-04-10T10:38:39Z</time></trkpt><trkpt lat="44.734421267707695" lon="7.874830634907542"><ele>369.0</ele><time>2026-04-10T10:38:41Z</time></trkpt><trkpt lat="44.734355332844494" lon="7.8749043187556325"><ele>369.3333333333333</ele><time>2026-04-10T10:38:43Z</time></trkpt><trkpt lat="44.7342889303612" lon="7.874978010311928"><ele>369.6666666666667</ele><time>2026-04-10T10:38:45Z</time></trkpt><trkpt lat="44.73423130630131" lon="7.8750547339163965"><ele>370.0</ele><time>2026-04-10T10:38:47Z</time></trkpt><trkpt lat="44.73416656104529" lon="7.875131933782782"><ele>370.33333333333337</ele><time>2026-04-10T10:38:49Z</time></trkpt><trkpt lat="44.734105467910936" lon="7.875205863777947"><ele>370.6666666666667</ele><time>2026-04-10T10:38:51Z</time></trkpt><trkpt lat="44.73404438764224" lon="7.8752850208671195"><ele>371.0</ele><time>2026-04-10T10:38:53Z</time></trkpt><trkpt lat="44.73398368100121" lon="7.875367284375197"><ele>371.0</ele><time>2026-04-10T10:38:55Z</time></trkpt><trkpt lat="44.73392047570246" lon="7.8754546178945315"><ele>371.0</ele><time>2026-04-10T10:38:57Z</time></trkpt><trkpt lat="44.73385236673861" lon="7.8755458502145945"><ele>371.0</ele><time>2026-04-10T10:38:59Z</time></trkpt><trkpt lat="44.733778229267685" lon="7.8756319748842785"><ele>371.0</ele><time>2026-04-10T10:39:01Z</time></trkpt><trkpt lat="44.733701774627185" lon="7.875720517754614"><ele>371.0</ele><time>2026-04-10T10:39:03Z</time></trkpt><trkpt lat="44.73362965498356" lon="7.875809166088275"><ele>371.0</ele><time>2026-04-10T10:39:05Z</time></trkpt><trkpt lat="44.733557626044714" lon="7.875891628433693"><ele>371.0</ele><time>2026-04-10T10:39:07Z</time></trkpt><trkpt lat="44.73349552989608" lon="7.8759730449816265"><ele>371.0</ele><time>2026-04-10T10:39:09Z</time></trkpt><trkpt lat="44.73343364993056" lon="7.8760471264930665"><ele>371.0</ele><time>2026-04-10T10:39:11Z</time></trkpt><trkpt lat="44.733368019397545" lon="7.876124291315321"><ele>371.0</ele><time>2026-04-10T10:39:13Z</time></trkpt><trkpt lat="44.73330239169287" lon="7.8762030913417425"><ele>371.0</ele><time>2026-04-10T10:39:15Z</time></trkpt><trkpt lat="44.7332349889774" lon="7.876282898165105"><ele>371.33333333333337</ele><time>2026-04-10T10:39:17Z</time></trkpt><trkpt lat="44.73315915550058" lon="7.876363750644688"><ele>371.6666666666667</ele><time>2026-04-10T10:39:19Z</time></trkpt><trkpt lat="44.73308254326831" lon="7.876440199697685"><ele>372.0</ele><time>2026-04-10T10:39:21Z</time></trkpt><trkpt lat="44.73301480571899" lon="7.87648782857215"><ele>372.3333333333333</ele><time>2026-04-10T10:39:23Z</time></trkpt><trkpt lat="44.73293966883133" lon="7.876546462249218"><ele>372.66666666666663</ele><time>2026-04-10T10:39:25Z</time></trkpt><trkpt lat="44.732867500810414" lon="7.876600026025784"><ele>373.0</ele><time>2026-04-10T10:39:27Z</time></trkpt><trkpt lat="44.73280011273458" lon="7.876640653545715"><ele>373.0</ele><time>2026-04-10T10:39:29Z</time></trkpt><trkpt lat="44.73273076503302" lon="7.876676489582325"><ele>373.0</ele><time>2026-04-10T10:39:31Z</time></trkpt><trkpt lat="44.73266525395358" lon="7.876713533687663"><ele>373.0</ele><time>2026-04-10T10:39:33Z</time></trkpt><trkpt lat="44.73259742546902" lon="7.876736145482215"><ele>373.0</ele><time>2026-04-10T10:39:35Z</time></trkpt><trkpt lat="44.73252769718572" lon="7.8767612428957"><ele>373.0</ele><time>2026-04-10T10:39:37Z</time></trkpt><trkpt lat="44.732460789744515" lon="7.876784953847598"><ele>373.0</ele><time>2026-04-10T10:39:39Z</time></trkpt><trkpt lat="44.73239147387618" lon="7.8767974688262345"><ele>373.0</ele><time>2026-04-10T10:39:41Z</time></trkpt><trkpt lat="44.73232041289226" lon="7.876820866097297"><ele>373.0</ele><time>2026-04-10T10:39:43Z</time></trkpt><trkpt lat="44.73224958400397" lon="7.876832715566303"><ele>373.0</ele><time>2026-04-10T10:39:45Z</time></trkpt><trkpt lat="44.732175586450055" lon="7.876827520497838"><ele>373.0</ele><time>2026-04-10T10:39:47Z</time></trkpt><trkpt lat="44.7320969042118" lon="7.876813805122746"><ele>373.0</ele><time>2026-04-10T10:39:49Z</time></trkpt><trkpt lat="44.732016441894835" lon="7.876823691756707"><ele>373.0</ele><time>2026-04-10T10:39:51Z</time></trkpt><trkpt lat="44.73193857564712" lon="7.876842141125519"><ele>373.0</ele><time>2026-04-10T10:39:53Z</time></trkpt><trkpt lat="44.731871181314595" lon="7.876871765960327"><ele>373.3333333333333</ele><time>2026-04-10T10:39:55Z</time></trkpt><trkpt lat="44.731799378956886" lon="7.87689843383562"><ele>373.66666666666663</ele><time>2026-04-10T10:39:57Z</time></trkpt><trkpt lat="44.73172494426997" lon="7.876914093988926"><ele>374.0</ele><time>2026-04-10T10:39:59Z</time></trkpt><trkpt lat="44.731655309048264" lon="7.876934285705032"><ele>374.3333333333333</ele><time>2026-04-10T10:40:01Z</time></trkpt><trkpt lat="44.731588668848126" lon="7.876981001609012"><ele>374.6666666666667</ele><time>2026-04-10T10:40:03Z</time></trkpt><trkpt lat="44.73149945792773" lon="7.877002918849705"><ele>375.0</ele><time>2026-04-10T10:40:05Z</time></trkpt><trkpt lat="44.73142069046289" lon="7.877059675199771"><ele>375.0</ele><time>2026-04-10T10:40:07Z</time></trkpt><trkpt lat="44.7313365193408" lon="7.877095372549386"><ele>375.0</ele><time>2026-04-10T10:40:09Z</time></trkpt><trkpt lat="44.731245492657486" lon="7.877118692620354"><ele>375.0</ele><time>2026-04-10T10:40:11Z</time></trkpt><trkpt lat="44.7311606295035" lon="7.877145694425669"><ele>375.0</ele><time>2026-04-10T10:40:13Z</time></trkpt><trkpt lat="44.73107520276629" lon="7.877178944286917"><ele>375.0</ele><time>2026-04-10T10:40:15Z</time></trkpt><trkpt lat="44.730986246905054" lon="7.877206831593585"><ele>375.0</ele><time>2026-04-10T10:40:17Z</time></trkpt><trkpt lat="44.730898040002394" lon="7.877242292144708"><ele>375.0</ele><time>2026-04-10T10:40:19Z</time></trkpt><trkpt lat="44.730812589011535" lon="7.877273173346867"><ele>375.0</ele><time>2026-04-10T10:40:21Z</time></trkpt><trkpt lat="44.7307275752336" lon="7.877298422035122"><ele>375.0</ele><time>2026-04-10T10:40:23Z</time></trkpt><trkpt lat="44.73064240626041" lon="7.87732389691722"><ele>375.0</ele><time>2026-04-10T10:40:25Z</time></trkpt><trkpt lat="44.73055247616959" lon="7.877362075754277"><ele>375.0</ele><time>2026-04-10T10:40:27Z</time></trkpt><trkpt lat="44.73046313824269" lon="7.87739268947065"><ele>375.0</ele><time>2026-04-10T10:40:29Z</time></trkpt><trkpt lat="44.730375787175355" lon="7.877425628042808"><ele>375.0</ele><time>2026-04-10T10:40:31Z</time></trkpt><trkpt lat="44.73028947270039" lon="7.877461268098327"><ele>375.0</ele><time>2026-04-10T10:40:33Z</time></trkpt><trkpt lat="44.730200027248536" lon="7.877493127997195"><ele>375.0</ele><time>2026-04-10T10:40:35Z</time></trkpt><trkpt lat="44.73011141354519" lon="7.8775224950712275"><ele>375.0</ele><time>2026-04-10T10:40:37Z</time></trkpt><trkpt lat="44.73002667319199" lon="7.877551763902973"><ele>375.0</ele><time>2026-04-10T10:40:39Z</time></trkpt><trkpt lat="44.72994798255842" lon="7.8775965176612"><ele>375.0</ele><time>2026-04-10T10:40:41Z</time></trkpt><trkpt lat="44.72986484236559" lon="7.8776210634702055"><ele>376.0</ele><time>2026-04-10T10:40:43Z</time></trkpt><trkpt lat="44.729784979559454" lon="7.877652071749889"><ele>377.0</ele><time>2026-04-10T10:40:45Z</time></trkpt><trkpt lat="44.72970327116089" lon="7.877687392411105"><ele>378.0</ele><time>2026-04-10T10:40:47Z</time></trkpt><trkpt lat="44.729618603721484" lon="7.877716052415032"><ele>379.0</ele><time>2026-04-10T10:40:49Z</time></trkpt><trkpt lat="44.72953415576171" lon="7.877749959874944"><ele>380.0</ele><time>2026-04-10T10:40:51Z</time></trkpt><trkpt lat="44.72944781567471" lon="7.877772382730418"><ele>381.0</ele><time>2026-04-10T10:40:53Z</time></trkpt><trkpt lat="44.72935529784063" lon="7.877789090493653"><ele>381.0</ele><time>2026-04-10T10:40:55Z</time></trkpt><trkpt lat="44.72926310708545" lon="7.877798474101979"><ele>381.0</ele><time>2026-04-10T10:40:57Z</time></trkpt><trkpt lat="44.72917467246458" lon="7.877798178241947"><ele>381.0</ele><time>2026-04-10T10:40:59Z</time></trkpt><trkpt lat="44.72908519854276" lon="7.877784468147138"><ele>381.0</ele><time>2026-04-10T10:41:01Z</time></trkpt><trkpt lat="44.728994967138256" lon="7.877777851121382"><ele>381.0</ele><time>2026-04-10T10:41:03Z</time></trkpt><trkpt lat="44.728906697894" lon="7.8777698207750415"><ele>381.0</ele><time>2026-04-10T10:41:05Z</time></trkpt><trkpt lat="44.728820772006294" lon="7.877757464493111"><ele>381.0</ele><time>2026-04-10T10:41:07Z</time></trkpt><trkpt lat="44.728730110999706" lon="7.8777461519659955"><ele>381.0</ele><time>2026-04-10T10:41:09Z</time></trkpt><trkpt lat="44.72863778977666" lon="7.877738671807527"><ele>381.0</ele><time>2026-04-10T10:41:11Z</time></trkpt><trkpt lat="44.72854530181231" lon="7.877747053657876"><ele>381.0</ele><time>2026-04-10T10:41:13Z</time></trkpt><trkpt lat="44.72845437763774" lon="7.877778212577261"><ele>380.8333333333333</ele><time>2026-04-10T10:41:15Z</time></trkpt><trkpt lat="44.72836814381336" lon="7.877809827189061"><ele>380.6666666666667</ele><time>2026-04-10T10:41:17Z</time></trkpt><trkpt lat="44.728287478747035" lon="7.877852837772987"><ele>380.5</ele><time>2026-04-10T10:41:19Z</time></trkpt><trkpt lat="44.72821511245116" lon="7.877892171100144"><ele>380.33333333333337</ele><time>2026-04-10T10:41:21Z</time></trkpt><trkpt lat="44.728138389562666" lon="7.877928257710674"><ele>380.1666666666667</ele><time>2026-04-10T10:41:23Z</time></trkpt><trkpt lat="44.72805932012186" lon="7.877962619623903"><ele>380.0</ele><time>2026-04-10T10:41:25Z</time></trkpt><trkpt lat="44.727983323627456" lon="7.878002379825888"><ele>380.0</ele><time>2026-04-10T10:41:27Z</time></trkpt><trkpt lat="44.72790295787299" lon="7.878030993962366"><ele>380.0</ele><time>2026-04-10T10:41:29Z</time></trkpt><trkpt lat="44.72782650542353" lon="7.878062473493632"><ele>380.0</ele><time>2026-04-10T10:41:31Z</time></trkpt><trkpt lat="44.72775131177852" lon="7.878098856383582"><ele>380.0</ele><time>2026-04-10T10:41:33Z</time></trkpt><trkpt lat="44.72767826461221" lon="7.878122894061072"><ele>380.0</ele><time>2026-04-10T10:41:35Z</time></trkpt><trkpt lat="44.72760704211388" lon="7.87815764202594"><ele>380.0</ele><time>2026-04-10T10:41:37Z</time></trkpt><trkpt lat="44.72753814514198" lon="7.8781820351552065"><ele>380.5</ele><time>2026-04-10T10:41:39Z</time></trkpt><trkpt lat="44.727463982529116" lon="7.878214620786552"><ele>381.0</ele><time>2026-04-10T10:41:41Z</time></trkpt><trkpt lat="44.72739012483459" lon="7.878240535490051"><ele>381.5</ele><time>2026-04-10T10:41:43Z</time></trkpt><trkpt lat="44.72731628558329" lon="7.878270549236105"><ele>382.0</ele><time>2026-04-10T10:41:45Z</time></trkpt><trkpt lat="44.72723521467393" lon="7.87830350611575"><ele>382.5</ele><time>2026-04-10T10:41:47Z</time></trkpt><trkpt lat="44.727155979707454" lon="7.878326366374019"><ele>383.0</ele><time>2026-04-10T10:41:49Z</time></trkpt><trkpt lat="44.727076864338905" lon="7.8783554288964055"><ele>383.0</ele><time>2026-04-10T10:41:51Z</time></trkpt><trkpt lat="44.72699640797432" lon="7.87839120523759"><ele>383.0</ele><time>2026-04-10T10:41:53Z</time></trkpt><trkpt lat="44.72691589249974" lon="7.87842849429597"><ele>383.0</ele><time>2026-04-10T10:41:55Z</time></trkpt><trkpt lat="44.72683604405738" lon="7.878458014683201"><ele>383.0</ele><time>2026-04-10T10:41:57Z</time></trkpt><trkpt lat="44.72676119622347" lon="7.87848002412249"><ele>383.0</ele><time>2026-04-10T10:41:59Z</time></trkpt><trkpt lat="44.72668111757393" lon="7.878514456510262"><ele>383.0</ele><time>2026-04-10T10:42:01Z</time></trkpt><trkpt lat="44.726605878689476" lon="7.878533692320751"><ele>383.0</ele><time>2026-04-10T10:42:03Z</time></trkpt><trkpt lat="44.72653090889823" lon="7.878584385458001"><ele>383.0</ele><time>2026-04-10T10:42:05Z</time></trkpt><trkpt lat="44.726449434149636" lon="7.878634649401419"><ele>383.0</ele><time>2026-04-10T10:42:07Z</time></trkpt><trkpt lat="44.72637887172754" lon="7.8786748699097355"><ele>383.0</ele><time>2026-04-10T10:42:09Z</time></trkpt><trkpt lat="44.726312505247215" lon="7.878726027285742"><ele>383.0</ele><time>2026-04-10T10:42:11Z</time></trkpt><trkpt lat="44.72624278201528" lon="7.878779475372547"><ele>383.0</ele><time>2026-04-10T10:42:13Z</time></trkpt><trkpt lat="44.72616768155292" lon="7.8788120104987165"><ele>383.0</ele><time>2026-04-10T10:42:15Z</time></trkpt><trkpt lat="44.726093151421566" lon="7.878866747934117"><ele>383.0</ele><time>2026-04-10T10:42:17Z</time></trkpt><trkpt lat="44.72602168876565" lon="7.87891885166618"><ele>383.0</ele><time>2026-04-10T10:42:19Z</time></trkpt><trkpt lat="44.72594026997211" lon="7.8789838926175255"><ele>383.0</ele><time>2026-04-10T10:42:21Z</time></trkpt><trkpt lat="44.725869719518286" lon="7.879004483462599"><ele>383.0</ele><time>2026-04-10T10:42:23Z</time></trkpt><trkpt lat="44.72579878861427" lon="7.879064381541524"><ele>383.0</ele><time>2026-04-10T10:42:25Z</time></trkpt><trkpt lat="44.725735536657155" lon="7.879104328363709"><ele>383.5</ele><time>2026-04-10T10:42:27Z</time></trkpt><trkpt lat="44.72566778907925" lon="7.879148747930922"><ele>384.0</ele><time>2026-04-10T10:42:29Z</time></trkpt><trkpt lat="44.72558607196382" lon="7.879190976141709"><ele>384.5</ele><time>2026-04-10T10:42:32Z</time></trkpt><trkpt lat="44.72551037899992" lon="7.87924317914939"><ele>385.0</ele><time>2026-04-10T10:42:35Z</time></trkpt><trkpt lat="44.72545238231133" lon="7.879279233273277"><ele>385.49999999999994</ele><time>2026-04-10T10:42:37Z</time></trkpt><trkpt lat="44.72536923201886" lon="7.879334877135572"><ele>386.0</ele><time>2026-04-10T10:42:40Z</time></trkpt><trkpt lat="44.72531087698012" lon="7.879377157382684"><ele>385.8333333333333</ele><time>2026-04-10T10:42:42Z</time></trkpt><trkpt lat="44.72522785686915" lon="7.879441764503951"><ele>385.66666666666663</ele><time>2026-04-10T10:42:45Z</time></trkpt><trkpt lat="44.72515243053018" lon="7.87948716129255"><ele>385.5</ele><time>2026-04-10T10:42:48Z</time></trkpt><trkpt lat="44.72507720697532" lon="7.879533182774962"><ele>385.33333333333337</ele><time>2026-04-10T10:42:51Z</time></trkpt><trkpt lat="44.724999243223635" lon="7.879565416563429"><ele>385.1666666666667</ele><time>2026-04-10T10:42:54Z</time></trkpt><trkpt lat="44.72492471522526" lon="7.879599431102899"><ele>385.0</ele><time>2026-04-10T10:42:57Z</time></trkpt><trkpt lat="44.724849229026084" lon="7.879637297040842"><ele>385.0</ele><time>2026-04-10T10:43:00Z</time></trkpt><trkpt lat="44.72477150033757" lon="7.879669254073426"><ele>385.0</ele><time>2026-04-10T10:43:03Z</time></trkpt><trkpt lat="44.724703383087146" lon="7.8796989904139965"><ele>385.0</ele><time>2026-04-10T10:43:06Z</time></trkpt><trkpt lat="44.72463060697301" lon="7.879729379972629"><ele>385.0</ele><time>2026-04-10T10:43:09Z</time></trkpt><trkpt lat="44.724557210755954" lon="7.879746068200316"><ele>385.0</ele><time>2026-04-10T10:43:12Z</time></trkpt><trkpt lat="44.7244927595952" lon="7.879784141920985"><ele>385.0</ele><time>2026-04-10T10:43:15Z</time></trkpt><trkpt lat="44.7244228520566" lon="7.8798119675924605"><ele>385.0</ele><time>2026-04-10T10:43:18Z</time></trkpt><trkpt lat="44.72435038473843" lon="7.879845046103976"><ele>385.4</ele><time>2026-04-10T10:43:21Z</time></trkpt><trkpt lat="44.72426361609374" lon="7.879888950526255"><ele>385.8</ele><time>2026-04-10T10:43:24Z</time></trkpt><trkpt lat="44.72417731337121" lon="7.879932446122088"><ele>386.20000000000005</ele><time>2026-04-10T10:43:27Z</time></trkpt><trkpt lat="44.72409605210406" lon="7.879982638825689"><ele>386.6</ele><time>2026-04-10T10:43:30Z</time></trkpt><trkpt lat="44.724015366850765" lon="7.880033927464854"><ele>387.0</ele><time>2026-04-10T10:43:33Z</time></trkpt><trkpt lat="44.7239307160724" lon="7.88008891745595"><ele>387.40000000000003</ele><time>2026-04-10T10:43:36Z</time></trkpt><trkpt lat="44.72385333662078" lon="7.880140959990305"><ele>387.8</ele><time>2026-04-10T10:43:39Z</time></trkpt><trkpt lat="44.72376633751793" lon="7.880187421488846"><ele>388.2</ele><time>2026-04-10T10:43:42Z</time></trkpt><trkpt lat="44.72368417534991" lon="7.880245010025909"><ele>388.6</ele><time>2026-04-10T10:43:45Z</time></trkpt><trkpt lat="44.72360080107368" lon="7.880302771700286"><ele>389.0</ele><time>2026-04-10T10:43:48Z</time></trkpt><trkpt lat="44.72352594267128" lon="7.880367270979287"><ele>388.99999999999994</ele><time>2026-04-10T10:43:51Z</time></trkpt><trkpt lat="44.72344263238028" lon="7.880422552462259"><ele>389.0</ele><time>2026-04-10T10:43:54Z</time></trkpt><trkpt lat="44.72338400130183" lon="7.88045506464674"><ele>389.0</ele><time>2026-04-10T10:43:56Z</time></trkpt><trkpt lat="44.723302259061796" lon="7.880513432232425"><ele>389.0</ele><time>2026-04-10T10:43:59Z</time></trkpt><trkpt lat="44.72322222682314" lon="7.880564582324513"><ele>388.99999999999994</ele><time>2026-04-10T10:44:02Z</time></trkpt><trkpt lat="44.7231489400879" lon="7.8806114349940986"><ele>389.0</ele><time>2026-04-10T10:44:05Z</time></trkpt><trkpt lat="44.72307517387174" lon="7.880655867266067"><ele>389.0</ele><time>2026-04-10T10:44:08Z</time></trkpt><trkpt lat="44.723002643672906" lon="7.8807068472886925"><ele>389.0</ele><time>2026-04-10T10:44:11Z</time></trkpt><trkpt lat="44.722929886446124" lon="7.880732547519624"><ele>389.0</ele><time>2026-04-10T10:44:14Z</time></trkpt></trkseg><trkseg><trkpt lat="44.63900739825223" lon="7.933956953340888"><ele>494.0</ele><time>2026-04-10T12:43:09.73Z</time></trkpt><trkpt lat="44.63796934117064" lon="7.93244666420662"><ele>478.0</ele><time>2026-04-10T13:09:45.045Z</time></trkpt><trkpt lat="44.636230584809816" lon="7.931655432394447"><ele>455.0</ele><time>2026-04-10T13:10:32Z</time></trkpt><trkpt lat="44.63443474359269" lon="7.931830456379779"><ele>455.0</ele><time>2026-04-10T13:11:02Z</time></trkpt></trkseg><trkseg><trkpt lat="44.63254692898835" lon="7.933634853148535"><ele>426.0</ele><time>2026-04-10T13:14:56Z</time></trkpt><trkpt lat="44.63249180191287" lon="7.933716792206854"><ele>426.0</ele><time>2026-04-10T13:14:58Z</time></trkpt><trkpt lat="44.63242949455946" lon="7.9337795139585605"><ele>426.0</ele><time>2026-04-10T13:15:00Z</time></trkpt><trkpt lat="44.63235717066753" lon="7.933869266411917"><ele>426.0</ele><time>2026-04-10T13:15:02Z</time></trkpt><trkpt lat="44.63228530823719" lon="7.933956957665907"><ele>426.0</ele><time>2026-04-10T13:15:04Z</time></trkpt><trkpt lat="44.63220293694453" lon="7.934012082502823"><ele>426.0</ele><time>2026-04-10T13:15:06Z</time></trkpt><trkpt lat="44.63212547461312" lon="7.934049745879819"><ele>426.0</ele><time>2026-04-10T13:15:08Z</time></trkpt><trkpt lat="44.63205207173278" lon="7.93409599130828"><ele>426.0</ele><time>2026-04-10T13:15:10Z</time></trkpt><trkpt lat="44.63199522863955" lon="7.934136198841949"><ele>426.0</ele><time>2026-04-10T13:15:12Z</time></trkpt><trkpt lat="44.63193357661332" lon="7.934182299694584"><ele>426.0</ele><time>2026-04-10T13:15:15Z</time></trkpt><trkpt lat="44.631865543133976" lon="7.934257463068935"><ele>426.0</ele><time>2026-04-10T13:15:19Z</time></trkpt><trkpt lat="44.631808381823234" lon="7.934331009977268"><ele>426.0</ele><time>2026-04-10T13:15:22Z</time></trkpt><trkpt lat="44.63175429249582" lon="7.934416463034296"><ele>423.8333333333333</ele><time>2026-04-10T13:15:25Z</time></trkpt><trkpt lat="44.631685797206295" lon="7.9344997993016415"><ele>421.66666666666663</ele><time>2026-04-10T13:15:28Z</time></trkpt><trkpt lat="44.63163584685219" lon="7.934572856419886"><ele>419.5</ele><time>2026-04-10T13:15:30Z</time></trkpt><trkpt lat="44.631578821540366" lon="7.934652411281777"><ele>417.3333333333333</ele><time>2026-04-10T13:15:32Z</time></trkpt><trkpt lat="44.63150848842463" lon="7.934726178969781"><ele>415.16666666666663</ele><time>2026-04-10T13:15:34Z</time></trkpt><trkpt lat="44.63143520981495" lon="7.934811261685589"><ele>413.0</ele><time>2026-04-10T13:15:36Z</time></trkpt><trkpt lat="44.63135980444058" lon="7.934864736946718"><ele>412.99999999999994</ele><time>2026-04-10T13:15:38Z</time></trkpt><trkpt lat="44.631289669192746" lon="7.934893570181475"><ele>413.0</ele><time>2026-04-10T13:15:41Z</time></trkpt><trkpt lat="44.63123579615956" lon="7.934969861971678"><ele>413.0</ele><time>2026-04-10T13:15:57Z</time></trkpt><trkpt lat="44.63116505796134" lon="7.935045462394577"><ele>413.0</ele><time>2026-04-10T13:16:00Z</time></trkpt><trkpt lat="44.631097088648" lon="7.935134332374029"><ele>412.99999999999994</ele><time>2026-04-10T13:16:03Z</time></trkpt><trkpt lat="44.63103375118095" lon="7.935202987250343"><ele>413.0</ele><time>2026-04-10T13:16:05Z</time></trkpt><trkpt lat="44.63095503600556" lon="7.935277046891998"><ele>411.79999999999995</ele><time>2026-04-10T13:16:07Z</time></trkpt><trkpt lat="44.63085569831809" lon="7.935352924538644"><ele>410.6</ele><time>2026-04-10T13:16:09Z</time></trkpt><trkpt lat="44.63076062894691" lon="7.935447590151726"><ele>409.4</ele><time>2026-04-10T13:16:11Z</time></trkpt><trkpt lat="44.6306867659054" lon="7.935526492747209"><ele>408.20000000000005</ele><time>2026-04-10T13:16:13Z</time></trkpt><trkpt lat="44.63060384815656" lon="7.935600826365002"><ele>407.0</ele><time>2026-04-10T13:16:15Z</time></trkpt><trkpt lat="44.63050656260174" lon="7.935665871884493"><ele>407.0</ele><time>2026-04-10T13:16:17Z</time></trkpt><trkpt lat="44.630425479210224" lon="7.935710029358603"><ele>407.0</ele><time>2026-04-10T13:16:19Z</time></trkpt><trkpt lat="44.63033419324079" lon="7.935760980612374"><ele>407.0</ele><time>2026-04-10T13:16:21Z</time></trkpt><trkpt lat="44.630249155208105" lon="7.935838278503492"><ele>407.0</ele><time>2026-04-10T13:16:23Z</time></trkpt><trkpt lat="44.63016051608352" lon="7.935935840348977"><ele>407.0</ele><time>2026-04-10T13:16:25Z</time></trkpt><trkpt lat="44.63007322088185" lon="7.936022980599428"><ele>405.49999999999994</ele><time>2026-04-10T13:16:27Z</time></trkpt><trkpt lat="44.629990991732704" lon="7.936102586407642"><ele>404.0</ele><time>2026-04-10T13:16:29Z</time></trkpt><trkpt lat="44.629909858073745" lon="7.9361685925992225"><ele>402.5</ele><time>2026-04-10T13:16:31Z</time></trkpt><trkpt lat="44.62983791618116" lon="7.936230321136389"><ele>401.0</ele><time>2026-04-10T13:16:33Z</time></trkpt><trkpt lat="44.629774635329376" lon="7.936279855375152"><ele>399.49999999999994</ele><time>2026-04-10T13:16:35Z</time></trkpt><trkpt lat="44.62970583829883" lon="7.9363216137134485"><ele>398.0</ele><time>2026-04-10T13:16:37Z</time></trkpt><trkpt lat="44.62963403709416" lon="7.936359046347853"><ele>397.99999999999994</ele><time>2026-04-10T13:16:39Z</time></trkpt><trkpt lat="44.62956200639811" lon="7.936393333342069"><ele>398.0</ele><time>2026-04-10T13:16:41Z</time></trkpt><trkpt lat="44.629489919104564" lon="7.936438768721584"><ele>398.0</ele><time>2026-04-10T13:16:43Z</time></trkpt><trkpt lat="44.62940870755081" lon="7.93647883449277"><ele>398.0</ele><time>2026-04-10T13:16:45Z</time></trkpt><trkpt lat="44.629321689952896" lon="7.936515989157004"><ele>397.99999999999994</ele><time>2026-04-10T13:16:47Z</time></trkpt><trkpt lat="44.62923685397018" lon="7.936560635095683"><ele>398.0</ele><time>2026-04-10T13:16:49Z</time></trkpt><trkpt lat="44.62914514148094" lon="7.936615251546146"><ele>397.3333333333333</ele><time>2026-04-10T13:16:51Z</time></trkpt><trkpt lat="44.62905811448026" lon="7.936665980961026"><ele>396.66666666666663</ele><time>2026-04-10T13:16:53Z</time></trkpt><trkpt lat="44.62897446383227" lon="7.936696377999148"><ele>396.0</ele><time>2026-04-10T13:16:55Z</time></trkpt><trkpt lat="44.628889538317026" lon="7.936763745121741"><ele>395.33333333333337</ele><time>2026-04-10T13:16:57Z</time></trkpt><trkpt lat="44.62881753921715" lon="7.936761003322773"><ele>394.6666666666667</ele><time>2026-04-10T13:16:59Z</time></trkpt><trkpt lat="44.628750106091815" lon="7.936781132723222"><ele>394.0</ele><time>2026-04-10T13:17:03Z</time></trkpt><trkpt lat="44.62872598671424" lon="7.936870218965292"><ele>394.0</ele><time>2026-04-10T13:17:04Z</time></trkpt><trkpt lat="44.62865381478111" lon="7.936934810471549"><ele>394.0</ele><time>2026-04-10T13:17:06Z</time></trkpt><trkpt lat="44.62859910251391" lon="7.937011220042701"><ele>394.0</ele><time>2026-04-10T13:17:08Z</time></trkpt><trkpt lat="44.62855428310495" lon="7.937118060865335"><ele>394.0</ele><time>2026-04-10T13:17:10Z</time></trkpt><trkpt lat="44.628544753067274" lon="7.937263940677481"><ele>394.0</ele><time>2026-04-10T13:17:12Z</time></trkpt><trkpt lat="44.62858727932916" lon="7.9373869957693906"><ele>394.1666666666667</ele><time>2026-04-10T13:17:14Z</time></trkpt><trkpt lat="44.62860767141793" lon="7.937479494542024"><ele>394.33333333333337</ele><time>2026-04-10T13:17:16Z</time></trkpt><trkpt lat="44.6286114636193" lon="7.937571777497321"><ele>394.5</ele><time>2026-04-10T13:17:18Z</time></trkpt><trkpt lat="44.62862189894401" lon="7.93766531299993"><ele>394.66666666666663</ele><time>2026-04-10T13:17:20Z</time></trkpt><trkpt lat="44.62863075323346" lon="7.937785248037998"><ele>394.8333333333333</ele><time>2026-04-10T13:17:22Z</time></trkpt><trkpt lat="44.62861283549795" lon="7.937921269031092"><ele>395.0</ele><time>2026-04-10T13:17:24Z</time></trkpt><trkpt lat="44.62860817836737" lon="7.93804972828446"><ele>393.16666666666663</ele><time>2026-04-10T13:17:26Z</time></trkpt><trkpt lat="44.62860695493832" lon="7.938169796924996"><ele>391.3333333333333</ele><time>2026-04-10T13:17:28Z</time></trkpt><trkpt lat="44.62859011606873" lon="7.938267021248164"><ele>389.5</ele><time>2026-04-10T13:17:30Z</time></trkpt><trkpt lat="44.62857862452547" lon="7.938366362114782"><ele>387.66666666666663</ele><time>2026-04-10T13:17:32Z</time></trkpt><trkpt lat="44.62855616105426" lon="7.938465138040023"><ele>385.8333333333333</ele><time>2026-04-10T13:17:34Z</time></trkpt><trkpt lat="44.62852925999237" lon="7.938568957501677"><ele>384.0</ele><time>2026-04-10T13:17:36Z</time></trkpt><trkpt lat="44.62847179432329" lon="7.93866422621669"><ele>381.5</ele><time>2026-04-10T13:17:38Z</time></trkpt><trkpt lat="44.62841562606387" lon="7.93876008285214"><ele>379.0</ele><time>2026-04-10T13:17:40Z</time></trkpt><trkpt lat="44.628378696967516" lon="7.938838098215602"><ele>376.5</ele><time>2026-04-10T13:17:42Z</time></trkpt><trkpt lat="44.62836319472325" lon="7.9389423205961185"><ele>374.0</ele><time>2026-04-10T13:17:46Z</time></trkpt><trkpt lat="44.628386964326964" lon="7.939034609287469"><ele>371.5</ele><time>2026-04-10T13:17:51Z</time></trkpt><trkpt lat="44.62842402360562" lon="7.939141569599666"><ele>369.0</ele><time>2026-04-10T13:17:54Z</time></trkpt><trkpt lat="44.628434703672674" lon="7.939254361485096"><ele>367.0</ele><time>2026-04-10T13:17:56Z</time></trkpt><trkpt lat="44.628426858526545" lon="7.939406300815761"><ele>365.0</ele><time>2026-04-10T13:17:58Z</time></trkpt><trkpt lat="44.62842856951845" lon="7.9395797392854615"><ele>363.0</ele><time>2026-04-10T13:18:00Z</time></trkpt><trkpt lat="44.62842583079302" lon="7.939670425473062"><ele>361.0</ele><time>2026-04-10T13:18:01Z</time></trkpt><trkpt lat="44.62841905497471" lon="7.939761340828576"><ele>359.0</ele><time>2026-04-10T13:18:02Z</time></trkpt><trkpt lat="44.62840719348462" lon="7.939936668227005"><ele>359.0</ele><time>2026-04-10T13:18:04Z</time></trkpt><trkpt lat="44.62840230396139" lon="7.940027786465828"><ele>359.0</ele><time>2026-04-10T13:18:05Z</time></trkpt><trkpt lat="44.62839621716965" lon="7.940122987991061"><ele>359.0</ele><time>2026-04-10T13:18:06Z</time></trkpt><trkpt lat="44.62838789445776" lon="7.940298667988358"><ele>359.0</ele><time>2026-04-10T13:18:08Z</time></trkpt><trkpt lat="44.62838125500478" lon="7.94039159714251"><ele>359.0</ele><time>2026-04-10T13:18:09Z</time></trkpt><trkpt lat="44.62837240925721" lon="7.940566033228323"><ele>359.0</ele><time>2026-04-10T13:18:11Z</time></trkpt><trkpt lat="44.62836870522965" lon="7.940656937252776"><ele>357.6</ele><time>2026-04-10T13:18:12Z</time></trkpt><trkpt lat="44.628363535787074" lon="7.940746742544565"><ele>356.2</ele><time>2026-04-10T13:18:13Z</time></trkpt><trkpt lat="44.628357179564254" lon="7.940835451954289"><ele>354.8</ele><time>2026-04-10T13:18:14Z</time></trkpt><trkpt lat="44.62834635245096" lon="7.941004344194977"><ele>353.40000000000003</ele><time>2026-04-10T13:18:16Z</time></trkpt><trkpt lat="44.62833879067137" lon="7.941170361925946"><ele>352.0</ele><time>2026-04-10T13:18:18Z</time></trkpt><trkpt lat="44.62835951473155" lon="7.941324620418893"><ele>350.40000000000003</ele><time>2026-04-10T13:18:20Z</time></trkpt><trkpt lat="44.62840032510219" lon="7.941453529897483"><ele>348.8</ele><time>2026-04-10T13:18:22Z</time></trkpt><trkpt lat="44.628430890468316" lon="7.9415637613964645"><ele>347.2</ele><time>2026-04-10T13:18:24Z</time></trkpt><trkpt lat="44.62848004900045" lon="7.94165071614829"><ele>345.6</ele><time>2026-04-10T13:18:26Z</time></trkpt><trkpt lat="44.628528564169734" lon="7.941762087565404"><ele>344.0</ele><time>2026-04-10T13:18:28Z</time></trkpt><trkpt lat="44.62854218695942" lon="7.941900746348812"><ele>343.0</ele><time>2026-04-10T13:18:30Z</time></trkpt><trkpt lat="44.62854493275185" lon="7.9420378992587"><ele>342.0</ele><time>2026-04-10T13:18:32Z</time></trkpt><trkpt lat="44.628545237359546" lon="7.942176757214328"><ele>341.0</ele><time>2026-04-10T13:18:34Z</time></trkpt><trkpt lat="44.62854635785152" lon="7.942324912597715"><ele>340.0</ele><time>2026-04-10T13:18:36Z</time></trkpt><trkpt lat="44.628542165571034" lon="7.942460705842431"><ele>339.0</ele><time>2026-04-10T13:18:38Z</time></trkpt><trkpt lat="44.62855573206228" lon="7.942611194224805"><ele>336.6</ele><time>2026-04-10T13:18:40Z</time></trkpt><trkpt lat="44.628568106390205" lon="7.9427601967051205"><ele>334.2</ele><time>2026-04-10T13:18:42Z</time></trkpt><trkpt lat="44.62857115793158" lon="7.942923537575132"><ele>331.8</ele><time>2026-04-10T13:18:44Z</time></trkpt><trkpt lat="44.62853179724099" lon="7.943034723505133"><ele>329.40000000000003</ele><time>2026-04-10T13:18:46Z</time></trkpt><trkpt lat="44.62844840687169" lon="7.943077305243319"><ele>327.0</ele><time>2026-04-10T13:18:48Z</time></trkpt><trkpt lat="44.62834049469583" lon="7.943039297046704"><ele>327.0</ele><time>2026-04-10T13:18:50Z</time></trkpt><trkpt lat="44.62826630497603" lon="7.943039464305606"><ele>327.0</ele><time>2026-04-10T13:18:52Z</time></trkpt><trkpt lat="44.62820855660062" lon="7.943131122334898"><ele>327.0</ele><time>2026-04-10T13:18:54Z</time></trkpt><trkpt lat="44.62818620949788" lon="7.9432855952717984"><ele>327.0</ele><time>2026-04-10T13:18:56Z</time></trkpt><trkpt lat="44.62818286187637" lon="7.943373995527968"><ele>327.0</ele><time>2026-04-10T13:18:57Z</time></trkpt><trkpt lat="44.628183187956076" lon="7.943531984176991"><ele>327.0</ele><time>2026-04-10T13:18:59Z</time></trkpt><trkpt lat="44.62817943739179" lon="7.943678513598254"><ele>325.40000000000003</ele><time>2026-04-10T13:19:01Z</time></trkpt><trkpt lat="44.62816152556495" lon="7.943826402128741"><ele>323.8</ele><time>2026-04-10T13:19:03Z</time></trkpt><trkpt lat="44.628117867351925" lon="7.943969076785979"><ele>322.2</ele><time>2026-04-10T13:19:05Z</time></trkpt><trkpt lat="44.62809748620271" lon="7.944112854476878"><ele>320.6</ele><time>2026-04-10T13:19:07Z</time></trkpt><trkpt lat="44.628074666438586" lon="7.944249230573783"><ele>319.0</ele><time>2026-04-10T13:19:09Z</time></trkpt><trkpt lat="44.62806295770109" lon="7.944360023384907"><ele>319.0</ele><time>2026-04-10T13:19:11Z</time></trkpt><trkpt lat="44.62807740606863" lon="7.944493363278224"><ele>319.0</ele><time>2026-04-10T13:19:14Z</time></trkpt><trkpt lat="44.62807417440688" lon="7.944610178993621"><ele>319.0</ele><time>2026-04-10T13:19:17Z</time></trkpt><trkpt lat="44.628076595180566" lon="7.944724250528299"><ele>319.0</ele><time>2026-04-10T13:19:20Z</time></trkpt><trkpt lat="44.62807833987413" lon="7.944828572866801"><ele>319.0</ele><time>2026-04-10T13:19:23Z</time></trkpt><trkpt lat="44.62806965884506" lon="7.944923644359847"><ele>319.0</ele><time>2026-04-10T13:19:26Z</time></trkpt><trkpt lat="44.628081253121955" lon="7.945031853019278"><ele>318.5</ele><time>2026-04-10T13:19:30Z</time></trkpt><trkpt lat="44.628100735222446" lon="7.945136822183419"><ele>318.0</ele><time>2026-04-10T13:19:33Z</time></trkpt><trkpt lat="44.6281073837829" lon="7.94522790361269"><ele>317.5</ele><time>2026-04-10T13:19:35Z</time></trkpt><trkpt lat="44.628115054479075" lon="7.945336599149743"><ele>317.0</ele><time>2026-04-10T13:19:37Z</time></trkpt><trkpt lat="44.628119075790046" lon="7.945441436116297"><ele>316.5</ele><time>2026-04-10T13:19:39Z</time></trkpt><trkpt lat="44.628120336349575" lon="7.9455466396204075"><ele>316.0</ele><time>2026-04-10T13:19:41Z</time></trkpt><trkpt lat="44.62813117933797" lon="7.945657808792456"><ele>316.0</ele><time>2026-04-10T13:19:43Z</time></trkpt><trkpt lat="44.628147184212395" lon="7.945769140668682"><ele>316.0</ele><time>2026-04-10T13:19:45Z</time></trkpt><trkpt lat="44.628172445289906" lon="7.945892041645107"><ele>316.0</ele><time>2026-04-10T13:19:47Z</time></trkpt><trkpt lat="44.628193267019796" lon="7.946022946156871"><ele>316.0</ele><time>2026-04-10T13:19:49Z</time></trkpt><trkpt lat="44.62821690030821" lon="7.946140655403881"><ele>316.0</ele><time>2026-04-10T13:19:51Z</time></trkpt><trkpt lat="44.628236471800534" lon="7.946253028617608"><ele>316.0</ele><time>2026-04-10T13:19:53Z</time></trkpt><trkpt lat="44.62825657418594" lon="7.946342819160935"><ele>315.0</ele><time>2026-04-10T13:19:55Z</time></trkpt><trkpt lat="44.62827129741957" lon="7.946466302240711"><ele>314.0</ele><time>2026-04-10T13:19:58Z</time></trkpt><trkpt lat="44.62830121502433" lon="7.946557220366809"><ele>313.0</ele><time>2026-04-10T13:20:00Z</time></trkpt><trkpt lat="44.62832383986071" lon="7.946647247469254"><ele>312.0</ele><time>2026-04-10T13:20:02Z</time></trkpt><trkpt lat="44.62834305196472" lon="7.946743811021571"><ele>311.0</ele><time>2026-04-10T13:20:04Z</time></trkpt><trkpt lat="44.62832520847803" lon="7.946859220720317"><ele>310.0</ele><time>2026-04-10T13:20:06Z</time></trkpt><trkpt lat="44.628279701270564" lon="7.946975594953553"><ele>307.8</ele><time>2026-04-10T13:20:08Z</time></trkpt><trkpt lat="44.62820968568791" lon="7.947079342780398"><ele>305.6</ele><time>2026-04-10T13:20:10Z</time></trkpt><trkpt lat="44.628137168245445" lon="7.947172604028511"><ele>303.4</ele><time>2026-04-10T13:20:12Z</time></trkpt><trkpt lat="44.62807313515773" lon="7.947257210607839"><ele>301.2</ele><time>2026-04-10T13:20:14Z</time></trkpt><trkpt lat="44.628010048920395" lon="7.947337230211003"><ele>299.0</ele><time>2026-04-10T13:20:16Z</time></trkpt><trkpt lat="44.6279414925458" lon="7.94741235203915"><ele>299.0</ele><time>2026-04-10T13:20:18Z</time></trkpt><trkpt lat="44.627851376615794" lon="7.9474641086153754"><ele>299.0</ele><time>2026-04-10T13:20:20Z</time></trkpt><trkpt lat="44.62776679047615" lon="7.947532149941282"><ele>299.0</ele><time>2026-04-10T13:20:22Z</time></trkpt><trkpt lat="44.62769031146757" lon="7.947629851179901"><ele>299.0</ele><time>2026-04-10T13:20:24Z</time></trkpt><trkpt lat="44.6276113599412" lon="7.9476912027126225"><ele>299.0</ele><time>2026-04-10T13:20:26Z</time></trkpt><trkpt lat="44.62756106261399" lon="7.947791340944896"><ele>296.2</ele><time>2026-04-10T13:20:28Z</time></trkpt><trkpt lat="44.62750972426746" lon="7.947904458570937"><ele>293.4</ele><time>2026-04-10T13:20:30Z</time></trkpt><trkpt lat="44.627452523847964" lon="7.948032061712029"><ele>290.6</ele><time>2026-04-10T13:20:32Z</time></trkpt><trkpt lat="44.62738904212746" lon="7.948163629167042"><ele>287.8</ele><time>2026-04-10T13:20:34Z</time></trkpt><trkpt lat="44.627336379497336" lon="7.948316528622716"><ele>285.0</ele><time>2026-04-10T13:20:36Z</time></trkpt><trkpt lat="44.62727420345199" lon="7.9484567079011015"><ele>282.2</ele><time>2026-04-10T13:20:38Z</time></trkpt><trkpt lat="44.62721791738441" lon="7.948593172602814"><ele>279.4</ele><time>2026-04-10T13:20:40Z</time></trkpt><trkpt lat="44.62717073000552" lon="7.948725377019738"><ele>276.6</ele><time>2026-04-10T13:20:42Z</time></trkpt><trkpt lat="44.62711441313538" lon="7.94887008364637"><ele>273.8</ele><time>2026-04-10T13:20:44Z</time></trkpt><trkpt lat="44.62709481821684" lon="7.948957117380502"><ele>271.0</ele><time>2026-04-10T13:20:45Z</time></trkpt><trkpt lat="44.62709280796362" lon="7.949048933437489"><ele>268.40000000000003</ele><time>2026-04-10T13:20:46Z</time></trkpt><trkpt lat="44.62705334955149" lon="7.949218552352965"><ele>265.8</ele><time>2026-04-10T13:20:48Z</time></trkpt><trkpt lat="44.62703718049923" lon="7.949307893059672"><ele>263.20000000000005</ele><time>2026-04-10T13:20:49Z</time></trkpt><trkpt lat="44.627019096804155" lon="7.949393082380286"><ele>260.6</ele><time>2026-04-10T13:20:50Z</time></trkpt><trkpt lat="44.62698464213213" lon="7.949548736433266"><ele>258.0</ele><time>2026-04-10T13:20:52Z</time></trkpt><trkpt lat="44.626951745451095" lon="7.949708002058109"><ele>257.8</ele><time>2026-04-10T13:20:54Z</time></trkpt><trkpt lat="44.626919584296836" lon="7.949860347618278"><ele>257.6</ele><time>2026-04-10T13:20:56Z</time></trkpt><trkpt lat="44.626887042429885" lon="7.950003223797205"><ele>257.4</ele><time>2026-04-10T13:20:58Z</time></trkpt><trkpt lat="44.62685662215922" lon="7.950155538660486"><ele>257.2</ele><time>2026-04-10T13:21:00Z</time></trkpt><trkpt lat="44.62682961392592" lon="7.950307539895839"><ele>257.0</ele><time>2026-04-10T13:21:02Z</time></trkpt><trkpt lat="44.626806681057246" lon="7.950473170129786"><ele>255.66666666666669</ele><time>2026-04-10T13:21:04Z</time></trkpt><trkpt lat="44.626792405437065" lon="7.950625002059777"><ele>254.33333333333334</ele><time>2026-04-10T13:21:06Z</time></trkpt><trkpt lat="44.62676748326057" lon="7.950753481541038"><ele>253.0</ele><time>2026-04-10T13:21:08Z</time></trkpt><trkpt lat="44.6267680033069" lon="7.950873360778895"><ele>251.66666666666669</ele><time>2026-04-10T13:21:10Z</time></trkpt><trkpt lat="44.62680966335621" lon="7.950990746459183"><ele>250.33333333333334</ele><time>2026-04-10T13:21:12Z</time></trkpt><trkpt lat="44.626870580782395" lon="7.951028114767008"><ele>249.0</ele><time>2026-04-10T13:21:13Z</time></trkpt><trkpt lat="44.6269450291855" lon="7.951047094707844"><ele>245.66666666666666</ele><time>2026-04-10T13:21:14Z</time></trkpt><trkpt lat="44.627018927286" lon="7.951039267615522"><ele>242.33333333333331</ele><time>2026-04-10T13:21:15Z</time></trkpt><trkpt lat="44.62708160285197" lon="7.951055444544959"><ele>239.0</ele><time>2026-04-10T13:21:16Z</time></trkpt><trkpt lat="44.62718709672931" lon="7.951106785086643"><ele>235.66666666666666</ele><time>2026-04-10T13:21:18Z</time></trkpt><trkpt lat="44.62724974582064" lon="7.951208375014196"><ele>232.33333333333331</ele><time>2026-04-10T13:21:20Z</time></trkpt><trkpt lat="44.627251309163626" lon="7.9513387006962315"><ele>229.0</ele><time>2026-04-10T13:21:22Z</time></trkpt><trkpt lat="44.62717453176147" lon="7.951478897024634"><ele>229.0</ele><time>2026-04-10T13:21:24Z</time></trkpt><trkpt lat="44.627122278505624" lon="7.951549990963883"><ele>229.0</ele><time>2026-04-10T13:21:25Z</time></trkpt><trkpt lat="44.6270775200437" lon="7.951627236956187"><ele>229.0</ele><time>2026-04-10T13:21:26Z</time></trkpt><trkpt lat="44.62703035473696" lon="7.951699862911026"><ele>229.0</ele><time>2026-04-10T13:21:27Z</time></trkpt><trkpt lat="44.62698320748764" lon="7.9517781389819016"><ele>229.0</ele><time>2026-04-10T13:21:28Z</time></trkpt><trkpt lat="44.626936905085785" lon="7.951858024318527"><ele>229.0</ele><time>2026-04-10T13:21:29Z</time></trkpt><trkpt lat="44.62689430586622" lon="7.951937288711445"><ele>229.0</ele><time>2026-04-10T13:21:30Z</time></trkpt><trkpt lat="44.626850128081415" lon="7.952019872455784"><ele>227.99999999999997</ele><time>2026-04-10T13:21:31Z</time></trkpt><trkpt lat="44.626804543993124" lon="7.952099104997617"><ele>227.0</ele><time>2026-04-10T13:21:32Z</time></trkpt><trkpt lat="44.62676017294427" lon="7.9521730068300425"><ele>226.0</ele><time>2026-04-10T13:21:33Z</time></trkpt><trkpt lat="44.62671606555371" lon="7.9522429222303606"><ele>225.0</ele><time>2026-04-10T13:21:34Z</time></trkpt><trkpt lat="44.626676376075274" lon="7.952314749421393"><ele>223.99999999999997</ele><time>2026-04-10T13:21:35Z</time></trkpt><trkpt lat="44.62660136137359" lon="7.952450147812145"><ele>223.0</ele><time>2026-04-10T13:21:37Z</time></trkpt><trkpt lat="44.62656777162923" lon="7.952528384673954"><ele>222.8</ele><time>2026-04-10T13:21:38Z</time></trkpt><trkpt lat="44.62654331964428" lon="7.9526636170349585"><ele>222.60000000000002</ele><time>2026-04-10T13:21:40Z</time></trkpt><trkpt lat="44.626533328605845" lon="7.952813582833271"><ele>222.39999999999998</ele><time>2026-04-10T13:21:42Z</time></trkpt><trkpt lat="44.62656343040097" lon="7.9529609731798"><ele>222.2</ele><time>2026-04-10T13:21:44Z</time></trkpt><trkpt lat="44.62659834212253" lon="7.953045746852617"><ele>222.0</ele><time>2026-04-10T13:21:45Z</time></trkpt><trkpt lat="44.6266284565069" lon="7.953137573603729"><ele>222.0</ele><time>2026-04-10T13:21:46Z</time></trkpt><trkpt lat="44.62669267242702" lon="7.953293354668043"><ele>222.0</ele><time>2026-04-10T13:21:48Z</time></trkpt><trkpt lat="44.626733241327635" lon="7.9533686970934685"><ele>222.0</ele><time>2026-04-10T13:21:49Z</time></trkpt><trkpt lat="44.62676368997482" lon="7.9534518523924405"><ele>222.0</ele><time>2026-04-10T13:21:50Z</time></trkpt><trkpt lat="44.62680665218992" lon="7.953517156939999"><ele>222.0</ele><time>2026-04-10T13:21:51Z</time></trkpt><trkpt lat="44.626841064024674" lon="7.953593570037729"><ele>222.0</ele><time>2026-04-10T13:21:52Z</time></trkpt><trkpt lat="44.626912601148064" lon="7.953732871840716"><ele>222.0</ele><time>2026-04-10T13:21:54Z</time></trkpt><trkpt lat="44.62698719173316" lon="7.95386838358756"><ele>222.0</ele><time>2026-04-10T13:21:56Z</time></trkpt><trkpt lat="44.62705845296627" lon="7.953990719631586"><ele>222.0</ele><time>2026-04-10T13:21:58Z</time></trkpt><trkpt lat="44.627116898441145" lon="7.954119770718598"><ele>222.0</ele><time>2026-04-10T13:22:00Z</time></trkpt><trkpt lat="44.62718716481734" lon="7.954242758953864"><ele>221.6</ele><time>2026-04-10T13:22:02Z</time></trkpt><trkpt lat="44.627254826761536" lon="7.954359227370803"><ele>221.2</ele><time>2026-04-10T13:22:04Z</time></trkpt><trkpt lat="44.627320587141064" lon="7.954482474281774"><ele>220.8</ele><time>2026-04-10T13:22:06Z</time></trkpt><trkpt lat="44.627387870027924" lon="7.954609270414097"><ele>220.4</ele><time>2026-04-10T13:22:08Z</time></trkpt><trkpt lat="44.62746438479009" lon="7.954722104307946"><ele>220.0</ele><time>2026-04-10T13:22:10Z</time></trkpt><trkpt lat="44.62753629159902" lon="7.954827366406683"><ele>220.0</ele><time>2026-04-10T13:22:12Z</time></trkpt><trkpt lat="44.62761805603922" lon="7.954929318028095"><ele>220.0</ele><time>2026-04-10T13:22:14Z</time></trkpt><trkpt lat="44.62770371459751" lon="7.955031501055801"><ele>220.0</ele><time>2026-04-10T13:22:16Z</time></trkpt><trkpt lat="44.627768814597225" lon="7.955135049424394"><ele>220.0</ele><time>2026-04-10T13:22:18Z</time></trkpt><trkpt lat="44.62783622513375" lon="7.955216063675753"><ele>220.0</ele><time>2026-04-10T13:22:20Z</time></trkpt><trkpt lat="44.627889688993335" lon="7.955294202028668"><ele>219.4</ele><time>2026-04-10T13:22:22Z</time></trkpt><trkpt lat="44.628017712358236" lon="7.955230514331335"><ele>218.8</ele><time>2026-04-10T13:22:26Z</time></trkpt><trkpt lat="44.62806103831786" lon="7.95513554504923"><ele>218.2</ele><time>2026-04-10T13:22:28Z</time></trkpt><trkpt lat="44.62809861921797" lon="7.955019274354829"><ele>217.6</ele><time>2026-04-10T13:22:31Z</time></trkpt><trkpt lat="44.62814538004208" lon="7.95494473281925"><ele>217.0</ele><time>2026-04-10T13:22:33Z</time></trkpt><trkpt lat="44.62818777551652" lon="7.954857475188524"><ele>217.0</ele><time>2026-04-10T13:22:35Z</time></trkpt><trkpt lat="44.62825102439815" lon="7.954787051974327"><ele>217.0</ele><time>2026-04-10T13:22:37Z</time></trkpt><trkpt lat="44.62830103518516" lon="7.954708113171367"><ele>217.0</ele><time>2026-04-10T13:22:39Z</time></trkpt><trkpt lat="44.628345303067526" lon="7.9546382389241055"><ele>217.0</ele><time>2026-04-10T13:22:41Z</time></trkpt><trkpt lat="44.62839928441786" lon="7.954572879122649"><ele>217.0</ele><time>2026-04-10T13:22:43Z</time></trkpt><trkpt lat="44.62844994165664" lon="7.954511026958327"><ele>217.0</ele><time>2026-04-10T13:22:45Z</time></trkpt><trkpt lat="44.62851225858014" lon="7.954442179814608"><ele>217.0</ele><time>2026-04-10T13:22:47Z</time></trkpt><trkpt lat="44.62856775600803" lon="7.954381219012973"><ele>217.0</ele><time>2026-04-10T13:22:49Z</time></trkpt><trkpt lat="44.628627399011506" lon="7.954322065051443"><ele>217.0</ele><time>2026-04-10T13:22:51Z</time></trkpt><trkpt lat="44.62868944001267" lon="7.954257734884775"><ele>217.0</ele><time>2026-04-10T13:22:53Z</time></trkpt><trkpt lat="44.628754102319725" lon="7.954205666827134"><ele>217.0</ele><time>2026-04-10T13:22:55Z</time></trkpt><trkpt lat="44.628812256509676" lon="7.954151054950777"><ele>217.0</ele><time>2026-04-10T13:22:57Z</time></trkpt><trkpt lat="44.62887615091318" lon="7.954095870722699"><ele>217.0</ele><time>2026-04-10T13:22:59Z</time></trkpt><trkpt lat="44.62893786179251" lon="7.954055836039096"><ele>217.0</ele><time>2026-04-10T13:23:01Z</time></trkpt><trkpt lat="44.628991048437335" lon="7.954003666733821"><ele>217.99999999999997</ele><time>2026-04-10T13:23:03Z</time></trkpt><trkpt lat="44.6290517946048" lon="7.9539711500520465"><ele>219.0</ele><time>2026-04-10T13:23:05Z</time></trkpt><trkpt lat="44.629127963753255" lon="7.953902773962076"><ele>220.0</ele><time>2026-04-10T13:23:08Z</time></trkpt><trkpt lat="44.62919529186605" lon="7.953842334363365"><ele>221.0</ele><time>2026-04-10T13:23:11Z</time></trkpt><trkpt lat="44.62925772011042" lon="7.953786293301907"><ele>221.99999999999997</ele><time>2026-04-10T13:23:14Z</time></trkpt><trkpt lat="44.62931062896569" lon="7.953713834638128"><ele>223.0</ele><time>2026-04-10T13:23:17Z</time></trkpt><trkpt lat="44.62937439845993" lon="7.95366114337473"><ele>223.0</ele><time>2026-04-10T13:23:20Z</time></trkpt><trkpt lat="44.629436285868856" lon="7.953628118543627"><ele>223.0</ele><time>2026-04-10T13:23:23Z</time></trkpt><trkpt lat="44.62948667470624" lon="7.953556815356505"><ele>223.0</ele><time>2026-04-10T13:23:26Z</time></trkpt><trkpt lat="44.62954270265717" lon="7.953496449644357"><ele>223.0</ele><time>2026-04-10T13:23:29Z</time></trkpt><trkpt lat="44.629600137788266" lon="7.9534366462259225"><ele>223.0</ele><time>2026-04-10T13:23:32Z</time></trkpt><trkpt lat="44.62965813597969" lon="7.9533879765320386"><ele>223.0</ele><time>2026-04-10T13:23:35Z</time></trkpt><trkpt lat="44.629721154800514" lon="7.9533254943909"><ele>223.0</ele><time>2026-04-10T13:23:38Z</time></trkpt><trkpt lat="44.62978598471882" lon="7.953262790328588"><ele>223.83333333333331</ele><time>2026-04-10T13:23:41Z</time></trkpt><trkpt lat="44.62985115790627" lon="7.953194067943815"><ele>224.66666666666666</ele><time>2026-04-10T13:23:44Z</time></trkpt><trkpt lat="44.629907129370714" lon="7.953115988684779"><ele>225.5</ele><time>2026-04-10T13:23:47Z</time></trkpt><trkpt lat="44.62996321653576" lon="7.9530401672181545"><ele>226.33333333333331</ele><time>2026-04-10T13:23:50Z</time></trkpt><trkpt lat="44.63001128975847" lon="7.952966143622688"><ele>227.16666666666666</ele><time>2026-04-10T13:23:53Z</time></trkpt><trkpt lat="44.63006820681185" lon="7.952888771129862"><ele>228.0</ele><time>2026-04-10T13:23:56Z</time></trkpt><trkpt lat="44.63011836692113" lon="7.952815340661024"><ele>228.0</ele><time>2026-04-10T13:23:59Z</time></trkpt><trkpt lat="44.63016385464438" lon="7.952722135393306"><ele>228.0</ele><time>2026-04-10T13:24:02Z</time></trkpt><trkpt lat="44.630220487688256" lon="7.952631200085757"><ele>228.0</ele><time>2026-04-10T13:24:05Z</time></trkpt><trkpt lat="44.63027744221763" lon="7.952538815742872"><ele>228.0</ele><time>2026-04-10T13:24:08Z</time></trkpt><trkpt lat="44.630328162248766" lon="7.952450715777263"><ele>228.0</ele><time>2026-04-10T13:24:11Z</time></trkpt><trkpt lat="44.63036461896712" lon="7.952371820666545"><ele>228.0</ele><time>2026-04-10T13:24:14Z</time></trkpt><trkpt lat="44.6304215050663" lon="7.952281323081269"><ele>228.16666666666666</ele><time>2026-04-10T13:24:17Z</time></trkpt><trkpt lat="44.630468335071754" lon="7.952189707693613"><ele>228.33333333333331</ele><time>2026-04-10T13:24:20Z</time></trkpt><trkpt lat="44.630511764440065" lon="7.952083457324442"><ele>228.5</ele><time>2026-04-10T13:24:23Z</time></trkpt><trkpt lat="44.63054218203873" lon="7.951972698594078"><ele>228.66666666666666</ele><time>2026-04-10T13:24:26Z</time></trkpt><trkpt lat="44.63056425159714" lon="7.951869201170876"><ele>228.83333333333331</ele><time>2026-04-10T13:24:29Z</time></trkpt><trkpt lat="44.630583797518334" lon="7.951762660419487"><ele>229.0</ele><time>2026-04-10T13:24:32Z</time></trkpt><trkpt lat="44.630630303963805" lon="7.951702263489636"><ele>229.0</ele><time>2026-04-10T13:24:35Z</time></trkpt><trkpt lat="44.63067381302714" lon="7.951634355630304"><ele>229.0</ele><time>2026-04-10T13:24:39Z</time></trkpt><trkpt lat="44.63072081074999" lon="7.9515573101664385"><ele>229.0</ele><time>2026-04-10T13:25:59Z</time></trkpt><trkpt lat="44.63077529079367" lon="7.951484066674897"><ele>229.0</ele><time>2026-04-10T13:26:03Z</time></trkpt><trkpt lat="44.63080405558495" lon="7.951389621696445"><ele>229.0</ele><time>2026-04-10T13:26:07Z</time></trkpt><trkpt lat="44.63087263117417" lon="7.95132905279742"><ele>229.0</ele><time>2026-04-10T13:26:11Z</time></trkpt><trkpt lat="44.63093798660631" lon="7.951284705486353"><ele>229.0</ele><time>2026-04-10T13:26:15Z</time></trkpt><trkpt lat="44.63099607901913" lon="7.9512348327208455"><ele>228.99999999999997</ele><time>2026-04-10T13:26:18Z</time></trkpt><trkpt lat="44.63105597154804" lon="7.951178004388817"><ele>229.0</ele><time>2026-04-10T13:26:21Z</time></trkpt><trkpt lat="44.631124545561484" lon="7.951122699335864"><ele>229.0</ele><time>2026-04-10T13:26:24Z</time></trkpt><trkpt lat="44.63119143151277" lon="7.951067421393924"><ele>229.0</ele><time>2026-04-10T13:26:27Z</time></trkpt><trkpt lat="44.63125545537546" lon="7.95104467431719"><ele>228.99999999999997</ele><time>2026-04-10T13:26:29Z</time></trkpt><trkpt lat="44.631330823332064" lon="7.951001336294465"><ele>229.0</ele><time>2026-04-10T13:26:32Z</time></trkpt><trkpt lat="44.63140488608179" lon="7.950962353735468"><ele>229.16666666666666</ele><time>2026-04-10T13:26:35Z</time></trkpt><trkpt lat="44.631472876603965" lon="7.950908323223088"><ele>229.33333333333331</ele><time>2026-04-10T13:26:38Z</time></trkpt><trkpt lat="44.63154211459761" lon="7.950852971279882"><ele>229.5</ele><time>2026-04-10T13:26:41Z</time></trkpt><trkpt lat="44.63161728911074" lon="7.950778693087421"><ele>229.66666666666669</ele><time>2026-04-10T13:26:44Z</time></trkpt><trkpt lat="44.63168564698769" lon="7.950702201292786"><ele>229.83333333333334</ele><time>2026-04-10T13:26:47Z</time></trkpt><trkpt lat="44.63175201791179" lon="7.950633336333064"><ele>230.0</ele><time>2026-04-10T13:26:50Z</time></trkpt><trkpt lat="44.63181080604801" lon="7.950559850588251"><ele>230.00000000000003</ele><time>2026-04-10T13:26:53Z</time></trkpt><trkpt lat="44.63186709998354" lon="7.950483524009719"><ele>230.0</ele><time>2026-04-10T13:26:56Z</time></trkpt><trkpt lat="44.631922844573005" lon="7.950413560010721"><ele>230.0</ele><time>2026-04-10T13:26:59Z</time></trkpt><trkpt lat="44.63199222929633" lon="7.950349648896198"><ele>230.0</ele><time>2026-04-10T13:27:02Z</time></trkpt><trkpt lat="44.63205959381806" lon="7.950303741245872"><ele>230.00000000000003</ele><time>2026-04-10T13:27:05Z</time></trkpt><trkpt lat="44.632126938392155" lon="7.9502746233484105"><ele>230.0</ele><time>2026-04-10T13:27:09Z</time></trkpt><trkpt lat="44.63218007932026" lon="7.950206056319929"><ele>230.99999999999997</ele><time>2026-04-10T13:27:12Z</time></trkpt><trkpt lat="44.63225068497156" lon="7.950222393953498"><ele>232.0</ele><time>2026-04-10T13:27:14Z</time></trkpt><trkpt lat="44.63231208680201" lon="7.950146763167874"><ele>232.99999999999997</ele><time>2026-04-10T13:27:18Z</time></trkpt><trkpt lat="44.63236844532153" lon="7.950075322975737"><ele>233.99999999999997</ele><time>2026-04-10T13:27:21Z</time></trkpt><trkpt lat="44.632417480569636" lon="7.950011409102889"><ele>235.0</ele><time>2026-04-10T13:27:24Z</time></trkpt><trkpt lat="44.632465880206574" lon="7.949947249683109"><ele>235.99999999999997</ele><time>2026-04-10T13:27:27Z</time></trkpt><trkpt lat="44.63251903634532" lon="7.949876784955825"><ele>236.99999999999997</ele><time>2026-04-10T13:27:30Z</time></trkpt><trkpt lat="44.632567463961905" lon="7.949812588440824"><ele>236.99999999999997</ele><time>2026-04-10T13:27:33Z</time></trkpt><trkpt lat="44.63261406165177" lon="7.949750817719292"><ele>237.0</ele><time>2026-04-10T13:27:36Z</time></trkpt><trkpt lat="44.63266267593076" lon="7.9496863737623125"><ele>236.99999999999997</ele><time>2026-04-10T13:27:39Z</time></trkpt><trkpt lat="44.63269811726904" lon="7.949608902101561"><ele>236.99999999999997</ele><time>2026-04-10T13:27:42Z</time></trkpt><trkpt lat="44.63275302667726" lon="7.949563039886899"><ele>237.0</ele><time>2026-04-10T13:27:45Z</time></trkpt><trkpt lat="44.63280983016017" lon="7.9494832529109996"><ele>236.99999999999997</ele><time>2026-04-10T13:27:49Z</time></trkpt><trkpt lat="44.63285944332094" lon="7.949410470262409"><ele>236.99999999999997</ele><time>2026-04-10T13:27:52Z</time></trkpt><trkpt lat="44.63290544721718" lon="7.9493291107498365"><ele>238.57142857142856</ele><time>2026-04-10T13:27:55Z</time></trkpt><trkpt lat="44.63294608201518" lon="7.949251857328398"><ele>240.14285714285714</ele><time>2026-04-10T13:27:58Z</time></trkpt><trkpt lat="44.63295863959611" lon="7.9491553580916605"><ele>241.71428571428572</ele><time>2026-04-10T13:28:01Z</time></trkpt><trkpt lat="44.6329875068929" lon="7.949072551251482"><ele>243.28571428571428</ele><time>2026-04-10T13:28:04Z</time></trkpt><trkpt lat="44.633028116668" lon="7.94897498574895"><ele>244.8571428571429</ele><time>2026-04-10T13:28:08Z</time></trkpt><trkpt lat="44.63305572536676" lon="7.948869107166586"><ele>246.42857142857144</ele><time>2026-04-10T13:28:12Z</time></trkpt><trkpt lat="44.63308029301437" lon="7.948787372520154"><ele>248.0</ele><time>2026-04-10T13:28:15Z</time></trkpt><trkpt lat="44.63311965465891" lon="7.948693164513428"><ele>248.0</ele><time>2026-04-10T13:28:19Z</time></trkpt><trkpt lat="44.63315614183267" lon="7.948596185827786"><ele>248.00000000000003</ele><time>2026-04-10T13:28:23Z</time></trkpt><trkpt lat="44.63319343993194" lon="7.948504539254095"><ele>248.0</ele><time>2026-04-10T13:28:27Z</time></trkpt><trkpt lat="44.63322813557258" lon="7.948418537649976"><ele>248.0</ele><time>2026-04-10T13:28:31Z</time></trkpt><trkpt lat="44.63326744813979" lon="7.948337561339233"><ele>248.00000000000003</ele><time>2026-04-10T13:28:35Z</time></trkpt><trkpt lat="44.633301709168734" lon="7.948253438578923"><ele>248.0</ele><time>2026-04-10T13:28:39Z</time></trkpt><trkpt lat="44.63336573537849" lon="7.948188094345731"><ele>248.0</ele><time>2026-04-10T13:28:43Z</time></trkpt><trkpt lat="44.63340433919113" lon="7.94809437355651"><ele>247.42857142857144</ele><time>2026-04-10T13:28:47Z</time></trkpt><trkpt lat="44.63344533651271" lon="7.947994690126985"><ele>246.8571428571429</ele><time>2026-04-10T13:28:51Z</time></trkpt><trkpt lat="44.63346273761883" lon="7.94790921485291"><ele>246.28571428571428</ele><time>2026-04-10T13:28:54Z</time></trkpt><trkpt lat="44.633507519784864" lon="7.947841986677527"><ele>245.71428571428572</ele><time>2026-04-10T13:28:57Z</time></trkpt><trkpt lat="44.63352197452358" lon="7.947755731402955"><ele>245.14285714285714</ele><time>2026-04-10T13:29:00Z</time></trkpt><trkpt lat="44.6335598991647" lon="7.947659265635599"><ele>244.57142857142856</ele><time>2026-04-10T13:29:04Z</time></trkpt><trkpt lat="44.633609796417666" lon="7.9475757924385855"><ele>243.99999999999997</ele><time>2026-04-10T13:29:08Z</time></trkpt><trkpt lat="44.633633916993524" lon="7.947463945073695"><ele>245.49999999999997</ele><time>2026-04-10T13:29:12Z</time></trkpt><trkpt lat="44.63367261916615" lon="7.947367553316891"><ele>247.0</ele><time>2026-04-10T13:29:16Z</time></trkpt><trkpt lat="44.633719400127966" lon="7.947282182114857"><ele>248.5</ele><time>2026-04-10T13:29:20Z</time></trkpt><trkpt lat="44.63375617053183" lon="7.947179411469053"><ele>250.0</ele><time>2026-04-10T13:29:24Z</time></trkpt><trkpt lat="44.633792815034745" lon="7.9470745857720315"><ele>251.49999999999997</ele><time>2026-04-10T13:29:28Z</time></trkpt><trkpt lat="44.633816141305665" lon="7.946967384574551"><ele>253.0</ele><time>2026-04-10T13:29:32Z</time></trkpt><trkpt lat="44.633850076260075" lon="7.946862164324749"><ele>253.00000000000003</ele><time>2026-04-10T13:29:36Z</time></trkpt><trkpt lat="44.6338977801812" lon="7.9467762694799875"><ele>253.0</ele><time>2026-04-10T13:29:40Z</time></trkpt><trkpt lat="44.633931026858036" lon="7.946689137863969"><ele>253.00000000000003</ele><time>2026-04-10T13:29:44Z</time></trkpt><trkpt lat="44.63396148249617" lon="7.946610381114792"><ele>253.00000000000003</ele><time>2026-04-10T13:29:48Z</time></trkpt><trkpt lat="44.633990217271595" lon="7.946530475774403"><ele>253.0</ele><time>2026-04-10T13:29:52Z</time></trkpt><trkpt lat="44.634024092814386" lon="7.9464304522885465"><ele>253.00000000000003</ele><time>2026-04-10T13:29:57Z</time></trkpt><trkpt lat="44.634052218453306" lon="7.9463403161954815"><ele>253.00000000000003</ele><time>2026-04-10T13:30:02Z</time></trkpt><trkpt lat="44.63407568615088" lon="7.946244669624647"><ele>253.14285714285717</ele><time>2026-04-10T13:30:07Z</time></trkpt><trkpt lat="44.634091368292" lon="7.946141379551072"><ele>253.28571428571428</ele><time>2026-04-10T13:30:12Z</time></trkpt><trkpt lat="44.63408651008274" lon="7.9460403354443905"><ele>253.42857142857144</ele><time>2026-04-10T13:30:17Z</time></trkpt><trkpt lat="44.634096877785275" lon="7.945944317348386"><ele>253.57142857142858</ele><time>2026-04-10T13:30:53Z</time></trkpt><trkpt lat="44.634090887631025" lon="7.9458558404269874"><ele>253.71428571428572</ele><time>2026-04-10T13:31:01Z</time></trkpt><trkpt lat="44.634064837991296" lon="7.945773666479614"><ele>253.85714285714286</ele><time>2026-04-10T13:31:08Z</time></trkpt><trkpt lat="44.634054799507346" lon="7.945681148350449"><ele>254.0</ele><time>2026-04-10T13:31:15Z</time></trkpt><trkpt lat="44.634041184684015" lon="7.9455891324185455"><ele>255.0</ele><time>2026-04-10T13:31:22Z</time></trkpt><trkpt lat="44.634019223019806" lon="7.945500226204661"><ele>256.0</ele><time>2026-04-10T13:31:29Z</time></trkpt><trkpt lat="44.63400193935959" lon="7.945414642801853"><ele>257.0</ele><time>2026-04-10T13:31:36Z</time></trkpt><trkpt lat="44.63398124795278" lon="7.945323734412464"><ele>258.0</ele><time>2026-04-10T13:31:44Z</time></trkpt><trkpt lat="44.633968479552024" lon="7.945236903764309"><ele>259.0</ele><time>2026-04-10T13:31:51Z</time></trkpt><trkpt lat="44.63395800630467" lon="7.945139525542607"><ele>260.0</ele><time>2026-04-10T13:31:58Z</time></trkpt><trkpt lat="44.63395383458386" lon="7.945042257883589"><ele>261.0</ele><time>2026-04-10T13:32:06Z</time></trkpt><trkpt lat="44.633953740460534" lon="7.944947926582243"><ele>264.0</ele><time>2026-04-10T13:32:14Z</time></trkpt><trkpt lat="44.633948096108604" lon="7.944851148930727"><ele>267.0</ele><time>2026-04-10T13:32:24Z</time></trkpt><trkpt lat="44.63394787727525" lon="7.944757922104525"><ele>270.0</ele><time>2026-04-10T13:32:32Z</time></trkpt><trkpt lat="44.633961822596355" lon="7.9446686945553235"><ele>273.0</ele><time>2026-04-10T13:32:39Z</time></trkpt><trkpt lat="44.63419234177905" lon="7.944942649634026"><ele>273.0</ele><time>2026-04-10T13:35:57Z</time></trkpt><trkpt lat="44.63428876698384" lon="7.945045737187754"><ele>273.0</ele><time>2026-04-10T13:35:59Z</time></trkpt><trkpt lat="44.6343944643126" lon="7.945134684931874"><ele>273.0</ele><time>2026-04-10T13:36:01Z</time></trkpt><trkpt lat="44.63449924382835" lon="7.945202558912594"><ele>273.0</ele><time>2026-04-10T13:36:03Z</time></trkpt><trkpt lat="44.63459777232792" lon="7.945259164379824"><ele>273.5</ele><time>2026-04-10T13:36:05Z</time></trkpt><trkpt lat="44.63467566081372" lon="7.945315710960621"><ele>274.0</ele><time>2026-04-10T13:36:07Z</time></trkpt><trkpt lat="44.634749898202315" lon="7.945353480395031"><ele>274.5</ele><time>2026-04-10T13:36:09Z</time></trkpt><trkpt lat="44.634808448664494" lon="7.945431669106085"><ele>275.0</ele><time>2026-04-10T13:36:12Z</time></trkpt><trkpt lat="44.634869694332295" lon="7.9454664203902"><ele>275.5</ele><time>2026-04-10T13:36:15Z</time></trkpt><trkpt lat="44.63491477660061" lon="7.945551462609133"><ele>276.0</ele><time>2026-04-10T13:36:18Z</time></trkpt><trkpt lat="44.634966945877146" lon="7.945618427393103"><ele>276.0</ele><time>2026-04-10T13:36:21Z</time></trkpt><trkpt lat="44.635019397810666" lon="7.945687699962239"><ele>276.0</ele><time>2026-04-10T13:36:24Z</time></trkpt><trkpt lat="44.63508984332283" lon="7.945729454374285"><ele>276.0</ele><time>2026-04-10T13:36:27Z</time></trkpt><trkpt lat="44.63513639359111" lon="7.945799334002756"><ele>276.0</ele><time>2026-04-10T13:36:30Z</time></trkpt><trkpt lat="44.635178848606806" lon="7.945880160325441"><ele>276.0</ele><time>2026-04-10T13:36:33Z</time></trkpt><trkpt lat="44.63523833861807" lon="7.945938236472527"><ele>276.0</ele><time>2026-04-10T13:36:36Z</time></trkpt><trkpt lat="44.63527966532605" lon="7.946009781478973"><ele>276.0</ele><time>2026-04-10T13:36:39Z</time></trkpt><trkpt lat="44.635330572276025" lon="7.946074843809642"><ele>278.0</ele><time>2026-04-10T13:36:42Z</time></trkpt><trkpt lat="44.63537668235527" lon="7.946139739387781"><ele>280.0</ele><time>2026-04-10T13:36:45Z</time></trkpt><trkpt lat="44.63543127004103" lon="7.946215999917779"><ele>282.0</ele><time>2026-04-10T13:36:49Z</time></trkpt><trkpt lat="44.635488376926" lon="7.946284307939394"><ele>284.0</ele><time>2026-04-10T13:36:53Z</time></trkpt><trkpt lat="44.635545974760674" lon="7.946362422047372"><ele>286.0</ele><time>2026-04-10T13:36:58Z</time></trkpt><trkpt lat="44.63560310653323" lon="7.946438644001265"><ele>288.0</ele><time>2026-04-10T13:37:03Z</time></trkpt><trkpt lat="44.63565416591697" lon="7.9465102242244035"><ele>290.0</ele><time>2026-04-10T13:37:08Z</time></trkpt><trkpt lat="44.63571940829415" lon="7.946555686642458"><ele>290.0</ele><time>2026-04-10T13:37:13Z</time></trkpt><trkpt lat="44.635770395861464" lon="7.94662002440955"><ele>290.0</ele><time>2026-04-10T13:37:18Z</time></trkpt><trkpt lat="44.635815839568984" lon="7.946703138433246"><ele>290.0</ele><time>2026-04-10T13:37:23Z</time></trkpt><trkpt lat="44.635868309128995" lon="7.946791256734185"><ele>290.0</ele><time>2026-04-10T13:37:28Z</time></trkpt><trkpt lat="44.63590368948153" lon="7.946877513420437"><ele>290.0</ele><time>2026-04-10T13:37:33Z</time></trkpt><trkpt lat="44.63592850324612" lon="7.9469596493114265"><ele>290.0</ele><time>2026-04-10T13:37:37Z</time></trkpt><trkpt lat="44.63595395397831" lon="7.947049720323386"><ele>290.0</ele><time>2026-04-10T13:37:42Z</time></trkpt><trkpt lat="44.63598914295603" lon="7.947128283043299"><ele>290.14285714285717</ele><time>2026-04-10T13:37:47Z</time></trkpt><trkpt lat="44.63601625754692" lon="7.947222527827672"><ele>290.28571428571433</ele><time>2026-04-10T13:37:52Z</time></trkpt><trkpt lat="44.63604220410657" lon="7.947312220564028"><ele>290.42857142857144</ele><time>2026-04-10T13:37:57Z</time></trkpt><trkpt lat="44.63606915557631" lon="7.947400864013685"><ele>290.57142857142856</ele><time>2026-04-10T13:38:02Z</time></trkpt><trkpt lat="44.63609513591425" lon="7.9474886729852665"><ele>290.71428571428567</ele><time>2026-04-10T13:38:07Z</time></trkpt><trkpt lat="44.63611320639145" lon="7.947616060729711"><ele>290.85714285714283</ele><time>2026-04-10T13:38:12Z</time></trkpt><trkpt lat="44.63614260765461" lon="7.947695175994843"><ele>291.0</ele><time>2026-04-10T13:38:18Z</time></trkpt><trkpt lat="44.636177997576176" lon="7.947788106678595"><ele>293.42857142857144</ele><time>2026-04-10T13:38:23Z</time></trkpt><trkpt lat="44.63620737994548" lon="7.947886859178829"><ele>295.85714285714283</ele><time>2026-04-10T13:38:28Z</time></trkpt><trkpt lat="44.63626683862018" lon="7.9479437895576375"><ele>298.2857142857143</ele><time>2026-04-10T13:38:33Z</time></trkpt><trkpt lat="44.63633343073029" lon="7.947961207603158"><ele>300.7142857142857</ele><time>2026-04-10T13:38:38Z</time></trkpt><trkpt lat="44.636396567373005" lon="7.94795799526905"><ele>303.1428571428571</ele><time>2026-04-10T13:38:43Z</time></trkpt><trkpt lat="44.63645747839965" lon="7.947912982880461"><ele>305.57142857142856</ele><time>2026-04-10T13:38:48Z</time></trkpt><trkpt lat="44.63650775964579" lon="7.947841824639209"><ele>308.0</ele><time>2026-04-10T13:38:59Z</time></trkpt><trkpt lat="44.63655493858112" lon="7.947768577334441"><ele>308.0</ele><time>2026-04-10T13:39:06Z</time></trkpt><trkpt lat="44.6365731073779" lon="7.947675016564641"><ele>308.0</ele><time>2026-04-10T13:39:13Z</time></trkpt><trkpt lat="44.636596487232254" lon="7.947584051440499"><ele>308.0</ele><time>2026-04-10T13:39:20Z</time></trkpt><trkpt lat="44.63662144079226" lon="7.947491233873515"><ele>308.0</ele><time>2026-04-10T13:39:27Z</time></trkpt><trkpt lat="44.63664077770313" lon="7.947404571730135"><ele>308.0</ele><time>2026-04-10T13:39:33Z</time></trkpt><trkpt lat="44.63666449199929" lon="7.947316377572359"><ele>308.0</ele><time>2026-04-10T13:39:39Z</time></trkpt><trkpt lat="44.63670356993453" lon="7.9473909939579945"><ele>308.0</ele><time>2026-04-10T13:39:52Z</time></trkpt><trkpt lat="44.636705566952514" lon="7.947497617071307"><ele>308.0</ele><time>2026-04-10T13:39:55Z</time></trkpt><trkpt lat="44.63667705166164" lon="7.947589677349047"><ele>308.0</ele><time>2026-04-10T13:39:57Z</time></trkpt><trkpt lat="44.63666636528698" lon="7.947699876766558"><ele>308.0</ele><time>2026-04-10T13:39:59Z</time></trkpt><trkpt lat="44.63666092313794" lon="7.947802059447908"><ele>308.0</ele><time>2026-04-10T13:40:01Z</time></trkpt><trkpt lat="44.6366295649996" lon="7.947897927882164"><ele>308.0</ele><time>2026-04-10T13:40:04Z</time></trkpt><trkpt lat="44.636625020710234" lon="7.947992827660296"><ele>308.0</ele><time>2026-04-10T13:40:08Z</time></trkpt><trkpt lat="44.63666143533466" lon="7.948066203922096"><ele>308.0</ele><time>2026-04-10T13:42:15Z</time></trkpt><trkpt lat="44.63669672908262" lon="7.948177184361433"><ele>308.0</ele><time>2026-04-10T13:42:18Z</time></trkpt><trkpt lat="44.636718120527334" lon="7.9482774118752495"><ele>308.0</ele><time>2026-04-10T13:42:20Z</time></trkpt><trkpt lat="44.636757320215025" lon="7.9483884446448965"><ele>308.0</ele><time>2026-04-10T13:42:22Z</time></trkpt><trkpt lat="44.63679546580235" lon="7.948500839236159"><ele>308.0</ele><time>2026-04-10T13:42:24Z</time></trkpt><trkpt lat="44.63684967651025" lon="7.948629350991361"><ele>308.0</ele><time>2026-04-10T13:42:26Z</time></trkpt><trkpt lat="44.63690958171518" lon="7.948780540751165"><ele>308.57142857142856</ele><time>2026-04-10T13:42:28Z</time></trkpt><trkpt lat="44.63694769127781" lon="7.948858713279846"><ele>309.1428571428571</ele><time>2026-04-10T13:42:29Z</time></trkpt><trkpt lat="44.63698486273228" lon="7.948938477134275"><ele>309.7142857142857</ele><time>2026-04-10T13:42:30Z</time></trkpt><trkpt lat="44.63702205648351" lon="7.949019061104683"><ele>310.2857142857143</ele><time>2026-04-10T13:42:31Z</time></trkpt><trkpt lat="44.63705692279628" lon="7.949092963200377"><ele>310.85714285714283</ele><time>2026-04-10T13:42:32Z</time></trkpt><trkpt lat="44.63709496108938" lon="7.949173087712448"><ele>311.42857142857144</ele><time>2026-04-10T13:42:33Z</time></trkpt><trkpt lat="44.63713271110718" lon="7.949256325898929"><ele>312.0</ele><time>2026-04-10T13:42:34Z</time></trkpt><trkpt lat="44.63716893761956" lon="7.949338446125526"><ele>308.1666666666667</ele><time>2026-04-10T13:42:35Z</time></trkpt><trkpt lat="44.637203343973134" lon="7.949426955559126"><ele>304.3333333333333</ele><time>2026-04-10T13:42:36Z</time></trkpt><trkpt lat="44.63723459834515" lon="7.949521419019206"><ele>300.5</ele><time>2026-04-10T13:42:37Z</time></trkpt><trkpt lat="44.637262545483374" lon="7.9496209212852085"><ele>296.66666666666663</ele><time>2026-04-10T13:42:38Z</time></trkpt><trkpt lat="44.63727875741003" lon="7.949725073884719"><ele>292.8333333333333</ele><time>2026-04-10T13:42:39Z</time></trkpt><trkpt lat="44.63729761217132" lon="7.949829764369182"><ele>289.0</ele><time>2026-04-10T13:42:40Z</time></trkpt><trkpt lat="44.63729673415054" lon="7.949936238798124"><ele>289.0</ele><time>2026-04-10T13:42:41Z</time></trkpt><trkpt lat="44.637297526259424" lon="7.950025910321137"><ele>289.0</ele><time>2026-04-10T13:42:42Z</time></trkpt><trkpt lat="44.63729655705471" lon="7.950120751689973"><ele>289.0</ele><time>2026-04-10T13:42:43Z</time></trkpt><trkpt lat="44.637284705104605" lon="7.9502144373134795"><ele>289.0</ele><time>2026-04-10T13:42:44Z</time></trkpt><trkpt lat="44.63727436407741" lon="7.950305788614664"><ele>289.0</ele><time>2026-04-10T13:42:45Z</time></trkpt><trkpt lat="44.63726498435255" lon="7.950399934268355"><ele>289.0</ele><time>2026-04-10T13:42:46Z</time></trkpt><trkpt lat="44.63725260459489" lon="7.950487265140974"><ele>289.0</ele><time>2026-04-10T13:42:47Z</time></trkpt><trkpt lat="44.63723788255923" lon="7.950631531650018"><ele>288.59999999999997</ele><time>2026-04-10T13:42:49Z</time></trkpt><trkpt lat="44.63721653774858" lon="7.95076545262019"><ele>288.2</ele><time>2026-04-10T13:42:51Z</time></trkpt><trkpt lat="44.63719598175724" lon="7.950891941689115"><ele>287.79999999999995</ele><time>2026-04-10T13:42:53Z</time></trkpt><trkpt lat="44.63717381096471" lon="7.951017093367416"><ele>287.4</ele><time>2026-04-10T13:42:55Z</time></trkpt><trkpt lat="44.63712126003783" lon="7.951139931951846"><ele>287.0</ele><time>2026-04-10T13:42:57Z</time></trkpt><trkpt lat="44.63704291339445" lon="7.951250161482299"><ele>287.0</ele><time>2026-04-10T13:42:59Z</time></trkpt><trkpt lat="44.63696571879984" lon="7.951321341903664"><ele>287.0</ele><time>2026-04-10T13:43:01Z</time></trkpt><trkpt lat="44.63688555111848" lon="7.9513913133954075"><ele>287.0</ele><time>2026-04-10T13:43:03Z</time></trkpt><trkpt lat="44.63679286555921" lon="7.951449876353103"><ele>287.0</ele><time>2026-04-10T13:43:05Z</time></trkpt><trkpt lat="44.63669694998701" lon="7.9515247492088195"><ele>287.0</ele><time>2026-04-10T13:43:07Z</time></trkpt><trkpt lat="44.63658850594282" lon="7.951587605695723"><ele>287.0</ele><time>2026-04-10T13:43:09Z</time></trkpt><trkpt lat="44.6364826028087" lon="7.951659711770261"><ele>287.0</ele><time>2026-04-10T13:43:11Z</time></trkpt><trkpt lat="44.63637219188904" lon="7.951739456267795"><ele>287.0</ele><time>2026-04-10T13:43:13Z</time></trkpt><trkpt lat="44.63631464077515" lon="7.951777982240586"><ele>287.0</ele><time>2026-04-10T13:43:14Z</time></trkpt><trkpt lat="44.63625203914661" lon="7.951815204134836"><ele>287.0</ele><time>2026-04-10T13:43:15Z</time></trkpt><trkpt lat="44.636189026478725" lon="7.951857351733421"><ele>287.0</ele><time>2026-04-10T13:43:16Z</time></trkpt><trkpt lat="44.63612787606403" lon="7.951902896373404"><ele>286.6666666666667</ele><time>2026-04-10T13:43:17Z</time></trkpt><trkpt lat="44.636063519820354" lon="7.9519475711262935"><ele>286.33333333333337</ele><time>2026-04-10T13:43:18Z</time></trkpt><trkpt lat="44.63599943439405" lon="7.9519920809623486"><ele>286.0</ele><time>2026-04-10T13:43:19Z</time></trkpt><trkpt lat="44.635935686829725" lon="7.952036264295071"><ele>285.6666666666667</ele><time>2026-04-10T13:43:20Z</time></trkpt><trkpt lat="44.63587065119396" lon="7.95207859806664"><ele>285.3333333333333</ele><time>2026-04-10T13:43:21Z</time></trkpt><trkpt lat="44.635808985189115" lon="7.952127265077501"><ele>285.0</ele><time>2026-04-10T13:43:22Z</time></trkpt><trkpt lat="44.63571183877097" lon="7.952246679514677"><ele>285.0</ele><time>2026-04-10T13:43:24Z</time></trkpt><trkpt lat="44.635662082270244" lon="7.9523194698563096"><ele>285.0</ele><time>2026-04-10T13:43:25Z</time></trkpt><trkpt lat="44.63562597799614" lon="7.952406760264405"><ele>285.0</ele><time>2026-04-10T13:43:26Z</time></trkpt><trkpt lat="44.63560128986958" lon="7.9524915735919635"><ele>285.0</ele><time>2026-04-10T13:43:27Z</time></trkpt><trkpt lat="44.635586454329314" lon="7.952587089492343"><ele>285.0</ele><time>2026-04-10T13:43:28Z</time></trkpt><trkpt lat="44.63557088044436" lon="7.952689185536099"><ele>285.0</ele><time>2026-04-10T13:43:29Z</time></trkpt><trkpt lat="44.63557164742408" lon="7.952788600119009"><ele>285.0</ele><time>2026-04-10T13:43:30Z</time></trkpt><trkpt lat="44.635588155880725" lon="7.952889579314873"><ele>284.42857142857144</ele><time>2026-04-10T13:43:31Z</time></trkpt><trkpt lat="44.63561028672726" lon="7.952980843386667"><ele>283.8571428571429</ele><time>2026-04-10T13:43:32Z</time></trkpt><trkpt lat="44.63564180309638" lon="7.953068644002521"><ele>283.28571428571433</ele><time>2026-04-10T13:43:33Z</time></trkpt><trkpt lat="44.635683505190215" lon="7.953152765678881"><ele>282.7142857142857</ele><time>2026-04-10T13:43:34Z</time></trkpt><trkpt lat="44.63573511104337" lon="7.953222635064145"><ele>282.14285714285717</ele><time>2026-04-10T13:43:35Z</time></trkpt><trkpt lat="44.6357874930336" lon="7.953293047642489"><ele>281.5714285714286</ele><time>2026-04-10T13:43:36Z</time></trkpt><trkpt lat="44.63585461257698" lon="7.953347564622297"><ele>281.0</ele><time>2026-04-10T13:43:37Z</time></trkpt><trkpt lat="44.635919075501235" lon="7.953402107044376"><ele>280.1666666666667</ele><time>2026-04-10T13:43:38Z</time></trkpt><trkpt lat="44.63598311814853" lon="7.9534595783028195"><ele>279.33333333333337</ele><time>2026-04-10T13:43:39Z</time></trkpt><trkpt lat="44.636046824521955" lon="7.953522726281151"><ele>278.5</ele><time>2026-04-10T13:43:40Z</time></trkpt><trkpt lat="44.63611604961819" lon="7.953581545525608"><ele>277.6666666666667</ele><time>2026-04-10T13:43:41Z</time></trkpt><trkpt lat="44.636184987358995" lon="7.953639831976359"><ele>276.8333333333333</ele><time>2026-04-10T13:43:42Z</time></trkpt><trkpt lat="44.63625146250462" lon="7.953701305592873"><ele>276.0</ele><time>2026-04-10T13:43:43Z</time></trkpt><trkpt lat="44.636317427415804" lon="7.953761036198159"><ele>276.0</ele><time>2026-04-10T13:43:44Z</time></trkpt><trkpt lat="44.63638212289735" lon="7.953819998008188"><ele>276.0</ele><time>2026-04-10T13:43:45Z</time></trkpt><trkpt lat="44.636443962126684" lon="7.953874460505151"><ele>276.0</ele><time>2026-04-10T13:43:46Z</time></trkpt><trkpt lat="44.636503352861645" lon="7.95393101149861"><ele>276.0</ele><time>2026-04-10T13:43:47Z</time></trkpt><trkpt lat="44.63655800569882" lon="7.953995861343801"><ele>276.0</ele><time>2026-04-10T13:43:48Z</time></trkpt><trkpt lat="44.63661745585605" lon="7.954056429633777"><ele>276.0</ele><time>2026-04-10T13:43:49Z</time></trkpt><trkpt lat="44.636673683121856" lon="7.954116919921978"><ele>276.0</ele><time>2026-04-10T13:43:50Z</time></trkpt><trkpt lat="44.63672645739718" lon="7.954185418998783"><ele>275.0</ele><time>2026-04-10T13:43:51Z</time></trkpt><trkpt lat="44.63676976072291" lon="7.954265618062936"><ele>274.0</ele><time>2026-04-10T13:43:52Z</time></trkpt><trkpt lat="44.636819746720725" lon="7.954342493273881"><ele>273.0</ele><time>2026-04-10T13:43:53Z</time></trkpt><trkpt lat="44.63686283664825" lon="7.95442647679245"><ele>272.0</ele><time>2026-04-10T13:43:54Z</time></trkpt><trkpt lat="44.636904190844525" lon="7.954515159788921"><ele>271.0</ele><time>2026-04-10T13:43:55Z</time></trkpt><trkpt lat="44.63695039733423" lon="7.954596420691889"><ele>270.0</ele><time>2026-04-10T13:43:56Z</time></trkpt><trkpt lat="44.63699111131615" lon="7.954670376232915"><ele>269.0</ele><time>2026-04-10T13:43:57Z</time></trkpt><trkpt lat="44.63702797670268" lon="7.954748351853325"><ele>269.0</ele><time>2026-04-10T13:43:58Z</time></trkpt><trkpt lat="44.63706478050305" lon="7.954831409876583"><ele>269.0</ele><time>2026-04-10T13:43:59Z</time></trkpt><trkpt lat="44.63714543788447" lon="7.9549548496112665"><ele>269.0</ele><time>2026-04-10T13:44:01Z</time></trkpt><trkpt lat="44.637162608036455" lon="7.955080555571423"><ele>269.0</ele><time>2026-04-10T13:44:03Z</time></trkpt><trkpt lat="44.6372199491039" lon="7.9551255111865276"><ele>269.0</ele><time>2026-04-10T13:44:05Z</time></trkpt><trkpt lat="44.637320286373374" lon="7.954992761844563"><ele>269.0</ele><time>2026-04-10T13:44:10Z</time></trkpt><trkpt lat="44.637339446070065" lon="7.954841555355033"><ele>269.0</ele><time>2026-04-10T13:44:12Z</time></trkpt><trkpt lat="44.637364270686916" lon="7.954683626865958"><ele>269.0</ele><time>2026-04-10T13:44:14Z</time></trkpt><trkpt lat="44.63739423409585" lon="7.954524703039373"><ele>269.0</ele><time>2026-04-10T13:44:16Z</time></trkpt><trkpt lat="44.63738372528296" lon="7.95443051958523"><ele>269.0</ele><time>2026-04-10T13:44:17Z</time></trkpt><trkpt lat="44.63739693666893" lon="7.954336549647557"><ele>269.0</ele><time>2026-04-10T13:44:18Z</time></trkpt><trkpt lat="44.637399552207086" lon="7.954245181148078"><ele>269.0</ele><time>2026-04-10T13:44:19Z</time></trkpt><trkpt lat="44.63740715028813" lon="7.954076430787295"><ele>269.0</ele><time>2026-04-10T13:44:21Z</time></trkpt><trkpt lat="44.6374302031157" lon="7.953942399976165"><ele>269.0</ele><time>2026-04-10T13:44:23Z</time></trkpt><trkpt lat="44.63750924143605" lon="7.953849515509969"><ele>269.0</ele><time>2026-04-10T13:44:25Z</time></trkpt><trkpt lat="44.637628709725405" lon="7.953786410830159"><ele>268.33333333333337</ele><time>2026-04-10T13:44:27Z</time></trkpt><trkpt lat="44.63769937350295" lon="7.953759396587686"><ele>267.6666666666667</ele><time>2026-04-10T13:44:28Z</time></trkpt><trkpt lat="44.637772676235514" lon="7.953729334579591"><ele>267.0</ele><time>2026-04-10T13:44:29Z</time></trkpt><trkpt lat="44.63785055653749" lon="7.953701711701615"><ele>266.3333333333333</ele><time>2026-04-10T13:44:30Z</time></trkpt><trkpt lat="44.63793120881989" lon="7.9536734927503305"><ele>265.66666666666663</ele><time>2026-04-10T13:44:31Z</time></trkpt><trkpt lat="44.63800928661746" lon="7.953641773460021"><ele>265.0</ele><time>2026-04-10T13:44:32Z</time></trkpt><trkpt lat="44.63808275538434" lon="7.953609779537023"><ele>263.3333333333333</ele><time>2026-04-10T13:44:33Z</time></trkpt><trkpt lat="44.638159314539244" lon="7.9535770762358045"><ele>261.66666666666663</ele><time>2026-04-10T13:44:34Z</time></trkpt><trkpt lat="44.638230321879355" lon="7.953546987389045"><ele>260.0</ele><time>2026-04-10T13:44:35Z</time></trkpt><trkpt lat="44.638303587627185" lon="7.953509404584988"><ele>258.3333333333333</ele><time>2026-04-10T13:44:36Z</time></trkpt><trkpt lat="44.638380055794514" lon="7.95346804552363"><ele>256.6666666666667</ele><time>2026-04-10T13:44:37Z</time></trkpt><trkpt lat="44.63845395410486" lon="7.9534224759374474"><ele>255.0</ele><time>2026-04-10T13:44:38Z</time></trkpt><trkpt lat="44.638524875884244" lon="7.953388723015857"><ele>255.16666666666666</ele><time>2026-04-10T13:44:39Z</time></trkpt><trkpt lat="44.63861138761704" lon="7.953364001646195"><ele>255.33333333333331</ele><time>2026-04-10T13:44:40Z</time></trkpt><trkpt lat="44.63867877952993" lon="7.953334864874731"><ele>255.5</ele><time>2026-04-10T13:44:41Z</time></trkpt><trkpt lat="44.63874797583877" lon="7.953300054678958"><ele>255.66666666666666</ele><time>2026-04-10T13:44:42Z</time></trkpt><trkpt lat="44.6388180063097" lon="7.953304504574129"><ele>255.83333333333331</ele><time>2026-04-10T13:44:43Z</time></trkpt><trkpt lat="44.63889605993315" lon="7.953291345218323"><ele>256.0</ele><time>2026-04-10T13:44:44Z</time></trkpt><trkpt lat="44.63897905066043" lon="7.953278997900075"><ele>254.49999999999997</ele><time>2026-04-10T13:44:45Z</time></trkpt><trkpt lat="44.63905805796534" lon="7.953287884723419"><ele>253.0</ele><time>2026-04-10T13:44:46Z</time></trkpt><trkpt lat="44.639144671904916" lon="7.95331212907335"><ele>251.5</ele><time>2026-04-10T13:44:47Z</time></trkpt><trkpt lat="44.6392184145977" lon="7.953364000298089"><ele>250.0</ele><time>2026-04-10T13:44:48Z</time></trkpt><trkpt lat="44.63929245201983" lon="7.953389517323909"><ele>248.49999999999997</ele><time>2026-04-10T13:44:49Z</time></trkpt><trkpt lat="44.63938047190337" lon="7.953397916448748"><ele>247.0</ele><time>2026-04-10T13:44:50Z</time></trkpt><trkpt lat="44.63946223889532" lon="7.953374984132561"><ele>246.33333333333331</ele><time>2026-04-10T13:44:51Z</time></trkpt><trkpt lat="44.639557245947664" lon="7.953376651170828"><ele>245.66666666666666</ele><time>2026-04-10T13:44:52Z</time></trkpt><trkpt lat="44.63964272372983" lon="7.953377635319513"><ele>245.0</ele><time>2026-04-10T13:44:53Z</time></trkpt><trkpt lat="44.63972823135183" lon="7.953369307971191"><ele>244.33333333333331</ele><time>2026-04-10T13:44:54Z</time></trkpt><trkpt lat="44.639804732880776" lon="7.953367087497163"><ele>243.66666666666666</ele><time>2026-04-10T13:44:55Z</time></trkpt><trkpt lat="44.639883290302144" lon="7.953367713460001"><ele>243.0</ele><time>2026-04-10T13:44:56Z</time></trkpt><trkpt lat="44.639961574490336" lon="7.953384003164617"><ele>243.0</ele><time>2026-04-10T13:44:57Z</time></trkpt><trkpt lat="44.64003220196496" lon="7.9534184985959575"><ele>243.0</ele><time>2026-04-10T13:44:58Z</time></trkpt><trkpt lat="44.64010596045606" lon="7.953424940358577"><ele>243.0</ele><time>2026-04-10T13:44:59Z</time></trkpt><trkpt lat="44.640182024507574" lon="7.953392024749769"><ele>243.0</ele><time>2026-04-10T13:45:00Z</time></trkpt><trkpt lat="44.64025342072708" lon="7.953373662049168"><ele>243.0</ele><time>2026-04-10T13:45:01Z</time></trkpt><trkpt lat="44.64031967658419" lon="7.953363579177109"><ele>243.0</ele><time>2026-04-10T13:45:02Z</time></trkpt><trkpt lat="44.640448803711664" lon="7.9533717614033925"><ele>242.0</ele><time>2026-04-10T13:45:04Z</time></trkpt><trkpt lat="44.6405628114022" lon="7.953421080076605"><ele>241.0</ele><time>2026-04-10T13:45:06Z</time></trkpt><trkpt lat="44.64062615605547" lon="7.953442727064368"><ele>240.0</ele><time>2026-04-10T13:45:07Z</time></trkpt><trkpt lat="44.64074940898609" lon="7.953474830185658"><ele>239.0</ele><time>2026-04-10T13:45:09Z</time></trkpt><trkpt lat="44.640812363919856" lon="7.953487288777707"><ele>238.0</ele><time>2026-04-10T13:45:10Z</time></trkpt><trkpt lat="44.64093368684397" lon="7.95350954388112"><ele>238.0</ele><time>2026-04-10T13:45:12Z</time></trkpt><trkpt lat="44.64104725237893" lon="7.953511680277953"><ele>238.0</ele><time>2026-04-10T13:45:14Z</time></trkpt><trkpt lat="44.641167467356745" lon="7.953513644687723"><ele>238.0</ele><time>2026-04-10T13:45:16Z</time></trkpt><trkpt lat="44.641232209585525" lon="7.9535223406939055"><ele>238.0</ele><time>2026-04-10T13:45:17Z</time></trkpt><trkpt lat="44.641348378133245" lon="7.953535296317123"><ele>238.0</ele><time>2026-04-10T13:45:19Z</time></trkpt><trkpt lat="44.64144735037651" lon="7.953549093652779"><ele>237.60000000000002</ele><time>2026-04-10T13:45:21Z</time></trkpt><trkpt lat="44.64153820555335" lon="7.953527667913479"><ele>237.20000000000002</ele><time>2026-04-10T13:45:23Z</time></trkpt><trkpt lat="44.64163278835302" lon="7.953499058053298"><ele>236.8</ele><time>2026-04-10T13:45:25Z</time></trkpt><trkpt lat="44.64173016483159" lon="7.953482486471826"><ele>236.4</ele><time>2026-04-10T13:45:27Z</time></trkpt><trkpt lat="44.641816187792" lon="7.953462931339134"><ele>236.0</ele><time>2026-04-10T13:45:29Z</time></trkpt><trkpt lat="44.64191538028932" lon="7.95343873536877"><ele>235.20000000000002</ele><time>2026-04-10T13:45:31Z</time></trkpt><trkpt lat="44.64203167870582" lon="7.953412811145587"><ele>234.40000000000003</ele><time>2026-04-10T13:45:33Z</time></trkpt><trkpt lat="44.64210326139124" lon="7.953395664856504"><ele>233.6</ele><time>2026-04-10T13:45:34Z</time></trkpt><trkpt lat="44.6421741066571" lon="7.953384112364121"><ele>232.8</ele><time>2026-04-10T13:45:35Z</time></trkpt><trkpt lat="44.642238248835554" lon="7.953369771526841"><ele>232.0</ele><time>2026-04-10T13:45:36Z</time></trkpt><trkpt lat="44.64236102438463" lon="7.953320576464801"><ele>232.0</ele><time>2026-04-10T13:45:38Z</time></trkpt><trkpt lat="44.64247981693091" lon="7.953268284290655"><ele>232.0</ele><time>2026-04-10T13:45:40Z</time></trkpt><trkpt lat="44.642589249594984" lon="7.953211972060712"><ele>232.0</ele><time>2026-04-10T13:45:42Z</time></trkpt><trkpt lat="44.64271108261041" lon="7.9531762319752675"><ele>232.0</ele><time>2026-04-10T13:45:44Z</time></trkpt><trkpt lat="44.64281934545875" lon="7.953140835485821"><ele>230.8</ele><time>2026-04-10T13:45:46Z</time></trkpt><trkpt lat="44.642911572637246" lon="7.953086822167632"><ele>229.6</ele><time>2026-04-10T13:45:48Z</time></trkpt><trkpt lat="44.64299710499456" lon="7.9530228129817555"><ele>228.40000000000003</ele><time>2026-04-10T13:45:50Z</time></trkpt><trkpt lat="44.64307010927739" lon="7.952958074821858"><ele>227.20000000000002</ele><time>2026-04-10T13:45:52Z</time></trkpt><trkpt lat="44.64313610873319" lon="7.952889602424397"><ele>226.0</ele><time>2026-04-10T13:45:54Z</time></trkpt><trkpt lat="44.6432304375136" lon="7.952806380993435"><ele>225.99999999999997</ele><time>2026-04-10T13:45:56Z</time></trkpt><trkpt lat="44.64333155967191" lon="7.952710925640841"><ele>226.0</ele><time>2026-04-10T13:45:58Z</time></trkpt><trkpt lat="44.64338589077304" lon="7.952662197297758"><ele>226.0</ele><time>2026-04-10T13:45:59Z</time></trkpt><trkpt lat="44.643441169345365" lon="7.9526191663275965"><ele>226.0</ele><time>2026-04-10T13:46:00Z</time></trkpt><trkpt lat="44.64350267704972" lon="7.952576999729388"><ele>225.99999999999997</ele><time>2026-04-10T13:46:01Z</time></trkpt><trkpt lat="44.64362050053421" lon="7.952502150518667"><ele>226.0</ele><time>2026-04-10T13:46:03Z</time></trkpt><trkpt lat="44.64368027992449" lon="7.952451863366274"><ele>225.20000000000002</ele><time>2026-04-10T13:46:04Z</time></trkpt><trkpt lat="44.643732226595226" lon="7.952393267835564"><ele>224.40000000000003</ele><time>2026-04-10T13:46:05Z</time></trkpt><trkpt lat="44.643808983214235" lon="7.952253976709389"><ele>223.6</ele><time>2026-04-10T13:46:07Z</time></trkpt><trkpt lat="44.64386917679336" lon="7.952102660133064"><ele>222.8</ele><time>2026-04-10T13:46:09Z</time></trkpt><trkpt lat="44.64392069857132" lon="7.95195840929683"><ele>222.0</ele><time>2026-04-10T13:46:11Z</time></trkpt><trkpt lat="44.64398137501262" lon="7.95182576182493"><ele>222.0</ele><time>2026-04-10T13:46:13Z</time></trkpt><trkpt lat="44.6440604868938" lon="7.951737498811021"><ele>222.0</ele><time>2026-04-10T13:46:15Z</time></trkpt><trkpt lat="44.644146028475376" lon="7.951686468006028"><ele>222.0</ele><time>2026-04-10T13:46:17Z</time></trkpt><trkpt lat="44.64426192643102" lon="7.951782790923109"><ele>222.0</ele><time>2026-04-10T13:46:20Z</time></trkpt><trkpt lat="44.644300284957176" lon="7.951892396426454"><ele>222.0</ele><time>2026-04-10T13:46:22Z</time></trkpt><trkpt lat="44.644338903254955" lon="7.951990649956695"><ele>222.0</ele><time>2026-04-10T13:46:24Z</time></trkpt><trkpt lat="44.644376046005995" lon="7.952084688870785"><ele>222.0</ele><time>2026-04-10T13:46:26Z</time></trkpt><trkpt lat="44.64440077931658" lon="7.952210218404151"><ele>222.0</ele><time>2026-04-10T13:46:29Z</time></trkpt><trkpt lat="44.644416889650124" lon="7.952300008417239"><ele>222.0</ele><time>2026-04-10T13:46:31Z</time></trkpt><trkpt lat="44.644438811043905" lon="7.9524227877103435"><ele>222.0</ele><time>2026-04-10T13:46:34Z</time></trkpt><trkpt lat="44.64445310849831" lon="7.952509258086154"><ele>222.0</ele><time>2026-04-10T13:46:36Z</time></trkpt><trkpt lat="44.64447582411152" lon="7.952604375626767"><ele>223.16666666666666</ele><time>2026-04-10T13:46:38Z</time></trkpt><trkpt lat="44.64450371231864" lon="7.952704478491618"><ele>224.33333333333331</ele><time>2026-04-10T13:46:40Z</time></trkpt><trkpt lat="44.644508790139206" lon="7.95281442270446"><ele>225.5</ele><time>2026-04-10T13:46:42Z</time></trkpt><trkpt lat="44.64453061872035" lon="7.952912266020406"><ele>226.66666666666666</ele><time>2026-04-10T13:46:44Z</time></trkpt><trkpt lat="44.64455430151419" lon="7.953001926157469"><ele>227.83333333333331</ele><time>2026-04-10T13:46:46Z</time></trkpt><trkpt lat="44.64458319196326" lon="7.953102948327667"><ele>229.0</ele><time>2026-04-10T13:46:48Z</time></trkpt><trkpt lat="44.64461707501261" lon="7.9532044327668325"><ele>229.0</ele><time>2026-04-10T13:46:50Z</time></trkpt><trkpt lat="44.644645673283726" lon="7.953288515409939"><ele>229.0</ele><time>2026-04-10T13:46:52Z</time></trkpt><trkpt lat="44.644683492727836" lon="7.953366428913923"><ele>229.0</ele><time>2026-04-10T13:46:54Z</time></trkpt><trkpt lat="44.644719051772114" lon="7.953446930626068"><ele>229.0</ele><time>2026-04-10T13:46:56Z</time></trkpt><trkpt lat="44.64476783196507" lon="7.9535297074262115"><ele>229.0</ele><time>2026-04-10T13:46:58Z</time></trkpt><trkpt lat="44.644808428211434" lon="7.953598441054502"><ele>229.0</ele><time>2026-04-10T13:47:00Z</time></trkpt><trkpt lat="44.644848067074555" lon="7.953672033546767"><ele>229.0</ele><time>2026-04-10T13:47:02Z</time></trkpt><trkpt lat="44.64489253827502" lon="7.953760918519051"><ele>227.66666666666666</ele><time>2026-04-10T13:47:04Z</time></trkpt><trkpt lat="44.64494616023132" lon="7.953847705541136"><ele>226.33333333333331</ele><time>2026-04-10T13:47:06Z</time></trkpt><trkpt lat="44.64499358962816" lon="7.953948344834225"><ele>225.0</ele><time>2026-04-10T13:47:08Z</time></trkpt><trkpt lat="44.64504898739655" lon="7.954037703798269"><ele>223.66666666666669</ele><time>2026-04-10T13:47:10Z</time></trkpt><trkpt lat="44.64510760800924" lon="7.954138785041401"><ele>222.33333333333334</ele><time>2026-04-10T13:47:12Z</time></trkpt><trkpt lat="44.645164130906096" lon="7.954257126590939"><ele>221.0</ele><time>2026-04-10T13:47:14Z</time></trkpt><trkpt lat="44.64524160201733" lon="7.954368986771636"><ele>220.25</ele><time>2026-04-10T13:47:16Z</time></trkpt><trkpt lat="44.64532598966324" lon="7.954462502713527"><ele>219.5</ele><time>2026-04-10T13:47:18Z</time></trkpt><trkpt lat="44.645427049493044" lon="7.954543463418158"><ele>218.75</ele><time>2026-04-10T13:47:20Z</time></trkpt><trkpt lat="44.645537269051026" lon="7.954617860127915"><ele>218.0</ele><time>2026-04-10T13:47:22Z</time></trkpt><trkpt lat="44.64564735623783" lon="7.954692985294267"><ele>218.00000000000003</ele><time>2026-04-10T13:47:24Z</time></trkpt><trkpt lat="44.645705586785496" lon="7.954734444685518"><ele>218.0</ele><time>2026-04-10T13:47:25Z</time></trkpt><trkpt lat="44.64581955465009" lon="7.954809183222196"><ele>218.0</ele><time>2026-04-10T13:47:27Z</time></trkpt><trkpt lat="44.64587681025973" lon="7.9548524697338925"><ele>218.0</ele><time>2026-04-10T13:47:28Z</time></trkpt><trkpt lat="44.64592996662736" lon="7.9549079628097"><ele>218.00000000000003</ele><time>2026-04-10T13:47:29Z</time></trkpt><trkpt lat="44.6459852408048" lon="7.9549632633472855"><ele>218.0</ele><time>2026-04-10T13:47:30Z</time></trkpt><trkpt lat="44.64604374699717" lon="7.955014436095933"><ele>217.50000000000003</ele><time>2026-04-10T13:47:31Z</time></trkpt><trkpt lat="44.64610082838815" lon="7.955062723716538"><ele>217.0</ele><time>2026-04-10T13:47:32Z</time></trkpt><trkpt lat="44.64615582899354" lon="7.9551074526871455"><ele>216.5</ele><time>2026-04-10T13:47:33Z</time></trkpt><trkpt lat="44.64621773216076" lon="7.95515691835767"><ele>216.0</ele><time>2026-04-10T13:47:34Z</time></trkpt><trkpt lat="44.64633049992183" lon="7.955249187347479"><ele>215.50000000000003</ele><time>2026-04-10T13:47:36Z</time></trkpt><trkpt lat="44.64638903646663" lon="7.955299591644061"><ele>215.0</ele><time>2026-04-10T13:47:37Z</time></trkpt><trkpt lat="44.64644484833048" lon="7.955354020412766"><ele>214.6</ele><time>2026-04-10T13:47:38Z</time></trkpt><trkpt lat="44.64649824460533" lon="7.955401081528769"><ele>214.2</ele><time>2026-04-10T13:47:39Z</time></trkpt><trkpt lat="44.646605136718186" lon="7.955487563690031"><ele>213.8</ele><time>2026-04-10T13:47:41Z</time></trkpt><trkpt lat="44.64670995163833" lon="7.955563993700091"><ele>213.4</ele><time>2026-04-10T13:47:43Z</time></trkpt><trkpt lat="44.64676959788958" lon="7.955600752210486"><ele>213.0</ele><time>2026-04-10T13:47:44Z</time></trkpt><trkpt lat="44.646881984462276" lon="7.955677893050108"><ele>213.0</ele><time>2026-04-10T13:47:46Z</time></trkpt><trkpt lat="44.6469920051096" lon="7.9557522290044655"><ele>213.0</ele><time>2026-04-10T13:47:48Z</time></trkpt><trkpt lat="44.64709887911447" lon="7.955827332296868"><ele>213.0</ele><time>2026-04-10T13:47:50Z</time></trkpt><trkpt lat="44.64719236460746" lon="7.955922594964064"><ele>213.0</ele><time>2026-04-10T13:47:52Z</time></trkpt><trkpt lat="44.6472691246358" lon="7.956030866340647"><ele>213.0</ele><time>2026-04-10T13:47:54Z</time></trkpt><trkpt lat="44.647356460921486" lon="7.956138090560151"><ele>213.0</ele><time>2026-04-10T13:47:56Z</time></trkpt><trkpt lat="44.64744266293228" lon="7.956237525548785"><ele>213.0</ele><time>2026-04-10T13:47:58Z</time></trkpt><trkpt lat="44.64753234515023" lon="7.956307831609677"><ele>213.0</ele><time>2026-04-10T13:48:00Z</time></trkpt><trkpt lat="44.64759831422469" lon="7.956378527968439"><ele>213.0</ele><time>2026-04-10T13:48:02Z</time></trkpt><trkpt lat="44.64766697500323" lon="7.956431052310213"><ele>213.0</ele><time>2026-04-10T13:48:04Z</time></trkpt><trkpt lat="44.64772939792467" lon="7.956492142142817"><ele>213.0</ele><time>2026-04-10T13:48:06Z</time></trkpt><trkpt lat="44.64779106994252" lon="7.9565575851320025"><ele>213.0</ele><time>2026-04-10T13:48:08Z</time></trkpt><trkpt lat="44.64785211639808" lon="7.956630728444978"><ele>213.0</ele><time>2026-04-10T13:48:10Z</time></trkpt><trkpt lat="44.64789747823078" lon="7.956714717088486"><ele>213.0</ele><time>2026-04-10T13:48:12Z</time></trkpt><trkpt lat="44.64794340305236" lon="7.956827655708313"><ele>213.0</ele><time>2026-04-10T13:48:14Z</time></trkpt><trkpt lat="44.64796941590776" lon="7.9569455318915745"><ele>212.16666666666666</ele><time>2026-04-10T13:48:16Z</time></trkpt><trkpt lat="44.64799625858424" lon="7.957054511061939"><ele>211.33333333333331</ele><time>2026-04-10T13:48:18Z</time></trkpt><trkpt lat="44.64802236722428" lon="7.957170571311399"><ele>210.5</ele><time>2026-04-10T13:48:20Z</time></trkpt><trkpt lat="44.64804582959369" lon="7.957292632529201"><ele>209.66666666666666</ele><time>2026-04-10T13:48:22Z</time></trkpt><trkpt lat="44.648071467861115" lon="7.957413596488813"><ele>208.83333333333331</ele><time>2026-04-10T13:48:24Z</time></trkpt><trkpt lat="44.64809870681114" lon="7.957532607991806"><ele>208.0</ele><time>2026-04-10T13:48:26Z</time></trkpt><trkpt lat="44.64812877764663" lon="7.957656110143871"><ele>207.83333333333331</ele><time>2026-04-10T13:48:28Z</time></trkpt><trkpt lat="44.648153642107225" lon="7.957762689513464"><ele>207.66666666666666</ele><time>2026-04-10T13:48:30Z</time></trkpt><trkpt lat="44.64818801739959" lon="7.957871759640657"><ele>207.5</ele><time>2026-04-10T13:48:32Z</time></trkpt><trkpt lat="44.64822657856178" lon="7.957982861582514"><ele>207.33333333333331</ele><time>2026-04-10T13:48:34Z</time></trkpt><trkpt lat="44.64826498030156" lon="7.958086203907264"><ele>207.16666666666666</ele><time>2026-04-10T13:48:36Z</time></trkpt><trkpt lat="44.64830878933902" lon="7.958186699016479"><ele>207.0</ele><time>2026-04-10T13:48:38Z</time></trkpt><trkpt lat="44.64834455999337" lon="7.95828965208086"><ele>206.83333333333334</ele><time>2026-04-10T13:48:40Z</time></trkpt><trkpt lat="44.64838299769578" lon="7.958386730942963"><ele>206.66666666666669</ele><time>2026-04-10T13:48:42Z</time></trkpt><trkpt lat="44.64841843299123" lon="7.95848551042392"><ele>206.5</ele><time>2026-04-10T13:48:44Z</time></trkpt><trkpt lat="44.648459158614614" lon="7.958592880973582"><ele>206.33333333333334</ele><time>2026-04-10T13:48:46Z</time></trkpt><trkpt lat="44.64850085063037" lon="7.958711920550331"><ele>206.16666666666669</ele><time>2026-04-10T13:48:48Z</time></trkpt><trkpt lat="44.648551334751225" lon="7.95883415880317"><ele>206.0</ele><time>2026-04-10T13:48:50Z</time></trkpt><trkpt lat="44.64858067475481" lon="7.958947338624364"><ele>206.00000000000003</ele><time>2026-04-10T13:48:52Z</time></trkpt><trkpt lat="44.64862604782525" lon="7.9590510566033155"><ele>206.0</ele><time>2026-04-10T13:48:54Z</time></trkpt><trkpt lat="44.64865739973154" lon="7.959165687375305"><ele>206.0</ele><time>2026-04-10T13:48:56Z</time></trkpt><trkpt lat="44.648693422956654" lon="7.9592825054506005"><ele>206.0</ele><time>2026-04-10T13:48:58Z</time></trkpt><trkpt lat="44.648731656166824" lon="7.959389643010309"><ele>206.00000000000003</ele><time>2026-04-10T13:49:00Z</time></trkpt><trkpt lat="44.64876879935316" lon="7.959496360969302"><ele>206.0</ele><time>2026-04-10T13:49:02Z</time></trkpt><trkpt lat="44.64880123811221" lon="7.959602927852219"><ele>205.83333333333334</ele><time>2026-04-10T13:49:04Z</time></trkpt><trkpt lat="44.648850307720686" lon="7.95969132997268"><ele>205.66666666666669</ele><time>2026-04-10T13:49:06Z</time></trkpt><trkpt lat="44.64893084840246" lon="7.959726780441715"><ele>205.5</ele><time>2026-04-10T13:49:08Z</time></trkpt><trkpt lat="44.64901265344802" lon="7.959689256496067"><ele>205.33333333333331</ele><time>2026-04-10T13:49:10Z</time></trkpt><trkpt lat="44.64908759957322" lon="7.959658605465868"><ele>205.16666666666666</ele><time>2026-04-10T13:49:12Z</time></trkpt><trkpt lat="44.649155042556494" lon="7.959624848714666"><ele>205.0</ele><time>2026-04-10T13:49:14Z</time></trkpt><trkpt lat="44.649217351683774" lon="7.959586907865423"><ele>205.0</ele><time>2026-04-10T13:49:16Z</time></trkpt><trkpt lat="44.64928498258136" lon="7.959559534103715"><ele>205.0</ele><time>2026-04-10T13:49:18Z</time></trkpt><trkpt lat="44.64934635711807" lon="7.959529948912407"><ele>205.0</ele><time>2026-04-10T13:49:20Z</time></trkpt><trkpt lat="44.64940562493784" lon="7.959497189474073"><ele>205.0</ele><time>2026-04-10T13:49:22Z</time></trkpt><trkpt lat="44.64947075203299" lon="7.959481551842918"><ele>205.0</ele><time>2026-04-10T13:49:24Z</time></trkpt><trkpt lat="44.64953443754534" lon="7.959483956689453"><ele>205.0</ele><time>2026-04-10T13:49:26Z</time></trkpt><trkpt lat="44.649594736120775" lon="7.959514485749791"><ele>205.0</ele><time>2026-04-10T13:49:28Z</time></trkpt><trkpt lat="44.64964196499612" lon="7.9595849946164545"><ele>205.49999999999997</ele><time>2026-04-10T13:49:30Z</time></trkpt><trkpt lat="44.64967392436836" lon="7.959674915500301"><ele>206.0</ele><time>2026-04-10T13:49:32Z</time></trkpt><trkpt lat="44.64970797122773" lon="7.959773014487358"><ele>206.5</ele><time>2026-04-10T13:49:34Z</time></trkpt><trkpt lat="44.64974098129063" lon="7.959877734604035"><ele>207.0</ele><time>2026-04-10T13:49:36Z</time></trkpt><trkpt lat="44.649771537615514" lon="7.959987246362355"><ele>207.49999999999997</ele><time>2026-04-10T13:49:38Z</time></trkpt><trkpt lat="44.64980438732956" lon="7.960089975234611"><ele>208.0</ele><time>2026-04-10T13:49:40Z</time></trkpt><trkpt lat="44.64984072416763" lon="7.960196278249492"><ele>207.99999999999997</ele><time>2026-04-10T13:49:42Z</time></trkpt><trkpt lat="44.6498737984254" lon="7.960298947918783"><ele>208.0</ele><time>2026-04-10T13:49:44Z</time></trkpt><trkpt lat="44.649901263305786" lon="7.96040445798616"><ele>208.0</ele><time>2026-04-10T13:49:46Z</time></trkpt><trkpt lat="44.64993984305151" lon="7.960506504050282"><ele>208.0</ele><time>2026-04-10T13:49:48Z</time></trkpt><trkpt lat="44.64997000217267" lon="7.960611329170471"><ele>207.99999999999997</ele><time>2026-04-10T13:49:50Z</time></trkpt><trkpt lat="44.65000494366394" lon="7.960703220439765"><ele>208.0</ele><time>2026-04-10T13:49:52Z</time></trkpt><trkpt lat="44.65003818314894" lon="7.960805368719529"><ele>207.16666666666666</ele><time>2026-04-10T13:49:54Z</time></trkpt><trkpt lat="44.65006016446922" lon="7.960894270378593"><ele>206.33333333333331</ele><time>2026-04-10T13:49:56Z</time></trkpt><trkpt lat="44.65008977934603" lon="7.960993180264878"><ele>205.5</ele><time>2026-04-10T13:49:58Z</time></trkpt><trkpt lat="44.65012024213724" lon="7.961094016272185"><ele>204.66666666666669</ele><time>2026-04-10T13:50:00Z</time></trkpt><trkpt lat="44.65015075119421" lon="7.961197574707768"><ele>203.83333333333334</ele><time>2026-04-10T13:50:02Z</time></trkpt><trkpt lat="44.65018203148871" lon="7.961294275070141"><ele>203.0</ele><time>2026-04-10T13:50:04Z</time></trkpt><trkpt lat="44.65020895781853" lon="7.961397458054325"><ele>203.00000000000003</ele><time>2026-04-10T13:50:06Z</time></trkpt><trkpt lat="44.65023585591674" lon="7.961504966826989"><ele>203.0</ele><time>2026-04-10T13:50:08Z</time></trkpt><trkpt lat="44.650266969678626" lon="7.961617643529027"><ele>203.0</ele><time>2026-04-10T13:50:10Z</time></trkpt><trkpt lat="44.65029704556364" lon="7.961727516626227"><ele>203.0</ele><time>2026-04-10T13:50:12Z</time></trkpt><trkpt lat="44.650329228016965" lon="7.961836809285901"><ele>203.00000000000003</ele><time>2026-04-10T13:50:14Z</time></trkpt><trkpt lat="44.65036467698625" lon="7.96195306942252"><ele>203.0</ele><time>2026-04-10T13:50:16Z</time></trkpt><trkpt lat="44.6503943861905" lon="7.962070310704648"><ele>204.8</ele><time>2026-04-10T13:50:18Z</time></trkpt><trkpt lat="44.65042742776086" lon="7.962186233720308"><ele>206.60000000000002</ele><time>2026-04-10T13:50:20Z</time></trkpt><trkpt lat="44.650460361082" lon="7.962312492287631"><ele>208.39999999999998</ele><time>2026-04-10T13:50:22Z</time></trkpt><trkpt lat="44.65048539893979" lon="7.962433369136016"><ele>210.2</ele><time>2026-04-10T13:50:24Z</time></trkpt><trkpt lat="44.650506052491046" lon="7.962551398724258"><ele>212.0</ele><time>2026-04-10T13:50:26Z</time></trkpt><trkpt lat="44.650515017075755" lon="7.9626788250851845"><ele>212.0</ele><time>2026-04-10T13:50:28Z</time></trkpt><trkpt lat="44.650531658897364" lon="7.96280433567557"><ele>212.0</ele><time>2026-04-10T13:50:30Z</time></trkpt><trkpt lat="44.65054642257835" lon="7.962933807966481"><ele>212.0</ele><time>2026-04-10T13:50:32Z</time></trkpt><trkpt lat="44.65055878506644" lon="7.963064673922566"><ele>212.0</ele><time>2026-04-10T13:50:34Z</time></trkpt><trkpt lat="44.65057574797764" lon="7.963196955510572"><ele>212.0</ele><time>2026-04-10T13:50:36Z</time></trkpt><trkpt lat="44.65060324236311" lon="7.963329566421667"><ele>210.39999999999998</ele><time>2026-04-10T13:50:38Z</time></trkpt><trkpt lat="44.65063294921375" lon="7.9634605669677825"><ele>208.79999999999998</ele><time>2026-04-10T13:50:40Z</time></trkpt><trkpt lat="44.65066577001085" lon="7.963588098790094"><ele>207.2</ele><time>2026-04-10T13:50:42Z</time></trkpt><trkpt lat="44.650717505683424" lon="7.963705433009686"><ele>205.6</ele><time>2026-04-10T13:50:44Z</time></trkpt><trkpt lat="44.650768636958425" lon="7.963806387248741"><ele>204.0</ele><time>2026-04-10T13:50:46Z</time></trkpt><trkpt lat="44.650828490237096" lon="7.963899410916442"><ele>204.0</ele><time>2026-04-10T13:50:48Z</time></trkpt><trkpt lat="44.65089494005027" lon="7.963987434421583"><ele>204.0</ele><time>2026-04-10T13:50:50Z</time></trkpt><trkpt lat="44.65096644132396" lon="7.964074123105295"><ele>204.0</ele><time>2026-04-10T13:50:52Z</time></trkpt><trkpt lat="44.65104376789686" lon="7.96415773912133"><ele>204.0</ele><time>2026-04-10T13:50:54Z</time></trkpt><trkpt lat="44.65111201323021" lon="7.964243920793829"><ele>204.0</ele><time>2026-04-10T13:50:56Z</time></trkpt><trkpt lat="44.651177445793415" lon="7.964320400551367"><ele>204.33333333333334</ele><time>2026-04-10T13:50:58Z</time></trkpt><trkpt lat="44.65124076425969" lon="7.964400924279274"><ele>204.66666666666669</ele><time>2026-04-10T13:51:00Z</time></trkpt><trkpt lat="44.651305893757005" lon="7.96447946008135"><ele>205.0</ele><time>2026-04-10T13:51:02Z</time></trkpt><trkpt lat="44.65137093544957" lon="7.964549054203664"><ele>205.33333333333334</ele><time>2026-04-10T13:51:04Z</time></trkpt><trkpt lat="44.65143027998958" lon="7.9646295254986486"><ele>205.66666666666669</ele><time>2026-04-10T13:51:06Z</time></trkpt><trkpt lat="44.6514999918213" lon="7.964710628768601"><ele>206.0</ele><time>2026-04-10T13:51:08Z</time></trkpt><trkpt lat="44.65156612439627" lon="7.964801863972931"><ele>206.00000000000003</ele><time>2026-04-10T13:51:10Z</time></trkpt><trkpt lat="44.6516322896116" lon="7.964892602118268"><ele>206.0</ele><time>2026-04-10T13:51:12Z</time></trkpt><trkpt lat="44.65168976705429" lon="7.964989299048238"><ele>206.0</ele><time>2026-04-10T13:51:14Z</time></trkpt><trkpt lat="44.651739814994706" lon="7.9650650205732765"><ele>206.0</ele><time>2026-04-10T13:51:16Z</time></trkpt><trkpt lat="44.65179899225419" lon="7.965169145116803"><ele>206.00000000000003</ele><time>2026-04-10T13:51:18Z</time></trkpt><trkpt lat="44.65185615041147" lon="7.965265238112162"><ele>206.0</ele><time>2026-04-10T13:51:20Z</time></trkpt><trkpt lat="44.65191950511231" lon="7.965353278609475"><ele>206.4</ele><time>2026-04-10T13:51:22Z</time></trkpt><trkpt lat="44.65197622699284" lon="7.96545344623304"><ele>206.8</ele><time>2026-04-10T13:51:24Z</time></trkpt><trkpt lat="44.65203151916223" lon="7.965552040994164"><ele>207.20000000000002</ele><time>2026-04-10T13:51:26Z</time></trkpt><trkpt lat="44.65210713261558" lon="7.965634107273023"><ele>207.60000000000002</ele><time>2026-04-10T13:51:28Z</time></trkpt><trkpt lat="44.65217718313635" lon="7.965718419197347"><ele>208.0</ele><time>2026-04-10T13:51:30Z</time></trkpt><trkpt lat="44.65224217129243" lon="7.965806988835493"><ele>205.99999999999997</ele><time>2026-04-10T13:51:32Z</time></trkpt><trkpt lat="44.65228038748195" lon="7.965880792565456"><ele>204.0</ele><time>2026-04-10T13:51:33Z</time></trkpt><trkpt lat="44.65235637793422" lon="7.965945056693058"><ele>202.0</ele><time>2026-04-10T13:51:35Z</time></trkpt><trkpt lat="44.65243958940128" lon="7.966044422800466"><ele>200.0</ele><time>2026-04-10T13:51:37Z</time></trkpt><trkpt lat="44.65250304811516" lon="7.966185658437811"><ele>197.99999999999997</ele><time>2026-04-10T13:51:39Z</time></trkpt><trkpt lat="44.6525265724274" lon="7.966271268959284"><ele>196.0</ele><time>2026-04-10T13:51:40Z</time></trkpt><trkpt lat="44.652545765126234" lon="7.966356235664522"><ele>195.99999999999997</ele><time>2026-04-10T13:51:41Z</time></trkpt><trkpt lat="44.65256080291069" lon="7.966454015847506"><ele>196.0</ele><time>2026-04-10T13:51:42Z</time></trkpt><trkpt lat="44.65257813069896" lon="7.966552468358537"><ele>196.0</ele><time>2026-04-10T13:51:43Z</time></trkpt><trkpt lat="44.65259740982084" lon="7.966654126030347"><ele>196.0</ele><time>2026-04-10T13:51:44Z</time></trkpt><trkpt lat="44.65261954066765" lon="7.966745536708983"><ele>195.99999999999997</ele><time>2026-04-10T13:51:45Z</time></trkpt><trkpt lat="44.652637759346234" lon="7.966835800780516"><ele>196.0</ele><time>2026-04-10T13:51:46Z</time></trkpt><trkpt lat="44.652697068154524" lon="7.966967780604668"><ele>195.4</ele><time>2026-04-10T13:51:48Z</time></trkpt><trkpt lat="44.65275248551628" lon="7.967098019038267"><ele>194.8</ele><time>2026-04-10T13:51:50Z</time></trkpt><trkpt lat="44.652808426283265" lon="7.9672298977040565"><ele>194.20000000000002</ele><time>2026-04-10T13:51:52Z</time></trkpt><trkpt lat="44.652853724762316" lon="7.967355489110768"><ele>193.60000000000002</ele><time>2026-04-10T13:51:54Z</time></trkpt><trkpt lat="44.65289283557528" lon="7.967468648499129"><ele>193.0</ele><time>2026-04-10T13:51:56Z</time></trkpt><trkpt lat="44.652938058798746" lon="7.967574701974883"><ele>192.99999999999997</ele><time>2026-04-10T13:51:58Z</time></trkpt><trkpt lat="44.65298301516319" lon="7.967690094749579"><ele>193.0</ele><time>2026-04-10T13:52:00Z</time></trkpt><trkpt lat="44.653029922015165" lon="7.967799589183528"><ele>193.0</ele><time>2026-04-10T13:52:02Z</time></trkpt><trkpt lat="44.65309535253642" lon="7.967895623008119"><ele>193.0</ele><time>2026-04-10T13:52:04Z</time></trkpt><trkpt lat="44.653163312960515" lon="7.967966142525979"><ele>192.99999999999997</ele><time>2026-04-10T13:52:06Z</time></trkpt><trkpt lat="44.65323971806828" lon="7.967998031664121"><ele>193.0</ele><time>2026-04-10T13:52:08Z</time></trkpt><trkpt lat="44.65331906427893" lon="7.968015991513965"><ele>192.99999999999997</ele><time>2026-04-10T13:52:10Z</time></trkpt><trkpt lat="44.653400783482304" lon="7.968021402706066"><ele>193.0</ele><time>2026-04-10T13:52:12Z</time></trkpt><trkpt lat="44.653484710932204" lon="7.968026798973065"><ele>193.0</ele><time>2026-04-10T13:52:14Z</time></trkpt><trkpt lat="44.65356711626684" lon="7.968040907027094"><ele>193.0</ele><time>2026-04-10T13:52:16Z</time></trkpt><trkpt lat="44.65364700794439" lon="7.968057906314437"><ele>192.99999999999997</ele><time>2026-04-10T13:52:18Z</time></trkpt><trkpt lat="44.65373409268988" lon="7.9680841299052085"><ele>193.0</ele><time>2026-04-10T13:52:20Z</time></trkpt><trkpt lat="44.6538156307233" lon="7.968134583175897"><ele>192.83333333333331</ele><time>2026-04-10T13:52:22Z</time></trkpt><trkpt lat="44.65389931791763" lon="7.968184937483384"><ele>192.66666666666666</ele><time>2026-04-10T13:52:24Z</time></trkpt><trkpt lat="44.65398219410071" lon="7.9682166041382345"><ele>192.5</ele><time>2026-04-10T13:52:26Z</time></trkpt><trkpt lat="44.65406205311492" lon="7.968211499469058"><ele>192.33333333333331</ele><time>2026-04-10T13:52:28Z</time></trkpt><trkpt lat="44.65414354188459" lon="7.968173924362261"><ele>192.16666666666666</ele><time>2026-04-10T13:52:30Z</time></trkpt><trkpt lat="44.654215114360305" lon="7.9681063367060245"><ele>192.0</ele><time>2026-04-10T13:52:32Z</time></trkpt><trkpt lat="44.6542776040171" lon="7.968022570614698"><ele>192.0</ele><time>2026-04-10T13:52:34Z</time></trkpt><trkpt lat="44.65433574473705" lon="7.967931192083008"><ele>192.0</ele><time>2026-04-10T13:52:36Z</time></trkpt><trkpt lat="44.65440356949352" lon="7.967836494564004"><ele>192.0</ele><time>2026-04-10T13:52:38Z</time></trkpt><trkpt lat="44.65458838346735" lon="7.967985738309561"><ele>192.0</ele><time>2026-04-10T13:52:39Z</time></trkpt><trkpt lat="44.65452066779475" lon="7.967859839934251"><ele>192.0</ele><time>2026-04-10T13:52:41Z</time></trkpt><trkpt lat="44.65454730920195" lon="7.967963272916658"><ele>192.0</ele><time>2026-04-10T13:52:44Z</time></trkpt><trkpt lat="44.65452104682295" lon="7.968052074915039"><ele>192.0</ele><time>2026-04-10T13:52:49Z</time></trkpt><trkpt lat="44.654469190085734" lon="7.968143619653998"><ele>192.0</ele><time>2026-04-10T13:53:28Z</time></trkpt><trkpt lat="44.65444279330122" lon="7.968251780362215"><ele>192.0</ele><time>2026-04-10T13:53:34Z</time></trkpt><trkpt lat="44.65440181417554" lon="7.968336855277088"><ele>192.0</ele><time>2026-04-10T13:53:37Z</time></trkpt><trkpt lat="44.65437203682977" lon="7.968427572688027"><ele>192.16666666666666</ele><time>2026-04-10T13:53:40Z</time></trkpt><trkpt lat="44.65433904380481" lon="7.968532053588379"><ele>192.33333333333331</ele><time>2026-04-10T13:53:43Z</time></trkpt><trkpt lat="44.654308402741854" lon="7.968645154965696"><ele>192.5</ele><time>2026-04-10T13:53:46Z</time></trkpt><trkpt lat="44.65427986237924" lon="7.968770254533704"><ele>192.66666666666666</ele><time>2026-04-10T13:53:49Z</time></trkpt><trkpt lat="44.654264770683056" lon="7.96886158053606"><ele>192.83333333333331</ele><time>2026-04-10T13:53:51Z</time></trkpt><trkpt lat="44.65425381415417" lon="7.968954440834528"><ele>193.0</ele><time>2026-04-10T13:53:53Z</time></trkpt><trkpt lat="44.654230881335685" lon="7.969050301277387"><ele>193.00000000000003</ele><time>2026-04-10T13:53:55Z</time></trkpt><trkpt lat="44.65421467282077" lon="7.9691507833866275"><ele>193.0</ele><time>2026-04-10T13:53:57Z</time></trkpt><trkpt lat="44.65419611103805" lon="7.969250656675054"><ele>193.0</ele><time>2026-04-10T13:53:59Z</time></trkpt><trkpt lat="44.654182224942176" lon="7.969351385820967"><ele>193.0</ele><time>2026-04-10T13:54:01Z</time></trkpt><trkpt lat="44.65416410209067" lon="7.969451046421743"><ele>193.0</ele><time>2026-04-10T13:54:03Z</time></trkpt><trkpt lat="44.65414537176666" lon="7.969547034038692"><ele>193.00000000000003</ele><time>2026-04-10T13:54:05Z</time></trkpt><trkpt lat="44.65412915659919" lon="7.969644128709231"><ele>193.0</ele><time>2026-04-10T13:54:07Z</time></trkpt><trkpt lat="44.65411585564809" lon="7.969748427440315"><ele>192.83333333333331</ele><time>2026-04-10T13:54:09Z</time></trkpt><trkpt lat="44.654095753151914" lon="7.9698541079215115"><ele>192.66666666666666</ele><time>2026-04-10T13:54:11Z</time></trkpt><trkpt lat="44.6540800268095" lon="7.969965544652384"><ele>192.5</ele><time>2026-04-10T13:54:13Z</time></trkpt><trkpt lat="44.65406599644501" lon="7.970071204665543"><ele>192.33333333333331</ele><time>2026-04-10T13:54:15Z</time></trkpt><trkpt lat="44.65404970156248" lon="7.9701739670656995"><ele>192.16666666666666</ele><time>2026-04-10T13:54:17Z</time></trkpt><trkpt lat="44.65403234107464" lon="7.970274292449513"><ele>192.0</ele><time>2026-04-10T13:54:19Z</time></trkpt><trkpt lat="44.65400710512788" lon="7.970376949689019"><ele>192.0</ele><time>2026-04-10T13:54:21Z</time></trkpt><trkpt lat="44.65399235420256" lon="7.970483565225474"><ele>192.0</ele><time>2026-04-10T13:54:23Z</time></trkpt><trkpt lat="44.653978341158464" lon="7.9705881420382685"><ele>192.0</ele><time>2026-04-10T13:54:25Z</time></trkpt><trkpt lat="44.65396251993658" lon="7.970689555685206"><ele>192.0</ele><time>2026-04-10T13:54:27Z</time></trkpt><trkpt lat="44.65394483742426" lon="7.970801801937693"><ele>192.0</ele><time>2026-04-10T13:54:29Z</time></trkpt><trkpt lat="44.653931161954276" lon="7.970910484504169"><ele>192.0</ele><time>2026-04-10T13:54:31Z</time></trkpt><trkpt lat="44.653922679265925" lon="7.971020457606285"><ele>191.83333333333334</ele><time>2026-04-10T13:54:33Z</time></trkpt><trkpt lat="44.65390568187702" lon="7.97113394972787"><ele>191.66666666666666</ele><time>2026-04-10T13:54:35Z</time></trkpt><trkpt lat="44.6538895756541" lon="7.971247961684669"><ele>191.5</ele><time>2026-04-10T13:54:37Z</time></trkpt><trkpt lat="44.653873018449055" lon="7.9713617492696685"><ele>191.33333333333331</ele><time>2026-04-10T13:54:39Z</time></trkpt><trkpt lat="44.653865241378945" lon="7.971473802057897"><ele>191.16666666666666</ele><time>2026-04-10T13:54:41Z</time></trkpt><trkpt lat="44.653861494732624" lon="7.971577989532336"><ele>191.0</ele><time>2026-04-10T13:54:43Z</time></trkpt><trkpt lat="44.65384632692936" lon="7.971688975902348"><ele>191.0</ele><time>2026-04-10T13:54:45Z</time></trkpt><trkpt lat="44.65383932484856" lon="7.971799979123874"><ele>191.0</ele><time>2026-04-10T13:54:47Z</time></trkpt><trkpt lat="44.65383397011628" lon="7.9719118290228606"><ele>191.0</ele><time>2026-04-10T13:54:49Z</time></trkpt><trkpt lat="44.653826370646165" lon="7.972021233944125"><ele>191.0</ele><time>2026-04-10T13:54:51Z</time></trkpt><trkpt lat="44.65382638372939" lon="7.972133373523217"><ele>191.0</ele><time>2026-04-10T13:54:53Z</time></trkpt><trkpt lat="44.65382432303674" lon="7.972240445624825"><ele>191.0</ele><time>2026-04-10T13:54:55Z</time></trkpt><trkpt lat="44.65381934003745" lon="7.9723537208984725"><ele>191.0</ele><time>2026-04-10T13:54:57Z</time></trkpt><trkpt lat="44.653824695156196" lon="7.972453679635417"><ele>191.0</ele><time>2026-04-10T13:54:59Z</time></trkpt><trkpt lat="44.653826923679226" lon="7.972563617734677"><ele>191.0</ele><time>2026-04-10T13:55:01Z</time></trkpt><trkpt lat="44.6538262214396" lon="7.972674844894247"><ele>191.0</ele><time>2026-04-10T13:55:03Z</time></trkpt><trkpt lat="44.653829975674995" lon="7.972784969120875"><ele>191.0</ele><time>2026-04-10T13:55:05Z</time></trkpt><trkpt lat="44.653835308309674" lon="7.972893560714519"><ele>191.0</ele><time>2026-04-10T13:55:07Z</time></trkpt><trkpt lat="44.65384023546913" lon="7.973000025913787"><ele>191.5</ele><time>2026-04-10T13:55:09Z</time></trkpt><trkpt lat="44.653853276966636" lon="7.973101418794052"><ele>192.0</ele><time>2026-04-10T13:55:11Z</time></trkpt><trkpt lat="44.65386956083492" lon="7.9732094097315755"><ele>192.5</ele><time>2026-04-10T13:55:13Z</time></trkpt><trkpt lat="44.65387968256265" lon="7.973316825742282"><ele>193.0</ele><time>2026-04-10T13:55:15Z</time></trkpt><trkpt lat="44.65389475327333" lon="7.973423938440226"><ele>193.50000000000003</ele><time>2026-04-10T13:55:17Z</time></trkpt><trkpt lat="44.65391483366683" lon="7.97354161398462"><ele>194.0</ele><time>2026-04-10T13:55:19Z</time></trkpt><trkpt lat="44.65392915046736" lon="7.973660509532879"><ele>194.16666666666669</ele><time>2026-04-10T13:55:21Z</time></trkpt><trkpt lat="44.65394271623951" lon="7.973778551039508"><ele>194.33333333333334</ele><time>2026-04-10T13:55:23Z</time></trkpt><trkpt lat="44.6539597497831" lon="7.973906838821987"><ele>194.5</ele><time>2026-04-10T13:55:25Z</time></trkpt><trkpt lat="44.65397149014331" lon="7.974033300227404"><ele>194.66666666666669</ele><time>2026-04-10T13:55:27Z</time></trkpt><trkpt lat="44.6539947912265" lon="7.974155936410727"><ele>194.83333333333334</ele><time>2026-04-10T13:55:29Z</time></trkpt><trkpt lat="44.65400971669519" lon="7.9742697421966655"><ele>195.0</ele><time>2026-04-10T13:55:31Z</time></trkpt><trkpt lat="44.65402066676681" lon="7.9743829120191005"><ele>194.66666666666666</ele><time>2026-04-10T13:55:33Z</time></trkpt><trkpt lat="44.654036152445805" lon="7.974501228214259"><ele>194.33333333333331</ele><time>2026-04-10T13:55:35Z</time></trkpt><trkpt lat="44.65404898274211" lon="7.97462158392999"><ele>194.0</ele><time>2026-04-10T13:55:37Z</time></trkpt><trkpt lat="44.65406485562999" lon="7.974745745945594"><ele>193.66666666666666</ele><time>2026-04-10T13:55:39Z</time></trkpt><trkpt lat="44.65407997197529" lon="7.9748728068822246"><ele>193.33333333333331</ele><time>2026-04-10T13:55:41Z</time></trkpt><trkpt lat="44.65409389136758" lon="7.975001774626854"><ele>193.0</ele><time>2026-04-10T13:55:43Z</time></trkpt><trkpt lat="44.65411210203665" lon="7.975130820053693"><ele>192.83333333333331</ele><time>2026-04-10T13:55:45Z</time></trkpt><trkpt lat="44.654122977352834" lon="7.975254916910231"><ele>192.66666666666666</ele><time>2026-04-10T13:55:47Z</time></trkpt><trkpt lat="44.65414062980305" lon="7.975379208094914"><ele>192.5</ele><time>2026-04-10T13:55:49Z</time></trkpt><trkpt lat="44.65415757574261" lon="7.975499403424787"><ele>192.33333333333331</ele><time>2026-04-10T13:55:51Z</time></trkpt><trkpt lat="44.65417518677263" lon="7.975619070029436"><ele>192.16666666666666</ele><time>2026-04-10T13:55:53Z</time></trkpt><trkpt lat="44.654190122896495" lon="7.9757388240752665"><ele>192.0</ele><time>2026-04-10T13:55:55Z</time></trkpt><trkpt lat="44.654198360751444" lon="7.975860395367322"><ele>192.0</ele><time>2026-04-10T13:55:57Z</time></trkpt><trkpt lat="44.65420901994662" lon="7.975976824679997"><ele>192.0</ele><time>2026-04-10T13:55:59Z</time></trkpt><trkpt lat="44.65421693556425" lon="7.976098606489912"><ele>192.0</ele><time>2026-04-10T13:56:01Z</time></trkpt><trkpt lat="44.65423055051287" lon="7.97621907848059"><ele>192.0</ele><time>2026-04-10T13:56:03Z</time></trkpt><trkpt lat="44.65425245031989" lon="7.976338668429175"><ele>192.0</ele><time>2026-04-10T13:56:05Z</time></trkpt><trkpt lat="44.65426264939363" lon="7.976457305694106"><ele>192.0</ele><time>2026-04-10T13:56:07Z</time></trkpt><trkpt lat="44.65427999772594" lon="7.97657436226191"><ele>192.33333333333334</ele><time>2026-04-10T13:56:09Z</time></trkpt><trkpt lat="44.65428875425094" lon="7.97669462240495"><ele>192.66666666666669</ele><time>2026-04-10T13:56:11Z</time></trkpt><trkpt lat="44.65429908806792" lon="7.976809889979328"><ele>193.0</ele><time>2026-04-10T13:56:13Z</time></trkpt><trkpt lat="44.65431559460448" lon="7.976924516714367"><ele>193.33333333333334</ele><time>2026-04-10T13:56:15Z</time></trkpt><trkpt lat="44.65433726285438" lon="7.97703403266802"><ele>193.66666666666669</ele><time>2026-04-10T13:56:17Z</time></trkpt><trkpt lat="44.654352572992" lon="7.977152048725924"><ele>194.0</ele><time>2026-04-10T13:56:19Z</time></trkpt><trkpt lat="44.65436358999152" lon="7.977269200883064"><ele>194.00000000000003</ele><time>2026-04-10T13:56:21Z</time></trkpt><trkpt lat="44.65437937515988" lon="7.977386653568307"><ele>194.0</ele><time>2026-04-10T13:56:23Z</time></trkpt><trkpt lat="44.65440037936891" lon="7.977502600304956"><ele>194.0</ele><time>2026-04-10T13:56:25Z</time></trkpt><trkpt lat="44.65441881800447" lon="7.977619579353136"><ele>194.0</ele><time>2026-04-10T13:56:27Z</time></trkpt><trkpt lat="44.65443536191889" lon="7.97773455510542"><ele>194.00000000000003</ele><time>2026-04-10T13:56:29Z</time></trkpt><trkpt lat="44.65444930190714" lon="7.9778497404346576"><ele>194.0</ele><time>2026-04-10T13:56:31Z</time></trkpt><trkpt lat="44.65446411949074" lon="7.977967324703244"><ele>193.83333333333334</ele><time>2026-04-10T13:56:33Z</time></trkpt><trkpt lat="44.654472233364814" lon="7.978086980700051"><ele>193.66666666666669</ele><time>2026-04-10T13:56:35Z</time></trkpt><trkpt lat="44.65449147360872" lon="7.978205004990344"><ele>193.5</ele><time>2026-04-10T13:56:37Z</time></trkpt><trkpt lat="44.654504128329606" lon="7.978322599696762"><ele>193.33333333333331</ele><time>2026-04-10T13:56:39Z</time></trkpt><trkpt lat="44.65452167459925" lon="7.9784402083685295"><ele>193.16666666666666</ele><time>2026-04-10T13:56:41Z</time></trkpt><trkpt lat="44.654535820882046" lon="7.978556634098746"><ele>193.0</ele><time>2026-04-10T13:56:43Z</time></trkpt><trkpt lat="44.65454881379725" lon="7.978675665045898"><ele>192.83333333333331</ele><time>2026-04-10T13:56:45Z</time></trkpt><trkpt lat="44.6545678884302" lon="7.978794649802288"><ele>192.66666666666666</ele><time>2026-04-10T13:56:47Z</time></trkpt><trkpt lat="44.65458437223675" lon="7.978912092594619"><ele>192.5</ele><time>2026-04-10T13:56:49Z</time></trkpt><trkpt lat="44.65459249946781" lon="7.979026610254345"><ele>192.33333333333331</ele><time>2026-04-10T13:56:51Z</time></trkpt><trkpt lat="44.65460162334246" lon="7.979144291006011"><ele>192.16666666666666</ele><time>2026-04-10T13:56:53Z</time></trkpt><trkpt lat="44.65462189787847" lon="7.979259418540969"><ele>192.0</ele><time>2026-04-10T13:56:55Z</time></trkpt><trkpt lat="44.654640539514624" lon="7.97937087743649"><ele>192.0</ele><time>2026-04-10T13:56:57Z</time></trkpt><trkpt lat="44.65465547276338" lon="7.979480178819761"><ele>192.0</ele><time>2026-04-10T13:56:59Z</time></trkpt><trkpt lat="44.65467110633384" lon="7.979580048612607"><ele>192.0</ele><time>2026-04-10T13:57:01Z</time></trkpt><trkpt lat="44.6546700874301" lon="7.979682630479854"><ele>192.0</ele><time>2026-04-10T13:57:03Z</time></trkpt><trkpt lat="44.65468128030582" lon="7.979778384149705"><ele>192.0</ele><time>2026-04-10T13:57:05Z</time></trkpt><trkpt lat="44.654695686931944" lon="7.979901631075948"><ele>192.0</ele><time>2026-04-10T13:57:08Z</time></trkpt><trkpt lat="44.65454247295801" lon="7.979882089986418"><ele>191.99999999999997</ele><time>2026-04-10T13:57:15Z</time></trkpt><trkpt lat="44.65447867334516" lon="7.979850275145466"><ele>192.0</ele><time>2026-04-10T13:57:17Z</time></trkpt><trkpt lat="44.654415018882865" lon="7.979820235424058"><ele>192.0</ele><time>2026-04-10T13:57:19Z</time></trkpt><trkpt lat="44.654344827939056" lon="7.9797944813070805"><ele>192.0</ele><time>2026-04-10T13:57:21Z</time></trkpt><trkpt lat="44.65427753072393" lon="7.979762647627894"><ele>192.0</ele><time>2026-04-10T13:57:23Z</time></trkpt><trkpt lat="44.65420094110442" lon="7.979735259132795"><ele>191.99999999999997</ele><time>2026-04-10T13:57:25Z</time></trkpt><trkpt lat="44.65412667626045" lon="7.979690274668465"><ele>192.0</ele><time>2026-04-10T13:57:27Z</time></trkpt><trkpt lat="44.65404605699046" lon="7.979675335108144"><ele>192.33333333333334</ele><time>2026-04-10T13:57:29Z</time></trkpt><trkpt lat="44.65397560661524" lon="7.979628366437822"><ele>192.66666666666669</ele><time>2026-04-10T13:57:31Z</time></trkpt><trkpt lat="44.65390043168051" lon="7.9795941853974055"><ele>193.0</ele><time>2026-04-10T13:57:33Z</time></trkpt><trkpt lat="44.6538184184558" lon="7.979554949012526"><ele>193.33333333333334</ele><time>2026-04-10T13:57:35Z</time></trkpt><trkpt lat="44.65374080082007" lon="7.979514743200678"><ele>193.66666666666669</ele><time>2026-04-10T13:57:37Z</time></trkpt><trkpt lat="44.65365967914391" lon="7.979475746800246"><ele>194.0</ele><time>2026-04-10T13:57:39Z</time></trkpt><trkpt lat="44.65357837085571" lon="7.979433688421273"><ele>194.33333333333334</ele><time>2026-04-10T13:57:41Z</time></trkpt><trkpt lat="44.6534948099857" lon="7.9794025948756"><ele>194.66666666666669</ele><time>2026-04-10T13:57:43Z</time></trkpt><trkpt lat="44.653414031512916" lon="7.979374748474414"><ele>195.0</ele><time>2026-04-10T13:57:45Z</time></trkpt><trkpt lat="44.653334711985494" lon="7.979333631021389"><ele>195.33333333333331</ele><time>2026-04-10T13:57:47Z</time></trkpt><trkpt lat="44.653251476169864" lon="7.979296343712221"><ele>195.66666666666666</ele><time>2026-04-10T13:57:49Z</time></trkpt><trkpt lat="44.65316812941467" lon="7.979253442086512"><ele>196.0</ele><time>2026-04-10T13:57:51Z</time></trkpt><trkpt lat="44.65308016953188" lon="7.979220243332481"><ele>195.99999999999997</ele><time>2026-04-10T13:57:53Z</time></trkpt><trkpt lat="44.65299971011807" lon="7.979185141173813"><ele>196.0</ele><time>2026-04-10T13:57:55Z</time></trkpt><trkpt lat="44.65292482412666" lon="7.979144352342731"><ele>196.0</ele><time>2026-04-10T13:57:57Z</time></trkpt><trkpt lat="44.652846239386896" lon="7.979110486903675"><ele>196.0</ele><time>2026-04-10T13:57:59Z</time></trkpt><trkpt lat="44.65277160795746" lon="7.979083544032049"><ele>195.99999999999997</ele><time>2026-04-10T13:58:01Z</time></trkpt><trkpt lat="44.65269591983503" lon="7.979047003445324"><ele>196.0</ele><time>2026-04-10T13:58:03Z</time></trkpt><trkpt lat="44.65261722844566" lon="7.97901716206978"><ele>195.99999999999997</ele><time>2026-04-10T13:58:05Z</time></trkpt><trkpt lat="44.652542078157666" lon="7.978990478938202"><ele>196.0</ele><time>2026-04-10T13:58:07Z</time></trkpt><trkpt lat="44.65246826905122" lon="7.978959583047878"><ele>196.0</ele><time>2026-04-10T13:58:09Z</time></trkpt><trkpt lat="44.652393979817305" lon="7.978930319194928"><ele>196.0</ele><time>2026-04-10T13:58:11Z</time></trkpt><trkpt lat="44.652316565135585" lon="7.978903038564872"><ele>195.99999999999997</ele><time>2026-04-10T13:58:13Z</time></trkpt><trkpt lat="44.65223897219992" lon="7.9788832440012865"><ele>196.0</ele><time>2026-04-10T13:58:15Z</time></trkpt><trkpt lat="44.65216106521148" lon="7.978870669468083"><ele>195.99999999999997</ele><time>2026-04-10T13:58:17Z</time></trkpt><trkpt lat="44.65207940545278" lon="7.9788762540149065"><ele>196.0</ele><time>2026-04-10T13:58:19Z</time></trkpt><trkpt lat="44.65200481834849" lon="7.978898756401155"><ele>196.0</ele><time>2026-04-10T13:58:21Z</time></trkpt><trkpt lat="44.6519339027259" lon="7.978929766891587"><ele>196.0</ele><time>2026-04-10T13:58:23Z</time></trkpt><trkpt lat="44.65186546772693" lon="7.978961672869749"><ele>195.99999999999997</ele><time>2026-04-10T13:58:25Z</time></trkpt><trkpt lat="44.65180181950306" lon="7.978990552475575"><ele>196.0</ele><time>2026-04-10T13:58:27Z</time></trkpt><trkpt lat="44.651731374306586" lon="7.979043608706468"><ele>195.83333333333331</ele><time>2026-04-10T13:58:29Z</time></trkpt><trkpt lat="44.65165278780488" lon="7.979092095158661"><ele>195.66666666666666</ele><time>2026-04-10T13:58:31Z</time></trkpt><trkpt lat="44.651575683846026" lon="7.979135213723078"><ele>195.5</ele><time>2026-04-10T13:58:33Z</time></trkpt><trkpt lat="44.65150148610741" lon="7.9791794223536705"><ele>195.33333333333331</ele><time>2026-04-10T13:58:35Z</time></trkpt><trkpt lat="44.65143003592467" lon="7.979230513436891"><ele>195.16666666666666</ele><time>2026-04-10T13:58:37Z</time></trkpt><trkpt lat="44.65135626471278" lon="7.979273786324393"><ele>195.0</ele><time>2026-04-10T13:58:39Z</time></trkpt><trkpt lat="44.651283713052585" lon="7.979312171223501"><ele>195.0</ele><time>2026-04-10T13:58:41Z</time></trkpt><trkpt lat="44.651207554621585" lon="7.979339900758329"><ele>195.0</ele><time>2026-04-10T13:58:43Z</time></trkpt><trkpt lat="44.65113339741552" lon="7.9793742382870825"><ele>195.0</ele><time>2026-04-10T13:58:45Z</time></trkpt><trkpt lat="44.6510490388426" lon="7.9793918978990055"><ele>195.0</ele><time>2026-04-10T13:58:47Z</time></trkpt><trkpt lat="44.6509716194806" lon="7.97940822410878"><ele>195.0</ele><time>2026-04-10T13:58:49Z</time></trkpt><trkpt lat="44.65089185803529" lon="7.979428929647088"><ele>195.0</ele><time>2026-04-10T13:58:51Z</time></trkpt><trkpt lat="44.65081249366028" lon="7.979439482019786"><ele>195.33333333333334</ele><time>2026-04-10T13:58:53Z</time></trkpt><trkpt lat="44.650731919113205" lon="7.979440421974953"><ele>195.66666666666669</ele><time>2026-04-10T13:58:55Z</time></trkpt><trkpt lat="44.65064938859569" lon="7.979436528017721"><ele>196.0</ele><time>2026-04-10T13:58:57Z</time></trkpt><trkpt lat="44.650565192165445" lon="7.979425152686341"><ele>196.33333333333334</ele><time>2026-04-10T13:58:59Z</time></trkpt><trkpt lat="44.650482610335956" lon="7.979416765183358"><ele>196.66666666666669</ele><time>2026-04-10T13:59:01Z</time></trkpt><trkpt lat="44.65040237028715" lon="7.9794048886208415"><ele>197.0</ele><time>2026-04-10T13:59:03Z</time></trkpt><trkpt lat="44.65032002796969" lon="7.979396122413033"><ele>197.00000000000003</ele><time>2026-04-10T13:59:05Z</time></trkpt><trkpt lat="44.650237598095664" lon="7.979391012395128"><ele>197.0</ele><time>2026-04-10T13:59:07Z</time></trkpt><trkpt lat="44.65015447036015" lon="7.9793853186997445"><ele>197.0</ele><time>2026-04-10T13:59:09Z</time></trkpt><trkpt lat="44.65007187282378" lon="7.9793769220605775"><ele>197.0</ele><time>2026-04-10T13:59:11Z</time></trkpt><trkpt lat="44.649989002249704" lon="7.979370272836386"><ele>197.00000000000003</ele><time>2026-04-10T13:59:13Z</time></trkpt><trkpt lat="44.64990585973787" lon="7.97936616612335"><ele>197.0</ele><time>2026-04-10T13:59:15Z</time></trkpt><trkpt lat="44.64982199440133" lon="7.979362916689481"><ele>197.00000000000003</ele><time>2026-04-10T13:59:17Z</time></trkpt><trkpt lat="44.649742606448356" lon="7.9793713695470485"><ele>197.0</ele><time>2026-04-10T13:59:19Z</time></trkpt><trkpt lat="44.64966274621576" lon="7.979380079874977"><ele>197.0</ele><time>2026-04-10T13:59:21Z</time></trkpt><trkpt lat="44.649578502505015" lon="7.979372738663701"><ele>197.0</ele><time>2026-04-10T13:59:23Z</time></trkpt><trkpt lat="44.649496248892596" lon="7.9793749534777945"><ele>197.00000000000003</ele><time>2026-04-10T13:59:25Z</time></trkpt><trkpt lat="44.64941201645217" lon="7.979369903879414"><ele>197.0</ele><time>2026-04-10T13:59:27Z</time></trkpt><trkpt lat="44.649331124480995" lon="7.979360393056861"><ele>197.00000000000003</ele><time>2026-04-10T13:59:29Z</time></trkpt><trkpt lat="44.64925185767304" lon="7.979356940761245"><ele>197.0</ele><time>2026-04-10T13:59:31Z</time></trkpt><trkpt lat="44.64917162595259" lon="7.979341245600072"><ele>197.0</ele><time>2026-04-10T13:59:33Z</time></trkpt><trkpt lat="44.64909156999416" lon="7.979325341275775"><ele>197.0</ele><time>2026-04-10T13:59:35Z</time></trkpt><trkpt lat="44.64901293037167" lon="7.979297318325852"><ele>197.00000000000003</ele><time>2026-04-10T13:59:37Z</time></trkpt><trkpt lat="44.648932671959535" lon="7.979270286479509"><ele>197.0</ele><time>2026-04-10T13:59:39Z</time></trkpt><trkpt lat="44.64885342272193" lon="7.9792385709355855"><ele>197.00000000000003</ele><time>2026-04-10T13:59:41Z</time></trkpt><trkpt lat="44.64877512122391" lon="7.979200321653416"><ele>197.0</ele><time>2026-04-10T13:59:43Z</time></trkpt><trkpt lat="44.64869451642805" lon="7.979163576535669"><ele>197.0</ele><time>2026-04-10T13:59:45Z</time></trkpt><trkpt lat="44.648615527035524" lon="7.979127487328092"><ele>197.0</ele><time>2026-04-10T13:59:47Z</time></trkpt><trkpt lat="44.64853256441634" lon="7.9790994247999825"><ele>197.00000000000003</ele><time>2026-04-10T13:59:49Z</time></trkpt><trkpt lat="44.64845448909562" lon="7.97907083004985"><ele>197.0</ele><time>2026-04-10T13:59:51Z</time></trkpt><trkpt lat="44.64837734992385" lon="7.97904045497364"><ele>197.16666666666669</ele><time>2026-04-10T13:59:53Z</time></trkpt><trkpt lat="44.648298203025995" lon="7.9790109915016725"><ele>197.33333333333334</ele><time>2026-04-10T13:59:55Z</time></trkpt><trkpt lat="44.64821955145681" lon="7.9789754855547645"><ele>197.5</ele><time>2026-04-10T13:59:57Z</time></trkpt><trkpt lat="44.6481405263224" lon="7.9789415840130475"><ele>197.66666666666669</ele><time>2026-04-10T13:59:59Z</time></trkpt><trkpt lat="44.648064703166305" lon="7.9789173627671035"><ele>197.83333333333334</ele><time>2026-04-10T14:00:01Z</time></trkpt><trkpt lat="44.647986760965466" lon="7.978882014945169"><ele>198.0</ele><time>2026-04-10T14:00:03Z</time></trkpt><trkpt lat="44.64791160395582" lon="7.978846011585537"><ele>198.0</ele><time>2026-04-10T14:00:05Z</time></trkpt><trkpt lat="44.64783488587106" lon="7.978810223002013"><ele>198.0</ele><time>2026-04-10T14:00:07Z</time></trkpt><trkpt lat="44.64775758570315" lon="7.978776544644108"><ele>198.0</ele><time>2026-04-10T14:00:09Z</time></trkpt><trkpt lat="44.647678206495584" lon="7.978745501300985"><ele>198.0</ele><time>2026-04-10T14:00:11Z</time></trkpt><trkpt lat="44.64759801813286" lon="7.978708412569484"><ele>198.0</ele><time>2026-04-10T14:00:13Z</time></trkpt><trkpt lat="44.64751510398159" lon="7.978677229401683"><ele>198.0</ele><time>2026-04-10T14:00:15Z</time></trkpt><trkpt lat="44.64743457719272" lon="7.978641768320136"><ele>198.16666666666666</ele><time>2026-04-10T14:00:17Z</time></trkpt><trkpt lat="44.64735543104528" lon="7.978604757347556"><ele>198.33333333333331</ele><time>2026-04-10T14:00:19Z</time></trkpt><trkpt lat="44.647278240638926" lon="7.978555382932773"><ele>198.5</ele><time>2026-04-10T14:00:21Z</time></trkpt><trkpt lat="44.647202619023666" lon="7.978510577408609"><ele>198.66666666666666</ele><time>2026-04-10T14:00:23Z</time></trkpt><trkpt lat="44.64712829871504" lon="7.978469498112769"><ele>198.83333333333331</ele><time>2026-04-10T14:00:25Z</time></trkpt><trkpt lat="44.64705736123202" lon="7.9784209356045945"><ele>199.0</ele><time>2026-04-10T14:00:27Z</time></trkpt><trkpt lat="44.64699442451747" lon="7.9783489221977835"><ele>199.16666666666666</ele><time>2026-04-10T14:00:29Z</time></trkpt><trkpt lat="44.64694668010944" lon="7.978256526538624"><ele>199.33333333333331</ele><time>2026-04-10T14:00:31Z</time></trkpt><trkpt lat="44.64691896026645" lon="7.978141776397659"><ele>199.5</ele><time>2026-04-10T14:00:33Z</time></trkpt><trkpt lat="44.646888609261765" lon="7.978033953011732"><ele>199.66666666666669</ele><time>2026-04-10T14:00:35Z</time></trkpt><trkpt lat="44.64683199510161" lon="7.97794563971117"><ele>199.83333333333334</ele><time>2026-04-10T14:00:37Z</time></trkpt><trkpt lat="44.64677321924502" lon="7.97786180505168"><ele>200.0</ele><time>2026-04-10T14:00:39Z</time></trkpt><trkpt lat="44.64670553094913" lon="7.977906073799266"><ele>200.00000000000003</ele><time>2026-04-10T14:00:40Z</time></trkpt><trkpt lat="44.64662305206828" lon="7.977951834066081"><ele>200.0</ele><time>2026-04-10T14:00:42Z</time></trkpt><trkpt lat="44.64656210902415" lon="7.978023793930536"><ele>200.0</ele><time>2026-04-10T14:00:44Z</time></trkpt><trkpt lat="44.6465319194176" lon="7.978121729511464"><ele>200.0</ele><time>2026-04-10T14:00:46Z</time></trkpt><trkpt lat="44.64658721534099" lon="7.978175412252446"><ele>200.00000000000003</ele><time>2026-04-10T14:00:48Z</time></trkpt><trkpt lat="44.64646157504367" lon="7.9782237647798855"><ele>200.0</ele><time>2026-04-10T14:00:49Z</time></trkpt><trkpt lat="44.64639841526186" lon="7.978255378604285"><ele>200.00000000000003</ele><time>2026-04-10T14:00:51Z</time></trkpt><trkpt lat="44.64633694431403" lon="7.978286104449915"><ele>200.0</ele><time>2026-04-10T14:00:53Z</time></trkpt><trkpt lat="44.64627791434747" lon="7.978331638521261"><ele>200.0</ele><time>2026-04-10T14:00:55Z</time></trkpt><trkpt lat="44.64621160155716" lon="7.978367212136068"><ele>200.0</ele><time>2026-04-10T14:00:57Z</time></trkpt><trkpt lat="44.64614771492889" lon="7.978401899102391"><ele>200.0</ele><time>2026-04-10T14:00:59Z</time></trkpt><trkpt lat="44.64608151244684" lon="7.978436744082119"><ele>200.00000000000003</ele><time>2026-04-10T14:01:01Z</time></trkpt><trkpt lat="44.64600519698463" lon="7.978478018644915"><ele>200.0</ele><time>2026-04-10T14:01:04Z</time></trkpt><trkpt lat="44.6459187748417" lon="7.978529104296675"><ele>201.50000000000003</ele><time>2026-04-10T14:01:07Z</time></trkpt><trkpt lat="44.645831767872934" lon="7.978575870666946"><ele>203.0</ele><time>2026-04-10T14:01:10Z</time></trkpt><trkpt lat="44.64576873632386" lon="7.978607966312258"><ele>204.5</ele><time>2026-04-10T14:01:12Z</time></trkpt><trkpt lat="44.64568610952532" lon="7.978650262784025"><ele>206.0</ele><time>2026-04-10T14:01:15Z</time></trkpt><trkpt lat="44.64562593485202" lon="7.978682466061136"><ele>207.50000000000003</ele><time>2026-04-10T14:01:17Z</time></trkpt><trkpt lat="44.64556557338021" lon="7.9787124940765395"><ele>209.0</ele><time>2026-04-10T14:01:19Z</time></trkpt><trkpt lat="44.64548013478077" lon="7.9787518516347715"><ele>209.00000000000003</ele><time>2026-04-10T14:01:22Z</time></trkpt><trkpt lat="44.64539432432371" lon="7.978791911063169"><ele>209.0</ele><time>2026-04-10T14:01:25Z</time></trkpt><trkpt lat="44.645311170212985" lon="7.978831646120155"><ele>209.0</ele><time>2026-04-10T14:01:28Z</time></trkpt><trkpt lat="44.64523589631845" lon="7.978870366363619"><ele>209.0</ele><time>2026-04-10T14:01:31Z</time></trkpt><trkpt lat="44.64516423004139" lon="7.97891673142824"><ele>209.00000000000003</ele><time>2026-04-10T14:01:34Z</time></trkpt><trkpt lat="44.64508474680701" lon="7.978958133002696"><ele>209.0</ele><time>2026-04-10T14:01:37Z</time></trkpt><trkpt lat="44.64499625881883" lon="7.979001516139069"><ele>208.42857142857142</ele><time>2026-04-10T14:01:40Z</time></trkpt><trkpt lat="44.64493496125472" lon="7.979036184132057"><ele>207.85714285714283</ele><time>2026-04-10T14:01:42Z</time></trkpt><trkpt lat="44.64484553496114" lon="7.979080818280266"><ele>207.28571428571428</ele><time>2026-04-10T14:01:45Z</time></trkpt><trkpt lat="44.64478189771323" lon="7.979110638891754"><ele>206.71428571428572</ele><time>2026-04-10T14:01:47Z</time></trkpt><trkpt lat="44.64471595878054" lon="7.979146960194674"><ele>206.14285714285714</ele><time>2026-04-10T14:01:49Z</time></trkpt><trkpt lat="44.6446527547162" lon="7.979185930558296"><ele>205.57142857142858</ele><time>2026-04-10T14:01:51Z</time></trkpt><trkpt lat="44.64458637043454" lon="7.979221303118131"><ele>205.0</ele><time>2026-04-10T14:01:53Z</time></trkpt><trkpt lat="44.64451729014291" lon="7.97925468522166"><ele>206.0</ele><time>2026-04-10T14:01:55Z</time></trkpt><trkpt lat="44.64445164179032" lon="7.979290562910075"><ele>207.0</ele><time>2026-04-10T14:01:57Z</time></trkpt><trkpt lat="44.64439407732467" lon="7.979328715455949"><ele>208.0</ele><time>2026-04-10T14:01:59Z</time></trkpt><trkpt lat="44.644331837658555" lon="7.979359156381435"><ele>209.0</ele><time>2026-04-10T14:02:01Z</time></trkpt><trkpt lat="44.644272284656665" lon="7.9794020915685655"><ele>210.0</ele><time>2026-04-10T14:02:03Z</time></trkpt><trkpt lat="44.6441962024595" lon="7.979467717683363"><ele>211.0</ele><time>2026-04-10T14:02:06Z</time></trkpt><trkpt lat="44.64413518788869" lon="7.979520453123588"><ele>212.0</ele><time>2026-04-10T14:02:08Z</time></trkpt><trkpt lat="44.644070859579074" lon="7.979581310095642"><ele>212.0</ele><time>2026-04-10T14:02:10Z</time></trkpt><trkpt lat="44.64401523889905" lon="7.979650129238784"><ele>212.0</ele><time>2026-04-10T14:02:12Z</time></trkpt><trkpt lat="44.64396574094407" lon="7.9797099587591305"><ele>212.0</ele><time>2026-04-10T14:02:14Z</time></trkpt><trkpt lat="44.643907062641304" lon="7.979763571486778"><ele>212.0</ele><time>2026-04-10T14:02:16Z</time></trkpt><trkpt lat="44.64385344658798" lon="7.979824035390522"><ele>212.0</ele><time>2026-04-10T14:02:18Z</time></trkpt><trkpt lat="44.64379947315172" lon="7.97988448711091"><ele>212.0</ele><time>2026-04-10T14:02:20Z</time></trkpt><trkpt lat="44.64374799328734" lon="7.979950963190725"><ele>212.0</ele><time>2026-04-10T14:02:22Z</time></trkpt><trkpt lat="44.643695314782" lon="7.980017536006616"><ele>211.57142857142858</ele><time>2026-04-10T14:02:24Z</time></trkpt><trkpt lat="44.643647462604314" lon="7.980082814879541"><ele>211.14285714285714</ele><time>2026-04-10T14:02:26Z</time></trkpt><trkpt lat="44.643594719448195" lon="7.98014449819235"><ele>210.71428571428572</ele><time>2026-04-10T14:02:28Z</time></trkpt><trkpt lat="44.64354187803088" lon="7.980204426624185"><ele>210.28571428571428</ele><time>2026-04-10T14:02:30Z</time></trkpt><trkpt lat="44.64349361204979" lon="7.980261371017433"><ele>209.85714285714283</ele><time>2026-04-10T14:02:32Z</time></trkpt><trkpt lat="44.64344112485185" lon="7.980316495545148"><ele>209.42857142857142</ele><time>2026-04-10T14:02:34Z</time></trkpt><trkpt lat="44.64339301487868" lon="7.980381730646889"><ele>209.0</ele><time>2026-04-10T14:02:36Z</time></trkpt><trkpt lat="44.643342381595154" lon="7.980449742262242"><ele>209.0</ele><time>2026-04-10T14:02:38Z</time></trkpt><trkpt lat="44.64328854799132" lon="7.9805196555243665"><ele>209.0</ele><time>2026-04-10T14:02:40Z</time></trkpt><trkpt lat="44.643223066288755" lon="7.980580853613987"><ele>209.0</ele><time>2026-04-10T14:02:42Z</time></trkpt><trkpt lat="44.643164934464664" lon="7.980648994575765"><ele>209.0</ele><time>2026-04-10T14:02:44Z</time></trkpt><trkpt lat="44.64310844553497" lon="7.980714953208453"><ele>209.0</ele><time>2026-04-10T14:02:46Z</time></trkpt><trkpt lat="44.64304870995655" lon="7.980764100042565"><ele>209.0</ele><time>2026-04-10T14:02:48Z</time></trkpt><trkpt lat="44.64299488217177" lon="7.980815799601053"><ele>209.0</ele><time>2026-04-10T14:02:50Z</time></trkpt><trkpt lat="44.64293948773462" lon="7.9808614547604035"><ele>209.00000000000003</ele><time>2026-04-10T14:02:52Z</time></trkpt><trkpt lat="44.64285888429091" lon="7.980925368767855"><ele>209.0</ele><time>2026-04-10T14:02:55Z</time></trkpt><trkpt lat="44.64277410788352" lon="7.980984889590255"><ele>209.0</ele><time>2026-04-10T14:02:58Z</time></trkpt><trkpt lat="44.64271650112657" lon="7.9810262405211985"><ele>209.0</ele><time>2026-04-10T14:03:00Z</time></trkpt><trkpt lat="44.642658465954675" lon="7.98106544942514"><ele>209.00000000000003</ele><time>2026-04-10T14:03:02Z</time></trkpt><trkpt lat="44.642594878222006" lon="7.981107361347058"><ele>209.0</ele><time>2026-04-10T14:03:04Z</time></trkpt><trkpt lat="44.642532680272744" lon="7.981158720621352"><ele>209.00000000000003</ele><time>2026-04-10T14:03:06Z</time></trkpt><trkpt lat="44.642466652984886" lon="7.9811908044275865"><ele>209.0</ele><time>2026-04-10T14:03:08Z</time></trkpt><trkpt lat="44.642407693727264" lon="7.981246032822333"><ele>209.0</ele><time>2026-04-10T14:03:10Z</time></trkpt><trkpt lat="44.64235923976661" lon="7.981327291245842"><ele>209.0</ele><time>2026-04-10T14:03:12Z</time></trkpt><trkpt lat="44.6422868195062" lon="7.981383880788974"><ele>209.00000000000003</ele><time>2026-04-10T14:03:14Z</time></trkpt><trkpt lat="44.64222565135791" lon="7.981461214261614"><ele>209.0</ele><time>2026-04-10T14:03:16Z</time></trkpt><trkpt lat="44.642169922512814" lon="7.9815466842335745"><ele>209.00000000000003</ele><time>2026-04-10T14:03:18Z</time></trkpt><trkpt lat="44.64211105654417" lon="7.981625718692117"><ele>209.0</ele><time>2026-04-10T14:03:20Z</time></trkpt><trkpt lat="44.64205039931748" lon="7.9816999313057515"><ele>209.0</ele><time>2026-04-10T14:03:22Z</time></trkpt><trkpt lat="44.641983223040256" lon="7.981769058686708"><ele>209.0</ele><time>2026-04-10T14:03:24Z</time></trkpt><trkpt lat="44.641912744368135" lon="7.981827813301509"><ele>209.00000000000003</ele><time>2026-04-10T14:03:26Z</time></trkpt><trkpt lat="44.64184612141207" lon="7.98189285667431"><ele>209.0</ele><time>2026-04-10T14:03:28Z</time></trkpt><trkpt lat="44.64177162151225" lon="7.981940682396535"><ele>209.0</ele><time>2026-04-10T14:03:30Z</time></trkpt><trkpt lat="44.64170445146922" lon="7.9819646925241265"><ele>209.0</ele><time>2026-04-10T14:03:32Z</time></trkpt><trkpt lat="44.641647111004914" lon="7.982016790311044"><ele>209.0</ele><time>2026-04-10T14:03:34Z</time></trkpt><trkpt lat="44.64157802429394" lon="7.982050677624558"><ele>209.0</ele><time>2026-04-10T14:03:36Z</time></trkpt><trkpt lat="44.64150820299387" lon="7.982077596412239"><ele>209.0</ele><time>2026-04-10T14:03:38Z</time></trkpt><trkpt lat="44.64143614397819" lon="7.982107126472627"><ele>209.0</ele><time>2026-04-10T14:03:40Z</time></trkpt><trkpt lat="44.64136399098951" lon="7.982142499130993"><ele>209.0</ele><time>2026-04-10T14:03:42Z</time></trkpt><trkpt lat="44.641296653312295" lon="7.982166452283841"><ele>209.0</ele><time>2026-04-10T14:03:44Z</time></trkpt><trkpt lat="44.64122868414342" lon="7.9821853185928155"><ele>209.0</ele><time>2026-04-10T14:03:46Z</time></trkpt><trkpt lat="44.64115968393598" lon="7.982204809097517"><ele>209.0</ele><time>2026-04-10T14:03:48Z</time></trkpt><trkpt lat="44.641091457316016" lon="7.982233036342135"><ele>209.0</ele><time>2026-04-10T14:03:50Z</time></trkpt><trkpt lat="44.64102652985665" lon="7.982261140690619"><ele>209.0</ele><time>2026-04-10T14:03:52Z</time></trkpt><trkpt lat="44.6409621981115" lon="7.982278582449473"><ele>209.0</ele><time>2026-04-10T14:03:54Z</time></trkpt><trkpt lat="44.64086912630089" lon="7.982316915964352"><ele>209.0</ele><time>2026-04-10T14:03:57Z</time></trkpt><trkpt lat="44.64080308584045" lon="7.982335163359652"><ele>208.83333333333334</ele><time>2026-04-10T14:03:59Z</time></trkpt><trkpt lat="44.64073506504655" lon="7.982361976023387"><ele>208.66666666666669</ele><time>2026-04-10T14:04:01Z</time></trkpt><trkpt lat="44.64066803538332" lon="7.982376668322669"><ele>208.5</ele><time>2026-04-10T14:04:03Z</time></trkpt><trkpt lat="44.64060551810966" lon="7.982398577822976"><ele>208.33333333333331</ele><time>2026-04-10T14:04:05Z</time></trkpt><trkpt lat="44.64051796459623" lon="7.982429261379915"><ele>208.16666666666666</ele><time>2026-04-10T14:04:08Z</time></trkpt><trkpt lat="44.640428039628496" lon="7.982460775724579"><ele>208.0</ele><time>2026-04-10T14:04:11Z</time></trkpt><trkpt lat="44.64036589882124" lon="7.982482552609153"><ele>207.8</ele><time>2026-04-10T14:04:13Z</time></trkpt><trkpt lat="44.6402753592232" lon="7.982514281608953"><ele>207.60000000000002</ele><time>2026-04-10T14:04:16Z</time></trkpt><trkpt lat="44.640188939437984" lon="7.9825402812161235"><ele>207.39999999999998</ele><time>2026-04-10T14:04:19Z</time></trkpt><trkpt lat="44.64015939793969" lon="7.98270097924159"><ele>207.2</ele><time>2026-04-10T14:04:21Z</time></trkpt><trkpt lat="44.640085058315954" lon="7.982733197568936"><ele>207.0</ele><time>2026-04-10T14:04:24Z</time></trkpt><trkpt lat="44.63999255865441" lon="7.982749004930458"><ele>208.83333333333334</ele><time>2026-04-10T14:04:27Z</time></trkpt><trkpt lat="44.63990411982965" lon="7.982780165809216"><ele>210.66666666666669</ele><time>2026-04-10T14:04:30Z</time></trkpt><trkpt lat="44.6398177051896" lon="7.982794689389239"><ele>212.5</ele><time>2026-04-10T14:04:33Z</time></trkpt><trkpt lat="44.6397339694063" lon="7.98281215134177"><ele>214.33333333333334</ele><time>2026-04-10T14:04:36Z</time></trkpt><trkpt lat="44.63964402106482" lon="7.982827148557167"><ele>216.16666666666669</ele><time>2026-04-10T14:04:39Z</time></trkpt><trkpt lat="44.639559530940986" lon="7.98283574198767"><ele>218.0</ele><time>2026-04-10T14:04:42Z</time></trkpt><trkpt lat="44.639476560825045" lon="7.982850958589847"><ele>217.66666666666669</ele><time>2026-04-10T14:04:45Z</time></trkpt><trkpt lat="44.63939297454164" lon="7.982860443392916"><ele>217.33333333333334</ele><time>2026-04-10T14:04:48Z</time></trkpt><trkpt lat="44.63931059918268" lon="7.982874764333054"><ele>217.0</ele><time>2026-04-10T14:04:51Z</time></trkpt><trkpt lat="44.6392306475457" lon="7.982885779884516"><ele>216.66666666666669</ele><time>2026-04-10T14:04:54Z</time></trkpt><trkpt lat="44.6391525408359" lon="7.982900932725969"><ele>216.33333333333334</ele><time>2026-04-10T14:04:57Z</time></trkpt><trkpt lat="44.63907398387181" lon="7.982913664149545"><ele>216.0</ele><time>2026-04-10T14:05:00Z</time></trkpt><trkpt lat="44.63899278079283" lon="7.982919533879977"><ele>216.0</ele><time>2026-04-10T14:05:03Z</time></trkpt><trkpt lat="44.63891126540387" lon="7.9829378349703966"><ele>216.0</ele><time>2026-04-10T14:05:06Z</time></trkpt><trkpt lat="44.63881994731036" lon="7.982939890712268"><ele>216.0</ele><time>2026-04-10T14:05:09Z</time></trkpt><trkpt lat="44.63873755527683" lon="7.982960445090218"><ele>216.0</ele><time>2026-04-10T14:05:12Z</time></trkpt><trkpt lat="44.63865650692682" lon="7.982986779596603"><ele>216.0</ele><time>2026-04-10T14:05:15Z</time></trkpt><trkpt lat="44.63857785180243" lon="7.983032656566164"><ele>216.0</ele><time>2026-04-10T14:05:18Z</time></trkpt><trkpt lat="44.63851158536735" lon="7.983107322075333"><ele>215.57142857142856</ele><time>2026-04-10T14:05:21Z</time></trkpt><trkpt lat="44.63846795374422" lon="7.983178337371109"><ele>215.14285714285714</ele><time>2026-04-10T14:05:24Z</time></trkpt><trkpt lat="44.638429166649715" lon="7.983259712441586"><ele>214.71428571428572</ele><time>2026-04-10T14:05:27Z</time></trkpt><trkpt lat="44.638377439056406" lon="7.9833361469920145"><ele>214.28571428571428</ele><time>2026-04-10T14:05:30Z</time></trkpt><trkpt lat="44.63834657461877" lon="7.983427981377299"><ele>213.85714285714286</ele><time>2026-04-10T14:05:33Z</time></trkpt><trkpt lat="44.63831328697528" lon="7.983524108938352"><ele>213.42857142857142</ele><time>2026-04-10T14:05:36Z</time></trkpt><trkpt lat="44.63828453069746" lon="7.983624329079907"><ele>213.0</ele><time>2026-04-10T14:05:39Z</time></trkpt><trkpt lat="44.63823898033772" lon="7.983716528678125"><ele>214.16666666666666</ele><time>2026-04-10T14:05:42Z</time></trkpt><trkpt lat="44.63821269446939" lon="7.983818992663067"><ele>215.33333333333331</ele><time>2026-04-10T14:05:45Z</time></trkpt><trkpt lat="44.63819147485819" lon="7.983922537262272"><ele>216.5</ele><time>2026-04-10T14:05:48Z</time></trkpt><trkpt lat="44.638176005686674" lon="7.984033810155457"><ele>217.66666666666666</ele><time>2026-04-10T14:05:51Z</time></trkpt><trkpt lat="44.63818051639999" lon="7.984149329516335"><ele>218.83333333333331</ele><time>2026-04-10T14:05:54Z</time></trkpt><trkpt lat="44.63816531756758" lon="7.984249563415227"><ele>220.0</ele><time>2026-04-10T14:05:57Z</time></trkpt><trkpt lat="44.63816747242497" lon="7.984359429656093"><ele>220.42857142857142</ele><time>2026-04-10T14:06:00Z</time></trkpt><trkpt lat="44.638166130166404" lon="7.98447195174436"><ele>220.85714285714286</ele><time>2026-04-10T14:06:04Z</time></trkpt><trkpt lat="44.638173700604476" lon="7.984563769750239"><ele>221.28571428571428</ele><time>2026-04-10T14:06:07Z</time></trkpt><trkpt lat="44.63818139572437" lon="7.984653455276233"><ele>221.71428571428572</ele><time>2026-04-10T14:06:11Z</time></trkpt><trkpt lat="44.638129740200846" lon="7.984712458567967"><ele>222.14285714285714</ele><time>2026-04-10T14:14:59.999Z</time></trkpt><trkpt lat="44.638132613778794" lon="7.984618058469502"><ele>222.57142857142856</ele><time>2026-04-10T14:29:06Z</time></trkpt><trkpt lat="44.63819543091024" lon="7.984662678063083"><ele>223.0</ele><time>2026-04-10T14:31:21.001Z</time></trkpt><trkpt lat="44.638214459876096" lon="7.984748171582093"><ele>223.0</ele><time>2026-04-10T14:31:27.001Z</time></trkpt><trkpt lat="44.63823398347584" lon="7.984846830079678"><ele>223.0</ele><time>2026-04-10T14:31:33.001Z</time></trkpt><trkpt lat="44.638265032907405" lon="7.984942421135876"><ele>223.0</ele><time>2026-04-10T14:31:38.001Z</time></trkpt><trkpt lat="44.63829249753189" lon="7.985042985842673"><ele>223.0</ele><time>2026-04-10T14:31:43.001Z</time></trkpt><trkpt lat="44.638322352890825" lon="7.9851425784166805"><ele>223.0</ele><time>2026-04-10T14:31:48.001Z</time></trkpt><trkpt lat="44.63836511583719" lon="7.9852163746048825"><ele>223.0</ele><time>2026-04-10T14:31:52.001Z</time></trkpt><trkpt lat="44.63839343499275" lon="7.985299825182388"><ele>223.0</ele><time>2026-04-10T14:31:56.001Z</time></trkpt><trkpt lat="44.63842683293246" lon="7.985388617566767"><ele>223.42857142857142</ele><time>2026-04-10T14:32:00.001Z</time></trkpt><trkpt lat="44.63844724427888" lon="7.9854773154137595"><ele>223.85714285714283</ele><time>2026-04-10T14:32:04Z</time></trkpt><trkpt lat="44.63847617256429" lon="7.985575313988112"><ele>224.28571428571428</ele><time>2026-04-10T14:32:08Z</time></trkpt><trkpt lat="44.63850648779853" lon="7.985681270332581"><ele>224.71428571428572</ele><time>2026-04-10T14:32:12Z</time></trkpt><trkpt lat="44.63851979561927" lon="7.985786212990809"><ele>225.14285714285714</ele><time>2026-04-10T14:32:16Z</time></trkpt><trkpt lat="44.63854351490244" lon="7.985888347473585"><ele>225.57142857142858</ele><time>2026-04-10T14:32:20Z</time></trkpt><trkpt lat="44.638566223012454" lon="7.985975211191388"><ele>226.0</ele><time>2026-04-10T14:32:24Z</time></trkpt><trkpt lat="44.6385631087631" lon="7.986076517511293"><ele>226.57142857142858</ele><time>2026-04-10T14:32:28Z</time></trkpt><trkpt lat="44.638580378149236" lon="7.986170620299298"><ele>227.1428571428571</ele><time>2026-04-10T14:32:32Z</time></trkpt><trkpt lat="44.638595240095825" lon="7.986265305620758"><ele>227.7142857142857</ele><time>2026-04-10T14:32:36Z</time></trkpt><trkpt lat="44.63858813040956" lon="7.986362841010176"><ele>228.28571428571428</ele><time>2026-04-10T14:32:40Z</time></trkpt><trkpt lat="44.63858162835702" lon="7.986461634531071"><ele>228.85714285714283</ele><time>2026-04-10T14:32:44Z</time></trkpt><trkpt lat="44.6385774197557" lon="7.986562545119579"><ele>229.4285714285714</ele><time>2026-04-10T14:32:48Z</time></trkpt><trkpt lat="44.63858148871696" lon="7.986669969515751"><ele>229.99999999999997</ele><time>2026-04-10T14:32:52Z</time></trkpt><trkpt lat="44.638577132581794" lon="7.986768487461849"><ele>230.1428571428571</ele><time>2026-04-10T14:32:56Z</time></trkpt><trkpt lat="44.63856706096712" lon="7.98685730243744"><ele>230.28571428571428</ele><time>2026-04-10T14:33:00Z</time></trkpt><trkpt lat="44.638558620105734" lon="7.986952450970135"><ele>230.42857142857142</ele><time>2026-04-10T14:33:04Z</time></trkpt><trkpt lat="44.63856432548686" lon="7.987050787006584"><ele>230.57142857142856</ele><time>2026-04-10T14:33:08Z</time></trkpt><trkpt lat="44.63855459979778" lon="7.987149768430714"><ele>230.71428571428572</ele><time>2026-04-10T14:33:12Z</time></trkpt><trkpt lat="44.638561860017624" lon="7.987246125406625"><ele>230.85714285714286</ele><time>2026-04-10T14:33:16Z</time></trkpt><trkpt lat="44.638555852457735" lon="7.987344826317275"><ele>231.0</ele><time>2026-04-10T14:33:20.001Z</time></trkpt><trkpt lat="44.63856386574391" lon="7.987435935025915"><ele>231.71428571428572</ele><time>2026-04-10T14:33:24.001Z</time></trkpt><trkpt lat="44.63855968642442" lon="7.987540274364661"><ele>232.42857142857144</ele><time>2026-04-10T14:33:29.001Z</time></trkpt><trkpt lat="44.63856346009325" lon="7.987648631242052"><ele>233.14285714285714</ele><time>2026-04-10T14:33:34.001Z</time></trkpt><trkpt lat="44.638558964991766" lon="7.987758272952256"><ele>233.85714285714286</ele><time>2026-04-10T14:33:39.001Z</time></trkpt><trkpt lat="44.638556058481655" lon="7.987865053956394"><ele>234.57142857142858</ele><time>2026-04-10T14:33:44.001Z</time></trkpt><trkpt lat="44.63854342739793" lon="7.987953799920467"><ele>235.28571428571428</ele><time>2026-04-10T14:33:48.001Z</time></trkpt><trkpt lat="44.63852035547464" lon="7.988053194694293"><ele>236.0</ele><time>2026-04-10T14:33:53.001Z</time></trkpt><trkpt lat="44.638548925350335" lon="7.9881365040470795"><ele>236.0</ele><time>2026-04-10T14:33:58Z</time></trkpt><trkpt lat="44.63861606972086" lon="7.988106312767451"><ele>236.0</ele><time>2026-04-10T14:34:03Z</time></trkpt><trkpt lat="44.63865140464999" lon="7.988003562864741"><ele>236.0</ele><time>2026-04-10T14:34:08Z</time></trkpt><trkpt lat="44.63868019127637" lon="7.987916518783"><ele>236.0</ele><time>2026-04-10T14:34:12Z</time></trkpt><trkpt lat="44.638705667238895" lon="7.987828481174404"><ele>236.0</ele><time>2026-04-10T14:34:16Z</time></trkpt><trkpt lat="44.63873896789497" lon="7.9877349169153575"><ele>236.0</ele><time>2026-04-10T14:34:21Z</time></trkpt><trkpt lat="44.63874423037321" lon="7.987636764087458"><ele>236.0</ele><time>2026-04-10T14:34:25Z</time></trkpt><trkpt lat="44.638757793900645" lon="7.987527578911726"><ele>238.00000000000003</ele><time>2026-04-10T14:34:29Z</time></trkpt><trkpt lat="44.63876773488611" lon="7.987422931217981"><ele>240.0</ele><time>2026-04-10T14:34:33Z</time></trkpt><trkpt lat="44.63878442542682" lon="7.98733731535128"><ele>242.0</ele><time>2026-04-10T14:34:36Z</time></trkpt><trkpt lat="44.63880761795338" lon="7.987227101555855"><ele>244.0</ele><time>2026-04-10T14:34:40Z</time></trkpt><trkpt lat="44.638816904665696" lon="7.987121233041269"><ele>246.00000000000003</ele><time>2026-04-10T14:34:44Z</time></trkpt><trkpt lat="44.638820194326925" lon="7.987009468129758"><ele>248.0</ele><time>2026-04-10T14:34:48Z</time></trkpt><trkpt lat="44.63883852416636" lon="7.986900788568738"><ele>248.00000000000003</ele><time>2026-04-10T14:34:52Z</time></trkpt><trkpt lat="44.63885696990697" lon="7.986793547921264"><ele>248.0</ele><time>2026-04-10T14:34:56Z</time></trkpt><trkpt lat="44.63887500443975" lon="7.986681169992893"><ele>248.0</ele><time>2026-04-10T14:35:00Z</time></trkpt><trkpt lat="44.63888712283031" lon="7.986590243136418"><ele>248.0</ele><time>2026-04-10T14:35:03Z</time></trkpt><trkpt lat="44.63889325515906" lon="7.986479349789405"><ele>248.00000000000003</ele><time>2026-04-10T14:35:06Z</time></trkpt><trkpt lat="44.63891563646464" lon="7.986369713183914"><ele>248.0</ele><time>2026-04-10T14:35:09Z</time></trkpt><trkpt lat="44.63891624722861" lon="7.986250046904812"><ele>247.42857142857144</ele><time>2026-04-10T14:35:12Z</time></trkpt><trkpt lat="44.63893653871591" lon="7.986147510610275"><ele>246.8571428571429</ele><time>2026-04-10T14:35:15Z</time></trkpt><trkpt lat="44.638945801175154" lon="7.986056156069272"><ele>246.28571428571428</ele><time>2026-04-10T14:35:18Z</time></trkpt><trkpt lat="44.63895945159035" lon="7.985947947041411"><ele>245.71428571428572</ele><time>2026-04-10T14:35:22Z</time></trkpt><trkpt lat="44.638967450552286" lon="7.9858473586387"><ele>245.14285714285714</ele><time>2026-04-10T14:35:26Z</time></trkpt><trkpt lat="44.63897628227292" lon="7.985735518168835"><ele>244.57142857142856</ele><time>2026-04-10T14:35:30Z</time></trkpt><trkpt lat="44.638982348763655" lon="7.985640644654098"><ele>243.99999999999997</ele><time>2026-04-10T14:35:33Z</time></trkpt><trkpt lat="44.63897944876589" lon="7.9855436983012"><ele>243.57142857142856</ele><time>2026-04-10T14:35:36Z</time></trkpt><trkpt lat="44.63895468383138" lon="7.985431483133849"><ele>243.14285714285714</ele><time>2026-04-10T14:35:40Z</time></trkpt><trkpt lat="44.63895337009255" lon="7.985334143613238"><ele>242.71428571428572</ele><time>2026-04-10T14:35:44Z</time></trkpt><trkpt lat="44.63893238893629" lon="7.9852480684860145"><ele>242.28571428571428</ele><time>2026-04-10T14:35:48Z</time></trkpt><trkpt lat="44.63890459439282" lon="7.985160772240634"><ele>241.8571428571429</ele><time>2026-04-10T14:35:52Z</time></trkpt><trkpt lat="44.63886977074975" lon="7.98506347076965"><ele>241.42857142857144</ele><time>2026-04-10T14:35:57Z</time></trkpt><trkpt lat="44.63885163467089" lon="7.984965377991224"><ele>241.0</ele><time>2026-04-10T14:36:01Z</time></trkpt><trkpt lat="44.638835369408795" lon="7.9848697853991215"><ele>241.0</ele><time>2026-04-10T14:36:05Z</time></trkpt><trkpt lat="44.63883285387744" lon="7.98476939714796"><ele>241.00000000000003</ele><time>2026-04-10T14:36:10Z</time></trkpt><trkpt lat="44.63883462943828" lon="7.98467085288076"><ele>241.0</ele><time>2026-04-10T14:36:15Z</time></trkpt><trkpt lat="44.63885611688842" lon="7.9845873307022455"><ele>241.0</ele><time>2026-04-10T14:36:20Z</time></trkpt><trkpt lat="44.63889737091055" lon="7.984512302521886"><ele>241.00000000000003</ele><time>2026-04-10T14:36:26Z</time></trkpt><trkpt lat="44.63895971518681" lon="7.984484146134772"><ele>241.0</ele><time>2026-04-10T14:36:32Z</time></trkpt><trkpt lat="44.639028315781594" lon="7.9844751403439815"><ele>241.0</ele><time>2026-04-10T14:36:38Z</time></trkpt><trkpt lat="44.63910018734374" lon="7.984493195039536"><ele>241.0</ele><time>2026-04-10T14:36:45Z</time></trkpt><trkpt lat="44.63916289587181" lon="7.984527613080135"><ele>241.00000000000003</ele><time>2026-04-10T14:36:51Z</time></trkpt><trkpt lat="44.639226731991975" lon="7.984568048459789"><ele>241.0</ele><time>2026-04-10T14:36:57Z</time></trkpt><trkpt lat="44.63928659671051" lon="7.984608942985166"><ele>241.0</ele><time>2026-04-10T14:37:03Z</time></trkpt><trkpt lat="44.639343980648036" lon="7.98465050609667"><ele>241.00000000000003</ele><time>2026-04-10T14:37:09Z</time></trkpt><trkpt lat="44.63940269859212" lon="7.984688848901098"><ele>241.0</ele><time>2026-04-10T14:37:15Z</time></trkpt><trkpt lat="44.639462688213996" lon="7.984724174425129"><ele>241.0</ele><time>2026-04-10T14:37:21Z</time></trkpt><trkpt lat="44.639533268197546" lon="7.984739777666147"><ele>243.0</ele><time>2026-04-10T14:37:27Z</time></trkpt><trkpt lat="44.639597814236154" lon="7.984743766061487"><ele>245.00000000000003</ele><time>2026-04-10T14:37:32Z</time></trkpt><trkpt lat="44.639667309956344" lon="7.984739138630132"><ele>247.0</ele><time>2026-04-10T14:37:37Z</time></trkpt><trkpt lat="44.639735963749146" lon="7.984736808671815"><ele>249.0</ele><time>2026-04-10T14:37:42Z</time></trkpt><trkpt lat="44.639812522355655" lon="7.9847303832121925"><ele>251.00000000000003</ele><time>2026-04-10T14:37:48Z</time></trkpt><trkpt lat="44.639887692988374" lon="7.98471531120408"><ele>253.0</ele><time>2026-04-10T14:37:54Z</time></trkpt><trkpt lat="44.639954422698125" lon="7.984700884104063"><ele>255.0</ele><time>2026-04-10T14:37:59Z</time></trkpt><trkpt lat="44.64001514366957" lon="7.984674415882136"><ele>255.0</ele><time>2026-04-10T14:38:03Z</time></trkpt><trkpt lat="44.64007941622564" lon="7.984657162721646"><ele>255.00000000000003</ele><time>2026-04-10T14:38:07Z</time></trkpt><trkpt lat="44.640141282137655" lon="7.984639340074818"><ele>255.0</ele><time>2026-04-10T14:38:10Z</time></trkpt><trkpt lat="44.64021363895678" lon="7.98462670960207"><ele>255.0</ele><time>2026-04-10T14:38:13Z</time></trkpt><trkpt lat="44.64029320651516" lon="7.984612024406371"><ele>255.00000000000003</ele><time>2026-04-10T14:38:16Z</time></trkpt><trkpt lat="44.64035745972238" lon="7.984611304309668"><ele>255.0</ele><time>2026-04-10T14:38:18Z</time></trkpt><trkpt lat="44.64042463548186" lon="7.984609981147787"><ele>255.0</ele><time>2026-04-10T14:38:21Z</time></trkpt><trkpt lat="44.64049559169944" lon="7.984604974998278"><ele>254.85714285714286</ele><time>2026-04-10T14:38:24Z</time></trkpt><trkpt lat="44.64056491974467" lon="7.984610653509022"><ele>254.71428571428572</ele><time>2026-04-10T14:38:27Z</time></trkpt><trkpt lat="44.64064877329161" lon="7.984625555634704"><ele>254.57142857142858</ele><time>2026-04-10T14:38:31Z</time></trkpt><trkpt lat="44.640717582967746" lon="7.984647700999812"><ele>254.42857142857144</ele><time>2026-04-10T14:38:34Z</time></trkpt><trkpt lat="44.640765435712716" lon="7.984709680441541"><ele>254.28571428571428</ele><time>2026-04-10T14:38:37Z</time></trkpt><trkpt lat="44.640781881502406" lon="7.984800639939407"><ele>254.14285714285717</ele><time>2026-04-10T14:38:41Z</time></trkpt><trkpt lat="44.64080086362913" lon="7.984904733768327"><ele>254.0</ele><time>2026-04-10T14:38:45Z</time></trkpt><trkpt lat="44.64080021650497" lon="7.985023383502559"><ele>254.0</ele><time>2026-04-10T14:38:49Z</time></trkpt><trkpt lat="44.640798551887016" lon="7.985121683764385"><ele>254.0</ele><time>2026-04-10T14:38:53Z</time></trkpt><trkpt lat="44.640788629998454" lon="7.985230609409265"><ele>254.0</ele><time>2026-04-10T14:38:57Z</time></trkpt><trkpt lat="44.64077241585572" lon="7.985327076190322"><ele>254.0</ele><time>2026-04-10T14:39:01Z</time></trkpt><trkpt lat="44.6407688682683" lon="7.9854254041263415"><ele>254.0</ele><time>2026-04-10T14:39:05Z</time></trkpt><trkpt lat="44.64075321320599" lon="7.98551196703399"><ele>254.0</ele><time>2026-04-10T14:39:09Z</time></trkpt><trkpt lat="44.64074610111783" lon="7.985602101831615"><ele>254.0</ele><time>2026-04-10T14:39:13Z</time></trkpt><trkpt lat="44.640747396391866" lon="7.98569826044649"><ele>254.0</ele><time>2026-04-10T14:39:17Z</time></trkpt><trkpt lat="44.640755006483914" lon="7.985792643478745"><ele>254.0</ele><time>2026-04-10T14:39:21Z</time></trkpt><trkpt lat="44.64076932980609" lon="7.985891038474504"><ele>254.0</ele><time>2026-04-10T14:39:25Z</time></trkpt><trkpt lat="44.64078378561896" lon="7.985986010082177"><ele>254.0</ele><time>2026-04-10T14:39:29Z</time></trkpt><trkpt lat="44.6408058487737" lon="7.986079398516629"><ele>254.0</ele><time>2026-04-10T14:39:33Z</time></trkpt><trkpt lat="44.64083511377095" lon="7.98617624521905"><ele>254.0</ele><time>2026-04-10T14:39:37Z</time></trkpt><trkpt lat="44.64085884010385" lon="7.986263582484146"><ele>254.0</ele><time>2026-04-10T14:39:41Z</time></trkpt><trkpt lat="44.64089632386809" lon="7.9863461333789925"><ele>254.71428571428572</ele><time>2026-04-10T14:39:45Z</time></trkpt><trkpt lat="44.64094110932329" lon="7.986429653381079"><ele>255.42857142857142</ele><time>2026-04-10T14:39:49Z</time></trkpt><trkpt lat="44.64100081440152" lon="7.9864851612629915"><ele>256.1428571428571</ele><time>2026-04-10T14:39:53Z</time></trkpt><trkpt lat="44.64105864654957" lon="7.986533414660188"><ele>256.8571428571429</ele><time>2026-04-10T14:39:57Z</time></trkpt><trkpt lat="44.64112585961437" lon="7.986565773149522"><ele>257.57142857142856</ele><time>2026-04-10T14:40:01Z</time></trkpt><trkpt lat="44.64119007918472" lon="7.986595654818387"><ele>258.2857142857143</ele><time>2026-04-10T14:40:05Z</time></trkpt><trkpt lat="44.64125956228925" lon="7.986619613672775"><ele>259.0</ele><time>2026-04-10T14:40:09Z</time></trkpt><trkpt lat="44.641331164434234" lon="7.98663861779673"><ele>259.0</ele><time>2026-04-10T14:40:13Z</time></trkpt><trkpt lat="44.64140321719428" lon="7.986671058301664"><ele>259.0</ele><time>2026-04-10T14:40:17Z</time></trkpt><trkpt lat="44.6414779909986" lon="7.986689608002532"><ele>259.0</ele><time>2026-04-10T14:40:21Z</time></trkpt><trkpt lat="44.64155270116034" lon="7.9867154021205256"><ele>259.0</ele><time>2026-04-10T14:40:25Z</time></trkpt><trkpt lat="44.64162423622071" lon="7.986734285258005"><ele>259.0</ele><time>2026-04-10T14:40:29Z</time></trkpt><trkpt lat="44.64169236821289" lon="7.986754903430946"><ele>259.0</ele><time>2026-04-10T14:40:33Z</time></trkpt><trkpt lat="44.64175832733504" lon="7.986773268999562"><ele>259.0</ele><time>2026-04-10T14:40:37Z</time></trkpt><trkpt lat="44.641821499886525" lon="7.986798733158499"><ele>260.14285714285717</ele><time>2026-04-10T14:40:41Z</time></trkpt><trkpt lat="44.641841110193845" lon="7.98690042698847"><ele>261.2857142857143</ele><time>2026-04-10T14:40:46Z</time></trkpt><trkpt lat="44.641816961153964" lon="7.9870039251816705"><ele>262.42857142857144</ele><time>2026-04-10T14:40:50Z</time></trkpt><trkpt lat="44.64179785127583" lon="7.987096880989018"><ele>263.57142857142856</ele><time>2026-04-10T14:40:54Z</time></trkpt><trkpt lat="44.64177873290004" lon="7.987188597164069"><ele>264.7142857142857</ele><time>2026-04-10T14:40:58Z</time></trkpt><trkpt lat="44.64175468253333" lon="7.987293403108234"><ele>265.8571428571429</ele><time>2026-04-10T14:41:02Z</time></trkpt><trkpt lat="44.64173142124159" lon="7.987384596499679"><ele>267.0</ele><time>2026-04-10T14:41:06Z</time></trkpt><trkpt lat="44.64170936248718" lon="7.987482981054789"><ele>267.00000000000006</ele><time>2026-04-10T14:41:10Z</time></trkpt><trkpt lat="44.64168733834408" lon="7.987576750521896"><ele>267.0</ele><time>2026-04-10T14:41:14Z</time></trkpt><trkpt lat="44.64166837457413" lon="7.987679204053827"><ele>267.0</ele><time>2026-04-10T14:41:18Z</time></trkpt><trkpt lat="44.641646447422374" lon="7.9877799815349455"><ele>267.0</ele><time>2026-04-10T14:41:23Z</time></trkpt><trkpt lat="44.641626969550764" lon="7.987866189214933"><ele>267.0</ele><time>2026-04-10T14:41:27Z</time></trkpt><trkpt lat="44.64160784398893" lon="7.98796906635742"><ele>267.00000000000006</ele><time>2026-04-10T14:41:32Z</time></trkpt><trkpt lat="44.6415828292574" lon="7.988050593623042"><ele>267.0</ele><time>2026-04-10T14:41:36Z</time></trkpt><trkpt lat="44.64156764790945" lon="7.988143933670475"><ele>267.00000000000006</ele><time>2026-04-10T14:41:41Z</time></trkpt><trkpt lat="44.64154370157593" lon="7.988228038619814"><ele>267.0</ele><time>2026-04-10T14:41:46Z</time></trkpt><trkpt lat="44.64152418581332" lon="7.988316767682867"><ele>267.0</ele><time>2026-04-10T14:41:51Z</time></trkpt><trkpt lat="44.641503573018625" lon="7.988403387755652"><ele>267.0</ele><time>2026-04-10T14:41:56Z</time></trkpt><trkpt lat="44.64147570869032" lon="7.988500829356157"><ele>267.0</ele><time>2026-04-10T14:42:02Z</time></trkpt><trkpt lat="44.641456331144056" lon="7.988595668717969"><ele>267.00000000000006</ele><time>2026-04-10T14:42:08Z</time></trkpt><trkpt lat="44.64143157229357" lon="7.988681957373475"><ele>267.0</ele><time>2026-04-10T14:42:13Z</time></trkpt><trkpt lat="44.64141107693837" lon="7.988768510870191"><ele>266.5714285714286</ele><time>2026-04-10T14:42:18Z</time></trkpt><trkpt lat="44.64138869859281" lon="7.98886369636168"><ele>266.14285714285717</ele><time>2026-04-10T14:42:23Z</time></trkpt><trkpt lat="44.64136810473198" lon="7.988953362093209"><ele>265.7142857142857</ele><time>2026-04-10T14:42:28Z</time></trkpt><trkpt lat="44.64134018058381" lon="7.989045754630312"><ele>265.28571428571433</ele><time>2026-04-10T14:42:33Z</time></trkpt><trkpt lat="44.641317028886625" lon="7.989134784535775"><ele>264.8571428571429</ele><time>2026-04-10T14:42:38Z</time></trkpt><trkpt lat="44.64129462868299" lon="7.989218012387288"><ele>264.42857142857144</ele><time>2026-04-10T14:42:42Z</time></trkpt><trkpt lat="44.64127138877668" lon="7.989315027073415"><ele>264.0</ele><time>2026-04-10T14:42:47Z</time></trkpt><trkpt lat="44.641243659218496" lon="7.9894123440894464"><ele>262.85714285714283</ele><time>2026-04-10T14:42:52Z</time></trkpt><trkpt lat="44.64121553693427" lon="7.989504413199833"><ele>261.7142857142857</ele><time>2026-04-10T14:42:57Z</time></trkpt><trkpt lat="44.64117711053746" lon="7.989580921674637"><ele>260.57142857142856</ele><time>2026-04-10T14:43:02Z</time></trkpt><trkpt lat="44.641129099074654" lon="7.989642689063179"><ele>259.42857142857144</ele><time>2026-04-10T14:43:06Z</time></trkpt><trkpt lat="44.6410685976254" lon="7.989693902683956"><ele>258.2857142857143</ele><time>2026-04-10T14:43:11Z</time></trkpt><trkpt lat="44.64100600574424" lon="7.989748727686584"><ele>257.1428571428571</ele><time>2026-04-10T14:43:15Z</time></trkpt><trkpt lat="44.640942817631" lon="7.989803879602706"><ele>256.0</ele><time>2026-04-10T14:43:19Z</time></trkpt><trkpt lat="44.640882958674275" lon="7.989845583023155"><ele>256.7142857142857</ele><time>2026-04-10T14:43:23Z</time></trkpt><trkpt lat="44.64082464337478" lon="7.989888596927486"><ele>257.4285714285714</ele><time>2026-04-10T14:43:27Z</time></trkpt><trkpt lat="44.640766896414" lon="7.989926194854563"><ele>258.1428571428571</ele><time>2026-04-10T14:43:31Z</time></trkpt><trkpt lat="44.64070617715043" lon="7.989955533960484"><ele>258.85714285714283</ele><time>2026-04-10T14:43:35Z</time></trkpt><trkpt lat="44.64064650717842" lon="7.990010918234847"><ele>259.57142857142856</ele><time>2026-04-10T14:43:39Z</time></trkpt><trkpt lat="44.64057581526116" lon="7.990060180851668"><ele>260.2857142857143</ele><time>2026-04-10T14:43:43Z</time></trkpt><trkpt lat="44.64050543732269" lon="7.990108166543696"><ele>261.0</ele><time>2026-04-10T14:43:47Z</time></trkpt><trkpt lat="44.64044969367706" lon="7.990149508954639"><ele>261.0</ele><time>2026-04-10T14:43:50Z</time></trkpt><trkpt lat="44.64039312017287" lon="7.990192247563462"><ele>261.0</ele><time>2026-04-10T14:43:53Z</time></trkpt><trkpt lat="44.640323469673255" lon="7.990232105726123"><ele>261.0</ele><time>2026-04-10T14:43:56Z</time></trkpt><trkpt lat="44.640261923036064" lon="7.990271171610926"><ele>261.0</ele><time>2026-04-10T14:43:59Z</time></trkpt><trkpt lat="44.640184762308365" lon="7.990321418727771"><ele>261.0</ele><time>2026-04-10T14:44:03Z</time></trkpt><trkpt lat="44.640110464221436" lon="7.990375620125634"><ele>261.0</ele><time>2026-04-10T14:44:07Z</time></trkpt><trkpt lat="44.64004150855264" lon="7.990423861230716"><ele>263.7142857142857</ele><time>2026-04-10T14:44:11Z</time></trkpt><trkpt lat="44.6399784327893" lon="7.9904768932894426"><ele>266.42857142857144</ele><time>2026-04-10T14:44:15Z</time></trkpt><trkpt lat="44.63991727230068" lon="7.990542579425036"><ele>269.1428571428571</ele><time>2026-04-10T14:44:19Z</time></trkpt><trkpt lat="44.639855319893314" lon="7.990598786940079"><ele>271.8571428571429</ele><time>2026-04-10T14:44:23Z</time></trkpt><trkpt lat="44.6397984079354" lon="7.990640119563943"><ele>274.57142857142856</ele><time>2026-04-10T14:44:27Z</time></trkpt><trkpt lat="44.63974406358021" lon="7.990697268231326"><ele>277.2857142857143</ele><time>2026-04-10T14:44:32Z</time></trkpt><trkpt lat="44.63967246322699" lon="7.990740811907607"><ele>280.0</ele><time>2026-04-10T14:44:37Z</time></trkpt><trkpt lat="44.63959433494628" lon="7.990746706674085"><ele>280.0</ele><time>2026-04-10T14:44:42Z</time></trkpt><trkpt lat="44.63955301359034" lon="7.990658014617679"><ele>280.0</ele><time>2026-04-10T14:44:47Z</time></trkpt><trkpt lat="44.63949761090285" lon="7.990593972590194"><ele>280.0</ele><time>2026-04-10T14:44:52Z</time></trkpt><trkpt lat="44.63943527055723" lon="7.990634773544836"><ele>280.0</ele><time>2026-04-10T14:44:57Z</time></trkpt><trkpt lat="44.639377365589496" lon="7.9907010705426185"><ele>280.0</ele><time>2026-04-10T14:45:02Z</time></trkpt><trkpt lat="44.63931853395024" lon="7.9907662387176"><ele>280.0</ele><time>2026-04-10T14:45:07Z</time></trkpt><trkpt lat="44.63925980020117" lon="7.990840487609286"><ele>280.0</ele><time>2026-04-10T14:45:12Z</time></trkpt><trkpt lat="44.63920592892024" lon="7.990917919159681"><ele>282.0</ele><time>2026-04-10T14:45:17Z</time></trkpt><trkpt lat="44.63916399544832" lon="7.991002356481584"><ele>284.0</ele><time>2026-04-10T14:45:22Z</time></trkpt><trkpt lat="44.63912317262478" lon="7.991078374393735"><ele>286.0</ele><time>2026-04-10T14:45:26Z</time></trkpt><trkpt lat="44.63908932968894" lon="7.991153346024797"><ele>288.0</ele><time>2026-04-10T14:45:30Z</time></trkpt><trkpt lat="44.63905279539255" lon="7.991231398277483"><ele>290.0</ele><time>2026-04-10T14:45:34Z</time></trkpt><trkpt lat="44.63902017101698" lon="7.991309803126499"><ele>292.0</ele><time>2026-04-10T14:45:38Z</time></trkpt><trkpt lat="44.63897622513952" lon="7.991396696084408"><ele>294.0</ele><time>2026-04-10T14:45:43Z</time></trkpt><trkpt lat="44.638936961903184" lon="7.991486660349658"><ele>294.0</ele><time>2026-04-10T14:45:48Z</time></trkpt><trkpt lat="44.63888492315911" lon="7.99159135131432"><ele>294.0</ele><time>2026-04-10T14:46:23Z</time></trkpt><trkpt lat="44.6388500857653" lon="7.9916673871546715"><ele>294.0</ele><time>2026-04-10T14:46:29Z</time></trkpt><trkpt lat="44.638815484968056" lon="7.991745623491815"><ele>294.0</ele><time>2026-04-10T14:46:33Z</time></trkpt><trkpt lat="44.638776820922835" lon="7.9918294397205045"><ele>294.0</ele><time>2026-04-10T14:46:37Z</time></trkpt><trkpt lat="44.6387372749712" lon="7.991905562146048"><ele>294.0</ele><time>2026-04-10T14:46:41Z</time></trkpt><trkpt lat="44.638693300233385" lon="7.991991645038927"><ele>294.0</ele><time>2026-04-10T14:46:46Z</time></trkpt><trkpt lat="44.638650688181826" lon="7.992084254885273"><ele>293.8333333333333</ele><time>2026-04-10T14:46:51Z</time></trkpt><trkpt lat="44.63861557269783" lon="7.992159960573177"><ele>293.6666666666667</ele><time>2026-04-10T14:46:55Z</time></trkpt><trkpt lat="44.63858167090577" lon="7.992244002339027"><ele>293.5</ele><time>2026-04-10T14:46:59Z</time></trkpt><trkpt lat="44.638548866490694" lon="7.992322575377427"><ele>293.33333333333337</ele><time>2026-04-10T14:47:03Z</time></trkpt><trkpt lat="44.63851329096809" lon="7.9924107145462795"><ele>293.1666666666667</ele><time>2026-04-10T14:47:07Z</time></trkpt><trkpt lat="44.63845588135381" lon="7.992516676059037"><ele>293.0</ele><time>2026-04-10T14:47:10Z</time></trkpt><trkpt lat="44.63839102783921" lon="7.992606732617446"><ele>292.2</ele><time>2026-04-10T14:47:12Z</time></trkpt><trkpt lat="44.6383121459654" lon="7.9927033152689715"><ele>291.4</ele><time>2026-04-10T14:47:14Z</time></trkpt><trkpt lat="44.63821682560443" lon="7.992787726237478"><ele>290.59999999999997</ele><time>2026-04-10T14:47:16Z</time></trkpt><trkpt lat="44.63813402080196" lon="7.992891130863655"><ele>289.8</ele><time>2026-04-10T14:47:18Z</time></trkpt><trkpt lat="44.63805196873728" lon="7.992997091487974"><ele>289.0</ele><time>2026-04-10T14:47:20Z</time></trkpt><trkpt lat="44.63798750380714" lon="7.993116654628689"><ele>289.0</ele><time>2026-04-10T14:47:22Z</time></trkpt><trkpt lat="44.63793099642034" lon="7.9932266676169315"><ele>289.0</ele><time>2026-04-10T14:47:24Z</time></trkpt><trkpt lat="44.63787881407951" lon="7.993316060116423"><ele>289.0</ele><time>2026-04-10T14:47:26Z</time></trkpt><trkpt lat="44.63783318944165" lon="7.993404897514591"><ele>289.0</ele><time>2026-04-10T14:47:29Z</time></trkpt><trkpt lat="44.637787263335454" lon="7.993473744254436"><ele>289.0</ele><time>2026-04-10T14:47:33Z</time></trkpt><trkpt lat="44.63774414718333" lon="7.9935452525815265"><ele>289.0</ele><time>2026-04-10T14:47:37Z</time></trkpt><trkpt lat="44.63769421826892" lon="7.993630922391518"><ele>290.57142857142856</ele><time>2026-04-10T14:47:42Z</time></trkpt><trkpt lat="44.63763580405845" lon="7.993704700737739"><ele>292.1428571428571</ele><time>2026-04-10T14:47:47Z</time></trkpt><trkpt lat="44.63760619726224" lon="7.9937938920140965"><ele>293.71428571428567</ele><time>2026-04-10T14:47:52Z</time></trkpt><trkpt lat="44.63755849086383" lon="7.9938583843632145"><ele>295.2857142857143</ele><time>2026-04-10T14:48:20Z</time></trkpt><trkpt lat="44.637521056092226" lon="7.993935231820584"><ele>296.85714285714283</ele><time>2026-04-10T14:48:26Z</time></trkpt><trkpt lat="44.63748407694199" lon="7.994013223378693"><ele>298.4285714285714</ele><time>2026-04-10T14:48:32Z</time></trkpt><trkpt lat="44.637445830042886" lon="7.994090548982586"><ele>300.0</ele><time>2026-04-10T14:48:38Z</time></trkpt><trkpt lat="44.63740488031063" lon="7.994161127241149"><ele>300.2857142857143</ele><time>2026-04-10T14:48:44Z</time></trkpt><trkpt lat="44.63735772342319" lon="7.9942276211426675"><ele>300.57142857142856</ele><time>2026-04-10T14:48:52Z</time></trkpt><trkpt lat="44.63734067429432" lon="7.994317487885554"><ele>300.8571428571429</ele><time>2026-04-10T14:50:05Z</time></trkpt><trkpt lat="44.63731872935845" lon="7.994405642310182"><ele>301.1428571428571</ele><time>2026-04-10T14:50:12Z</time></trkpt><trkpt lat="44.63728927219814" lon="7.994491788779044"><ele>301.42857142857144</ele><time>2026-04-10T14:50:19Z</time></trkpt><trkpt lat="44.63724087953962" lon="7.9945716958853925"><ele>301.7142857142857</ele><time>2026-04-10T14:50:26Z</time></trkpt><trkpt lat="44.637193914459914" lon="7.994640696027857"><ele>302.0</ele><time>2026-04-10T14:50:34Z</time></trkpt><trkpt lat="44.63713865361764" lon="7.994715275480298"><ele>302.00000000000006</ele><time>2026-04-10T14:52:01Z</time></trkpt><trkpt lat="44.63707066104699" lon="7.994779735805292"><ele>302.0</ele><time>2026-04-10T14:52:06Z</time></trkpt><trkpt lat="44.636999600153345" lon="7.994802895012319"><ele>302.0</ele><time>2026-04-10T14:52:09Z</time></trkpt><trkpt lat="44.636937311086804" lon="7.994842184077961"><ele>302.0</ele><time>2026-04-10T14:52:12Z</time></trkpt><trkpt lat="44.63687871172563" lon="7.9948763538472765"><ele>302.0</ele><time>2026-04-10T14:52:15Z</time></trkpt><trkpt lat="44.63682495387602" lon="7.994930061141511"><ele>302.00000000000006</ele><time>2026-04-10T14:52:18Z</time></trkpt><trkpt lat="44.636749375570844" lon="7.994962859324423"><ele>302.0</ele><time>2026-04-10T14:52:22Z</time></trkpt><trkpt lat="44.636680743011944" lon="7.994991715834928"><ele>302.5714285714286</ele><time>2026-04-10T14:52:26Z</time></trkpt><trkpt lat="44.63661276952331" lon="7.995010879272309"><ele>303.14285714285717</ele><time>2026-04-10T14:52:30Z</time></trkpt><trkpt lat="44.636546252328394" lon="7.995003040426006"><ele>303.7142857142857</ele><time>2026-04-10T14:52:34Z</time></trkpt><trkpt lat="44.63647449964067" lon="7.995021635624021"><ele>304.28571428571433</ele><time>2026-04-10T14:52:38Z</time></trkpt><trkpt lat="44.636409635487865" lon="7.9950451527056945"><ele>304.8571428571429</ele><time>2026-04-10T14:52:42Z</time></trkpt><trkpt lat="44.63634033940187" lon="7.995072350716729"><ele>305.42857142857144</ele><time>2026-04-10T14:52:46Z</time></trkpt><trkpt lat="44.63627764418547" lon="7.995097683361523"><ele>306.0</ele><time>2026-04-10T14:52:49.999Z</time></trkpt><trkpt lat="44.636215783340546" lon="7.99512267883458"><ele>306.1428571428571</ele><time>2026-04-10T14:52:53.999Z</time></trkpt><trkpt lat="44.63614913387893" lon="7.995146089256469"><ele>306.2857142857143</ele><time>2026-04-10T14:52:58.999Z</time></trkpt><trkpt lat="44.63608304540479" lon="7.995165939166874"><ele>306.42857142857144</ele><time>2026-04-10T14:53:09Z</time></trkpt><trkpt lat="44.63601602199216" lon="7.995178990272895"><ele>306.57142857142856</ele><time>2026-04-10T14:53:18Z</time></trkpt><trkpt lat="44.635952909882185" lon="7.995174091374534"><ele>306.7142857142857</ele><time>2026-04-10T14:53:30Z</time></trkpt><trkpt lat="44.635891220508064" lon="7.9951455927900055"><ele>306.85714285714283</ele><time>2026-04-10T14:53:52Z</time></trkpt><trkpt lat="44.635824997878835" lon="7.995080359084894"><ele>307.0</ele><time>2026-04-10T14:53:58Z</time></trkpt><trkpt lat="44.63575383846975" lon="7.995027185512206"><ele>307.66666666666663</ele><time>2026-04-10T14:54:02Z</time></trkpt><trkpt lat="44.63566531546336" lon="7.994988963674592"><ele>308.3333333333333</ele><time>2026-04-10T14:54:05Z</time></trkpt><trkpt lat="44.63559142663287" lon="7.994917760029455"><ele>309.0</ele><time>2026-04-10T14:54:08Z</time></trkpt><trkpt lat="44.635530262683865" lon="7.994836225002962"><ele>309.6666666666667</ele><time>2026-04-10T14:54:11Z</time></trkpt><trkpt lat="44.635474136504385" lon="7.994765586651326"><ele>310.33333333333337</ele><time>2026-04-10T14:54:14Z</time></trkpt><trkpt lat="44.63542924637823" lon="7.994699281018652"><ele>311.0</ele><time>2026-04-10T14:54:17Z</time></trkpt><trkpt lat="44.63537671256247" lon="7.994606393325522"><ele>311.0</ele><time>2026-04-10T14:54:20Z</time></trkpt><trkpt lat="44.63532872404559" lon="7.994544033080036"><ele>311.0</ele><time>2026-04-10T14:54:22.001Z</time></trkpt><trkpt lat="44.63528337203756" lon="7.994444282178321"><ele>311.0</ele><time>2026-04-10T14:54:25.001Z</time></trkpt><trkpt lat="44.63525027930461" lon="7.994363464193628"><ele>311.0</ele><time>2026-04-10T14:54:27.001Z</time></trkpt><trkpt lat="44.63520908062648" lon="7.994252608801514"><ele>311.0</ele><time>2026-04-10T14:54:30.001Z</time></trkpt><trkpt lat="44.635152653057155" lon="7.994155946987002"><ele>311.0</ele><time>2026-04-10T14:54:33.001Z</time></trkpt><trkpt lat="44.635101833266596" lon="7.9941022071561045"><ele>311.0</ele><time>2026-04-10T14:54:35.001Z</time></trkpt><trkpt lat="44.63502506569225" lon="7.994050897399238"><ele>311.0</ele><time>2026-04-10T14:54:37.001Z</time></trkpt><trkpt lat="44.634951622272375" lon="7.994031674022343"><ele>311.0</ele><time>2026-04-10T14:54:39.001Z</time></trkpt><trkpt lat="44.63487098671919" lon="7.993987476427331"><ele>311.0</ele><time>2026-04-10T14:54:41.001Z</time></trkpt><trkpt lat="44.63478082424094" lon="7.9939628635085835"><ele>311.0</ele><time>2026-04-10T14:54:43.001Z</time></trkpt><trkpt lat="44.63469010393808" lon="7.993930948675933"><ele>311.0</ele><time>2026-04-10T14:54:45.001Z</time></trkpt><trkpt lat="44.634594958735086" lon="7.993900780809444"><ele>311.0</ele><time>2026-04-10T14:54:47.001Z</time></trkpt><trkpt lat="44.634499432920535" lon="7.9938352905995105"><ele>311.0</ele><time>2026-04-10T14:54:49.001Z</time></trkpt><trkpt lat="44.63440948213443" lon="7.993787733026035"><ele>311.0</ele><time>2026-04-10T14:54:51.001Z</time></trkpt><trkpt lat="44.63432830332536" lon="7.993727916532018"><ele>311.0</ele><time>2026-04-10T14:54:53.001Z</time></trkpt><trkpt lat="44.634254144683304" lon="7.993691076261493"><ele>311.0</ele><time>2026-04-10T14:54:55Z</time></trkpt><trkpt lat="44.63420280761779" lon="7.993620214544606"><ele>311.0</ele><time>2026-04-10T14:54:57Z</time></trkpt><trkpt lat="44.63413871878737" lon="7.993560154432561"><ele>310.7142857142857</ele><time>2026-04-10T14:55:00Z</time></trkpt><trkpt lat="44.63407389699326" lon="7.993517657404666"><ele>310.42857142857144</ele><time>2026-04-10T14:55:04Z</time></trkpt><trkpt lat="44.634015040501644" lon="7.993461989984633"><ele>310.14285714285717</ele><time>2026-04-10T14:55:07Z</time></trkpt><trkpt lat="44.6339608279359" lon="7.993401070355911"><ele>309.8571428571429</ele><time>2026-04-10T14:55:10Z</time></trkpt><trkpt lat="44.633904620860456" lon="7.993340565194404"><ele>309.57142857142856</ele><time>2026-04-10T14:55:13Z</time></trkpt><trkpt lat="44.63385191848465" lon="7.993264310901212"><ele>309.28571428571433</ele><time>2026-04-10T14:55:16Z</time></trkpt><trkpt lat="44.63379357239097" lon="7.993228910414053"><ele>309.0</ele><time>2026-04-10T14:55:19Z</time></trkpt><trkpt lat="44.63374766301807" lon="7.993160227704188"><ele>309.0</ele><time>2026-04-10T14:55:22Z</time></trkpt><trkpt lat="44.633670302646216" lon="7.993115029383449"><ele>309.0</ele><time>2026-04-10T14:55:25Z</time></trkpt><trkpt lat="44.633601725864494" lon="7.993062567077215"><ele>309.0</ele><time>2026-04-10T14:55:28Z</time></trkpt><trkpt lat="44.63353931135461" lon="7.9930125969764205"><ele>309.0</ele><time>2026-04-10T14:55:30Z</time></trkpt><trkpt lat="44.6334610919937" lon="7.99295439915606"><ele>309.0</ele><time>2026-04-10T14:55:33Z</time></trkpt><trkpt lat="44.633391056336954" lon="7.99291084382219"><ele>309.0</ele><time>2026-04-10T14:55:36Z</time></trkpt><trkpt lat="44.63331119672279" lon="7.992833592853852"><ele>308.8333333333333</ele><time>2026-04-10T14:55:39Z</time></trkpt><trkpt lat="44.63325279768695" lon="7.992791749975329"><ele>308.6666666666667</ele><time>2026-04-10T14:55:41Z</time></trkpt><trkpt lat="44.63318589265488" lon="7.992749425442913"><ele>308.5</ele><time>2026-04-10T14:55:43Z</time></trkpt><trkpt lat="44.633113206174784" lon="7.9927452240039685"><ele>308.33333333333337</ele><time>2026-04-10T14:55:45Z</time></trkpt><trkpt lat="44.63302614474317" lon="7.992766580564856"><ele>308.1666666666667</ele><time>2026-04-10T14:55:47Z</time></trkpt><trkpt lat="44.632944896587254" lon="7.992756804755443"><ele>308.0</ele><time>2026-04-10T14:55:49Z</time></trkpt><trkpt lat="44.63285525364533" lon="7.992779383662072"><ele>307.0</ele><time>2026-04-10T14:55:52Z</time></trkpt><trkpt lat="44.63276130489105" lon="7.992781100346439"><ele>306.0</ele><time>2026-04-10T14:55:55.001Z</time></trkpt><trkpt lat="44.6326826418475" lon="7.992776498558765"><ele>305.0</ele><time>2026-04-10T14:55:58.001Z</time></trkpt><trkpt lat="44.63261355741614" lon="7.992748420419378"><ele>304.0</ele><time>2026-04-10T14:56:16.001Z</time></trkpt><trkpt lat="44.632534564219014" lon="7.99273004914802"><ele>303.0</ele><time>2026-04-10T14:56:21.001Z</time></trkpt><trkpt lat="44.63244068596273" lon="7.992703885191952"><ele>302.0</ele><time>2026-04-10T14:56:24.001Z</time></trkpt><trkpt lat="44.632363304703986" lon="7.992679808052453"><ele>302.0</ele><time>2026-04-10T14:56:27.001Z</time></trkpt><trkpt lat="44.63229651294127" lon="7.992657180222994"><ele>302.0</ele><time>2026-04-10T14:56:29.001Z</time></trkpt><trkpt lat="44.6322250980018" lon="7.992631155819802"><ele>302.0</ele><time>2026-04-10T14:56:31.001Z</time></trkpt><trkpt lat="44.63214564208425" lon="7.9925975741114925"><ele>302.0</ele><time>2026-04-10T14:56:33.001Z</time></trkpt><trkpt lat="44.63205798945531" lon="7.992561868625561"><ele>302.0</ele><time>2026-04-10T14:56:35.001Z</time></trkpt><trkpt lat="44.63196802138352" lon="7.9925149137192015"><ele>302.0</ele><time>2026-04-10T14:56:37.001Z</time></trkpt><trkpt lat="44.63189501849261" lon="7.9924345722315975"><ele>301.6</ele><time>2026-04-10T14:56:39.001Z</time></trkpt><trkpt lat="44.631772992903734" lon="7.992407037272425"><ele>301.2</ele><time>2026-04-10T14:56:41.001Z</time></trkpt><trkpt lat="44.631686211857215" lon="7.99237868597577"><ele>300.8</ele><time>2026-04-10T14:56:43.001Z</time></trkpt><trkpt lat="44.63162126769518" lon="7.992330991498762"><ele>300.4</ele><time>2026-04-10T14:56:45.001Z</time></trkpt><trkpt lat="44.631552134166974" lon="7.992257831879991"><ele>300.0</ele><time>2026-04-10T14:56:48.001Z</time></trkpt><trkpt lat="44.631478406234585" lon="7.992210053237419"><ele>300.0</ele><time>2026-04-10T14:56:51.001Z</time></trkpt><trkpt lat="44.63141157310736" lon="7.992149841716969"><ele>300.0</ele><time>2026-04-10T14:56:54.001Z</time></trkpt><trkpt lat="44.631342610042964" lon="7.992101438000782"><ele>300.0</ele><time>2026-04-10T14:56:57.001Z</time></trkpt><trkpt lat="44.631276295301355" lon="7.992054456992657"><ele>300.0</ele><time>2026-04-10T14:57:00.001Z</time></trkpt><trkpt lat="44.63120908519174" lon="7.99200988757591"><ele>300.0</ele><time>2026-04-10T14:57:03.001Z</time></trkpt><trkpt lat="44.63114230291891" lon="7.991942261932603"><ele>300.0</ele><time>2026-04-10T14:57:06.001Z</time></trkpt><trkpt lat="44.63107414696293" lon="7.991890223955833"><ele>299.71428571428567</ele><time>2026-04-10T14:57:09.001Z</time></trkpt><trkpt lat="44.631005014806206" lon="7.991844807693589"><ele>299.42857142857144</ele><time>2026-04-10T14:57:12Z</time></trkpt><trkpt lat="44.630935874154986" lon="7.991811333238617"><ele>299.1428571428571</ele><time>2026-04-10T14:57:15Z</time></trkpt><trkpt lat="44.63086530952747" lon="7.991782291828791"><ele>298.85714285714283</ele><time>2026-04-10T14:57:18Z</time></trkpt><trkpt lat="44.630796234596865" lon="7.991772175958422"><ele>298.57142857142856</ele><time>2026-04-10T14:57:21Z</time></trkpt><trkpt lat="44.630723339617624" lon="7.991777514894832"><ele>298.2857142857143</ele><time>2026-04-10T14:57:24Z</time></trkpt><trkpt lat="44.630647808543614" lon="7.991788454474793"><ele>298.0</ele><time>2026-04-10T14:57:27Z</time></trkpt><trkpt lat="44.63058006490988" lon="7.991799302321409"><ele>298.0</ele><time>2026-04-10T14:57:30Z</time></trkpt><trkpt lat="44.63050417366436" lon="7.991813938952487"><ele>298.0</ele><time>2026-04-10T14:57:34Z</time></trkpt><trkpt lat="44.63042764281579" lon="7.991836463057278"><ele>298.0</ele><time>2026-04-10T14:57:38Z</time></trkpt><trkpt lat="44.63034945448696" lon="7.991858810276993"><ele>298.0</ele><time>2026-04-10T14:57:42.001Z</time></trkpt><trkpt lat="44.63028587731467" lon="7.991874226185793"><ele>298.0</ele><time>2026-04-10T14:57:45.001Z</time></trkpt><trkpt lat="44.630211369970326" lon="7.9918827573272075"><ele>298.0</ele><time>2026-04-10T14:57:49.001Z</time></trkpt><trkpt lat="44.63013227592657" lon="7.99191593519864"><ele>299.3333333333333</ele><time>2026-04-10T14:57:53.001Z</time></trkpt><trkpt lat="44.63005369539056" lon="7.991925699270335"><ele>300.66666666666663</ele><time>2026-04-10T14:57:57.001Z</time></trkpt><trkpt lat="44.629971931706464" lon="7.991936204552206"><ele>302.0</ele><time>2026-04-10T14:58:01.001Z</time></trkpt><trkpt lat="44.62990082818516" lon="7.991957053241177"><ele>303.3333333333333</ele><time>2026-04-10T14:58:05.001Z</time></trkpt><trkpt lat="44.629826593114025" lon="7.991975674410974"><ele>304.6666666666667</ele><time>2026-04-10T14:58:09.001Z</time></trkpt><trkpt lat="44.629752695497345" lon="7.991982823807939"><ele>306.0</ele><time>2026-04-10T14:58:13.001Z</time></trkpt><trkpt lat="44.62967219125124" lon="7.992004149001328"><ele>306.0</ele><time>2026-04-10T14:58:17.001Z</time></trkpt><trkpt lat="44.62959525328308" lon="7.99201491093738"><ele>306.0</ele><time>2026-04-10T14:58:21.001Z</time></trkpt><trkpt lat="44.62953257786109" lon="7.99202372096563"><ele>306.0</ele><time>2026-04-10T14:58:24.001Z</time></trkpt><trkpt lat="44.62946325200959" lon="7.99203085781581"><ele>306.0</ele><time>2026-04-10T14:58:27.001Z</time></trkpt><trkpt lat="44.62939820462595" lon="7.992040458949843"><ele>306.0</ele><time>2026-04-10T14:58:30.001Z</time></trkpt><trkpt lat="44.62932765030055" lon="7.992057906776081"><ele>306.0</ele><time>2026-04-10T14:58:33.001Z</time></trkpt><trkpt lat="44.62925463742173" lon="7.992059683698061"><ele>306.0</ele><time>2026-04-10T14:58:36.001Z</time></trkpt><trkpt lat="44.62918062192226" lon="7.992078622613014"><ele>306.7142857142857</ele><time>2026-04-10T14:58:39.001Z</time></trkpt><trkpt lat="44.62910699120379" lon="7.992081457148573"><ele>307.42857142857144</ele><time>2026-04-10T14:58:42.001Z</time></trkpt><trkpt lat="44.62903763526753" lon="7.992091653464169"><ele>308.1428571428571</ele><time>2026-04-10T14:58:45.001Z</time></trkpt><trkpt lat="44.628970490590056" lon="7.992108864776352"><ele>308.8571428571429</ele><time>2026-04-10T14:58:48.001Z</time></trkpt><trkpt lat="44.62890250397707" lon="7.99211745600212"><ele>309.5714285714286</ele><time>2026-04-10T14:58:51.001Z</time></trkpt><trkpt lat="44.628821343605246" lon="7.992144124331234"><ele>310.2857142857143</ele><time>2026-04-10T14:58:55.001Z</time></trkpt><trkpt lat="44.62875934059843" lon="7.992166471520086"><ele>311.0</ele><time>2026-04-10T14:58:58.001Z</time></trkpt><trkpt lat="44.62867954126947" lon="7.992195088859927"><ele>312.57142857142856</ele><time>2026-04-10T14:59:02.001Z</time></trkpt><trkpt lat="44.62862089989137" lon="7.9922274504365"><ele>314.14285714285717</ele><time>2026-04-10T14:59:05.001Z</time></trkpt><trkpt lat="44.62854811985165" lon="7.992264183715606"><ele>315.7142857142857</ele><time>2026-04-10T14:59:09.001Z</time></trkpt><trkpt lat="44.628485239519314" lon="7.992292423522403"><ele>317.2857142857143</ele><time>2026-04-10T14:59:12.001Z</time></trkpt><trkpt lat="44.62841651444921" lon="7.992337599413843"><ele>318.8571428571429</ele><time>2026-04-10T14:59:16.001Z</time></trkpt><trkpt lat="44.62835812186488" lon="7.992371604416236"><ele>320.42857142857144</ele><time>2026-04-10T14:59:19.001Z</time></trkpt><trkpt lat="44.62828957628515" lon="7.992417649569393"><ele>322.0</ele><time>2026-04-10T14:59:23Z</time></trkpt><trkpt lat="44.62822723323748" lon="7.992450409342434"><ele>322.0</ele><time>2026-04-10T14:59:26Z</time></trkpt><trkpt lat="44.628168016226766" lon="7.99249785233694"><ele>322.0</ele><time>2026-04-10T14:59:29Z</time></trkpt><trkpt lat="44.628110958441255" lon="7.992536938354419"><ele>322.0</ele><time>2026-04-10T14:59:32Z</time></trkpt><trkpt lat="44.628041555248565" lon="7.992585122247661"><ele>322.0</ele><time>2026-04-10T14:59:36Z</time></trkpt><trkpt lat="44.62798187885908" lon="7.99262301695728"><ele>322.0</ele><time>2026-04-10T14:59:39Z</time></trkpt><trkpt lat="44.62791615356674" lon="7.992663150781944"><ele>322.0</ele><time>2026-04-10T14:59:43Z</time></trkpt><trkpt lat="44.62785788584826" lon="7.992703515689837"><ele>322.0</ele><time>2026-04-10T14:59:46.001Z</time></trkpt><trkpt lat="44.62779753486076" lon="7.992742244649541"><ele>323.5</ele><time>2026-04-10T14:59:49.001Z</time></trkpt><trkpt lat="44.627726613751214" lon="7.992788841481678"><ele>325.0</ele><time>2026-04-10T14:59:53.001Z</time></trkpt><trkpt lat="44.62766272522625" lon="7.992827182923175"><ele>326.5</ele><time>2026-04-10T14:59:57.001Z</time></trkpt><trkpt lat="44.62760589518659" lon="7.992877369295504"><ele>328.0</ele><time>2026-04-10T15:00:00.001Z</time></trkpt><trkpt lat="44.62753605647342" lon="7.992929572784439"><ele>329.5</ele><time>2026-04-10T15:00:04.001Z</time></trkpt><trkpt lat="44.627465790364724" lon="7.992986710551988"><ele>331.0</ele><time>2026-04-10T15:00:08.001Z</time></trkpt><trkpt lat="44.62740520423454" lon="7.993056585059107"><ele>331.0</ele><time>2026-04-10T15:00:12.001Z</time></trkpt><trkpt lat="44.627338267106204" lon="7.993120106338766"><ele>331.0</ele><time>2026-04-10T15:00:16.001Z</time></trkpt><trkpt lat="44.62728551885296" lon="7.9931846121618495"><ele>331.0</ele><time>2026-04-10T15:00:19.001Z</time></trkpt><trkpt lat="44.627229825861434" lon="7.99326564209231"><ele>331.0</ele><time>2026-04-10T15:00:23.001Z</time></trkpt><trkpt lat="44.62718702923351" lon="7.993346475859523"><ele>331.0</ele><time>2026-04-10T15:00:27.001Z</time></trkpt><trkpt lat="44.62713765261395" lon="7.993436386787132"><ele>331.0</ele><time>2026-04-10T15:00:31.001Z</time></trkpt><trkpt lat="44.62709265645238" lon="7.993525337869133"><ele>331.7142857142857</ele><time>2026-04-10T15:00:35.001Z</time></trkpt><trkpt lat="44.627050967491854" lon="7.993609977511003"><ele>332.42857142857144</ele><time>2026-04-10T15:00:39.001Z</time></trkpt><trkpt lat="44.6270123003601" lon="7.993686908260444"><ele>333.1428571428571</ele><time>2026-04-10T15:00:43.001Z</time></trkpt><trkpt lat="44.626981332630734" lon="7.993773158403512"><ele>333.8571428571429</ele><time>2026-04-10T15:00:47.001Z</time></trkpt><trkpt lat="44.626934195006775" lon="7.993855164685165"><ele>334.57142857142856</ele><time>2026-04-10T15:00:51.001Z</time></trkpt><trkpt lat="44.62689003628346" lon="7.993936747785815"><ele>335.2857142857143</ele><time>2026-04-10T15:00:55.001Z</time></trkpt><trkpt lat="44.62685546703279" lon="7.994035029388964"><ele>336.0</ele><time>2026-04-10T15:00:59.001Z</time></trkpt><trkpt lat="44.62681271665748" lon="7.994130969935115"><ele>337.0</ele><time>2026-04-10T15:01:03.001Z</time></trkpt><trkpt lat="44.626769723210444" lon="7.994207317332324"><ele>338.0</ele><time>2026-04-10T15:01:07.001Z</time></trkpt><trkpt lat="44.62672796911338" lon="7.994286538548335"><ele>339.0</ele><time>2026-04-10T15:01:11.001Z</time></trkpt><trkpt lat="44.62667901964304" lon="7.994377807612733"><ele>340.0</ele><time>2026-04-10T15:01:15.001Z</time></trkpt><trkpt lat="44.62663348681419" lon="7.994474477341606"><ele>341.0</ele><time>2026-04-10T15:01:19.001Z</time></trkpt><trkpt lat="44.62658641882382" lon="7.994572867920563"><ele>342.0</ele><time>2026-04-10T15:01:23Z</time></trkpt><trkpt lat="44.62654794128717" lon="7.994668134126464"><ele>341.99999999999994</ele><time>2026-04-10T15:01:27Z</time></trkpt><trkpt lat="44.62651039343778" lon="7.9947721516703485"><ele>342.0</ele><time>2026-04-10T15:01:31Z</time></trkpt><trkpt lat="44.626487134165544" lon="7.994869849562758"><ele>342.0</ele><time>2026-04-10T15:01:35Z</time></trkpt><trkpt lat="44.62646438093988" lon="7.994974678419425"><ele>342.0</ele><time>2026-04-10T15:01:39Z</time></trkpt><trkpt lat="44.62644413626445" lon="7.995061309824191"><ele>342.0</ele><time>2026-04-10T15:01:42Z</time></trkpt><trkpt lat="44.62641687410892" lon="7.9951530739472565"><ele>341.99999999999994</ele><time>2026-04-10T15:01:45Z</time></trkpt><trkpt lat="44.62640075895721" lon="7.995242520655033"><ele>342.0</ele><time>2026-04-10T15:01:48Z</time></trkpt><trkpt lat="44.62637997141354" lon="7.995329208114953"><ele>343.6666666666667</ele><time>2026-04-10T15:01:51Z</time></trkpt><trkpt lat="44.62635972995582" lon="7.995413205332477"><ele>345.3333333333333</ele><time>2026-04-10T15:01:54Z</time></trkpt><trkpt lat="44.62632466546101" lon="7.995521240018532"><ele>347.0</ele><time>2026-04-10T15:01:58Z</time></trkpt><trkpt lat="44.62629290149982" lon="7.995624998189277"><ele>348.66666666666663</ele><time>2026-04-10T15:02:02Z</time></trkpt><trkpt lat="44.62626763091446" lon="7.995716449674135"><ele>350.3333333333333</ele><time>2026-04-10T15:02:05Z</time></trkpt><trkpt lat="44.62623970192618" lon="7.995826521776387"><ele>352.0</ele><time>2026-04-10T15:02:09Z</time></trkpt><trkpt lat="44.626215514075206" lon="7.995941601507886"><ele>352.8333333333333</ele><time>2026-04-10T15:02:13Z</time></trkpt><trkpt lat="44.62617642871573" lon="7.9960256750341925"><ele>353.66666666666663</ele><time>2026-04-10T15:02:16Z</time></trkpt><trkpt lat="44.6261351622231" lon="7.99611240345981"><ele>354.5</ele><time>2026-04-10T15:02:19Z</time></trkpt><trkpt lat="44.626072139504416" lon="7.996173884497445"><ele>355.3333333333333</ele><time>2026-04-10T15:02:22.001Z</time></trkpt><trkpt lat="44.62600268759657" lon="7.996216375354529"><ele>356.1666666666667</ele><time>2026-04-10T15:02:25.001Z</time></trkpt><trkpt lat="44.62592600163506" lon="7.996246307086701"><ele>357.0</ele><time>2026-04-10T15:02:28.001Z</time></trkpt><trkpt lat="44.625848426559145" lon="7.9962347952358686"><ele>357.0</ele><time>2026-04-10T15:02:31.001Z</time></trkpt><trkpt lat="44.62577323409686" lon="7.9962192004326385"><ele>357.0</ele><time>2026-04-10T15:02:34.001Z</time></trkpt><trkpt lat="44.625699053206844" lon="7.996199695421627"><ele>357.0</ele><time>2026-04-10T15:02:37.001Z</time></trkpt><trkpt lat="44.62563113683498" lon="7.996179251257653"><ele>357.0</ele><time>2026-04-10T15:02:40.001Z</time></trkpt><trkpt lat="44.625568321940904" lon="7.996167448263601"><ele>357.0</ele><time>2026-04-10T15:02:43.001Z</time></trkpt><trkpt lat="44.62550548099725" lon="7.996141059219208"><ele>357.0</ele><time>2026-04-10T15:02:48.001Z</time></trkpt><trkpt lat="44.62545144409807" lon="7.996080620821894"><ele>357.0</ele><time>2026-04-10T15:22:22Z</time></trkpt><trkpt lat="44.625386027529316" lon="7.996075079858856"><ele>357.0</ele><time>2026-04-10T15:22:31Z</time></trkpt><trkpt lat="44.625318578865524" lon="7.9960686206759135"><ele>357.0</ele><time>2026-04-10T15:22:39Z</time></trkpt><trkpt lat="44.62525557569281" lon="7.996075112755864"><ele>357.0</ele><time>2026-04-10T15:23:23Z</time></trkpt><trkpt lat="44.625187180004716" lon="7.996056651476333"><ele>357.0</ele><time>2026-04-10T15:23:31.001Z</time></trkpt><trkpt lat="44.625119262935" lon="7.996032040826349"><ele>357.0</ele><time>2026-04-10T15:23:35.001Z</time></trkpt><trkpt lat="44.62504697246452" lon="7.996012697515694"><ele>357.0</ele><time>2026-04-10T15:23:39.001Z</time></trkpt><trkpt lat="44.6249697144154" lon="7.995988267155451"><ele>357.0</ele><time>2026-04-10T15:23:43.001Z</time></trkpt><trkpt lat="44.62489222045802" lon="7.995963218807472"><ele>357.0</ele><time>2026-04-10T15:23:47.001Z</time></trkpt><trkpt lat="44.62481174129309" lon="7.995932750477291"><ele>357.0</ele><time>2026-04-10T15:23:51.001Z</time></trkpt><trkpt lat="44.624746625055245" lon="7.995909004379071"><ele>357.0</ele><time>2026-04-10T15:23:54.001Z</time></trkpt><trkpt lat="44.62468536046304" lon="7.995882457288597"><ele>357.0</ele><time>2026-04-10T15:23:57.001Z</time></trkpt><trkpt lat="44.6246259337337" lon="7.995849961567037"><ele>357.0</ele><time>2026-04-10T15:24:00.001Z</time></trkpt><trkpt lat="44.62456394612451" lon="7.9958147352662685"><ele>357.0</ele><time>2026-04-10T15:24:03.001Z</time></trkpt><trkpt lat="44.62449002477652" lon="7.995788485161199"><ele>357.0</ele><time>2026-04-10T15:24:06.001Z</time></trkpt><trkpt lat="44.6244274065998" lon="7.995744569178433"><ele>357.0</ele><time>2026-04-10T15:24:09.001Z</time></trkpt><trkpt lat="44.62436746116358" lon="7.995697557070765"><ele>357.0</ele><time>2026-04-10T15:24:12.001Z</time></trkpt><trkpt lat="44.624306222674555" lon="7.995648054696479"><ele>357.0</ele><time>2026-04-10T15:24:15.001Z</time></trkpt><trkpt lat="44.62424773708302" lon="7.995605033428923"><ele>357.0</ele><time>2026-04-10T15:24:18Z</time></trkpt><trkpt lat="44.624188168761115" lon="7.9955535743009465"><ele>357.0</ele><time>2026-04-10T15:24:21Z</time></trkpt><trkpt lat="44.62412414515298" lon="7.995499371587225"><ele>357.0</ele><time>2026-04-10T15:24:24Z</time></trkpt><trkpt lat="44.62404773010028" lon="7.995444940656747"><ele>357.0</ele><time>2026-04-10T15:24:28Z</time></trkpt><trkpt lat="44.62398542610195" lon="7.995400842611354"><ele>357.0</ele><time>2026-04-10T15:24:31Z</time></trkpt><trkpt lat="44.623923639323564" lon="7.99535232326483"><ele>357.0</ele><time>2026-04-10T15:24:34Z</time></trkpt><trkpt lat="44.62385722988294" lon="7.995292391208191"><ele>357.0</ele><time>2026-04-10T15:24:37Z</time></trkpt><trkpt lat="44.623789191220716" lon="7.995238178363824"><ele>357.0</ele><time>2026-04-10T15:24:40Z</time></trkpt><trkpt lat="44.62372196036369" lon="7.995180759045915"><ele>357.0</ele><time>2026-04-10T15:24:43Z</time></trkpt><trkpt lat="44.62365500383544" lon="7.995127019735477"><ele>357.0</ele><time>2026-04-10T15:24:46Z</time></trkpt><trkpt lat="44.62359039200563" lon="7.995081509750848"><ele>356.3333333333333</ele><time>2026-04-10T15:24:49Z</time></trkpt><trkpt lat="44.623527088569425" lon="7.995032154093869"><ele>355.6666666666667</ele><time>2026-04-10T15:24:52Z</time></trkpt><trkpt lat="44.62346135420482" lon="7.99497878387918"><ele>355.0</ele><time>2026-04-10T15:24:55Z</time></trkpt><trkpt lat="44.62339204099206" lon="7.994926255081663"><ele>354.33333333333337</ele><time>2026-04-10T15:24:58Z</time></trkpt><trkpt lat="44.623327858737376" lon="7.99487918086764"><ele>353.6666666666667</ele><time>2026-04-10T15:25:01Z</time></trkpt><trkpt lat="44.623258949133216" lon="7.994829871044197"><ele>353.0</ele><time>2026-04-10T15:25:04Z</time></trkpt><trkpt lat="44.62319608998021" lon="7.994776662245429"><ele>353.0</ele><time>2026-04-10T15:25:07Z</time></trkpt><trkpt lat="44.623129475010764" lon="7.994724555884833"><ele>353.0</ele><time>2026-04-10T15:25:10Z</time></trkpt><trkpt lat="44.62306428304237" lon="7.994667511528619"><ele>353.0</ele><time>2026-04-10T15:25:13Z</time></trkpt><trkpt lat="44.62299468347725" lon="7.99462574914001"><ele>353.0</ele><time>2026-04-10T15:25:16Z</time></trkpt><trkpt lat="44.622926404102294" lon="7.994592081703356"><ele>353.0</ele><time>2026-04-10T15:25:19Z</time></trkpt><trkpt lat="44.6228599370671" lon="7.994565410849905"><ele>353.0</ele><time>2026-04-10T15:25:22Z</time></trkpt><trkpt lat="44.622790360548635" lon="7.994544143516577"><ele>353.0</ele><time>2026-04-10T15:25:25Z</time></trkpt><trkpt lat="44.62271336524165" lon="7.994534211712124"><ele>354.33333333333337</ele><time>2026-04-10T15:25:28Z</time></trkpt><trkpt lat="44.62263186748531" lon="7.994530424703198"><ele>355.6666666666667</ele><time>2026-04-10T15:25:31Z</time></trkpt><trkpt lat="44.622552981139236" lon="7.994538793585037"><ele>357.0</ele><time>2026-04-10T15:25:34Z</time></trkpt><trkpt lat="44.622479608020015" lon="7.994553389949814"><ele>358.3333333333333</ele><time>2026-04-10T15:25:37Z</time></trkpt><trkpt lat="44.62240702669838" lon="7.994570844278531"><ele>359.66666666666663</ele><time>2026-04-10T15:25:40Z</time></trkpt><trkpt lat="44.62234136002256" lon="7.994607002342323"><ele>361.0</ele><time>2026-04-10T15:25:43Z</time></trkpt><trkpt lat="44.62226753668249" lon="7.994644498670424"><ele>361.0</ele><time>2026-04-10T15:25:46Z</time></trkpt><trkpt lat="44.622195966731425" lon="7.994688448878404"><ele>361.0</ele><time>2026-04-10T15:25:49Z</time></trkpt><trkpt lat="44.622123344289" lon="7.994732086283111"><ele>361.0</ele><time>2026-04-10T15:25:52Z</time></trkpt><trkpt lat="44.62205530813505" lon="7.994788190813414"><ele>361.0</ele><time>2026-04-10T15:25:55Z</time></trkpt><trkpt lat="44.62198520044327" lon="7.994836953162802"><ele>361.0</ele><time>2026-04-10T15:25:58.001Z</time></trkpt><trkpt lat="44.62190508354085" lon="7.9948928300305955"><ele>361.0</ele><time>2026-04-10T15:26:01.001Z</time></trkpt><trkpt lat="44.62182369959594" lon="7.994953062821566"><ele>359.3333333333333</ele><time>2026-04-10T15:26:04.001Z</time></trkpt><trkpt lat="44.62174060422309" lon="7.995011203619336"><ele>357.66666666666663</ele><time>2026-04-10T15:26:07.001Z</time></trkpt><trkpt lat="44.6216804955183" lon="7.99505282689653"><ele>356.0</ele><time>2026-04-10T15:26:09.001Z</time></trkpt><trkpt lat="44.62162429139995" lon="7.99509497125607"><ele>354.3333333333333</ele><time>2026-04-10T15:26:11.001Z</time></trkpt><trkpt lat="44.621545529512154" lon="7.995147446135714"><ele>352.6666666666667</ele><time>2026-04-10T15:26:14.001Z</time></trkpt><trkpt lat="44.621465625536004" lon="7.995199742237028"><ele>351.0</ele><time>2026-04-10T15:26:17.001Z</time></trkpt><trkpt lat="44.621406928634315" lon="7.995239335075368"><ele>351.0</ele><time>2026-04-10T15:26:19.001Z</time></trkpt><trkpt lat="44.621348095504544" lon="7.995274802222795"><ele>351.0</ele><time>2026-04-10T15:26:21.001Z</time></trkpt><trkpt lat="44.621261319938206" lon="7.995320662824454"><ele>351.0</ele><time>2026-04-10T15:26:24Z</time></trkpt><trkpt lat="44.6211751185881" lon="7.995350422590374"><ele>351.0</ele><time>2026-04-10T15:26:27Z</time></trkpt><trkpt lat="44.62108713822103" lon="7.99538436247971"><ele>351.0</ele><time>2026-04-10T15:26:30Z</time></trkpt><trkpt lat="44.62099945902754" lon="7.995402631537387"><ele>351.0</ele><time>2026-04-10T15:26:33Z</time></trkpt><trkpt lat="44.62091583915235" lon="7.9954071758198495"><ele>351.8571428571429</ele><time>2026-04-10T15:26:36Z</time></trkpt><trkpt lat="44.6208357202754" lon="7.9954164734348545"><ele>352.7142857142857</ele><time>2026-04-10T15:26:39Z</time></trkpt><trkpt lat="44.620760818748295" lon="7.995412791358293"><ele>353.57142857142856</ele><time>2026-04-10T15:26:42Z</time></trkpt><trkpt lat="44.62069183160644" lon="7.995409337736452"><ele>354.42857142857144</ele><time>2026-04-10T15:26:45Z</time></trkpt><trkpt lat="44.62061962377587" lon="7.995399382228212"><ele>355.2857142857143</ele><time>2026-04-10T15:26:48Z</time></trkpt><trkpt lat="44.62055159609902" lon="7.995384866984532"><ele>356.14285714285717</ele><time>2026-04-10T15:26:51Z</time></trkpt><trkpt lat="44.6204845724194" lon="7.99538746090566"><ele>357.0</ele><time>2026-04-10T15:26:54Z</time></trkpt><trkpt lat="44.62042108756111" lon="7.995391721853737"><ele>357.0</ele><time>2026-04-10T15:26:57Z</time></trkpt><trkpt lat="44.620355342779284" lon="7.995394780887484"><ele>357.0</ele><time>2026-04-10T15:27:00Z</time></trkpt><trkpt lat="44.62028795864352" lon="7.995400984412727"><ele>357.0</ele><time>2026-04-10T15:27:03Z</time></trkpt><trkpt lat="44.62021848520203" lon="7.995413666658978"><ele>357.0</ele><time>2026-04-10T15:27:06Z</time></trkpt><trkpt lat="44.620148131393556" lon="7.995423734828549"><ele>357.0</ele><time>2026-04-10T15:27:09Z</time></trkpt><trkpt lat="44.62008060898591" lon="7.995437665914386"><ele>357.0</ele><time>2026-04-10T15:27:12Z</time></trkpt><trkpt lat="44.62000915484741" lon="7.995448709410157"><ele>357.0</ele><time>2026-04-10T15:27:15Z</time></trkpt><trkpt lat="44.61993901181691" lon="7.995460332378029"><ele>357.42857142857144</ele><time>2026-04-10T15:27:18Z</time></trkpt><trkpt lat="44.61987387202443" lon="7.995472844798471"><ele>357.8571428571429</ele><time>2026-04-10T15:27:21Z</time></trkpt><trkpt lat="44.61981187473339" lon="7.995490158990734"><ele>358.2857142857143</ele><time>2026-04-10T15:27:24Z</time></trkpt><trkpt lat="44.61973752079468" lon="7.995502689827959"><ele>358.7142857142857</ele><time>2026-04-10T15:27:28Z</time></trkpt><trkpt lat="44.61967261093336" lon="7.995517070717241"><ele>359.14285714285717</ele><time>2026-04-10T15:27:32Z</time></trkpt><trkpt lat="44.6195955969674" lon="7.995535067447448"><ele>359.57142857142856</ele><time>2026-04-10T15:27:36Z</time></trkpt><trkpt lat="44.61952518016744" lon="7.995552041559245"><ele>360.0</ele><time>2026-04-10T15:27:40Z</time></trkpt><trkpt lat="44.61945345898127" lon="7.99557363093135"><ele>360.0</ele><time>2026-04-10T15:27:44Z</time></trkpt><trkpt lat="44.619386128331854" lon="7.995603922321145"><ele>360.0</ele><time>2026-04-10T15:27:48Z</time></trkpt><trkpt lat="44.61931637346113" lon="7.995654599121837"><ele>360.0</ele><time>2026-04-10T15:27:52Z</time></trkpt><trkpt lat="44.619258321414506" lon="7.995718646030901"><ele>360.0</ele><time>2026-04-10T15:27:56Z</time></trkpt><trkpt lat="44.61921775905505" lon="7.995806614715967"><ele>360.0</ele><time>2026-04-10T15:28:00.001Z</time></trkpt><trkpt lat="44.61918957406315" lon="7.995908385633766"><ele>360.0</ele><time>2026-04-10T15:28:04.001Z</time></trkpt><trkpt lat="44.61916996700667" lon="7.996010047626813"><ele>360.85714285714283</ele><time>2026-04-10T15:28:08.001Z</time></trkpt><trkpt lat="44.61916549072847" lon="7.9961158822642"><ele>361.7142857142857</ele><time>2026-04-10T15:28:12.001Z</time></trkpt><trkpt lat="44.619161246821804" lon="7.996221140752156"><ele>362.57142857142856</ele><time>2026-04-10T15:28:16.001Z</time></trkpt><trkpt lat="44.61916307551968" lon="7.99632320541474"><ele>363.42857142857144</ele><time>2026-04-10T15:28:20.001Z</time></trkpt><trkpt lat="44.61916358603275" lon="7.9964233498076425"><ele>364.28571428571433</ele><time>2026-04-10T15:28:24.001Z</time></trkpt><trkpt lat="44.61916609647853" lon="7.996521497287033"><ele>365.14285714285717</ele><time>2026-04-10T15:28:28.001Z</time></trkpt><trkpt lat="44.61916456752901" lon="7.996621909430567"><ele>366.0</ele><time>2026-04-10T15:28:32Z</time></trkpt><trkpt lat="44.61915986021662" lon="7.996715883878236"><ele>366.8571428571429</ele><time>2026-04-10T15:28:36Z</time></trkpt><trkpt lat="44.61913994277351" lon="7.996812276592462"><ele>367.7142857142857</ele><time>2026-04-10T15:28:40Z</time></trkpt><trkpt lat="44.619123783191135" lon="7.996924167129687"><ele>368.57142857142856</ele><time>2026-04-10T15:28:44Z</time></trkpt><trkpt lat="44.619105583719985" lon="7.997033296648298"><ele>369.42857142857144</ele><time>2026-04-10T15:28:48Z</time></trkpt><trkpt lat="44.61908530551724" lon="7.997137172087603"><ele>370.2857142857143</ele><time>2026-04-10T15:28:52Z</time></trkpt><trkpt lat="44.61904983267721" lon="7.997226793437933"><ele>371.14285714285717</ele><time>2026-04-10T15:28:56Z</time></trkpt><trkpt lat="44.61902983231673" lon="7.997317050583108"><ele>372.0</ele><time>2026-04-10T15:28:59Z</time></trkpt><trkpt lat="44.618993675938036" lon="7.9974141595063895"><ele>371.8333333333333</ele><time>2026-04-10T15:29:03Z</time></trkpt><trkpt lat="44.61895936654999" lon="7.9975126310381555"><ele>371.6666666666667</ele><time>2026-04-10T15:29:07Z</time></trkpt><trkpt lat="44.618924865275105" lon="7.997614057616946"><ele>371.5</ele><time>2026-04-10T15:29:11Z</time></trkpt><trkpt lat="44.618881132025656" lon="7.997703880009928"><ele>371.33333333333337</ele><time>2026-04-10T15:29:15Z</time></trkpt><trkpt lat="44.618830867275335" lon="7.997787564131864"><ele>371.1666666666667</ele><time>2026-04-10T15:29:19Z</time></trkpt><trkpt lat="44.618784766071755" lon="7.997872251051982"><ele>371.0</ele><time>2026-04-10T15:29:23Z</time></trkpt><trkpt lat="44.61873464539837" lon="7.99795206573374"><ele>371.0</ele><time>2026-04-10T15:29:27Z</time></trkpt><trkpt lat="44.618677445626076" lon="7.998022904837915"><ele>371.0</ele><time>2026-04-10T15:29:31Z</time></trkpt><trkpt lat="44.61862816666934" lon="7.9980846713859295"><ele>371.0</ele><time>2026-04-10T15:29:34Z</time></trkpt><trkpt lat="44.61857753900798" lon="7.998140831275804"><ele>371.0</ele><time>2026-04-10T15:29:37Z</time></trkpt><trkpt lat="44.61853035972373" lon="7.9982006938651775"><ele>371.0</ele><time>2026-04-10T15:29:40Z</time></trkpt><trkpt lat="44.61847835107644" lon="7.998253539454819"><ele>371.0</ele><time>2026-04-10T15:29:43Z</time></trkpt><trkpt lat="44.61840982174196" lon="7.998312476983084"><ele>371.0</ele><time>2026-04-10T15:29:47Z</time></trkpt><trkpt lat="44.6183368000405" lon="7.998376215902179"><ele>369.7142857142857</ele><time>2026-04-10T15:29:51Z</time></trkpt><trkpt lat="44.61826767421277" lon="7.998431156284566"><ele>368.42857142857144</ele><time>2026-04-10T15:29:55Z</time></trkpt><trkpt lat="44.6182052958022" lon="7.998470366345382"><ele>367.1428571428571</ele><time>2026-04-10T15:29:58Z</time></trkpt><trkpt lat="44.6181456020327" lon="7.998508073498439"><ele>365.8571428571429</ele><time>2026-04-10T15:30:01Z</time></trkpt><trkpt lat="44.61806587767945" lon="7.9985432429575365"><ele>364.57142857142856</ele><time>2026-04-10T15:30:05.001Z</time></trkpt><trkpt lat="44.61799723976905" lon="7.998582915209966"><ele>363.2857142857143</ele><time>2026-04-10T15:30:08.001Z</time></trkpt><trkpt lat="44.6179214842488" lon="7.998607764803612"><ele>362.0</ele><time>2026-04-10T15:30:11.001Z</time></trkpt><trkpt lat="44.61783818097374" lon="7.9986363080766525"><ele>363.83333333333337</ele><time>2026-04-10T15:30:14.001Z</time></trkpt><trkpt lat="44.617749068015186" lon="7.998665734848392"><ele>365.6666666666667</ele><time>2026-04-10T15:30:17.001Z</time></trkpt><trkpt lat="44.61768764831638" lon="7.998685275738221"><ele>367.5</ele><time>2026-04-10T15:30:19.001Z</time></trkpt><trkpt lat="44.61762685918276" lon="7.998712519339361"><ele>369.3333333333333</ele><time>2026-04-10T15:30:21.001Z</time></trkpt><trkpt lat="44.61753777583036" lon="7.998752020570674"><ele>371.16666666666663</ele><time>2026-04-10T15:30:24.001Z</time></trkpt><trkpt lat="44.61748059278942" lon="7.998789683880266"><ele>373.0</ele><time>2026-04-10T15:30:26.001Z</time></trkpt><trkpt lat="44.617398423211135" lon="7.998851228198807"><ele>373.0</ele><time>2026-04-10T15:30:29.001Z</time></trkpt><trkpt lat="44.6173283809907" lon="7.9989156096207745"><ele>373.0</ele><time>2026-04-10T15:30:32.001Z</time></trkpt><trkpt lat="44.61726514629247" lon="7.998979906004066"><ele>373.0</ele><time>2026-04-10T15:30:35.001Z</time></trkpt><trkpt lat="44.61720174319713" lon="7.999053354454879"><ele>373.0</ele><time>2026-04-10T15:30:38Z</time></trkpt><trkpt lat="44.61715042372545" lon="7.999137384637442"><ele>373.0</ele><time>2026-04-10T15:30:41Z</time></trkpt><trkpt lat="44.61710311641823" lon="7.999221279996193"><ele>373.0</ele><time>2026-04-10T15:30:44Z</time></trkpt><trkpt lat="44.61705999198043" lon="7.999298430009848"><ele>374.0</ele><time>2026-04-10T15:30:47Z</time></trkpt><trkpt lat="44.61701257711306" lon="7.999380035048403"><ele>375.0</ele><time>2026-04-10T15:30:50Z</time></trkpt><trkpt lat="44.61697256413022" lon="7.999465754705686"><ele>376.0</ele><time>2026-04-10T15:30:53Z</time></trkpt><trkpt lat="44.616930306849625" lon="7.999553120495"><ele>377.0</ele><time>2026-04-10T15:30:56Z</time></trkpt><trkpt lat="44.616891069083984" lon="7.999640628994585"><ele>378.0</ele><time>2026-04-10T15:30:59Z</time></trkpt><trkpt lat="44.61684995021448" lon="7.99972202959737"><ele>379.0</ele><time>2026-04-10T15:31:02Z</time></trkpt><trkpt lat="44.61680743271235" lon="7.999801031011194"><ele>380.0</ele><time>2026-04-10T15:31:05Z</time></trkpt><trkpt lat="44.61676114692276" lon="7.999875077411028"><ele>380.0</ele><time>2026-04-10T15:31:08Z</time></trkpt><trkpt lat="44.61671649417371" lon="7.999951450441025"><ele>380.0</ele><time>2026-04-10T15:31:11Z</time></trkpt><trkpt lat="44.616672994260064" lon="8.000020955998007"><ele>380.0</ele><time>2026-04-10T15:31:14Z</time></trkpt><trkpt lat="44.61662123121408" lon="8.000081126058488"><ele>380.0</ele><time>2026-04-10T15:31:17Z</time></trkpt><trkpt lat="44.61656921799122" lon="8.000141223463377"><ele>380.0</ele><time>2026-04-10T15:31:20Z</time></trkpt><trkpt lat="44.6165152317746" lon="8.000207092495454"><ele>380.0</ele><time>2026-04-10T15:31:23Z</time></trkpt><trkpt lat="44.616458350385464" lon="8.00026782211975"><ele>380.0</ele><time>2026-04-10T15:31:26Z</time></trkpt><trkpt lat="44.616388820480445" lon="8.000327557009916"><ele>380.0</ele><time>2026-04-10T15:31:30Z</time></trkpt><trkpt lat="44.61633569893908" lon="8.000377663058432"><ele>380.0</ele><time>2026-04-10T15:31:33Z</time></trkpt><trkpt lat="44.61627467849225" lon="8.000421265952136"><ele>380.0</ele><time>2026-04-10T15:31:36Z</time></trkpt><trkpt lat="44.616212159573024" lon="8.000465074894974"><ele>380.0</ele><time>2026-04-10T15:31:39Z</time></trkpt><trkpt lat="44.616140950702416" lon="8.000503083965645"><ele>380.0</ele><time>2026-04-10T15:31:42Z</time></trkpt><trkpt lat="44.616067894978634" lon="8.000542168775356"><ele>380.0</ele><time>2026-04-10T15:31:45Z</time></trkpt><trkpt lat="44.615984884362675" lon="8.000581235306106"><ele>380.0</ele><time>2026-04-10T15:31:48Z</time></trkpt><trkpt lat="44.615899700809166" lon="8.000629825917745"><ele>380.33333333333337</ele><time>2026-04-10T15:31:51Z</time></trkpt><trkpt lat="44.61580953980564" lon="8.000670770564932"><ele>380.6666666666667</ele><time>2026-04-10T15:31:54Z</time></trkpt><trkpt lat="44.615723898847854" lon="8.000708800452914"><ele>381.0</ele><time>2026-04-10T15:31:57Z</time></trkpt><trkpt lat="44.61564374707977" lon="8.000751292621995"><ele>381.3333333333333</ele><time>2026-04-10T15:32:00Z</time></trkpt><trkpt lat="44.61556949246112" lon="8.000782164808713"><ele>381.66666666666663</ele><time>2026-04-10T15:32:03.001Z</time></trkpt><trkpt lat="44.61549290882779" lon="8.00081555742905"><ele>382.0</ele><time>2026-04-10T15:32:07.001Z</time></trkpt><trkpt lat="44.61543136721524" lon="8.000840760257125"><ele>382.0</ele><time>2026-04-10T15:32:11.001Z</time></trkpt><trkpt lat="44.61550295806238" lon="8.000852544576912"><ele>382.0</ele><time>2026-04-10T15:32:50Z</time></trkpt><trkpt lat="44.615429057953186" lon="8.000880439336692"><ele>382.0</ele><time>2026-04-10T15:34:04Z</time></trkpt><trkpt lat="44.61533927022264" lon="8.000952641672585"><ele>382.0</ele><time>2026-04-10T15:34:06Z</time></trkpt><trkpt lat="44.61512929507666" lon="8.000996775634661"><ele>382.0</ele><time>2026-04-10T15:34:09Z</time></trkpt><trkpt lat="44.6150644338798" lon="8.001034515134258"><ele>382.0</ele><time>2026-04-10T15:34:10.001Z</time></trkpt><trkpt lat="44.614974442732056" lon="8.00106492386059"><ele>382.0</ele><time>2026-04-10T15:34:11.001Z</time></trkpt><trkpt lat="44.614899402492775" lon="8.001098932666116"><ele>382.0</ele><time>2026-04-10T15:34:12.001Z</time></trkpt><trkpt lat="44.61481445268784" lon="8.001135303330539"><ele>382.0</ele><time>2026-04-10T15:34:13.001Z</time></trkpt><trkpt lat="44.614718314331505" lon="8.001172553462077"><ele>382.0</ele><time>2026-04-10T15:34:14.001Z</time></trkpt><trkpt lat="44.61459972111573" lon="8.001215090319306"><ele>382.0</ele><time>2026-04-10T15:34:15.001Z</time></trkpt><trkpt lat="44.61450411760339" lon="8.001246290648096"><ele>382.0</ele><time>2026-04-10T15:34:16.001Z</time></trkpt><trkpt lat="44.614404258941754" lon="8.001276211893272"><ele>382.0</ele><time>2026-04-10T15:34:17.001Z</time></trkpt><trkpt lat="44.61430490999166" lon="8.001301366939233"><ele>382.0</ele><time>2026-04-10T15:34:18.001Z</time></trkpt><trkpt lat="44.614193165779" lon="8.001321463112397"><ele>382.0</ele><time>2026-04-10T15:34:19.001Z</time></trkpt><trkpt lat="44.614058827051466" lon="8.001344747271084"><ele>381.5</ele><time>2026-04-10T15:34:20.001Z</time></trkpt><trkpt lat="44.613920892616086" lon="8.001365043912703"><ele>381.0</ele><time>2026-04-10T15:34:21.001Z</time></trkpt><trkpt lat="44.61378200604708" lon="8.001380840015376"><ele>380.5</ele><time>2026-04-10T15:34:22.001Z</time></trkpt><trkpt lat="44.61362882889902" lon="8.001398175946647"><ele>380.0</ele><time>2026-04-10T15:34:23.001Z</time></trkpt><trkpt lat="44.61346466298458" lon="8.001437751454075"><ele>377.75</ele><time>2026-04-10T15:34:24.001Z</time></trkpt><trkpt lat="44.61332979538352" lon="8.001383104436977"><ele>375.5</ele><time>2026-04-10T15:34:25.001Z</time></trkpt><trkpt lat="44.61319627454303" lon="8.001346673104752"><ele>373.25</ele><time>2026-04-10T15:34:26.001Z</time></trkpt><trkpt lat="44.61309755584569" lon="8.001331780920143"><ele>371.0</ele><time>2026-04-10T15:34:27.001Z</time></trkpt><trkpt lat="44.612948454064515" lon="8.001288389665794"><ele>371.0</ele><time>2026-04-10T15:34:28.001Z</time></trkpt><trkpt lat="44.61282833391247" lon="8.001239462237947"><ele>371.0</ele><time>2026-04-10T15:34:29.001Z</time></trkpt><trkpt lat="44.61269438478638" lon="8.001207927640046"><ele>371.0</ele><time>2026-04-10T15:34:30.001Z</time></trkpt><trkpt lat="44.61259035165349" lon="8.00115177367615"><ele>371.0</ele><time>2026-04-10T15:34:31.001Z</time></trkpt><trkpt lat="44.61246156448283" lon="8.001090045445094"><ele>373.0</ele><time>2026-04-10T15:34:32.001Z</time></trkpt><trkpt lat="44.61230138210424" lon="8.0009951051363"><ele>375.0</ele><time>2026-04-10T15:34:33.001Z</time></trkpt><trkpt lat="44.61218360790693" lon="8.000932310721325"><ele>377.0</ele><time>2026-04-10T15:34:34.001Z</time></trkpt><trkpt lat="44.61209088850769" lon="8.00081981357369"><ele>379.0</ele><time>2026-04-10T15:34:35.001Z</time></trkpt><trkpt lat="44.61198776797942" lon="8.000748409059678"><ele>379.2</ele><time>2026-04-10T15:34:36.001Z</time></trkpt><trkpt lat="44.61191031825156" lon="8.000676154189913"><ele>379.4</ele><time>2026-04-10T15:34:37.001Z</time></trkpt><trkpt lat="44.61183132582584" lon="8.000613136052708"><ele>379.6</ele><time>2026-04-10T15:34:38.001Z</time></trkpt><trkpt lat="44.61174347711965" lon="8.000515711350376"><ele>379.8</ele><time>2026-04-10T15:34:39.001Z</time></trkpt><trkpt lat="44.611665176364866" lon="8.000438017931291"><ele>380.0</ele><time>2026-04-10T15:34:40.001Z</time></trkpt><trkpt lat="44.61157193720465" lon="8.00033074717828"><ele>380.0</ele><time>2026-04-10T15:34:41.001Z</time></trkpt><trkpt lat="44.61151032296095" lon="8.000222259705655"><ele>380.0</ele><time>2026-04-10T15:34:42.001Z</time></trkpt><trkpt lat="44.61145367135912" lon="8.00008808235438"><ele>380.0</ele><time>2026-04-10T15:34:43.001Z</time></trkpt><trkpt lat="44.61141486257867" lon="7.9999273114349485"><ele>380.0</ele><time>2026-04-10T15:34:44.001Z</time></trkpt><trkpt lat="44.61138123593567" lon="7.999778689012443"><ele>380.0</ele><time>2026-04-10T15:34:45.001Z</time></trkpt><trkpt lat="44.61135053589786" lon="7.999649921655088"><ele>380.0</ele><time>2026-04-10T15:34:46.001Z</time></trkpt><trkpt lat="44.61131625138739" lon="7.999513671418089"><ele>380.0</ele><time>2026-04-10T15:34:47.001Z</time></trkpt><trkpt lat="44.61129021914921" lon="7.999410790232771"><ele>380.0</ele><time>2026-04-10T15:34:48Z</time></trkpt><trkpt lat="44.611263111047286" lon="7.999319217728176"><ele>380.0</ele><time>2026-04-10T15:34:49Z</time></trkpt><trkpt lat="44.611227119451996" lon="7.999219709558179"><ele>380.0</ele><time>2026-04-10T15:34:50Z</time></trkpt><trkpt lat="44.61119408373506" lon="7.999143822027176"><ele>380.0</ele><time>2026-04-10T15:34:51Z</time></trkpt><trkpt lat="44.61109899940297" lon="7.99903506966793"><ele>382.0</ele><time>2026-04-10T15:34:53Z</time></trkpt><trkpt lat="44.61103549901302" lon="7.999005299116083"><ele>384.0</ele><time>2026-04-10T15:34:54Z</time></trkpt><trkpt lat="44.61092399231534" lon="7.99896222304698"><ele>386.0</ele><time>2026-04-10T15:34:55Z</time></trkpt><trkpt lat="44.61081695991653" lon="7.999017945985567"><ele>388.0</ele><time>2026-04-10T15:34:56Z</time></trkpt><trkpt lat="44.61073323348916" lon="7.9990557201637635"><ele>390.0</ele><time>2026-04-10T15:34:57Z</time></trkpt><trkpt lat="44.610653888260316" lon="7.999107615627943"><ele>390.0</ele><time>2026-04-10T15:34:58Z</time></trkpt><trkpt lat="44.61058118465161" lon="7.999163141148217"><ele>390.0</ele><time>2026-04-10T15:34:59Z</time></trkpt><trkpt lat="44.61049900017433" lon="7.999261717932121"><ele>390.0</ele><time>2026-04-10T15:35:00Z</time></trkpt><trkpt lat="44.61029387347876" lon="7.999400783092406"><ele>390.0</ele><time>2026-04-10T15:35:01Z</time></trkpt><trkpt lat="44.610204012483564" lon="7.999460758491345"><ele>390.6</ele><time>2026-04-10T15:35:02Z</time></trkpt><trkpt lat="44.61012709508054" lon="7.999567592894866"><ele>391.2</ele><time>2026-04-10T15:35:03Z</time></trkpt><trkpt lat="44.61004742901086" lon="7.999660743525607"><ele>391.79999999999995</ele><time>2026-04-10T15:35:04Z</time></trkpt><trkpt lat="44.6099921905741" lon="7.999765954926521"><ele>392.4</ele><time>2026-04-10T15:35:05Z</time></trkpt><trkpt lat="44.609923522335755" lon="7.999842728769061"><ele>393.0</ele><time>2026-04-10T15:35:06Z</time></trkpt><trkpt lat="44.609823965551875" lon="7.999933191572776"><ele>393.0</ele><time>2026-04-10T15:35:07Z</time></trkpt><trkpt lat="44.6097328370999" lon="8.000018103784631"><ele>393.0</ele><time>2026-04-10T15:35:08Z</time></trkpt><trkpt lat="44.60960100569883" lon="8.000072816819085"><ele>393.0</ele><time>2026-04-10T15:35:10Z</time></trkpt><trkpt lat="44.60952728228107" lon="8.00016356095132"><ele>393.0</ele><time>2026-04-10T15:35:11Z</time></trkpt><trkpt lat="44.6094530785895" lon="8.000233799918336"><ele>393.0</ele><time>2026-04-10T15:35:12Z</time></trkpt><trkpt lat="44.60937981960594" lon="8.000319623131853"><ele>391.3333333333333</ele><time>2026-04-10T15:35:13Z</time></trkpt><trkpt lat="44.609321958098036" lon="8.00040071892418"><ele>389.6666666666667</ele><time>2026-04-10T15:35:14Z</time></trkpt><trkpt lat="44.60924931508499" lon="8.000463203142589"><ele>388.0</ele><time>2026-04-10T15:35:15Z</time></trkpt><trkpt lat="44.609169720828895" lon="8.000485414564952"><ele>386.33333333333337</ele><time>2026-04-10T15:35:16Z</time></trkpt><trkpt lat="44.609082342859736" lon="8.000512131610778"><ele>384.6666666666667</ele><time>2026-04-10T15:35:17Z</time></trkpt><trkpt lat="44.60900340438203" lon="8.000537907586082"><ele>383.0</ele><time>2026-04-10T15:35:18Z</time></trkpt><trkpt lat="44.608917744962774" lon="8.000562716281465"><ele>383.0</ele><time>2026-04-10T15:35:19Z</time></trkpt><trkpt lat="44.60886043570968" lon="8.000599768821901"><ele>383.0</ele><time>2026-04-10T15:35:20Z</time></trkpt><trkpt lat="44.60878765977857" lon="8.000618866662554"><ele>383.0</ele><time>2026-04-10T15:35:21Z</time></trkpt><trkpt lat="44.6086772950004" lon="8.000627771546432"><ele>383.0</ele><time>2026-04-10T15:35:22Z</time></trkpt><trkpt lat="44.608593803277" lon="8.000613334782416"><ele>383.0</ele><time>2026-04-10T15:35:23Z</time></trkpt><trkpt lat="44.60847071418811" lon="8.000587851275766"><ele>382.4</ele><time>2026-04-10T15:35:25Z</time></trkpt><trkpt lat="44.6083987746135" lon="8.00056838391835"><ele>381.79999999999995</ele><time>2026-04-10T15:35:26Z</time></trkpt><trkpt lat="44.608298775816934" lon="8.00053678740066"><ele>381.2</ele><time>2026-04-10T15:35:28Z</time></trkpt><trkpt lat="44.60820210578797" lon="8.000492678655528"><ele>380.6</ele><time>2026-04-10T15:35:30Z</time></trkpt><trkpt lat="44.608095498123376" lon="8.000444935288094"><ele>380.0</ele><time>2026-04-10T15:35:32Z</time></trkpt><trkpt lat="44.607989506364525" lon="8.000400329756022"><ele>380.0</ele><time>2026-04-10T15:35:33Z</time></trkpt><trkpt lat="44.60787538100885" lon="8.00037709612821"><ele>380.0</ele><time>2026-04-10T15:35:34Z</time></trkpt><trkpt lat="44.607753631121064" lon="8.000305884633828"><ele>380.0</ele><time>2026-04-10T15:35:35Z</time></trkpt><trkpt lat="44.607646224920586" lon="8.000256311775782"><ele>380.0</ele><time>2026-04-10T15:35:36Z</time></trkpt><trkpt lat="44.60755512599382" lon="8.00020983905798"><ele>381.0</ele><time>2026-04-10T15:35:37Z</time></trkpt><trkpt lat="44.60747405370089" lon="8.00016483369871"><ele>382.0</ele><time>2026-04-10T15:35:38Z</time></trkpt><trkpt lat="44.607390311152734" lon="8.000118914537804"><ele>383.0</ele><time>2026-04-10T15:35:39Z</time></trkpt><trkpt lat="44.60731459640421" lon="8.00006993158"><ele>384.0</ele><time>2026-04-10T15:35:40Z</time></trkpt><trkpt lat="44.60723952812402" lon="8.00002183132449"><ele>385.0</ele><time>2026-04-10T15:35:41Z</time></trkpt><trkpt lat="44.6071375047277" lon="7.999933257364929"><ele>385.0</ele><time>2026-04-10T15:35:43Z</time></trkpt><trkpt lat="44.607028090757176" lon="7.999825107981558"><ele>385.0</ele><time>2026-04-10T15:35:45Z</time></trkpt><trkpt lat="44.60694524999426" lon="7.999761501516784"><ele>385.0</ele><time>2026-04-10T15:35:46Z</time></trkpt><trkpt lat="44.606868386863276" lon="7.9996886713564885"><ele>385.0</ele><time>2026-04-10T15:35:47Z</time></trkpt><trkpt lat="44.60680418752711" lon="7.999619165776619"><ele>385.0</ele><time>2026-04-10T15:35:48Z</time></trkpt><trkpt lat="44.60672687914337" lon="7.999560917687049"><ele>386.2</ele><time>2026-04-10T15:35:49Z</time></trkpt><trkpt lat="44.60663410755441" lon="7.999518141326296"><ele>387.4</ele><time>2026-04-10T15:35:50Z</time></trkpt><trkpt lat="44.60651448813908" lon="7.999513015512532"><ele>388.6</ele><time>2026-04-10T15:35:51Z</time></trkpt><trkpt lat="44.606399893709174" lon="7.9995455644533076"><ele>389.8</ele><time>2026-04-10T15:35:52Z</time></trkpt><trkpt lat="44.606306687939544" lon="7.9995728850964865"><ele>391.0</ele><time>2026-04-10T15:35:53Z</time></trkpt><trkpt lat="44.60620801673653" lon="7.999577416560046"><ele>389.6</ele><time>2026-04-10T15:35:54Z</time></trkpt><trkpt lat="44.606097760327145" lon="7.999605558965727"><ele>388.20000000000005</ele><time>2026-04-10T15:35:55Z</time></trkpt><trkpt lat="44.606030425002245" lon="7.999615337628635"><ele>386.79999999999995</ele><time>2026-04-10T15:35:56Z</time></trkpt><trkpt lat="44.605936104058976" lon="7.999576221073699"><ele>385.4</ele><time>2026-04-10T15:35:57Z</time></trkpt><trkpt lat="44.60584313304039" lon="7.9995475481853555"><ele>384.0</ele><time>2026-04-10T15:35:58Z</time></trkpt><trkpt lat="44.605742070745904" lon="7.99951627077365"><ele>384.0</ele><time>2026-04-10T15:35:59Z</time></trkpt><trkpt lat="44.60561747206501" lon="7.99947121604814"><ele>384.0</ele><time>2026-04-10T15:36:00Z</time></trkpt><trkpt lat="44.60550509855141" lon="7.999488977722189"><ele>384.0</ele><time>2026-04-10T15:36:01Z</time></trkpt><trkpt lat="44.6054050385706" lon="7.999466757806344"><ele>384.0</ele><time>2026-04-10T15:36:02Z</time></trkpt><trkpt lat="44.605290546424726" lon="7.999440235866527"><ele>381.75</ele><time>2026-04-10T15:36:03Z</time></trkpt><trkpt lat="44.60519357938183" lon="7.999404490400056"><ele>379.5</ele><time>2026-04-10T15:36:04Z</time></trkpt><trkpt lat="44.605112385189585" lon="7.999300756458811"><ele>377.25</ele><time>2026-04-10T15:36:05Z</time></trkpt><trkpt lat="44.604992474843456" lon="7.9992625424811"><ele>375.0</ele><time>2026-04-10T15:36:06Z</time></trkpt><trkpt lat="44.60487313085918" lon="7.999247974714511"><ele>375.0</ele><time>2026-04-10T15:36:07Z</time></trkpt><trkpt lat="44.60477256643435" lon="7.99918558788936"><ele>375.0</ele><time>2026-04-10T15:36:08Z</time></trkpt><trkpt lat="44.6046729354456" lon="7.999142530279373"><ele>375.0</ele><time>2026-04-10T15:36:09Z</time></trkpt><trkpt lat="44.60456022233972" lon="7.999103020819585"><ele>375.0</ele><time>2026-04-10T15:36:10Z</time></trkpt><trkpt lat="44.604447810197215" lon="7.999067173582093"><ele>375.0</ele><time>2026-04-10T15:36:11Z</time></trkpt><trkpt lat="44.604333952784984" lon="7.9990279275988385"><ele>377.0</ele><time>2026-04-10T15:36:12Z</time></trkpt><trkpt lat="44.60421322005333" lon="7.998991609897419"><ele>379.0</ele><time>2026-04-10T15:36:13Z</time></trkpt><trkpt lat="44.60408809414544" lon="7.998969362838428"><ele>381.0</ele><time>2026-04-10T15:36:14Z</time></trkpt><trkpt lat="44.60396585719471" lon="7.998958692080815"><ele>383.0</ele><time>2026-04-10T15:36:15Z</time></trkpt><trkpt lat="44.60384873481995" lon="7.998952255189067"><ele>383.0</ele><time>2026-04-10T15:36:16.001Z</time></trkpt><trkpt lat="44.60371846706605" lon="7.9989707985677985"><ele>383.0</ele><time>2026-04-10T15:36:17.001Z</time></trkpt><trkpt lat="44.60358367269974" lon="7.998986867136709"><ele>383.0</ele><time>2026-04-10T15:36:18.001Z</time></trkpt><trkpt lat="44.60345769032342" lon="7.998986580187512"><ele>383.0</ele><time>2026-04-10T15:36:19.001Z</time></trkpt><trkpt lat="44.60331532879747" lon="7.998996921860165"><ele>382.75</ele><time>2026-04-10T15:36:20.001Z</time></trkpt><trkpt lat="44.60317434552449" lon="7.99904476675922"><ele>382.5</ele><time>2026-04-10T15:36:21.001Z</time></trkpt><trkpt lat="44.603041046630025" lon="7.999093764767026"><ele>382.25</ele><time>2026-04-10T15:36:22.001Z</time></trkpt><trkpt lat="44.602915508084976" lon="7.999116335347476"><ele>382.0</ele><time>2026-04-10T15:36:23.001Z</time></trkpt><trkpt lat="44.60279831387461" lon="7.999155388057848"><ele>380.75</ele><time>2026-04-10T15:36:24.001Z</time></trkpt><trkpt lat="44.602676400886736" lon="7.999192853828901"><ele>379.5</ele><time>2026-04-10T15:36:25.001Z</time></trkpt><trkpt lat="44.60254633260982" lon="7.99923165533159"><ele>378.25</ele><time>2026-04-10T15:36:26.001Z</time></trkpt><trkpt lat="44.6024297820741" lon="7.9992726384728385"><ele>377.0</ele><time>2026-04-10T15:36:27.001Z</time></trkpt><trkpt lat="44.60231349792998" lon="7.999304138589072"><ele>377.0</ele><time>2026-04-10T15:36:28.001Z</time></trkpt><trkpt lat="44.602209155485994" lon="7.99933736494298"><ele>377.0</ele><time>2026-04-10T15:36:29.001Z</time></trkpt><trkpt lat="44.60209492936841" lon="7.9993805930877695"><ele>377.0</ele><time>2026-04-10T15:36:30.001Z</time></trkpt><trkpt lat="44.601978301017034" lon="7.999414071883917"><ele>377.0</ele><time>2026-04-10T15:36:31.001Z</time></trkpt><trkpt lat="44.60185359898784" lon="7.999446403938756"><ele>377.20000000000005</ele><time>2026-04-10T15:36:32.001Z</time></trkpt><trkpt lat="44.60175186028365" lon="7.9994659819043985"><ele>377.4</ele><time>2026-04-10T15:36:33.001Z</time></trkpt><trkpt lat="44.601641730374624" lon="7.999481035829729"><ele>377.6</ele><time>2026-04-10T15:36:34.001Z</time></trkpt><trkpt lat="44.601552438988634" lon="7.999507560121261"><ele>377.79999999999995</ele><time>2026-04-10T15:36:35.001Z</time></trkpt><trkpt lat="44.60143251188135" lon="7.999532552116263"><ele>378.0</ele><time>2026-04-10T15:36:36.001Z</time></trkpt><trkpt lat="44.60132340979878" lon="7.9995848072545686"><ele>378.0</ele><time>2026-04-10T15:36:37.001Z</time></trkpt><trkpt lat="44.60121478913875" lon="7.9996167016516635"><ele>378.0</ele><time>2026-04-10T15:36:38.001Z</time></trkpt><trkpt lat="44.60108797616754" lon="7.999632206398918"><ele>378.0</ele><time>2026-04-10T15:36:39.001Z</time></trkpt><trkpt lat="44.600977523256475" lon="7.999649828814006"><ele>378.0</ele><time>2026-04-10T15:36:40.001Z</time></trkpt><trkpt lat="44.6008603778633" lon="7.999675724983115"><ele>378.0</ele><time>2026-04-10T15:36:41.001Z</time></trkpt><trkpt lat="44.6007532353934" lon="7.999706441879274"><ele>378.0</ele><time>2026-04-10T15:36:42.001Z</time></trkpt><trkpt lat="44.60064707254938" lon="7.999734008474624"><ele>378.0</ele><time>2026-04-10T15:36:43.001Z</time></trkpt><trkpt lat="44.60054733389124" lon="7.999759342353098"><ele>378.0</ele><time>2026-04-10T15:36:44.001Z</time></trkpt><trkpt lat="44.600442427505676" lon="7.999795274179964"><ele>378.0</ele><time>2026-04-10T15:36:45.001Z</time></trkpt><trkpt lat="44.60034787747669" lon="7.999846376834331"><ele>378.0</ele><time>2026-04-10T15:36:46.001Z</time></trkpt><trkpt lat="44.600259423813036" lon="7.999913991278315"><ele>378.0</ele><time>2026-04-10T15:36:47.001Z</time></trkpt><trkpt lat="44.600182336874" lon="7.999998730934744"><ele>378.0</ele><time>2026-04-10T15:36:48.001Z</time></trkpt><trkpt lat="44.600105257076734" lon="8.00011022212851"><ele>378.0</ele><time>2026-04-10T15:36:49.001Z</time></trkpt><trkpt lat="44.60002813365141" lon="8.000246149291835"><ele>378.0</ele><time>2026-04-10T15:36:50.001Z</time></trkpt><trkpt lat="44.59994839123174" lon="8.000386225158111"><ele>378.0</ele><time>2026-04-10T15:36:51.001Z</time></trkpt><trkpt lat="44.599893423248034" lon="8.000523384315104"><ele>378.0</ele><time>2026-04-10T15:36:52.001Z</time></trkpt><trkpt lat="44.599845064867374" lon="8.000645778343152"><ele>378.0</ele><time>2026-04-10T15:36:53.001Z</time></trkpt><trkpt lat="44.59978774584738" lon="8.00079276022586"><ele>378.0</ele><time>2026-04-10T15:36:54Z</time></trkpt><trkpt lat="44.59974537466854" lon="8.000919585199926"><ele>378.0</ele><time>2026-04-10T15:36:55Z</time></trkpt><trkpt lat="44.599717057693994" lon="8.001054216843881"><ele>378.2</ele><time>2026-04-10T15:36:56Z</time></trkpt><trkpt lat="44.599719389620134" lon="8.001168239606962"><ele>378.4</ele><time>2026-04-10T15:36:57Z</time></trkpt><trkpt lat="44.599715358404765" lon="8.001309266852639"><ele>378.59999999999997</ele><time>2026-04-10T15:36:58Z</time></trkpt><trkpt lat="44.59973798190679" lon="8.001444596720912"><ele>378.79999999999995</ele><time>2026-04-10T15:36:59Z</time></trkpt><trkpt lat="44.599774330782694" lon="8.001596551436059"><ele>379.0</ele><time>2026-04-10T15:37:00Z</time></trkpt><trkpt lat="44.599813579079616" lon="8.001745824507847"><ele>379.4</ele><time>2026-04-10T15:37:01Z</time></trkpt><trkpt lat="44.5998338309161" lon="8.001890532435759"><ele>379.79999999999995</ele><time>2026-04-10T15:37:02Z</time></trkpt><trkpt lat="44.5998639484232" lon="8.00201951796854"><ele>380.20000000000005</ele><time>2026-04-10T15:37:03Z</time></trkpt><trkpt lat="44.599881340049514" lon="8.002109597591469"><ele>380.6</ele><time>2026-04-10T15:37:04Z</time></trkpt><trkpt lat="44.599904603261486" lon="8.002267595754963"><ele>381.0</ele><time>2026-04-10T15:37:05Z</time></trkpt><trkpt lat="44.59992000022541" lon="8.002443514019332"><ele>381.8</ele><time>2026-04-10T15:37:06Z</time></trkpt><trkpt lat="44.59993244633211" lon="8.002583931310225"><ele>382.6</ele><time>2026-04-10T15:37:07Z</time></trkpt><trkpt lat="44.5999321946261" lon="8.002728499925878"><ele>383.4</ele><time>2026-04-10T15:37:08Z</time></trkpt><trkpt lat="44.59994918007298" lon="8.002877195959867"><ele>384.2</ele><time>2026-04-10T15:37:09Z</time></trkpt><trkpt lat="44.599997094583806" lon="8.00302194894537"><ele>385.0</ele><time>2026-04-10T15:37:10Z</time></trkpt><trkpt lat="44.600043891342565" lon="8.003127952583904"><ele>385.0</ele><time>2026-04-10T15:37:11Z</time></trkpt><trkpt lat="44.60011262188457" lon="8.003253842397088"><ele>385.0</ele><time>2026-04-10T15:37:12Z</time></trkpt><trkpt lat="44.60019829502995" lon="8.003374333251882"><ele>385.0</ele><time>2026-04-10T15:37:13Z</time></trkpt><trkpt lat="44.60024354207115" lon="8.0035147221443"><ele>385.0</ele><time>2026-04-10T15:37:14Z</time></trkpt><trkpt lat="44.60030094982892" lon="8.003633602865913"><ele>385.0</ele><time>2026-04-10T15:37:15Z</time></trkpt><trkpt lat="44.60035419039205" lon="8.00374939583427"><ele>384.2</ele><time>2026-04-10T15:37:16Z</time></trkpt><trkpt lat="44.60041384220036" lon="8.003878192449474"><ele>383.4</ele><time>2026-04-10T15:37:17Z</time></trkpt><trkpt lat="44.60046430366989" lon="8.003986582711764"><ele>382.6</ele><time>2026-04-10T15:37:18Z</time></trkpt><trkpt lat="44.60052620645948" lon="8.004105995525926"><ele>381.8</ele><time>2026-04-10T15:37:19Z</time></trkpt><trkpt lat="44.60059713235838" lon="8.004228632437371"><ele>381.0</ele><time>2026-04-10T15:37:20Z</time></trkpt><trkpt lat="44.600647511969875" lon="8.004317008486641"><ele>382.5</ele><time>2026-04-10T15:37:21Z</time></trkpt><trkpt lat="44.600695751003215" lon="8.00440354122149"><ele>384.0</ele><time>2026-04-10T15:37:22Z</time></trkpt><trkpt lat="44.600749887443" lon="8.004501557733121"><ele>385.5</ele><time>2026-04-10T15:37:23Z</time></trkpt><trkpt lat="44.60080616682612" lon="8.004590854794005"><ele>387.0</ele><time>2026-04-10T15:37:24Z</time></trkpt><trkpt lat="44.60084502499566" lon="8.004674700076922"><ele>388.5</ele><time>2026-04-10T15:37:25Z</time></trkpt><trkpt lat="44.60087725329094" lon="8.004757444000381"><ele>390.0</ele><time>2026-04-10T15:37:26Z</time></trkpt><trkpt lat="44.60087629328838" lon="8.004893507001263"><ele>390.0</ele><time>2026-04-10T15:37:28Z</time></trkpt><trkpt lat="44.60085903354963" lon="8.004979448508678"><ele>390.0</ele><time>2026-04-10T15:37:30Z</time></trkpt><trkpt lat="44.600764825998475" lon="8.00496338485607"><ele>390.0</ele><time>2026-04-10T15:37:31Z</time></trkpt><trkpt lat="44.60068036420504" lon="8.004856809089613"><ele>390.0</ele><time>2026-04-10T15:37:33Z</time></trkpt><trkpt lat="44.60063744871587" lon="8.004724952784457"><ele>390.0</ele><time>2026-04-10T15:37:34Z</time></trkpt><trkpt lat="44.600608269369275" lon="8.004634454222586"><ele>390.0</ele><time>2026-04-10T15:37:35Z</time></trkpt><trkpt lat="44.60054932405556" lon="8.004547338600043"><ele>390.0</ele><time>2026-04-10T15:37:36Z</time></trkpt><trkpt lat="44.60048924940249" lon="8.004427976377055"><ele>390.0</ele><time>2026-04-10T15:37:37Z</time></trkpt><trkpt lat="44.60042381287523" lon="8.004322917420323"><ele>390.0</ele><time>2026-04-10T15:37:38Z</time></trkpt><trkpt lat="44.60033837139452" lon="8.004222380564407"><ele>390.0</ele><time>2026-04-10T15:37:39Z</time></trkpt><trkpt lat="44.60027277162051" lon="8.004144360633267"><ele>390.0</ele><time>2026-04-10T15:37:40Z</time></trkpt><trkpt lat="44.60018436491929" lon="8.004068644148225"><ele>390.6666666666667</ele><time>2026-04-10T15:37:41Z</time></trkpt><trkpt lat="44.60008140407216" lon="8.004020060287582"><ele>391.33333333333337</ele><time>2026-04-10T15:37:42Z</time></trkpt><trkpt lat="44.60001069790723" lon="8.004009964629093"><ele>392.0</ele><time>2026-04-10T15:37:43Z</time></trkpt><trkpt lat="44.5999248163732" lon="8.004056017735339"><ele>392.6666666666667</ele><time>2026-04-10T15:37:44Z</time></trkpt><trkpt lat="44.59985682174915" lon="8.004120759851657"><ele>393.33333333333337</ele><time>2026-04-10T15:37:45Z</time></trkpt><trkpt lat="44.599818676461744" lon="8.004219810659205"><ele>394.0</ele><time>2026-04-10T15:37:46Z</time></trkpt><trkpt lat="44.59978919909027" lon="8.004313655066122"><ele>396.00000000000006</ele><time>2026-04-10T15:37:47Z</time></trkpt><trkpt lat="44.59978198728078" lon="8.004434467548933"><ele>398.0</ele><time>2026-04-10T15:37:48Z</time></trkpt><trkpt lat="44.59976873861752" lon="8.004532668585986"><ele>400.0</ele><time>2026-04-10T15:37:49Z</time></trkpt><trkpt lat="44.59976355504979" lon="8.004653973516042"><ele>402.0</ele><time>2026-04-10T15:37:50Z</time></trkpt><trkpt lat="44.599751907680414" lon="8.004827861783983"><ele>404.00000000000006</ele><time>2026-04-10T15:37:51Z</time></trkpt><trkpt lat="44.59972438629674" lon="8.004927046716405"><ele>406.0</ele><time>2026-04-10T15:37:52Z</time></trkpt><trkpt lat="44.59967563141329" lon="8.005056758777002"><ele>405.4</ele><time>2026-04-10T15:37:53Z</time></trkpt><trkpt lat="44.59961324242427" lon="8.005208090447624"><ele>404.8</ele><time>2026-04-10T15:37:54Z</time></trkpt><trkpt lat="44.59955186360407" lon="8.00530357428248"><ele>404.2</ele><time>2026-04-10T15:37:55Z</time></trkpt><trkpt lat="44.599456489004666" lon="8.005415192160477"><ele>403.59999999999997</ele><time>2026-04-10T15:37:56Z</time></trkpt><trkpt lat="44.59940053846281" lon="8.0054811746343"><ele>403.0</ele><time>2026-04-10T15:37:57Z</time></trkpt><trkpt lat="44.59933132279027" lon="8.005548430722182"><ele>403.0</ele><time>2026-04-10T15:37:58Z</time></trkpt><trkpt lat="44.59927130897856" lon="8.005606964575223"><ele>403.0</ele><time>2026-04-10T15:37:59Z</time></trkpt><trkpt lat="44.59916591186323" lon="8.00570976256154"><ele>403.0</ele><time>2026-04-10T15:38:00Z</time></trkpt><trkpt lat="44.59909228536263" lon="8.005781573423093"><ele>403.0</ele><time>2026-04-10T15:38:01Z</time></trkpt><trkpt lat="44.59901420485836" lon="8.005864910805228"><ele>403.0</ele><time>2026-04-10T15:38:02Z</time></trkpt><trkpt lat="44.59893279894065" lon="8.005961554870959"><ele>404.1666666666667</ele><time>2026-04-10T15:38:03Z</time></trkpt><trkpt lat="44.598877796991346" lon="8.006032384986879"><ele>405.33333333333337</ele><time>2026-04-10T15:38:04Z</time></trkpt><trkpt lat="44.598798755647145" lon="8.006121652405046"><ele>406.5</ele><time>2026-04-10T15:38:05Z</time></trkpt><trkpt lat="44.59873123364648" lon="8.00618574504585"><ele>407.66666666666663</ele><time>2026-04-10T15:38:06Z</time></trkpt><trkpt lat="44.598673735876154" lon="8.006234552410296"><ele>408.8333333333333</ele><time>2026-04-10T15:38:07Z</time></trkpt><trkpt lat="44.59856657401364" lon="8.006318536944907"><ele>410.0</ele><time>2026-04-10T15:38:09Z</time></trkpt><trkpt lat="44.59850252224912" lon="8.006359057946465"><ele>410.0</ele><time>2026-04-10T15:38:10Z</time></trkpt><trkpt lat="44.59838706221552" lon="8.006440090102268"><ele>410.0</ele><time>2026-04-10T15:38:12Z</time></trkpt><trkpt lat="44.59830399766241" lon="8.006477842329849"><ele>410.0</ele><time>2026-04-10T15:38:13Z</time></trkpt><trkpt lat="44.59820971428116" lon="8.006534055675202"><ele>410.0</ele><time>2026-04-10T15:38:14Z</time></trkpt><trkpt lat="44.59809561030816" lon="8.006572365867036"><ele>410.0</ele><time>2026-04-10T15:38:15Z</time></trkpt><trkpt lat="44.59800029700566" lon="8.006639745197496"><ele>413.25</ele><time>2026-04-10T15:38:16Z</time></trkpt><trkpt lat="44.59789517641231" lon="8.006667555615238"><ele>416.5</ele><time>2026-04-10T15:38:17Z</time></trkpt><trkpt lat="44.59779685530479" lon="8.006671496571181"><ele>419.75</ele><time>2026-04-10T15:38:18Z</time></trkpt><trkpt lat="44.59767166073212" lon="8.006693283951694"><ele>423.0</ele><time>2026-04-10T15:38:19Z</time></trkpt><trkpt lat="44.59752377113552" lon="8.006715538571623"><ele>423.0</ele><time>2026-04-10T15:38:20Z</time></trkpt><trkpt lat="44.59737508520988" lon="8.006736210097317"><ele>423.0</ele><time>2026-04-10T15:38:21Z</time></trkpt><trkpt lat="44.597215301549525" lon="8.006749614897887"><ele>423.0</ele><time>2026-04-10T15:38:22Z</time></trkpt><trkpt lat="44.59709318439991" lon="8.006745535332527"><ele>423.0</ele><time>2026-04-10T15:38:23Z</time></trkpt><trkpt lat="44.59697441525902" lon="8.00671713342183"><ele>423.0</ele><time>2026-04-10T15:38:24Z</time></trkpt><trkpt lat="44.59682957072509" lon="8.006661394358442"><ele>423.0</ele><time>2026-04-10T15:38:25Z</time></trkpt><trkpt lat="44.59670180515892" lon="8.006572617543632"><ele>423.0</ele><time>2026-04-10T15:38:26Z</time></trkpt><trkpt lat="44.59657225646118" lon="8.006447669470461"><ele>421.0</ele><time>2026-04-10T15:38:27Z</time></trkpt><trkpt lat="44.59646885024848" lon="8.006297205780255"><ele>419.0</ele><time>2026-04-10T15:38:28Z</time></trkpt><trkpt lat="44.59637027131352" lon="8.006189928930274"><ele>417.0</ele><time>2026-04-10T15:38:29.001Z</time></trkpt><trkpt lat="44.596279074137065" lon="8.006036622962476"><ele>415.0</ele><time>2026-04-10T15:38:30.001Z</time></trkpt><trkpt lat="44.59618053155357" lon="8.005932883562728"><ele>419.0</ele><time>2026-04-10T15:38:31.001Z</time></trkpt><trkpt lat="44.59611837664444" lon="8.005759562733157"><ele>423.0</ele><time>2026-04-10T15:38:32.001Z</time></trkpt><trkpt lat="44.596088769159415" lon="8.00559636072039"><ele>427.0</ele><time>2026-04-10T15:38:33.001Z</time></trkpt><trkpt lat="44.5960251338989" lon="8.005413659668758"><ele>431.0</ele><time>2026-04-10T15:38:34.001Z</time></trkpt><trkpt lat="44.595994004715706" lon="8.005274644053511"><ele>431.0</ele><time>2026-04-10T15:38:35.001Z</time></trkpt><trkpt lat="44.595955047522665" lon="8.005133991676152"><ele>431.0</ele><time>2026-04-10T15:38:36.001Z</time></trkpt><trkpt lat="44.59594765107306" lon="8.004985294805767"><ele>431.0</ele><time>2026-04-10T15:38:37.001Z</time></trkpt><trkpt lat="44.595892571114064" lon="8.004879200003748"><ele>431.0</ele><time>2026-04-10T15:38:38.001Z</time></trkpt><trkpt lat="44.59577119206321" lon="8.004818356608338"><ele>431.0</ele><time>2026-04-10T15:38:40.001Z</time></trkpt><trkpt lat="44.5956649126011" lon="8.004799606377583"><ele>429.0</ele><time>2026-04-10T15:38:41.001Z</time></trkpt><trkpt lat="44.59550414481197" lon="8.004799175987502"><ele>427.0</ele><time>2026-04-10T15:38:43.001Z</time></trkpt><trkpt lat="44.59539851197458" lon="8.004757375906946"><ele>425.0</ele><time>2026-04-10T15:38:44.001Z</time></trkpt><trkpt lat="44.59527610183565" lon="8.00469424213962"><ele>423.0</ele><time>2026-04-10T15:38:45.001Z</time></trkpt><trkpt lat="44.59516106146711" lon="8.004581883761844"><ele>423.0</ele><time>2026-04-10T15:38:46.001Z</time></trkpt><trkpt lat="44.59504816956512" lon="8.004501748094029"><ele>423.0</ele><time>2026-04-10T15:38:47.001Z</time></trkpt><trkpt lat="44.594944017826236" lon="8.004386787893864"><ele>423.0</ele><time>2026-04-10T15:38:48.001Z</time></trkpt><trkpt lat="44.59481255858563" lon="8.004271424365271"><ele>423.0</ele><time>2026-04-10T15:38:49.001Z</time></trkpt><trkpt lat="44.594704461544374" lon="8.00410851689312"><ele>423.75</ele><time>2026-04-10T15:38:50.001Z</time></trkpt><trkpt lat="44.594605140692195" lon="8.003966354781234"><ele>424.5</ele><time>2026-04-10T15:38:51.001Z</time></trkpt><trkpt lat="44.594512379895626" lon="8.003810343561824"><ele>425.25</ele><time>2026-04-10T15:38:52.001Z</time></trkpt><trkpt lat="44.59443234515172" lon="8.003621978458778"><ele>426.0</ele><time>2026-04-10T15:38:53.001Z</time></trkpt><trkpt lat="44.594350038496195" lon="8.00344804928674"><ele>426.0</ele><time>2026-04-10T15:38:54.001Z</time></trkpt><trkpt lat="44.59426440442235" lon="8.00335786524982"><ele>426.0</ele><time>2026-04-10T15:38:55.001Z</time></trkpt><trkpt lat="44.59415715046005" lon="8.003252230006817"><ele>426.0</ele><time>2026-04-10T15:38:56.001Z</time></trkpt><trkpt lat="44.5940445511585" lon="8.003157945245672"><ele>426.0</ele><time>2026-04-10T15:38:57.001Z</time></trkpt><trkpt lat="44.593917816456376" lon="8.003084470217717"><ele>425.0</ele><time>2026-04-10T15:38:58.001Z</time></trkpt><trkpt lat="44.593799919191994" lon="8.003013314928948"><ele>424.0</ele><time>2026-04-10T15:38:59.001Z</time></trkpt><trkpt lat="44.59376146251654" lon="8.002934489524637"><ele>423.0</ele><time>2026-04-10T15:39:00Z</time></trkpt><trkpt lat="44.59364360614729" lon="8.002829273916268"><ele>422.0</ele><time>2026-04-10T15:39:01Z</time></trkpt><trkpt lat="44.59353151586276" lon="8.002744285958826"><ele>424.25</ele><time>2026-04-10T15:39:02Z</time></trkpt><trkpt lat="44.59341945589229" lon="8.002686766621629"><ele>426.5</ele><time>2026-04-10T15:39:03Z</time></trkpt><trkpt lat="44.59329266591994" lon="8.00265508183012"><ele>428.75</ele><time>2026-04-10T15:39:04Z</time></trkpt><trkpt lat="44.59315527272837" lon="8.002677006372815"><ele>431.0</ele><time>2026-04-10T15:39:05Z</time></trkpt><trkpt lat="44.59301765290654" lon="8.002693563258442"><ele>431.0</ele><time>2026-04-10T15:39:06Z</time></trkpt><trkpt lat="44.59287955156056" lon="8.00275200591802"><ele>431.0</ele><time>2026-04-10T15:39:07Z</time></trkpt><trkpt lat="44.59273113544182" lon="8.002823961314583"><ele>431.0</ele><time>2026-04-10T15:39:08Z</time></trkpt><trkpt lat="44.592604998462356" lon="8.00288466879889"><ele>431.0</ele><time>2026-04-10T15:39:09Z</time></trkpt><trkpt lat="44.59247848495775" lon="8.002955291933905"><ele>431.0</ele><time>2026-04-10T15:39:10Z</time></trkpt><trkpt lat="44.59231237238077" lon="8.00300868175894"><ele>431.0</ele><time>2026-04-10T15:39:11Z</time></trkpt><trkpt lat="44.59214468536599" lon="8.003046834694413"><ele>431.0</ele><time>2026-04-10T15:39:12Z</time></trkpt><trkpt lat="44.59198200673281" lon="8.003063076484727"><ele>431.0</ele><time>2026-04-10T15:39:13Z</time></trkpt><trkpt lat="44.591828651624205" lon="8.003063784199831"><ele>431.0</ele><time>2026-04-10T15:39:14Z</time></trkpt><trkpt lat="44.59170713569808" lon="8.003055540110198"><ele>431.0</ele><time>2026-04-10T15:39:15Z</time></trkpt><trkpt lat="44.59153580884118" lon="8.00304310809642"><ele>431.0</ele><time>2026-04-10T15:39:16Z</time></trkpt><trkpt lat="44.591347613289635" lon="8.003025277300026"><ele>431.0</ele><time>2026-04-10T15:39:17Z</time></trkpt><trkpt lat="44.59118050948422" lon="8.003008977865399"><ele>431.0</ele><time>2026-04-10T15:39:18Z</time></trkpt><trkpt lat="44.591013626419674" lon="8.00299199579082"><ele>431.0</ele><time>2026-04-10T15:39:19Z</time></trkpt><trkpt lat="44.590805884237845" lon="8.00297085350151"><ele>431.75</ele><time>2026-04-10T15:39:20Z</time></trkpt><trkpt lat="44.59066110858749" lon="8.002956119459562"><ele>432.5</ele><time>2026-04-10T15:39:21Z</time></trkpt><trkpt lat="44.59055449492067" lon="8.002945269194926"><ele>433.25</ele><time>2026-04-10T15:39:22Z</time></trkpt><trkpt lat="44.59044060495549" lon="8.002934496746938"><ele>434.0</ele><time>2026-04-10T15:39:23Z</time></trkpt><trkpt lat="44.59031939468315" lon="8.002944986116319"><ele>432.5</ele><time>2026-04-10T15:39:24Z</time></trkpt><trkpt lat="44.590185731022544" lon="8.0029293795029"><ele>431.0</ele><time>2026-04-10T15:39:25Z</time></trkpt><trkpt lat="44.59006494577752" lon="8.002905452705548"><ele>429.5</ele><time>2026-04-10T15:39:26Z</time></trkpt><trkpt lat="44.58992703698715" lon="8.002914719530992"><ele>428.0</ele><time>2026-04-10T15:39:27Z</time></trkpt><trkpt lat="44.58978379654146" lon="8.002971505739344"><ele>428.0</ele><time>2026-04-10T15:39:28Z</time></trkpt><trkpt lat="44.58965653377588" lon="8.003056665238546"><ele>428.0</ele><time>2026-04-10T15:39:29Z</time></trkpt><trkpt lat="44.589547979635825" lon="8.003141246745418"><ele>428.0</ele><time>2026-04-10T15:39:30Z</time></trkpt><trkpt lat="44.589476800180186" lon="8.003253542362126"><ele>428.0</ele><time>2026-04-10T15:39:31Z</time></trkpt><trkpt lat="44.58939794256715" lon="8.003393683785555"><ele>428.66666666666663</ele><time>2026-04-10T15:39:32Z</time></trkpt><trkpt lat="44.589281969139826" lon="8.003542561464268"><ele>429.33333333333337</ele><time>2026-04-10T15:39:33Z</time></trkpt><trkpt lat="44.58917419594819" lon="8.003707064296652"><ele>430.0</ele><time>2026-04-10T15:39:34Z</time></trkpt><trkpt lat="44.589051792449354" lon="8.003847915302787"><ele>430.0</ele><time>2026-04-10T15:39:35Z</time></trkpt><trkpt lat="44.58893583751875" lon="8.004038615921374"><ele>430.0</ele><time>2026-04-10T15:39:36Z</time></trkpt><trkpt lat="44.58883942217397" lon="8.004195895918096"><ele>430.0</ele><time>2026-04-10T15:39:37Z</time></trkpt><trkpt lat="44.588741966319105" lon="8.004354724947516"><ele>427.5</ele><time>2026-04-10T15:39:38Z</time></trkpt><trkpt lat="44.588642673609634" lon="8.004516547661714"><ele>425.0</ele><time>2026-04-10T15:39:39Z</time></trkpt><trkpt lat="44.58853905797444" lon="8.004689140476323"><ele>422.5</ele><time>2026-04-10T15:39:40Z</time></trkpt><trkpt lat="44.588465536197724" lon="8.0048368861615"><ele>420.0</ele><time>2026-04-10T15:39:41Z</time></trkpt><trkpt lat="44.58839041601036" lon="8.005029689278167"><ele>420.0</ele><time>2026-04-10T15:39:42Z</time></trkpt><trkpt lat="44.588339362293034" lon="8.005218491158328"><ele>420.0</ele><time>2026-04-10T15:39:43Z</time></trkpt><trkpt lat="44.5883127965284" lon="8.005390925194188"><ele>420.0</ele><time>2026-04-10T15:39:44Z</time></trkpt><trkpt lat="44.588305880520956" lon="8.005592303634492"><ele>420.0</ele><time>2026-04-10T15:39:45Z</time></trkpt><trkpt lat="44.58831653143037" lon="8.005799296049913"><ele>421.75</ele><time>2026-04-10T15:39:46Z</time></trkpt><trkpt lat="44.58835695605823" lon="8.00596841704832"><ele>423.5</ele><time>2026-04-10T15:39:47Z</time></trkpt><trkpt lat="44.588402315612264" lon="8.006156680609932"><ele>425.25</ele><time>2026-04-10T15:39:48Z</time></trkpt><trkpt lat="44.58844636808768" lon="8.0063244559703"><ele>427.0</ele><time>2026-04-10T15:39:49Z</time></trkpt><trkpt lat="44.5885074051058" lon="8.006479932425096"><ele>427.0</ele><time>2026-04-10T15:39:50Z</time></trkpt><trkpt lat="44.58853336005224" lon="8.006590065416933"><ele>427.00000000000006</ele><time>2026-04-10T15:39:51Z</time></trkpt><trkpt lat="44.58855515327811" lon="8.00670117834253"><ele>427.00000000000006</ele><time>2026-04-10T15:39:52Z</time></trkpt><trkpt lat="44.588477955748615" lon="8.006840006807598"><ele>427.0</ele><time>2026-04-10T15:39:54Z</time></trkpt><trkpt lat="44.58840629594729" lon="8.006892900882065"><ele>427.0</ele><time>2026-04-10T15:39:55Z</time></trkpt><trkpt lat="44.58832128093337" lon="8.006905200951568"><ele>428.33333333333337</ele><time>2026-04-10T15:39:56Z</time></trkpt><trkpt lat="44.58823399398862" lon="8.006918366217507"><ele>429.6666666666667</ele><time>2026-04-10T15:39:57Z</time></trkpt><trkpt lat="44.58814950341924" lon="8.00689022751043"><ele>431.0</ele><time>2026-04-10T15:39:58Z</time></trkpt><trkpt lat="44.588077202142294" lon="8.006878156650389"><ele>432.33333333333337</ele><time>2026-04-10T15:39:59Z</time></trkpt><trkpt lat="44.58799617144622" lon="8.006864349860118"><ele>433.6666666666667</ele><time>2026-04-10T15:40:00Z</time></trkpt><trkpt lat="44.58788182997497" lon="8.006845219892071"><ele>435.0</ele><time>2026-04-10T15:40:01Z</time></trkpt><trkpt lat="44.58776514216833" lon="8.006826547077445"><ele>435.0</ele><time>2026-04-10T15:40:02Z</time></trkpt><trkpt lat="44.58767043034111" lon="8.00681313715924"><ele>435.0</ele><time>2026-04-10T15:40:03Z</time></trkpt><trkpt lat="44.587563987685435" lon="8.00680220368347"><ele>435.0</ele><time>2026-04-10T15:40:04Z</time></trkpt><trkpt lat="44.58742223788494" lon="8.006810659162454"><ele>435.0</ele><time>2026-04-10T15:40:05Z</time></trkpt><trkpt lat="44.587287286911376" lon="8.006856029220954"><ele>435.0</ele><time>2026-04-10T15:40:06Z</time></trkpt><trkpt lat="44.587154790441545" lon="8.006956739517113"><ele>435.0</ele><time>2026-04-10T15:40:07Z</time></trkpt><trkpt lat="44.587036472877394" lon="8.007110302446565"><ele>435.0</ele><time>2026-04-10T15:40:08Z</time></trkpt><trkpt lat="44.586952228485885" lon="8.007264232354062"><ele>436.25</ele><time>2026-04-10T15:40:09Z</time></trkpt><trkpt lat="44.586887929253805" lon="8.007445748980798"><ele>437.5</ele><time>2026-04-10T15:40:10Z</time></trkpt><trkpt lat="44.58684854992727" lon="8.00763168369697"><ele>438.75</ele><time>2026-04-10T15:40:11Z</time></trkpt><trkpt lat="44.586847839701605" lon="8.00783442074481"><ele>440.0</ele><time>2026-04-10T15:40:12Z</time></trkpt><trkpt lat="44.586878289827844" lon="8.008022835986655"><ele>440.0</ele><time>2026-04-10T15:40:13Z</time></trkpt><trkpt lat="44.58690534563353" lon="8.008188884483406"><ele>440.0</ele><time>2026-04-10T15:40:14Z</time></trkpt><trkpt lat="44.58693364089883" lon="8.008376585139263"><ele>440.0</ele><time>2026-04-10T15:40:15Z</time></trkpt><trkpt lat="44.586936392415936" lon="8.008519190369269"><ele>440.0</ele><time>2026-04-10T15:40:16Z</time></trkpt><trkpt lat="44.58691341190429" lon="8.008640996242866"><ele>440.0</ele><time>2026-04-10T15:40:17Z</time></trkpt><trkpt lat="44.58686809374712" lon="8.008758788565594"><ele>442.0</ele><time>2026-04-10T15:40:18Z</time></trkpt><trkpt lat="44.58679727191669" lon="8.00884432603629"><ele>444.0</ele><time>2026-04-10T15:40:19Z</time></trkpt><trkpt lat="44.58670008692914" lon="8.008938446947518"><ele>446.0</ele><time>2026-04-10T15:40:20Z</time></trkpt><trkpt lat="44.58661032188616" lon="8.009030989497345"><ele>448.0</ele><time>2026-04-10T15:40:21Z</time></trkpt><trkpt lat="44.58649846619511" lon="8.009171429535396"><ele>451.75</ele><time>2026-04-10T15:40:22Z</time></trkpt><trkpt lat="44.58641552967726" lon="8.009328053460772"><ele>455.5</ele><time>2026-04-10T15:40:23Z</time></trkpt><trkpt lat="44.58635074873312" lon="8.009470541189252"><ele>459.25</ele><time>2026-04-10T15:40:24Z</time></trkpt><trkpt lat="44.58630378059025" lon="8.009614852403004"><ele>463.0</ele><time>2026-04-10T15:40:25Z</time></trkpt><trkpt lat="44.58620780719281" lon="8.00976426662549"><ele>463.79999999999995</ele><time>2026-04-10T15:40:26Z</time></trkpt><trkpt lat="44.586135696053674" lon="8.009892951058363"><ele>464.59999999999997</ele><time>2026-04-10T15:40:27Z</time></trkpt><trkpt lat="44.586058559979996" lon="8.010004809787299"><ele>465.40000000000003</ele><time>2026-04-10T15:40:28Z</time></trkpt><trkpt lat="44.58598053335443" lon="8.010089695029285"><ele>466.20000000000005</ele><time>2026-04-10T15:40:29Z</time></trkpt><trkpt lat="44.585890637014" lon="8.010161028843932"><ele>467.0</ele><time>2026-04-10T15:40:30Z</time></trkpt><trkpt lat="44.58579878633302" lon="8.010205566803933"><ele>466.99999999999994</ele><time>2026-04-10T15:40:31Z</time></trkpt><trkpt lat="44.58571244369746" lon="8.010194559707767"><ele>467.0</ele><time>2026-04-10T15:40:32Z</time></trkpt><trkpt lat="44.58562440301501" lon="8.010211447190454"><ele>467.0</ele><time>2026-04-10T15:40:33Z</time></trkpt><trkpt lat="44.58553027367559" lon="8.010232427830543"><ele>467.0</ele><time>2026-04-10T15:40:34Z</time></trkpt><trkpt lat="44.58545379827281" lon="8.01020815794586"><ele>466.99999999999994</ele><time>2026-04-10T15:40:35Z</time></trkpt><trkpt lat="44.58537892213078" lon="8.010218949263502"><ele>467.0</ele><time>2026-04-10T15:40:36.001Z</time></trkpt><trkpt lat="44.585269524240424" lon="8.010313995651327"><ele>467.0</ele><time>2026-04-10T15:40:38.001Z</time></trkpt><trkpt lat="44.58521027656207" lon="8.010475706641119"><ele>467.0</ele><time>2026-04-10T15:40:40.001Z</time></trkpt><trkpt lat="44.58528304659695" lon="8.010637281176969"><ele>467.0</ele><time>2026-04-10T15:40:42.001Z</time></trkpt><trkpt lat="44.58534782227651" lon="8.010708811953963"><ele>467.0</ele><time>2026-04-10T15:40:43.001Z</time></trkpt><trkpt lat="44.58546873697343" lon="8.010764565585855"><ele>467.0</ele><time>2026-04-10T15:40:45.001Z</time></trkpt><trkpt lat="44.58554786944568" lon="8.010800254394526"><ele>467.00000000000006</ele><time>2026-04-10T15:40:46.001Z</time></trkpt><trkpt lat="44.58561403208781" lon="8.01080592172895"><ele>467.00000000000006</ele><time>2026-04-10T15:40:47.001Z</time></trkpt><trkpt lat="44.58571757872956" lon="8.010798225284345"><ele>467.0</ele><time>2026-04-10T15:40:48.001Z</time></trkpt><trkpt lat="44.58585476787137" lon="8.010789081704026"><ele>467.0</ele><time>2026-04-10T15:40:50.001Z</time></trkpt><trkpt lat="44.58598092753125" lon="8.010796733268732"><ele>467.0</ele><time>2026-04-10T15:40:51.001Z</time></trkpt><trkpt lat="44.58608826507664" lon="8.010754240034762"><ele>467.00000000000006</ele><time>2026-04-10T15:40:52.001Z</time></trkpt><trkpt lat="44.58617500600134" lon="8.010689162958382"><ele>467.00000000000006</ele><time>2026-04-10T15:40:53.001Z</time></trkpt><trkpt lat="44.586269464820774" lon="8.01058695128847"><ele>467.0</ele><time>2026-04-10T15:40:54.001Z</time></trkpt><trkpt lat="44.58633529994851" lon="8.01050744929957"><ele>467.0</ele><time>2026-04-10T15:40:55.001Z</time></trkpt><trkpt lat="44.58638345993225" lon="8.010447003106396"><ele>468.99999999999994</ele><time>2026-04-10T15:40:56.001Z</time></trkpt><trkpt lat="44.586436088588414" lon="8.010393958641629"><ele>471.0</ele><time>2026-04-10T15:40:57.001Z</time></trkpt><trkpt lat="44.58652724613396" lon="8.010464633528743"><ele>473.0</ele><time>2026-04-10T15:41:01.001Z</time></trkpt><trkpt lat="44.58649056494459" lon="8.010567588385303"><ele>475.0</ele><time>2026-04-10T15:41:02.001Z</time></trkpt><trkpt lat="44.586431817642485" lon="8.010630213628303"><ele>476.99999999999994</ele><time>2026-04-10T15:41:03.001Z</time></trkpt><trkpt lat="44.586374305999946" lon="8.010685345548184"><ele>479.0</ele><time>2026-04-10T15:41:04.001Z</time></trkpt><trkpt lat="44.58623226072016" lon="8.010822895593067"><ele>479.79999999999995</ele><time>2026-04-10T15:41:06Z</time></trkpt><trkpt lat="44.58615317495763" lon="8.01090663997403"><ele>480.59999999999997</ele><time>2026-04-10T15:41:07Z</time></trkpt><trkpt lat="44.58609030786871" lon="8.01097454857035"><ele>481.4</ele><time>2026-04-10T15:41:08Z</time></trkpt><trkpt lat="44.58600297882413" lon="8.011073696908412"><ele>482.2</ele><time>2026-04-10T15:41:09Z</time></trkpt><trkpt lat="44.58593480417328" lon="8.01114942234464"><ele>483.0</ele><time>2026-04-10T15:41:10Z</time></trkpt><trkpt lat="44.58584932187479" lon="8.011278452163607"><ele>483.0</ele><time>2026-04-10T15:41:11Z</time></trkpt><trkpt lat="44.58577734222933" lon="8.01141479757986"><ele>483.0</ele><time>2026-04-10T15:41:12Z</time></trkpt><trkpt lat="44.585706833920305" lon="8.011557907476023"><ele>483.0</ele><time>2026-04-10T15:41:13Z</time></trkpt><trkpt lat="44.58565970360982" lon="8.01169502697748"><ele>483.0</ele><time>2026-04-10T15:41:14Z</time></trkpt><trkpt lat="44.585615884299344" lon="8.01185308491633"><ele>485.5</ele><time>2026-04-10T15:41:15Z</time></trkpt><trkpt lat="44.585543136202915" lon="8.011998476637023"><ele>488.0</ele><time>2026-04-10T15:41:16Z</time></trkpt><trkpt lat="44.5854837742563" lon="8.012146771590842"><ele>490.5</ele><time>2026-04-10T15:41:17Z</time></trkpt><trkpt lat="44.585420190649906" lon="8.012284053203999"><ele>493.0</ele><time>2026-04-10T15:41:18Z</time></trkpt><trkpt lat="44.58535491223382" lon="8.012390859149846"><ele>494.79999999999995</ele><time>2026-04-10T15:41:19Z</time></trkpt><trkpt lat="44.58525625576499" lon="8.012504312128362"><ele>496.59999999999997</ele><time>2026-04-10T15:41:20Z</time></trkpt><trkpt lat="44.58519932950527" lon="8.012553895779003"><ele>498.40000000000003</ele><time>2026-04-10T15:41:21Z</time></trkpt><trkpt lat="44.58510626873485" lon="8.0126099718279"><ele>500.20000000000005</ele><time>2026-04-10T15:41:22Z</time></trkpt><trkpt lat="44.58501513618319" lon="8.012642767584227"><ele>502.0</ele><time>2026-04-10T15:41:23Z</time></trkpt><trkpt lat="44.58490655590897" lon="8.012672303371987"><ele>502.0</ele><time>2026-04-10T15:41:24Z</time></trkpt><trkpt lat="44.58478012807143" lon="8.01270224682142"><ele>502.0</ele><time>2026-04-10T15:41:25Z</time></trkpt><trkpt lat="44.584637715964774" lon="8.012735975997096"><ele>502.0</ele><time>2026-04-10T15:41:26Z</time></trkpt><trkpt lat="44.58448114044138" lon="8.012771062966868"><ele>502.0</ele><time>2026-04-10T15:41:27Z</time></trkpt><trkpt lat="44.5843428728734" lon="8.012801634513167"><ele>502.5</ele><time>2026-04-10T15:41:28Z</time></trkpt><trkpt lat="44.58418625686287" lon="8.012836262969067"><ele>503.0</ele><time>2026-04-10T15:41:29Z</time></trkpt><trkpt lat="44.584079739039666" lon="8.012859814498611"><ele>503.5</ele><time>2026-04-10T15:41:30Z</time></trkpt><trkpt lat="44.58395409253619" lon="8.012887595455007"><ele>504.0</ele><time>2026-04-10T15:41:31Z</time></trkpt><trkpt lat="44.583828344836235" lon="8.012939504933405"><ele>504.0</ele><time>2026-04-10T15:41:32Z</time></trkpt><trkpt lat="44.583690782002726" lon="8.01295122376804"><ele>504.0</ele><time>2026-04-10T15:41:33Z</time></trkpt><trkpt lat="44.583550398744215" lon="8.012977652261284"><ele>504.0</ele><time>2026-04-10T15:41:34Z</time></trkpt><trkpt lat="44.58340031344861" lon="8.013020487229737"><ele>504.0</ele><time>2026-04-10T15:41:35Z</time></trkpt><trkpt lat="44.58325588982604" lon="8.013078711538673"><ele>503.75</ele><time>2026-04-10T15:41:36Z</time></trkpt><trkpt lat="44.58313994554717" lon="8.01317031459708"><ele>503.5</ele><time>2026-04-10T15:41:37Z</time></trkpt><trkpt lat="44.583028725461666" lon="8.0132720711864"><ele>503.25</ele><time>2026-04-10T15:41:38Z</time></trkpt><trkpt lat="44.58290769644251" lon="8.013386027394189"><ele>503.0</ele><time>2026-04-10T15:41:39Z</time></trkpt><trkpt lat="44.58278662852915" lon="8.013503741727428"><ele>505.2</ele><time>2026-04-10T15:41:40Z</time></trkpt><trkpt lat="44.58265194542749" lon="8.013635329177509"><ele>507.4</ele><time>2026-04-10T15:41:41Z</time></trkpt><trkpt lat="44.58258635063893" lon="8.013697765052715"><ele>509.59999999999997</ele><time>2026-04-10T15:41:42Z</time></trkpt><trkpt lat="44.58251844164184" lon="8.013759422498064"><ele>511.79999999999995</ele><time>2026-04-10T15:41:43Z</time></trkpt><trkpt lat="44.5824212190873" lon="8.013853665281193"><ele>514.0</ele><time>2026-04-10T15:41:44Z</time></trkpt><trkpt lat="44.58231414367441" lon="8.013954163642774"><ele>514.0</ele><time>2026-04-10T15:41:45Z</time></trkpt><trkpt lat="44.58220010537206" lon="8.014050136042039"><ele>514.0</ele><time>2026-04-10T15:41:46Z</time></trkpt><trkpt lat="44.58207529374565" lon="8.014095732576777"><ele>514.0</ele><time>2026-04-10T15:41:47Z</time></trkpt><trkpt lat="44.58195650332552" lon="8.01411205579226"><ele>514.0</ele><time>2026-04-10T15:41:48Z</time></trkpt><trkpt lat="44.58182086258974" lon="8.014108131019103"><ele>514.5</ele><time>2026-04-10T15:41:49Z</time></trkpt><trkpt lat="44.5817001003498" lon="8.014071134727144"><ele>515.0</ele><time>2026-04-10T15:41:50Z</time></trkpt><trkpt lat="44.58157411207813" lon="8.014017730986305"><ele>515.5</ele><time>2026-04-10T15:41:51Z</time></trkpt><trkpt lat="44.5814691231549" lon="8.013973598050201"><ele>516.0</ele><time>2026-04-10T15:41:52Z</time></trkpt><trkpt lat="44.58137902724816" lon="8.013939762633607"><ele>516.0</ele><time>2026-04-10T15:41:53Z</time></trkpt><trkpt lat="44.58125513633349" lon="8.01391600165052"><ele>516.0</ele><time>2026-04-10T15:41:54Z</time></trkpt><trkpt lat="44.58113274777609" lon="8.013919310563152"><ele>516.0</ele><time>2026-04-10T15:41:55Z</time></trkpt><trkpt lat="44.58099022411147" lon="8.013938183997155"><ele>516.0</ele><time>2026-04-10T15:41:56Z</time></trkpt><trkpt lat="44.58085166534792" lon="8.013960980804587"><ele>516.5</ele><time>2026-04-10T15:41:57Z</time></trkpt><trkpt lat="44.58071850853899" lon="8.013970019712382"><ele>517.0</ele><time>2026-04-10T15:41:58Z</time></trkpt><trkpt lat="44.5806042727002" lon="8.013956476069561"><ele>517.5</ele><time>2026-04-10T15:41:59Z</time></trkpt><trkpt lat="44.58047232094294" lon="8.013971144353446"><ele>518.0</ele><time>2026-04-10T15:42:00Z</time></trkpt><trkpt lat="44.58032442717309" lon="8.013984241054441"><ele>519.75</ele><time>2026-04-10T15:42:01Z</time></trkpt><trkpt lat="44.58018065358948" lon="8.013956197792094"><ele>521.5</ele><time>2026-04-10T15:42:02Z</time></trkpt><trkpt lat="44.58005682383792" lon="8.013966290730748"><ele>523.25</ele><time>2026-04-10T15:42:03Z</time></trkpt><trkpt lat="44.57993528400756" lon="8.013970254629832"><ele>525.0</ele><time>2026-04-10T15:42:04Z</time></trkpt><trkpt lat="44.57983489698367" lon="8.013966650702665"><ele>525.0</ele><time>2026-04-10T15:42:05Z</time></trkpt><trkpt lat="44.57974210759797" lon="8.013939340249843"><ele>525.0</ele><time>2026-04-10T15:42:06Z</time></trkpt><trkpt lat="44.57965289093233" lon="8.013890990064711"><ele>525.0</ele><time>2026-04-10T15:42:07Z</time></trkpt><trkpt lat="44.57957632893862" lon="8.013821435734247"><ele>525.0</ele><time>2026-04-10T15:42:08Z</time></trkpt><trkpt lat="44.57950689464209" lon="8.01373428699588"><ele>525.0</ele><time>2026-04-10T15:42:09Z</time></trkpt><trkpt lat="44.579479975656604" lon="8.013650423540287"><ele>525.0</ele><time>2026-04-10T15:42:10Z</time></trkpt><trkpt lat="44.57942234422891" lon="8.013566480081579"><ele>526.8333333333334</ele><time>2026-04-10T15:42:11Z</time></trkpt><trkpt lat="44.579388678726644" lon="8.013470858567599"><ele>528.6666666666666</ele><time>2026-04-10T15:42:12Z</time></trkpt><trkpt lat="44.57935535111874" lon="8.013334242111842"><ele>530.5</ele><time>2026-04-10T15:42:13Z</time></trkpt><trkpt lat="44.57931565284496" lon="8.013240284272767"><ele>532.3333333333333</ele><time>2026-04-10T15:42:15Z</time></trkpt><trkpt lat="44.57928573126131" lon="8.01314378237938"><ele>534.1666666666666</ele><time>2026-04-10T15:42:17Z</time></trkpt><trkpt lat="44.579204827223094" lon="8.013077268417714"><ele>536.0</ele><time>2026-04-10T15:42:19Z</time></trkpt><trkpt lat="44.579154388057745" lon="8.01301255011335"><ele>536.0</ele><time>2026-04-10T15:42:23Z</time></trkpt><trkpt lat="44.57926159358122" lon="8.013131968845748"><ele>536.0</ele><time>2026-04-10T15:42:28Z</time></trkpt></trkseg><trkseg><trkpt lat="44.57914160063155" lon="8.01303453104133"><ele>536.0</ele><time>2026-04-10T16:11:54.001Z</time></trkpt><trkpt lat="44.57908010804956" lon="8.012947114452862"><ele>536.0</ele><time>2026-04-10T16:12:04Z</time></trkpt><trkpt lat="44.579026560792784" lon="8.01287842182494"><ele>536.0</ele><time>2026-04-10T16:12:06Z</time></trkpt><trkpt lat="44.5789687921853" lon="8.012765156065747"><ele>536.0</ele><time>2026-04-10T16:12:09Z</time></trkpt><trkpt lat="44.57892640911856" lon="8.012669951413956"><ele>536.0</ele><time>2026-04-10T16:12:11Z</time></trkpt><trkpt lat="44.578864340183465" lon="8.012553865985101"><ele>536.0</ele><time>2026-04-10T16:12:13Z</time></trkpt><trkpt lat="44.57880905620979" lon="8.012436038823923"><ele>534.0</ele><time>2026-04-10T16:12:15Z</time></trkpt><trkpt lat="44.578761141854585" lon="8.01233387614735"><ele>532.0</ele><time>2026-04-10T16:12:17Z</time></trkpt><trkpt lat="44.57872982649372" lon="8.0122163932949"><ele>530.0</ele><time>2026-04-10T16:12:19Z</time></trkpt><trkpt lat="44.578708334057175" lon="8.01210571271606"><ele>528.0</ele><time>2026-04-10T16:12:21Z</time></trkpt><trkpt lat="44.57870164914647" lon="8.01196142712935"><ele>526.0</ele><time>2026-04-10T16:12:23Z</time></trkpt><trkpt lat="44.57872691739351" lon="8.011796812420704"><ele>525.5</ele><time>2026-04-10T16:12:25Z</time></trkpt><trkpt lat="44.57876508485759" lon="8.011641429091185"><ele>525.0</ele><time>2026-04-10T16:12:27Z</time></trkpt><trkpt lat="44.57878712543846" lon="8.011482430360594"><ele>524.5</ele><time>2026-04-10T16:12:29Z</time></trkpt><trkpt lat="44.578795277116555" lon="8.011326399335017"><ele>524.0</ele><time>2026-04-10T16:12:31Z</time></trkpt><trkpt lat="44.578778030884116" lon="8.01115217502794"><ele>524.0</ele><time>2026-04-10T16:12:33Z</time></trkpt><trkpt lat="44.578746489646285" lon="8.010985632636178"><ele>524.0</ele><time>2026-04-10T16:12:35Z</time></trkpt><trkpt lat="44.57872947360191" lon="8.010895582115932"><ele>524.0</ele><time>2026-04-10T16:12:36Z</time></trkpt><trkpt lat="44.57870763535055" lon="8.010809503557551"><ele>524.0</ele><time>2026-04-10T16:12:37Z</time></trkpt><trkpt lat="44.57866336363889" lon="8.010627540245808"><ele>524.0</ele><time>2026-04-10T16:12:39Z</time></trkpt><trkpt lat="44.57864129471562" lon="8.010535925466975"><ele>524.8333333333333</ele><time>2026-04-10T16:12:40Z</time></trkpt><trkpt lat="44.57862100283972" lon="8.01043756113364"><ele>525.6666666666666</ele><time>2026-04-10T16:12:41Z</time></trkpt><trkpt lat="44.57860001596041" lon="8.010336701526313"><ele>526.5</ele><time>2026-04-10T16:12:42Z</time></trkpt><trkpt lat="44.57857892215682" lon="8.010231522076026"><ele>527.3333333333334</ele><time>2026-04-10T16:12:43Z</time></trkpt><trkpt lat="44.57855422507868" lon="8.01012800692556"><ele>528.1666666666667</ele><time>2026-04-10T16:12:44Z</time></trkpt><trkpt lat="44.57852829357676" lon="8.010024441808744"><ele>529.0</ele><time>2026-04-10T16:12:45Z</time></trkpt><trkpt lat="44.57850426495544" lon="8.009919116158633"><ele>529.0</ele><time>2026-04-10T16:12:46Z</time></trkpt><trkpt lat="44.57848019934048" lon="8.009813496875342"><ele>529.0</ele><time>2026-04-10T16:12:47Z</time></trkpt><trkpt lat="44.57845612702559" lon="8.009708283760933"><ele>529.0</ele><time>2026-04-10T16:12:48Z</time></trkpt><trkpt lat="44.57843512107146" lon="8.009599311622463"><ele>529.0</ele><time>2026-04-10T16:12:49Z</time></trkpt><trkpt lat="44.57841035468272" lon="8.009488786999844"><ele>529.0</ele><time>2026-04-10T16:12:50Z</time></trkpt><trkpt lat="44.57838606820706" lon="8.009380623286896"><ele>529.0</ele><time>2026-04-10T16:12:51Z</time></trkpt><trkpt lat="44.57836257623412" lon="8.009268149508696"><ele>528.3333333333334</ele><time>2026-04-10T16:12:52Z</time></trkpt><trkpt lat="44.57833973138509" lon="8.009156289207626"><ele>527.6666666666667</ele><time>2026-04-10T16:12:53Z</time></trkpt><trkpt lat="44.57831586631202" lon="8.00904781453138"><ele>527.0</ele><time>2026-04-10T16:12:54Z</time></trkpt><trkpt lat="44.57828787016792" lon="8.008945769330689"><ele>526.3333333333334</ele><time>2026-04-10T16:12:55Z</time></trkpt><trkpt lat="44.57825824478172" lon="8.008852118706205"><ele>525.6666666666666</ele><time>2026-04-10T16:12:56Z</time></trkpt><trkpt lat="44.57822767727176" lon="8.00875950162757"><ele>525.0</ele><time>2026-04-10T16:12:57Z</time></trkpt><trkpt lat="44.57818818596603" lon="8.008666330909177"><ele>525.0</ele><time>2026-04-10T16:12:58Z</time></trkpt><trkpt lat="44.578151236349534" lon="8.008575140867054"><ele>525.0</ele><time>2026-04-10T16:12:59Z</time></trkpt><trkpt lat="44.578119912495865" lon="8.008488138258336"><ele>525.0</ele><time>2026-04-10T16:13:00Z</time></trkpt><trkpt lat="44.578109623626496" lon="8.008399418692585"><ele>525.0</ele><time>2026-04-10T16:13:01Z</time></trkpt><trkpt lat="44.578110254962375" lon="8.008310183244442"><ele>525.0</ele><time>2026-04-10T16:13:02Z</time></trkpt><trkpt lat="44.57811890578465" lon="8.00822168539049"><ele>525.0</ele><time>2026-04-10T16:13:03Z</time></trkpt><trkpt lat="44.578140522156424" lon="8.008136447116048"><ele>525.0</ele><time>2026-04-10T16:13:04Z</time></trkpt><trkpt lat="44.578175347178316" lon="8.008061817966587"><ele>523.5714285714286</ele><time>2026-04-10T16:13:05Z</time></trkpt><trkpt lat="44.57822566181897" lon="8.007998492478276"><ele>522.1428571428571</ele><time>2026-04-10T16:13:06Z</time></trkpt><trkpt lat="44.57827831311746" lon="8.007933848047506"><ele>520.7142857142858</ele><time>2026-04-10T16:13:07Z</time></trkpt><trkpt lat="44.578328374620625" lon="8.0078736616435"><ele>519.2857142857142</ele><time>2026-04-10T16:13:08Z</time></trkpt><trkpt lat="44.57838059937443" lon="8.007808231704617"><ele>517.8571428571429</ele><time>2026-04-10T16:13:09Z</time></trkpt><trkpt lat="44.57843429364245" lon="8.00774581372656"><ele>516.4285714285714</ele><time>2026-04-10T16:13:10Z</time></trkpt><trkpt lat="44.5784875846907" lon="8.00768320090846"><ele>515.0</ele><time>2026-04-10T16:13:11Z</time></trkpt><trkpt lat="44.57853889087216" lon="8.007618133249215"><ele>515.0</ele><time>2026-04-10T16:13:12Z</time></trkpt><trkpt lat="44.57858790305177" lon="8.00755506239146"><ele>515.0</ele><time>2026-04-10T16:13:13Z</time></trkpt><trkpt lat="44.578634640611945" lon="8.007483904270263"><ele>515.0</ele><time>2026-04-10T16:13:14Z</time></trkpt><trkpt lat="44.57868041191919" lon="8.00740646338216"><ele>515.0</ele><time>2026-04-10T16:13:15Z</time></trkpt><trkpt lat="44.57872071523984" lon="8.007326611100407"><ele>515.0</ele><time>2026-04-10T16:13:16Z</time></trkpt><trkpt lat="44.5787545932942" lon="8.007232402107173"><ele>515.0</ele><time>2026-04-10T16:13:17Z</time></trkpt><trkpt lat="44.578778651231296" lon="8.007138822465535"><ele>515.0</ele><time>2026-04-10T16:13:18Z</time></trkpt><trkpt lat="44.578799325328774" lon="8.007036140258705"><ele>514.1428571428571</ele><time>2026-04-10T16:13:19Z</time></trkpt><trkpt lat="44.57880800577362" lon="8.00692512495882"><ele>513.2857142857142</ele><time>2026-04-10T16:13:20Z</time></trkpt><trkpt lat="44.57880769365339" lon="8.00682222506514"><ele>512.4285714285713</ele><time>2026-04-10T16:13:21Z</time></trkpt><trkpt lat="44.57880073822065" lon="8.006717692619453"><ele>511.57142857142856</ele><time>2026-04-10T16:13:22Z</time></trkpt><trkpt lat="44.57878145054399" lon="8.00661966577379"><ele>510.71428571428567</ele><time>2026-04-10T16:13:23Z</time></trkpt><trkpt lat="44.578759661258864" lon="8.00652377058676"><ele>509.8571428571428</ele><time>2026-04-10T16:13:24Z</time></trkpt><trkpt lat="44.57873248167639" lon="8.006436760050128"><ele>508.99999999999994</ele><time>2026-04-10T16:13:25Z</time></trkpt><trkpt lat="44.57870154316443" lon="8.006350957692794"><ele>508.2</ele><time>2026-04-10T16:13:26Z</time></trkpt><trkpt lat="44.57866871156856" lon="8.006272413378875"><ele>507.4</ele><time>2026-04-10T16:13:27Z</time></trkpt><trkpt lat="44.57863681404548" lon="8.006195479202635"><ele>506.6</ele><time>2026-04-10T16:13:28Z</time></trkpt><trkpt lat="44.57857288486186" lon="8.006046060782051"><ele>505.8</ele><time>2026-04-10T16:13:30Z</time></trkpt><trkpt lat="44.578508090930264" lon="8.005898065763432"><ele>505.0</ele><time>2026-04-10T16:13:32Z</time></trkpt><trkpt lat="44.578447554108095" lon="8.00574465242343"><ele>504.4</ele><time>2026-04-10T16:13:34Z</time></trkpt><trkpt lat="44.5784141485637" lon="8.005668130869793"><ele>503.8</ele><time>2026-04-10T16:13:35Z</time></trkpt><trkpt lat="44.57838063851196" lon="8.005591733655631"><ele>503.20000000000005</ele><time>2026-04-10T16:13:36Z</time></trkpt><trkpt lat="44.57831834681815" lon="8.00544051838455"><ele>502.6</ele><time>2026-04-10T16:13:38Z</time></trkpt><trkpt lat="44.57825790445024" lon="8.005293002090438"><ele>502.0</ele><time>2026-04-10T16:13:40Z</time></trkpt><trkpt lat="44.57820242334705" lon="8.005164016379496"><ele>502.0</ele><time>2026-04-10T16:13:42Z</time></trkpt><trkpt lat="44.57814560647346" lon="8.00502641830999"><ele>502.00000000000006</ele><time>2026-04-10T16:13:44Z</time></trkpt><trkpt lat="44.578084122972086" lon="8.004902090807542"><ele>502.00000000000006</ele><time>2026-04-10T16:13:46Z</time></trkpt><trkpt lat="44.578021613875876" lon="8.004786406817205"><ele>502.0</ele><time>2026-04-10T16:13:48Z</time></trkpt><trkpt lat="44.57797070801301" lon="8.004683568176501"><ele>502.0</ele><time>2026-04-10T16:13:50Z</time></trkpt><trkpt lat="44.57790802609005" lon="8.004578487947155"><ele>502.6</ele><time>2026-04-10T16:13:52Z</time></trkpt><trkpt lat="44.577843694612525" lon="8.004487914402487"><ele>503.20000000000005</ele><time>2026-04-10T16:13:54Z</time></trkpt><trkpt lat="44.577771889934624" lon="8.004394950074813"><ele>503.8</ele><time>2026-04-10T16:13:56Z</time></trkpt><trkpt lat="44.577714251012964" lon="8.004301767215079"><ele>504.4</ele><time>2026-04-10T16:13:58Z</time></trkpt><trkpt lat="44.577647410727245" lon="8.004211500251843"><ele>505.0</ele><time>2026-04-10T16:14:00Z</time></trkpt><trkpt lat="44.577574689521946" lon="8.004133438819489"><ele>503.6</ele><time>2026-04-10T16:14:02Z</time></trkpt><trkpt lat="44.57750877377488" lon="8.004053770008884"><ele>502.2</ele><time>2026-04-10T16:14:04Z</time></trkpt><trkpt lat="44.577444066340966" lon="8.003975096849205"><ele>500.79999999999995</ele><time>2026-04-10T16:14:06Z</time></trkpt><trkpt lat="44.57737198774584" lon="8.003884305383057"><ele>499.4</ele><time>2026-04-10T16:14:08Z</time></trkpt><trkpt lat="44.57729365983194" lon="8.003783224051261"><ele>498.0</ele><time>2026-04-10T16:14:09.999Z</time></trkpt><trkpt lat="44.577217224150516" lon="8.003679960508956"><ele>498.0</ele><time>2026-04-10T16:14:11.999Z</time></trkpt><trkpt lat="44.577143491684005" lon="8.003576265782417"><ele>497.99999999999994</ele><time>2026-04-10T16:14:13.999Z</time></trkpt><trkpt lat="44.57707344153238" lon="8.003469202988963"><ele>497.99999999999994</ele><time>2026-04-10T16:14:15.999Z</time></trkpt><trkpt lat="44.577000403773525" lon="8.003367315216387"><ele>498.0</ele><time>2026-04-10T16:14:17.999Z</time></trkpt><trkpt lat="44.57693687600738" lon="8.003250536731114"><ele>498.0</ele><time>2026-04-10T16:14:19.999Z</time></trkpt><trkpt lat="44.57686381296192" lon="8.003146118838826"><ele>498.59999999999997</ele><time>2026-04-10T16:14:21.999Z</time></trkpt><trkpt lat="44.576795521616596" lon="8.003043915941822"><ele>499.19999999999993</ele><time>2026-04-10T16:14:23.999Z</time></trkpt><trkpt lat="44.576728025904785" lon="8.002935887322744"><ele>499.8</ele><time>2026-04-10T16:14:25.999Z</time></trkpt><trkpt lat="44.57665999784622" lon="8.00283167197005"><ele>500.4</ele><time>2026-04-10T16:14:27.999Z</time></trkpt><trkpt lat="44.57659860037263" lon="8.002728184539642"><ele>501.0</ele><time>2026-04-10T16:14:30Z</time></trkpt><trkpt lat="44.576529711883474" lon="8.00262141112163"><ele>501.0</ele><time>2026-04-10T16:14:32Z</time></trkpt><trkpt lat="44.57646492447096" lon="8.002515151294388"><ele>501.0</ele><time>2026-04-10T16:14:34Z</time></trkpt><trkpt lat="44.57639650027812" lon="8.002414185745891"><ele>501.0</ele><time>2026-04-10T16:14:36Z</time></trkpt><trkpt lat="44.57632963302917" lon="8.002302734558162"><ele>501.0</ele><time>2026-04-10T16:14:38Z</time></trkpt><trkpt lat="44.57626195948616" lon="8.002194235067533"><ele>501.0</ele><time>2026-04-10T16:14:40Z</time></trkpt><trkpt lat="44.576189791478846" lon="8.002085427690409"><ele>500.6</ele><time>2026-04-10T16:14:42Z</time></trkpt><trkpt lat="44.57611962338219" lon="8.001977196962446"><ele>500.20000000000005</ele><time>2026-04-10T16:14:44Z</time></trkpt><trkpt lat="44.57605039291813" lon="8.001871551873132"><ele>499.79999999999995</ele><time>2026-04-10T16:14:46Z</time></trkpt><trkpt lat="44.5759802893747" lon="8.001760650655768"><ele>499.4</ele><time>2026-04-10T16:14:48Z</time></trkpt><trkpt lat="44.57590554368738" lon="8.001644214344001"><ele>499.0</ele><time>2026-04-10T16:14:50Z</time></trkpt><trkpt lat="44.57583444779578" lon="8.00152443784409"><ele>499.0</ele><time>2026-04-10T16:14:52Z</time></trkpt><trkpt lat="44.57576541403821" lon="8.001411348189182"><ele>499.0</ele><time>2026-04-10T16:14:54Z</time></trkpt><trkpt lat="44.575701726340725" lon="8.001291252800478"><ele>499.0</ele><time>2026-04-10T16:14:56Z</time></trkpt><trkpt lat="44.57566019493932" lon="8.001153858756123"><ele>499.0</ele><time>2026-04-10T16:14:58Z</time></trkpt><trkpt lat="44.575636025187904" lon="8.001006193083661"><ele>499.0</ele><time>2026-04-10T16:15:00Z</time></trkpt><trkpt lat="44.57562411283075" lon="8.000862942077"><ele>498.0</ele><time>2026-04-10T16:15:02Z</time></trkpt><trkpt lat="44.575619774357705" lon="8.000721556897679"><ele>497.0</ele><time>2026-04-10T16:15:04Z</time></trkpt><trkpt lat="44.57561699745094" lon="8.000570652289316"><ele>496.0</ele><time>2026-04-10T16:15:06Z</time></trkpt><trkpt lat="44.57560985145786" lon="8.000412223865878"><ele>495.0</ele><time>2026-04-10T16:15:08Z</time></trkpt><trkpt lat="44.57560219389226" lon="8.000267451111744"><ele>494.0</ele><time>2026-04-10T16:15:10Z</time></trkpt><trkpt lat="44.575582188822295" lon="8.00014023603115"><ele>494.0</ele><time>2026-04-10T16:15:12Z</time></trkpt><trkpt lat="44.57555574854618" lon="8.000007980294072"><ele>494.0</ele><time>2026-04-10T16:15:14Z</time></trkpt><trkpt lat="44.57551028012748" lon="7.999888258113605"><ele>494.0</ele><time>2026-04-10T16:15:16Z</time></trkpt><trkpt lat="44.575456152888634" lon="7.999768722344802"><ele>494.0</ele><time>2026-04-10T16:15:18Z</time></trkpt><trkpt lat="44.57538505164678" lon="7.999668455489124"><ele>494.0</ele><time>2026-04-10T16:15:20Z</time></trkpt><trkpt lat="44.5753107997183" lon="7.999569134806213"><ele>496.2</ele><time>2026-04-10T16:15:22Z</time></trkpt><trkpt lat="44.57522215106953" lon="7.999476788891436"><ele>498.4</ele><time>2026-04-10T16:15:24Z</time></trkpt><trkpt lat="44.57513788927756" lon="7.9993923473054975"><ele>500.6</ele><time>2026-04-10T16:15:26Z</time></trkpt><trkpt lat="44.5750584758758" lon="7.999311661355409"><ele>502.8</ele><time>2026-04-10T16:15:28Z</time></trkpt><trkpt lat="44.574974349102185" lon="7.999229405051196"><ele>505.0</ele><time>2026-04-10T16:15:30Z</time></trkpt><trkpt lat="44.574897556738755" lon="7.999140321041125"><ele>505.0</ele><time>2026-04-10T16:15:32Z</time></trkpt><trkpt lat="44.57481706527529" lon="7.99905981249509"><ele>505.0</ele><time>2026-04-10T16:15:34Z</time></trkpt><trkpt lat="44.57474025577104" lon="7.998973007491223"><ele>505.0</ele><time>2026-04-10T16:15:36Z</time></trkpt><trkpt lat="44.57466080360978" lon="7.998891452501631"><ele>505.0</ele><time>2026-04-10T16:15:38Z</time></trkpt><trkpt lat="44.574582966852425" lon="7.998811596967726"><ele>505.0</ele><time>2026-04-10T16:15:40Z</time></trkpt><trkpt lat="44.57450208371426" lon="7.99872179704135"><ele>505.4</ele><time>2026-04-10T16:15:42Z</time></trkpt><trkpt lat="44.57441905541285" lon="7.998627328235438"><ele>505.8</ele><time>2026-04-10T16:15:44Z</time></trkpt><trkpt lat="44.57433434522713" lon="7.998512434278977"><ele>506.20000000000005</ele><time>2026-04-10T16:15:46Z</time></trkpt><trkpt lat="44.57426940348161" lon="7.998392838471768"><ele>506.6</ele><time>2026-04-10T16:15:48Z</time></trkpt><trkpt lat="44.57421623134477" lon="7.998257872623217"><ele>507.0</ele><time>2026-04-10T16:15:50Z</time></trkpt><trkpt lat="44.57419489243119" lon="7.998094363120345"><ele>507.0</ele><time>2026-04-10T16:15:52Z</time></trkpt><trkpt lat="44.5741762938478" lon="7.997939235950369"><ele>507.00000000000006</ele><time>2026-04-10T16:15:54Z</time></trkpt><trkpt lat="44.57415270913348" lon="7.997791434569308"><ele>507.00000000000006</ele><time>2026-04-10T16:15:56Z</time></trkpt><trkpt lat="44.57412172590337" lon="7.997640296654184"><ele>507.0</ele><time>2026-04-10T16:15:58Z</time></trkpt><trkpt lat="44.57407484543752" lon="7.997499809353264"><ele>507.0</ele><time>2026-04-10T16:16:00Z</time></trkpt><trkpt lat="44.57403096311222" lon="7.997362319399429"><ele>505.8</ele><time>2026-04-10T16:16:02Z</time></trkpt><trkpt lat="44.57397301869118" lon="7.9972332033705795"><ele>504.6</ele><time>2026-04-10T16:16:04Z</time></trkpt><trkpt lat="44.57390517498391" lon="7.997112243864419"><ele>503.40000000000003</ele><time>2026-04-10T16:16:06Z</time></trkpt><trkpt lat="44.573836263469154" lon="7.996991035070437"><ele>502.20000000000005</ele><time>2026-04-10T16:16:08Z</time></trkpt><trkpt lat="44.57379517094048" lon="7.99692255796339"><ele>501.0</ele><time>2026-04-10T16:16:09Z</time></trkpt><trkpt lat="44.57371121653904" lon="7.996797763980494"><ele>501.5</ele><time>2026-04-10T16:16:11Z</time></trkpt><trkpt lat="44.57362369239237" lon="7.996685792140897"><ele>502.0</ele><time>2026-04-10T16:16:13Z</time></trkpt><trkpt lat="44.57353712066458" lon="7.996563910280871"><ele>502.5</ele><time>2026-04-10T16:16:14.999Z</time></trkpt><trkpt lat="44.57348437141601" lon="7.996511217360904"><ele>503.0</ele><time>2026-04-10T16:16:15.999Z</time></trkpt><trkpt lat="44.57343197024476" lon="7.996453279857224"><ele>503.5</ele><time>2026-04-10T16:16:16.999Z</time></trkpt><trkpt lat="44.57338237596174" lon="7.996393929498143"><ele>504.0</ele><time>2026-04-10T16:16:17.999Z</time></trkpt><trkpt lat="44.57332967792049" lon="7.996334902857334"><ele>504.0</ele><time>2026-04-10T16:16:18.999Z</time></trkpt><trkpt lat="44.57327691668503" lon="7.996273490040632"><ele>504.0</ele><time>2026-04-10T16:16:19.999Z</time></trkpt><trkpt lat="44.57322450003032" lon="7.996210313480111"><ele>504.0</ele><time>2026-04-10T16:16:20.999Z</time></trkpt><trkpt lat="44.57317498349023" lon="7.996150417749163"><ele>504.0</ele><time>2026-04-10T16:16:21.999Z</time></trkpt><trkpt lat="44.57312095484817" lon="7.996086170483991"><ele>504.0</ele><time>2026-04-10T16:16:22.999Z</time></trkpt><trkpt lat="44.57307077098546" lon="7.996026142236475"><ele>504.0</ele><time>2026-04-10T16:16:23.999Z</time></trkpt><trkpt lat="44.573020905990745" lon="7.995959334660141"><ele>504.0</ele><time>2026-04-10T16:16:24.999Z</time></trkpt><trkpt lat="44.572969611656305" lon="7.995894901898918"><ele>503.1428571428571</ele><time>2026-04-10T16:16:25.999Z</time></trkpt><trkpt lat="44.57292281344274" lon="7.995833057342925"><ele>502.2857142857143</ele><time>2026-04-10T16:16:26.999Z</time></trkpt><trkpt lat="44.57287760383851" lon="7.995769203600909"><ele>501.42857142857144</ele><time>2026-04-10T16:16:27.999Z</time></trkpt><trkpt lat="44.57283221144809" lon="7.995703769738796"><ele>500.57142857142856</ele><time>2026-04-10T16:16:28.999Z</time></trkpt><trkpt lat="44.57278722344597" lon="7.995637767366018"><ele>499.71428571428567</ele><time>2026-04-10T16:16:29.999Z</time></trkpt><trkpt lat="44.5727431456622" lon="7.995571385471154"><ele>498.85714285714283</ele><time>2026-04-10T16:16:30.999Z</time></trkpt><trkpt lat="44.57270683670111" lon="7.995497539791318"><ele>498.0</ele><time>2026-04-10T16:16:31.999Z</time></trkpt><trkpt lat="44.572671770448665" lon="7.99541978944951"><ele>498.0</ele><time>2026-04-10T16:16:32.999Z</time></trkpt><trkpt lat="44.57264155442004" lon="7.995339082101819"><ele>497.99999999999994</ele><time>2026-04-10T16:16:33.999Z</time></trkpt><trkpt lat="44.57261360081774" lon="7.995253201360599"><ele>498.0</ele><time>2026-04-10T16:16:34.999Z</time></trkpt><trkpt lat="44.57258793724166" lon="7.995163987720338"><ele>498.0</ele><time>2026-04-10T16:16:35.999Z</time></trkpt><trkpt lat="44.572565477432796" lon="7.995076684345842"><ele>497.99999999999994</ele><time>2026-04-10T16:16:36.999Z</time></trkpt><trkpt lat="44.57254016332483" lon="7.9949888669249445"><ele>498.0</ele><time>2026-04-10T16:16:37.999Z</time></trkpt><trkpt lat="44.57251471456551" lon="7.994903856655769"><ele>498.0</ele><time>2026-04-10T16:16:38.999Z</time></trkpt><trkpt lat="44.57248859677281" lon="7.994820606305955"><ele>497.25</ele><time>2026-04-10T16:16:39.999Z</time></trkpt><trkpt lat="44.572439288524755" lon="7.9946557860301235"><ele>496.5</ele><time>2026-04-10T16:16:41.999Z</time></trkpt><trkpt lat="44.57239409731758" lon="7.994507869591943"><ele>495.75</ele><time>2026-04-10T16:16:43.999Z</time></trkpt><trkpt lat="44.57232285907204" lon="7.994371691605933"><ele>495.0</ele><time>2026-04-10T16:16:45.999Z</time></trkpt><trkpt lat="44.57223465157181" lon="7.994237116971092"><ele>495.5</ele><time>2026-04-10T16:16:48Z</time></trkpt><trkpt lat="44.57213647454214" lon="7.994133249142576"><ele>496.0</ele><time>2026-04-10T16:16:50Z</time></trkpt><trkpt lat="44.572037445456964" lon="7.99404495003412"><ele>496.5</ele><time>2026-04-10T16:16:52Z</time></trkpt><trkpt lat="44.57193936483552" lon="7.993955765034542"><ele>497.0</ele><time>2026-04-10T16:16:54Z</time></trkpt><trkpt lat="44.571838339465124" lon="7.993867972816363"><ele>495.0</ele><time>2026-04-10T16:16:56Z</time></trkpt><trkpt lat="44.5717345863459" lon="7.993784574589983"><ele>493.0</ele><time>2026-04-10T16:16:58Z</time></trkpt><trkpt lat="44.57164355504237" lon="7.9936824507917805"><ele>491.0</ele><time>2026-04-10T16:17:00Z</time></trkpt><trkpt lat="44.571589058042285" lon="7.99353767286468"><ele>489.0</ele><time>2026-04-10T16:17:02Z</time></trkpt><trkpt lat="44.57157840365461" lon="7.993362674489531"><ele>489.8571428571429</ele><time>2026-04-10T16:17:04Z</time></trkpt><trkpt lat="44.57158912265606" lon="7.993272685280694"><ele>490.7142857142858</ele><time>2026-04-10T16:17:05Z</time></trkpt><trkpt lat="44.57161067839801" lon="7.993183675523806"><ele>491.57142857142856</ele><time>2026-04-10T16:17:06Z</time></trkpt><trkpt lat="44.57164025888778" lon="7.993095817681831"><ele>492.42857142857144</ele><time>2026-04-10T16:17:07Z</time></trkpt><trkpt lat="44.571681100372295" lon="7.993014366033029"><ele>493.2857142857143</ele><time>2026-04-10T16:17:08Z</time></trkpt><trkpt lat="44.57172642609512" lon="7.992936465712879"><ele>494.1428571428571</ele><time>2026-04-10T16:17:09Z</time></trkpt><trkpt lat="44.57177293356754" lon="7.992861610787776"><ele>494.99999999999994</ele><time>2026-04-10T16:17:10Z</time></trkpt><trkpt lat="44.571828071872964" lon="7.9927991794111835"><ele>494.99999999999994</ele><time>2026-04-10T16:17:11Z</time></trkpt><trkpt lat="44.57188697402094" lon="7.9927377239621755"><ele>495.0</ele><time>2026-04-10T16:17:12Z</time></trkpt><trkpt lat="44.57194997689251" lon="7.992680670445247"><ele>494.99999999999994</ele><time>2026-04-10T16:17:13Z</time></trkpt><trkpt lat="44.5720127541138" lon="7.992625666679148"><ele>494.99999999999994</ele><time>2026-04-10T16:17:14Z</time></trkpt><trkpt lat="44.572076731372086" lon="7.992572246346414"><ele>495.0</ele><time>2026-04-10T16:17:15Z</time></trkpt><trkpt lat="44.572137049566656" lon="7.992522245252498"><ele>494.99999999999994</ele><time>2026-04-10T16:17:16Z</time></trkpt><trkpt lat="44.57219649696915" lon="7.9924714304341355"><ele>494.99999999999994</ele><time>2026-04-10T16:17:17Z</time></trkpt><trkpt lat="44.57225197531082" lon="7.992406029990518"><ele>495.5</ele><time>2026-04-10T16:17:18Z</time></trkpt><trkpt lat="44.572314862703" lon="7.992361791171549"><ele>496.0</ele><time>2026-04-10T16:17:19Z</time></trkpt><trkpt lat="44.572376997871665" lon="7.992308324193005"><ele>496.5</ele><time>2026-04-10T16:17:20Z</time></trkpt><trkpt lat="44.57243070313" lon="7.992232427274695"><ele>497.0</ele><time>2026-04-10T16:17:21Z</time></trkpt><trkpt lat="44.572475915094664" lon="7.992146074619122"><ele>497.5</ele><time>2026-04-10T16:17:22Z</time></trkpt><trkpt lat="44.572519368412415" lon="7.992053723283328"><ele>498.0</ele><time>2026-04-10T16:17:23Z</time></trkpt><trkpt lat="44.57255480243576" lon="7.991949377874827"><ele>498.0</ele><time>2026-04-10T16:17:24Z</time></trkpt><trkpt lat="44.57259092658379" lon="7.991849897204044"><ele>498.0</ele><time>2026-04-10T16:17:25Z</time></trkpt><trkpt lat="44.57262884049961" lon="7.991744488110773"><ele>498.0</ele><time>2026-04-10T16:17:26Z</time></trkpt><trkpt lat="44.572663116903215" lon="7.991635939304467"><ele>498.0</ele><time>2026-04-10T16:17:27Z</time></trkpt><trkpt lat="44.572697427279444" lon="7.991529982565036"><ele>498.0</ele><time>2026-04-10T16:17:28Z</time></trkpt><trkpt lat="44.57273195783312" lon="7.991431546424775"><ele>498.0</ele><time>2026-04-10T16:17:29Z</time></trkpt><trkpt lat="44.57277354655858" lon="7.991338951893795"><ele>496.8333333333333</ele><time>2026-04-10T16:17:30Z</time></trkpt><trkpt lat="44.57281672170612" lon="7.991242980405946"><ele>495.66666666666663</ele><time>2026-04-10T16:17:31Z</time></trkpt><trkpt lat="44.572867735659095" lon="7.991149100634717"><ele>494.5</ele><time>2026-04-10T16:17:32Z</time></trkpt><trkpt lat="44.572926064529575" lon="7.991064126421254"><ele>493.3333333333333</ele><time>2026-04-10T16:17:33Z</time></trkpt><trkpt lat="44.572990396768375" lon="7.9909857434942335"><ele>492.16666666666663</ele><time>2026-04-10T16:17:34Z</time></trkpt><trkpt lat="44.57306105405159" lon="7.990910319712172"><ele>491.0</ele><time>2026-04-10T16:17:35Z</time></trkpt><trkpt lat="44.573135764092136" lon="7.990840817411395"><ele>489.8333333333333</ele><time>2026-04-10T16:17:36Z</time></trkpt><trkpt lat="44.57320790060203" lon="7.990766334616257"><ele>488.66666666666663</ele><time>2026-04-10T16:17:37Z</time></trkpt><trkpt lat="44.57327968808858" lon="7.990688491620284"><ele>487.5</ele><time>2026-04-10T16:17:38Z</time></trkpt><trkpt lat="44.5733534597798" lon="7.990614440046491"><ele>486.33333333333337</ele><time>2026-04-10T16:17:39Z</time></trkpt><trkpt lat="44.573423589635674" lon="7.990542065348324"><ele>485.1666666666667</ele><time>2026-04-10T16:17:40Z</time></trkpt><trkpt lat="44.57349177492093" lon="7.990468344411383"><ele>484.0</ele><time>2026-04-10T16:17:41Z</time></trkpt><trkpt lat="44.573559565270166" lon="7.990393960564085"><ele>484.00000000000006</ele><time>2026-04-10T16:17:42Z</time></trkpt><trkpt lat="44.573631695235235" lon="7.990325790790092"><ele>484.0</ele><time>2026-04-10T16:17:43Z</time></trkpt><trkpt lat="44.57370097329509" lon="7.99025160029432"><ele>484.0</ele><time>2026-04-10T16:17:44Z</time></trkpt><trkpt lat="44.57377135338314" lon="7.990178012010706"><ele>484.0</ele><time>2026-04-10T16:17:45Z</time></trkpt><trkpt lat="44.57384435533382" lon="7.9900999773868575"><ele>484.00000000000006</ele><time>2026-04-10T16:17:46Z</time></trkpt><trkpt lat="44.57391916485418" lon="7.990029022100884"><ele>484.0</ele><time>2026-04-10T16:17:47Z</time></trkpt><trkpt lat="44.57398603739615" lon="7.989950048483073"><ele>482.79999999999995</ele><time>2026-04-10T16:17:48Z</time></trkpt><trkpt lat="44.574061173749655" lon="7.989867900415639"><ele>481.59999999999997</ele><time>2026-04-10T16:17:49Z</time></trkpt><trkpt lat="44.57412370404404" lon="7.989782185083205"><ele>480.4</ele><time>2026-04-10T16:17:50Z</time></trkpt><trkpt lat="44.57418622918459" lon="7.989685161020258"><ele>479.2</ele><time>2026-04-10T16:17:51Z</time></trkpt><trkpt lat="44.57423935560828" lon="7.989584360928921"><ele>478.0</ele><time>2026-04-10T16:17:52Z</time></trkpt><trkpt lat="44.57429396072773" lon="7.9894767655063275"><ele>478.00000000000006</ele><time>2026-04-10T16:17:53Z</time></trkpt><trkpt lat="44.57434450844224" lon="7.989369913048192"><ele>478.0</ele><time>2026-04-10T16:17:54Z</time></trkpt><trkpt lat="44.5743909537887" lon="7.989255780495621"><ele>478.0</ele><time>2026-04-10T16:17:55Z</time></trkpt><trkpt lat="44.57443073251599" lon="7.989142263903377"><ele>478.0</ele><time>2026-04-10T16:17:56Z</time></trkpt><trkpt lat="44.57446276940618" lon="7.989031433909668"><ele>478.00000000000006</ele><time>2026-04-10T16:17:57Z</time></trkpt><trkpt lat="44.57449006140097" lon="7.988914193399049"><ele>478.0</ele><time>2026-04-10T16:17:58Z</time></trkpt><trkpt lat="44.57450968046121" lon="7.988789938150127"><ele>477.1666666666667</ele><time>2026-04-10T16:17:59Z</time></trkpt><trkpt lat="44.57451845481361" lon="7.988676089159242"><ele>476.33333333333337</ele><time>2026-04-10T16:18:00Z</time></trkpt><trkpt lat="44.574504865087285" lon="7.988546297461499"><ele>475.5</ele><time>2026-04-10T16:18:01Z</time></trkpt><trkpt lat="44.57449957098961" lon="7.9884188647375165"><ele>474.66666666666663</ele><time>2026-04-10T16:18:02Z</time></trkpt><trkpt lat="44.5744793210729" lon="7.988297438871731"><ele>473.8333333333333</ele><time>2026-04-10T16:18:03Z</time></trkpt><trkpt lat="44.57444796860351" lon="7.988173523501943"><ele>473.0</ele><time>2026-04-10T16:18:04Z</time></trkpt><trkpt lat="44.57442289016663" lon="7.98804596153389"><ele>472.79999999999995</ele><time>2026-04-10T16:18:05Z</time></trkpt><trkpt lat="44.574399027168695" lon="7.987916186180166"><ele>472.59999999999997</ele><time>2026-04-10T16:18:06Z</time></trkpt><trkpt lat="44.57437460682237" lon="7.987789706484023"><ele>472.40000000000003</ele><time>2026-04-10T16:18:07Z</time></trkpt><trkpt lat="44.57434813345824" lon="7.9876567733787915"><ele>472.20000000000005</ele><time>2026-04-10T16:18:08Z</time></trkpt><trkpt lat="44.57432682501414" lon="7.987520658564904"><ele>472.0</ele><time>2026-04-10T16:18:09Z</time></trkpt><trkpt lat="44.57430772361266" lon="7.987381460141794"><ele>471.6</ele><time>2026-04-10T16:18:10Z</time></trkpt><trkpt lat="44.57428927666798" lon="7.987238185233951"><ele>471.20000000000005</ele><time>2026-04-10T16:18:11Z</time></trkpt><trkpt lat="44.57428281140614" lon="7.987094251271145"><ele>470.8</ele><time>2026-04-10T16:18:12Z</time></trkpt><trkpt lat="44.574285007674426" lon="7.986957551812477"><ele>470.4</ele><time>2026-04-10T16:18:13Z</time></trkpt><trkpt lat="44.574296685557364" lon="7.986820200663572"><ele>470.0</ele><time>2026-04-10T16:18:14Z</time></trkpt><trkpt lat="44.57431275633084" lon="7.986679834179016"><ele>470.0</ele><time>2026-04-10T16:18:15Z</time></trkpt><trkpt lat="44.574337409467034" lon="7.986548264569954"><ele>470.0</ele><time>2026-04-10T16:18:16Z</time></trkpt><trkpt lat="44.574366150164636" lon="7.986424717062022"><ele>470.0</ele><time>2026-04-10T16:18:17Z</time></trkpt><trkpt lat="44.5743972469403" lon="7.986304404920985"><ele>470.0</ele><time>2026-04-10T16:18:18Z</time></trkpt><trkpt lat="44.57442614157314" lon="7.986185989038089"><ele>470.0</ele><time>2026-04-10T16:18:19Z</time></trkpt><trkpt lat="44.57445497743458" lon="7.986061912276434"><ele>470.0</ele><time>2026-04-10T16:18:20Z</time></trkpt><trkpt lat="44.57447128912382" lon="7.9859258736511345"><ele>470.0</ele><time>2026-04-10T16:18:20.999Z</time></trkpt><trkpt lat="44.574504099051886" lon="7.985795995885815"><ele>470.0</ele><time>2026-04-10T16:18:21.999Z</time></trkpt><trkpt lat="44.57452394799982" lon="7.985669464548637"><ele>470.0</ele><time>2026-04-10T16:18:22.999Z</time></trkpt><trkpt lat="44.57454429143153" lon="7.985535054567032"><ele>470.0</ele><time>2026-04-10T16:18:23.999Z</time></trkpt><trkpt lat="44.574561277764914" lon="7.985396750407047"><ele>465.8</ele><time>2026-04-10T16:18:24.999Z</time></trkpt><trkpt lat="44.57457579781486" lon="7.985258182965441"><ele>461.6</ele><time>2026-04-10T16:18:25.999Z</time></trkpt><trkpt lat="44.57459109810751" lon="7.9851293506503565"><ele>457.4</ele><time>2026-04-10T16:18:26.999Z</time></trkpt><trkpt lat="44.57460555062447" lon="7.985008300846582"><ele>453.2</ele><time>2026-04-10T16:18:27.999Z</time></trkpt><trkpt lat="44.57462693484287" lon="7.984889770966776"><ele>449.0</ele><time>2026-04-10T16:18:28.999Z</time></trkpt><trkpt lat="44.574653766837706" lon="7.984777426091506"><ele>448.99999999999994</ele><time>2026-04-10T16:18:29.999Z</time></trkpt><trkpt lat="44.574691109702385" lon="7.9846744751274015"><ele>449.0</ele><time>2026-04-10T16:18:30.999Z</time></trkpt><trkpt lat="44.57474112385416" lon="7.984585857798144"><ele>449.0</ele><time>2026-04-10T16:18:31.999Z</time></trkpt><trkpt lat="44.574805037364946" lon="7.984508217776707"><ele>449.0</ele><time>2026-04-10T16:18:32.999Z</time></trkpt><trkpt lat="44.574880713247" lon="7.984440378505044"><ele>448.99999999999994</ele><time>2026-04-10T16:18:33.999Z</time></trkpt><trkpt lat="44.57495785636144" lon="7.9843826183971665"><ele>449.0</ele><time>2026-04-10T16:18:34.999Z</time></trkpt><trkpt lat="44.575034770056455" lon="7.984324655061575"><ele>448.99999999999994</ele><time>2026-04-10T16:18:35.999Z</time></trkpt><trkpt lat="44.575116025895184" lon="7.984270885219081"><ele>449.0</ele><time>2026-04-10T16:18:36.999Z</time></trkpt><trkpt lat="44.57518740614101" lon="7.984196116908122"><ele>449.0</ele><time>2026-04-10T16:18:37.999Z</time></trkpt><trkpt lat="44.57524850575925" lon="7.984113910569509"><ele>449.0</ele><time>2026-04-10T16:18:38.999Z</time></trkpt><trkpt lat="44.57529867735021" lon="7.984021967077479"><ele>448.99999999999994</ele><time>2026-04-10T16:18:39.999Z</time></trkpt><trkpt lat="44.57535178382155" lon="7.983917759473452"><ele>449.0</ele><time>2026-04-10T16:18:40.999Z</time></trkpt><trkpt lat="44.575395628726376" lon="7.983805999682156"><ele>447.6</ele><time>2026-04-10T16:18:42Z</time></trkpt><trkpt lat="44.57542998068268" lon="7.983688836255806"><ele>446.2</ele><time>2026-04-10T16:18:43Z</time></trkpt><trkpt lat="44.57546085020277" lon="7.983564568898622"><ele>444.80000000000007</ele><time>2026-04-10T16:18:44Z</time></trkpt><trkpt lat="44.57549242285662" lon="7.983440827621325"><ele>443.40000000000003</ele><time>2026-04-10T16:18:45Z</time></trkpt><trkpt lat="44.575521462097214" lon="7.983317084619528"><ele>442.0</ele><time>2026-04-10T16:18:46Z</time></trkpt><trkpt lat="44.57554989550462" lon="7.983195540520356"><ele>442.0</ele><time>2026-04-10T16:18:47Z</time></trkpt><trkpt lat="44.5756132398298" lon="7.982966026046869"><ele>442.00000000000006</ele><time>2026-04-10T16:18:49Z</time></trkpt><trkpt lat="44.57564775817594" lon="7.982859407018783"><ele>442.00000000000006</ele><time>2026-04-10T16:18:50Z</time></trkpt><trkpt lat="44.575686835553675" lon="7.9827620615438475"><ele>442.0</ele><time>2026-04-10T16:18:51Z</time></trkpt><trkpt lat="44.57573430593109" lon="7.982682528291765"><ele>442.0</ele><time>2026-04-10T16:18:52Z</time></trkpt><trkpt lat="44.575783530377926" lon="7.9826096245464235"><ele>442.0</ele><time>2026-04-10T16:18:53Z</time></trkpt><trkpt lat="44.57582836714518" lon="7.982542051399949"><ele>442.00000000000006</ele><time>2026-04-10T16:18:54Z</time></trkpt><trkpt lat="44.575871015743296" lon="7.982473924765682"><ele>442.00000000000006</ele><time>2026-04-10T16:18:55Z</time></trkpt><trkpt lat="44.57596061420849" lon="7.9823591328481225"><ele>442.0</ele><time>2026-04-10T16:18:57Z</time></trkpt><trkpt lat="44.576045316531406" lon="7.982252712950897"><ele>442.0</ele><time>2026-04-10T16:18:59Z</time></trkpt><trkpt lat="44.57612508048302" lon="7.98215746855065"><ele>442.33333333333337</ele><time>2026-04-10T16:19:01Z</time></trkpt><trkpt lat="44.57619177222475" lon="7.98205798132897"><ele>442.6666666666667</ele><time>2026-04-10T16:19:03Z</time></trkpt><trkpt lat="44.57625868511052" lon="7.9819737183868265"><ele>443.0</ele><time>2026-04-10T16:19:05Z</time></trkpt><trkpt lat="44.576333613102086" lon="7.981904924965804"><ele>443.33333333333337</ele><time>2026-04-10T16:19:07Z</time></trkpt><trkpt lat="44.57639897151827" lon="7.981843449165237"><ele>443.6666666666667</ele><time>2026-04-10T16:19:09Z</time></trkpt><trkpt lat="44.576455640569996" lon="7.981800692576513"><ele>444.0</ele><time>2026-04-10T16:19:11Z</time></trkpt><trkpt lat="44.57653390736643" lon="7.981763412215965"><ele>444.0</ele><time>2026-04-10T16:19:14Z</time></trkpt><trkpt lat="44.57659908622661" lon="7.981734377797015"><ele>444.0</ele><time>2026-04-10T16:21:27Z</time></trkpt><trkpt lat="44.57652966893425" lon="7.9817428619174695"><ele>444.0</ele><time>2026-04-10T16:21:39.001Z</time></trkpt><trkpt lat="44.576467382465616" lon="7.981760891988557"><ele>444.0</ele><time>2026-04-10T16:21:42.001Z</time></trkpt><trkpt lat="44.57639286559689" lon="7.981813340161579"><ele>444.0</ele><time>2026-04-10T16:21:45.001Z</time></trkpt><trkpt lat="44.576313259774004" lon="7.981893079586887"><ele>444.0</ele><time>2026-04-10T16:21:48.001Z</time></trkpt><trkpt lat="44.576252914399596" lon="7.981958057259073"><ele>444.0</ele><time>2026-04-10T16:21:50.001Z</time></trkpt><trkpt lat="44.57619300031252" lon="7.982042694747534"><ele>444.0</ele><time>2026-04-10T16:21:52.001Z</time></trkpt><trkpt lat="44.576119741718585" lon="7.982123232735388"><ele>444.0</ele><time>2026-04-10T16:21:54.001Z</time></trkpt><trkpt lat="44.5760522219349" lon="7.982206845574885"><ele>444.0</ele><time>2026-04-10T16:21:56.001Z</time></trkpt><trkpt lat="44.57597109434313" lon="7.98231112902963"><ele>444.0</ele><time>2026-04-10T16:21:58.001Z</time></trkpt><trkpt lat="44.57588929266333" lon="7.982411658400473"><ele>443.5</ele><time>2026-04-10T16:22:00.001Z</time></trkpt><trkpt lat="44.57578993054218" lon="7.982570818526133"><ele>443.0</ele><time>2026-04-10T16:22:02.001Z</time></trkpt><trkpt lat="44.575699602677524" lon="7.982674598507301"><ele>442.5</ele><time>2026-04-10T16:22:04.001Z</time></trkpt><trkpt lat="44.57563607743371" lon="7.9828091816839954"><ele>442.0</ele><time>2026-04-10T16:22:06.001Z</time></trkpt><trkpt lat="44.57558611795938" lon="7.9829588962547495"><ele>442.0</ele><time>2026-04-10T16:22:08.001Z</time></trkpt><trkpt lat="44.575540680681605" lon="7.983107760397783"><ele>442.00000000000006</ele><time>2026-04-10T16:22:10.001Z</time></trkpt><trkpt lat="44.57550058859964" lon="7.98325157152806"><ele>442.00000000000006</ele><time>2026-04-10T16:22:12.001Z</time></trkpt><trkpt lat="44.57546709656741" lon="7.983387868300564"><ele>442.0</ele><time>2026-04-10T16:22:14.001Z</time></trkpt><trkpt lat="44.57543572041472" lon="7.9835095584701605"><ele>442.0</ele><time>2026-04-10T16:22:16.001Z</time></trkpt><trkpt lat="44.57541280972753" lon="7.983612720572429"><ele>441.50000000000006</ele><time>2026-04-10T16:22:18.001Z</time></trkpt><trkpt lat="44.575389896946426" lon="7.983705564690658"><ele>441.0</ele><time>2026-04-10T16:22:20.001Z</time></trkpt><trkpt lat="44.575371189802006" lon="7.9837913939146565"><ele>440.5</ele><time>2026-04-10T16:22:22.001Z</time></trkpt><trkpt lat="44.57532780694259" lon="7.9839056660220145"><ele>440.0</ele><time>2026-04-10T16:22:25.001Z</time></trkpt><trkpt lat="44.575278951024714" lon="7.984008301048385"><ele>439.50000000000006</ele><time>2026-04-10T16:22:28.001Z</time></trkpt><trkpt lat="44.575228801345965" lon="7.984096035529355"><ele>439.0</ele><time>2026-04-10T16:22:31.001Z</time></trkpt><trkpt lat="44.57516751909659" lon="7.984168914712253"><ele>440.6666666666667</ele><time>2026-04-10T16:22:34.001Z</time></trkpt><trkpt lat="44.57509340103858" lon="7.9842190588128235"><ele>442.33333333333337</ele><time>2026-04-10T16:22:37.001Z</time></trkpt><trkpt lat="44.57502666863609" lon="7.984276932681087"><ele>444.0</ele><time>2026-04-10T16:22:40.001Z</time></trkpt><trkpt lat="44.57497455408018" lon="7.984367130106977"><ele>445.66666666666663</ele><time>2026-04-10T16:22:43.001Z</time></trkpt><trkpt lat="44.57490572447264" lon="7.984418191336603"><ele>447.3333333333333</ele><time>2026-04-10T16:22:46.001Z</time></trkpt><trkpt lat="44.57484324700611" lon="7.984475118719031"><ele>449.0</ele><time>2026-04-10T16:22:49.001Z</time></trkpt><trkpt lat="44.57478297306483" lon="7.984535861315205"><ele>448.99999999999994</ele><time>2026-04-10T16:22:52.001Z</time></trkpt><trkpt lat="44.574726421583435" lon="7.984609363651661"><ele>449.0</ele><time>2026-04-10T16:22:55.001Z</time></trkpt><trkpt lat="44.57468174557166" lon="7.984706410627996"><ele>449.0</ele><time>2026-04-10T16:22:58.001Z</time></trkpt><trkpt lat="44.57464795034385" lon="7.984808981461116"><ele>449.0</ele><time>2026-04-10T16:23:01.001Z</time></trkpt><trkpt lat="44.574616980551504" lon="7.984917350825407"><ele>448.99999999999994</ele><time>2026-04-10T16:23:04.001Z</time></trkpt><trkpt lat="44.57459560352221" lon="7.985029395445239"><ele>449.0</ele><time>2026-04-10T16:23:07.001Z</time></trkpt><trkpt lat="44.574580117234575" lon="7.9851407332622"><ele>448.16666666666663</ele><time>2026-04-10T16:23:10.001Z</time></trkpt><trkpt lat="44.57457077054737" lon="7.985252272008158"><ele>447.3333333333333</ele><time>2026-04-10T16:23:13.001Z</time></trkpt><trkpt lat="44.5745571888843" lon="7.985360992155189"><ele>446.5</ele><time>2026-04-10T16:23:16.001Z</time></trkpt><trkpt lat="44.57455014245184" lon="7.985468088051912"><ele>445.66666666666663</ele><time>2026-04-10T16:23:19.001Z</time></trkpt><trkpt lat="44.57453926024588" lon="7.985568764909942"><ele>444.8333333333333</ele><time>2026-04-10T16:23:22.001Z</time></trkpt><trkpt lat="44.574524690017256" lon="7.985655747417585"><ele>444.0</ele><time>2026-04-10T16:23:25.001Z</time></trkpt><trkpt lat="44.574513829469076" lon="7.985770120316361"><ele>447.71428571428567</ele><time>2026-04-10T16:23:29.001Z</time></trkpt><trkpt lat="44.57448870077256" lon="7.985869931373663"><ele>451.42857142857144</ele><time>2026-04-10T16:23:33.001Z</time></trkpt><trkpt lat="44.57446599992255" lon="7.985953868755218"><ele>455.1428571428571</ele><time>2026-04-10T16:23:39.001Z</time></trkpt><trkpt lat="44.574465730221156" lon="7.9860482056452"><ele>458.85714285714283</ele><time>2026-04-10T16:23:44.001Z</time></trkpt><trkpt lat="44.574440199093885" lon="7.986141406456469"><ele>462.57142857142856</ele><time>2026-04-10T16:23:49.001Z</time></trkpt><trkpt lat="44.57441425909128" lon="7.986225824182914"><ele>466.2857142857143</ele><time>2026-04-10T16:23:53.001Z</time></trkpt><trkpt lat="44.57441528400372" lon="7.986329499468251"><ele>470.0</ele><time>2026-04-10T16:23:58.001Z</time></trkpt><trkpt lat="44.57440097021253" lon="7.986438044995886"><ele>470.0</ele><time>2026-04-10T16:24:13.001Z</time></trkpt><trkpt lat="44.5743721514895" lon="7.986537263558277"><ele>469.99999999999994</ele><time>2026-04-10T16:24:18.001Z</time></trkpt><trkpt lat="44.574345809130925" lon="7.98664361624414"><ele>470.0</ele><time>2026-04-10T16:24:22.001Z</time></trkpt><trkpt lat="44.57432233571567" lon="7.986737362284519"><ele>470.0</ele><time>2026-04-10T16:24:25.001Z</time></trkpt><trkpt lat="44.57430926712864" lon="7.986835669680427"><ele>469.99999999999994</ele><time>2026-04-10T16:24:28.001Z</time></trkpt><trkpt lat="44.57429290028225" lon="7.986927442579946"><ele>470.0</ele><time>2026-04-10T16:24:31.002Z</time></trkpt><trkpt lat="44.57430066045742" lon="7.987027997431602"><ele>470.0</ele><time>2026-04-10T16:24:34.002Z</time></trkpt><trkpt lat="44.57429773849559" lon="7.987146000215178"><ele>470.0</ele><time>2026-04-10T16:24:38.002Z</time></trkpt><trkpt lat="44.574291907893596" lon="7.987241259128831"><ele>469.99999999999994</ele><time>2026-04-10T16:24:41.001Z</time></trkpt><trkpt lat="44.574311660830915" lon="7.987339074093553"><ele>470.0</ele><time>2026-04-10T16:24:44.001Z</time></trkpt><trkpt lat="44.57433437706128" lon="7.9874255550208835"><ele>470.0</ele><time>2026-04-10T16:24:47.001Z</time></trkpt><trkpt lat="44.57434354579493" lon="7.9875151372425295"><ele>469.99999999999994</ele><time>2026-04-10T16:24:50.001Z</time></trkpt><trkpt lat="44.57435007572643" lon="7.987615056282928"><ele>470.0</ele><time>2026-04-10T16:24:53.001Z</time></trkpt><trkpt lat="44.57436334540261" lon="7.987711732225955"><ele>470.0</ele><time>2026-04-10T16:24:56.001Z</time></trkpt><trkpt lat="44.57438449441725" lon="7.987802253952388"><ele>470.2857142857143</ele><time>2026-04-10T16:24:59.001Z</time></trkpt><trkpt lat="44.57439842830977" lon="7.9878956420180005"><ele>470.57142857142856</ele><time>2026-04-10T16:25:02.001Z</time></trkpt><trkpt lat="44.574418101407545" lon="7.987986043798256"><ele>470.85714285714283</ele><time>2026-04-10T16:25:05.001Z</time></trkpt><trkpt lat="44.574429863190566" lon="7.988082659138097"><ele>471.1428571428571</ele><time>2026-04-10T16:25:08.001Z</time></trkpt><trkpt lat="44.57445037754927" lon="7.988191059193584"><ele>471.42857142857144</ele><time>2026-04-10T16:25:12.001Z</time></trkpt><trkpt lat="44.574464361686715" lon="7.988289133674911"><ele>471.71428571428567</ele><time>2026-04-10T16:25:15.001Z</time></trkpt><trkpt lat="44.574480038967074" lon="7.9883823883453475"><ele>472.0</ele><time>2026-04-10T16:25:18.001Z</time></trkpt><trkpt lat="44.574488862583095" lon="7.988476570050304"><ele>472.0</ele><time>2026-04-10T16:25:21.001Z</time></trkpt><trkpt lat="44.57445317307878" lon="7.988575903882874"><ele>472.0</ele><time>2026-04-10T16:25:25.001Z</time></trkpt><trkpt lat="44.574386965798595" lon="7.988515525960294"><ele>472.0</ele><time>2026-04-10T16:25:29.001Z</time></trkpt><trkpt lat="44.574350845789205" lon="7.988424532917868"><ele>472.0</ele><time>2026-04-10T16:25:34.001Z</time></trkpt><trkpt lat="44.574328352594556" lon="7.988329613901542"><ele>472.0</ele><time>2026-04-10T16:25:39.001Z</time></trkpt><trkpt lat="44.57431243857557" lon="7.988239037443947"><ele>472.0</ele><time>2026-04-10T16:25:43.001Z</time></trkpt><trkpt lat="44.57426399841127" lon="7.9881535254123195"><ele>472.0</ele><time>2026-04-10T16:25:48.001Z</time></trkpt><trkpt lat="44.574229035977545" lon="7.988062977505493"><ele>472.0</ele><time>2026-04-10T16:25:53.001Z</time></trkpt><trkpt lat="44.574194985951046" lon="7.987971240255345"><ele>472.0</ele><time>2026-04-10T16:25:58.001Z</time></trkpt><trkpt lat="44.574156390875146" lon="7.987900164948706"><ele>472.0</ele><time>2026-04-10T16:26:02.001Z</time></trkpt><trkpt lat="44.57411961037729" lon="7.987806939008844"><ele>472.0</ele><time>2026-04-10T16:26:07.001Z</time></trkpt><trkpt lat="44.57409388920609" lon="7.987696176594141"><ele>472.0</ele><time>2026-04-10T16:26:12.001Z</time></trkpt><trkpt lat="44.574057779726374" lon="7.987620056321085"><ele>472.0</ele><time>2026-04-10T16:26:16.001Z</time></trkpt><trkpt lat="44.574020203180744" lon="7.987544483820166"><ele>472.0</ele><time>2026-04-10T16:26:20.001Z</time></trkpt><trkpt lat="44.57396964170173" lon="7.987489358042488"><ele>471.71428571428567</ele><time>2026-04-10T16:26:24.001Z</time></trkpt><trkpt lat="44.57390264726733" lon="7.987453072750042"><ele>471.42857142857144</ele><time>2026-04-10T16:26:28.001Z</time></trkpt><trkpt lat="44.57383570811661" lon="7.987453112672256"><ele>471.1428571428571</ele><time>2026-04-10T16:26:32.001Z</time></trkpt><trkpt lat="44.573764947814766" lon="7.987449399995077"><ele>470.85714285714283</ele><time>2026-04-10T16:26:36.001Z</time></trkpt><trkpt lat="44.573700923758516" lon="7.987449999078664"><ele>470.57142857142856</ele><time>2026-04-10T16:26:40.001Z</time></trkpt><trkpt lat="44.573635374966194" lon="7.987451963956938"><ele>470.2857142857143</ele><time>2026-04-10T16:26:44.001Z</time></trkpt><trkpt lat="44.57357085691022" lon="7.987446043422908"><ele>470.0</ele><time>2026-04-10T16:26:48.001Z</time></trkpt><trkpt lat="44.57350525087929" lon="7.987442524791951"><ele>471.3333333333333</ele><time>2026-04-10T16:26:52.001Z</time></trkpt><trkpt lat="44.573439837552364" lon="7.9874493155373765"><ele>472.66666666666663</ele><time>2026-04-10T16:26:56.001Z</time></trkpt><trkpt lat="44.57336290673686" lon="7.987439546559084"><ele>474.0</ele><time>2026-04-10T16:27:00.001Z</time></trkpt><trkpt lat="44.57328679990622" lon="7.987441934102196"><ele>475.33333333333337</ele><time>2026-04-10T16:27:04.001Z</time></trkpt><trkpt lat="44.573213321029044" lon="7.98745166959698"><ele>476.6666666666667</ele><time>2026-04-10T16:27:08.001Z</time></trkpt><trkpt lat="44.57312708516844" lon="7.987442094350185"><ele>478.0</ele><time>2026-04-10T16:27:12.001Z</time></trkpt><trkpt lat="44.57304332591343" lon="7.98743872783846"><ele>478.00000000000006</ele><time>2026-04-10T16:27:16.001Z</time></trkpt><trkpt lat="44.57297747438994" lon="7.987427452628682"><ele>478.0</ele><time>2026-04-10T16:27:19.001Z</time></trkpt><trkpt lat="44.57291288974553" lon="7.987419472119869"><ele>478.00000000000006</ele><time>2026-04-10T16:27:22.001Z</time></trkpt><trkpt lat="44.572834605383086" lon="7.987419372194726"><ele>478.00000000000006</ele><time>2026-04-10T16:27:26.001Z</time></trkpt><trkpt lat="44.57275802367891" lon="7.987412527197"><ele>478.0</ele><time>2026-04-10T16:27:30.001Z</time></trkpt><trkpt lat="44.57267786633668" lon="7.987394311529304"><ele>478.00000000000006</ele><time>2026-04-10T16:27:34.001Z</time></trkpt><trkpt lat="44.57259661097347" lon="7.98737952292037"><ele>478.00000000000006</ele><time>2026-04-10T16:27:38.001Z</time></trkpt><trkpt lat="44.572530118241424" lon="7.987361369279542"><ele>479.4</ele><time>2026-04-10T16:27:41.001Z</time></trkpt><trkpt lat="44.572443922162854" lon="7.987346963534599"><ele>480.79999999999995</ele><time>2026-04-10T16:27:44.001Z</time></trkpt><trkpt lat="44.572366441235324" lon="7.987321844164242"><ele>482.2</ele><time>2026-04-10T16:27:46.001Z</time></trkpt><trkpt lat="44.5722765410013" lon="7.987288834005045"><ele>483.6</ele><time>2026-04-10T16:27:48.001Z</time></trkpt><trkpt lat="44.572177670382665" lon="7.987255291328163"><ele>485.0</ele><time>2026-04-10T16:27:50.001Z</time></trkpt><trkpt lat="44.572080655560605" lon="7.987210929655524"><ele>484.3333333333333</ele><time>2026-04-10T16:27:52.001Z</time></trkpt><trkpt lat="44.571988427136986" lon="7.9871503256894805"><ele>483.66666666666663</ele><time>2026-04-10T16:27:54.001Z</time></trkpt><trkpt lat="44.57190735462595" lon="7.9870814983408485"><ele>483.0</ele><time>2026-04-10T16:27:56.001Z</time></trkpt><trkpt lat="44.57182179738942" lon="7.987052098868687"><ele>482.33333333333337</ele><time>2026-04-10T16:27:58.001Z</time></trkpt><trkpt lat="44.57173928297498" lon="7.9870417957479685"><ele>481.6666666666667</ele><time>2026-04-10T16:28:00.001Z</time></trkpt><trkpt lat="44.57166903516446" lon="7.987064665672228"><ele>481.0</ele><time>2026-04-10T16:28:02.001Z</time></trkpt><trkpt lat="44.57157918841188" lon="7.987067020341108"><ele>481.00000000000006</ele><time>2026-04-10T16:28:05.001Z</time></trkpt><trkpt lat="44.571497972708926" lon="7.987099339806852"><ele>481.0</ele><time>2026-04-10T16:28:08.001Z</time></trkpt><trkpt lat="44.57142651447564" lon="7.987140372517371"><ele>481.0</ele><time>2026-04-10T16:28:11.001Z</time></trkpt><trkpt lat="44.571360345923374" lon="7.987186622263731"><ele>481.0</ele><time>2026-04-10T16:28:14.001Z</time></trkpt><trkpt lat="44.571293670492516" lon="7.987235001828433"><ele>481.00000000000006</ele><time>2026-04-10T16:28:17.001Z</time></trkpt><trkpt lat="44.571228803842416" lon="7.987282069021827"><ele>481.0</ele><time>2026-04-10T16:28:20.001Z</time></trkpt><trkpt lat="44.57116053384345" lon="7.987331605542026"><ele>481.50000000000006</ele><time>2026-04-10T16:28:23.001Z</time></trkpt><trkpt lat="44.57109068731317" lon="7.987378006498834"><ele>482.0</ele><time>2026-04-10T16:28:26.001Z</time></trkpt><trkpt lat="44.571017709146986" lon="7.987405388982485"><ele>482.5</ele><time>2026-04-10T16:28:29.001Z</time></trkpt><trkpt lat="44.57094344112118" lon="7.987437095295194"><ele>483.0</ele><time>2026-04-10T16:28:32.001Z</time></trkpt><trkpt lat="44.57085463149575" lon="7.987425701789605"><ele>483.50000000000006</ele><time>2026-04-10T16:28:35.001Z</time></trkpt><trkpt lat="44.57076718095187" lon="7.987416481556378"><ele>484.0</ele><time>2026-04-10T16:28:38.001Z</time></trkpt><trkpt lat="44.57067556232791" lon="7.987390660908853"><ele>484.0</ele><time>2026-04-10T16:28:41.001Z</time></trkpt><trkpt lat="44.5706121673066" lon="7.9873778554340324"><ele>483.99999999999994</ele><time>2026-04-10T16:28:43.001Z</time></trkpt><trkpt lat="44.570543529362254" lon="7.987363886729574"><ele>484.0</ele><time>2026-04-10T16:28:45.001Z</time></trkpt><trkpt lat="44.57047133747431" lon="7.987346771810343"><ele>484.0</ele><time>2026-04-10T16:28:47.001Z</time></trkpt><trkpt lat="44.57039751128582" lon="7.987317725979758"><ele>483.99999999999994</ele><time>2026-04-10T16:28:49.001Z</time></trkpt><trkpt lat="44.57032690053349" lon="7.987252721551513"><ele>484.0</ele><time>2026-04-10T16:28:51.001Z</time></trkpt><trkpt lat="44.57026272362695" lon="7.987195477187157"><ele>484.0</ele><time>2026-04-10T16:28:53.001Z</time></trkpt><trkpt lat="44.57020246525036" lon="7.987128292140412"><ele>486.6666666666667</ele><time>2026-04-10T16:28:55.001Z</time></trkpt><trkpt lat="44.57014649053027" lon="7.987059725689109"><ele>489.33333333333337</ele><time>2026-04-10T16:28:57.001Z</time></trkpt><trkpt lat="44.570092500955624" lon="7.986999805557576"><ele>492.0</ele><time>2026-04-10T16:28:59.001Z</time></trkpt><trkpt lat="44.570027448848876" lon="7.98693327220081"><ele>494.66666666666663</ele><time>2026-04-10T16:29:01.001Z</time></trkpt><trkpt lat="44.56996488759656" lon="7.9868617699746745"><ele>497.3333333333333</ele><time>2026-04-10T16:29:03.001Z</time></trkpt><trkpt lat="44.56989917748473" lon="7.986792076183938"><ele>500.0</ele><time>2026-04-10T16:29:05.001Z</time></trkpt><trkpt lat="44.569829168223414" lon="7.986747844228139"><ele>499.99999999999994</ele><time>2026-04-10T16:29:07.001Z</time></trkpt><trkpt lat="44.56976543503985" lon="7.986695438435952"><ele>500.0</ele><time>2026-04-10T16:29:09.001Z</time></trkpt><trkpt lat="44.56971849569562" lon="7.986605356519719"><ele>500.0</ele><time>2026-04-10T16:29:11.001Z</time></trkpt><trkpt lat="44.569652541729546" lon="7.986547179477699"><ele>500.0</ele><time>2026-04-10T16:29:13.001Z</time></trkpt><trkpt lat="44.569592891781454" lon="7.986494562969887"><ele>499.99999999999994</ele><time>2026-04-10T16:29:15.001Z</time></trkpt><trkpt lat="44.56952796587645" lon="7.986438064151185"><ele>500.0</ele><time>2026-04-10T16:29:17.001Z</time></trkpt><trkpt lat="44.56946015068683" lon="7.986382148228108"><ele>499.42857142857144</ele><time>2026-04-10T16:29:19.001Z</time></trkpt><trkpt lat="44.56939930635934" lon="7.986331980069778"><ele>498.8571428571429</ele><time>2026-04-10T16:29:21.001Z</time></trkpt><trkpt lat="44.569338962026464" lon="7.986282224142723"><ele>498.28571428571433</ele><time>2026-04-10T16:29:23.001Z</time></trkpt><trkpt lat="44.5692787586254" lon="7.986232584419303"><ele>497.7142857142857</ele><time>2026-04-10T16:29:25.001Z</time></trkpt><trkpt lat="44.56920009257554" lon="7.986168520529329"><ele>497.1428571428572</ele><time>2026-04-10T16:29:28.001Z</time></trkpt><trkpt lat="44.56912683514476" lon="7.9861304181957715"><ele>496.5714285714286</ele><time>2026-04-10T16:29:31.001Z</time></trkpt><trkpt lat="44.569076477091905" lon="7.986070371107409"><ele>496.0</ele><time>2026-04-10T16:29:34.001Z</time></trkpt><trkpt lat="44.56900762159811" lon="7.986046526902585"><ele>496.0</ele><time>2026-04-10T16:29:37.001Z</time></trkpt><trkpt lat="44.56894378027562" lon="7.985990210290924"><ele>496.00000000000006</ele><time>2026-04-10T16:29:40.001Z</time></trkpt><trkpt lat="44.56886504837152" lon="7.9859936247267775"><ele>496.0</ele><time>2026-04-10T16:29:43.001Z</time></trkpt><trkpt lat="44.5687945726425" lon="7.985976130052177"><ele>496.0</ele><time>2026-04-10T16:29:46.001Z</time></trkpt><trkpt lat="44.568723161452894" lon="7.985956757915573"><ele>496.00000000000006</ele><time>2026-04-10T16:29:49.001Z</time></trkpt><trkpt lat="44.56866163552084" lon="7.985917957953266"><ele>496.0</ele><time>2026-04-10T16:29:52.001Z</time></trkpt><trkpt lat="44.568598913425326" lon="7.985876675790755"><ele>496.0</ele><time>2026-04-10T16:29:55.001Z</time></trkpt><trkpt lat="44.56854783662248" lon="7.9858226614128025"><ele>495.1666666666667</ele><time>2026-04-10T16:29:58.001Z</time></trkpt><trkpt lat="44.56850669414962" lon="7.985753086048916"><ele>494.33333333333337</ele><time>2026-04-10T16:30:01.001Z</time></trkpt><trkpt lat="44.56843863716757" lon="7.985679432374581"><ele>493.5</ele><time>2026-04-10T16:30:04.001Z</time></trkpt><trkpt lat="44.56836912146748" lon="7.9856130045446685"><ele>492.66666666666663</ele><time>2026-04-10T16:30:07.001Z</time></trkpt><trkpt lat="44.5683023617954" lon="7.985560923117717"><ele>491.8333333333333</ele><time>2026-04-10T16:30:10.001Z</time></trkpt><trkpt lat="44.56823371228281" lon="7.985517378865557"><ele>491.0</ele><time>2026-04-10T16:30:13.001Z</time></trkpt><trkpt lat="44.568151204498434" lon="7.985479211221706"><ele>490.99999999999994</ele><time>2026-04-10T16:30:16.001Z</time></trkpt><trkpt lat="44.56808472821662" lon="7.985468775975851"><ele>491.0</ele><time>2026-04-10T16:30:18.001Z</time></trkpt><trkpt lat="44.56801913355559" lon="7.985467280979467"><ele>491.0</ele><time>2026-04-10T16:30:20.001Z</time></trkpt><trkpt lat="44.56794921008003" lon="7.985467639815627"><ele>491.0</ele><time>2026-04-10T16:30:22.001Z</time></trkpt><trkpt lat="44.567857558048495" lon="7.9854578987861995"><ele>490.99999999999994</ele><time>2026-04-10T16:30:25.001Z</time></trkpt><trkpt lat="44.56777793171095" lon="7.9854486440462225"><ele>491.0</ele><time>2026-04-10T16:30:28.001Z</time></trkpt><trkpt lat="44.567694019457484" lon="7.985442868717027"><ele>490.8333333333333</ele><time>2026-04-10T16:30:31.001Z</time></trkpt><trkpt lat="44.56761069035007" lon="7.985437774597529"><ele>490.66666666666663</ele><time>2026-04-10T16:30:34.001Z</time></trkpt><trkpt lat="44.567531539035365" lon="7.9854293727890955"><ele>490.5</ele><time>2026-04-10T16:30:37.001Z</time></trkpt><trkpt lat="44.567451394521825" lon="7.985441148336438"><ele>490.33333333333337</ele><time>2026-04-10T16:30:40.001Z</time></trkpt><trkpt lat="44.56737533873333" lon="7.985463556496809"><ele>490.1666666666667</ele><time>2026-04-10T16:30:43.001Z</time></trkpt><trkpt lat="44.567292028770794" lon="7.985485794920498"><ele>490.0</ele><time>2026-04-10T16:30:46.001Z</time></trkpt><trkpt lat="44.56722078298436" lon="7.985524860313653"><ele>490.0</ele><time>2026-04-10T16:30:49.001Z</time></trkpt><trkpt lat="44.567145064428665" lon="7.985547950176165"><ele>490.0</ele><time>2026-04-10T16:30:52.001Z</time></trkpt><trkpt lat="44.56707412792542" lon="7.985577444990689"><ele>490.0</ele><time>2026-04-10T16:30:55.001Z</time></trkpt><trkpt lat="44.56701057513095" lon="7.9856011989338995"><ele>490.0</ele><time>2026-04-10T16:30:58.001Z</time></trkpt><trkpt lat="44.56694311978839" lon="7.985626966205303"><ele>490.0</ele><time>2026-04-10T16:31:01.001Z</time></trkpt><trkpt lat="44.56688223188008" lon="7.9856667690288425"><ele>490.0</ele><time>2026-04-10T16:31:04.001Z</time></trkpt><trkpt lat="44.566817730400246" lon="7.985693606904388"><ele>490.0</ele><time>2026-04-10T16:31:07.001Z</time></trkpt><trkpt lat="44.56674984298483" lon="7.985714457524227"><ele>489.0</ele><time>2026-04-10T16:31:10Z</time></trkpt><trkpt lat="44.56668475019206" lon="7.985736690475877"><ele>488.0</ele><time>2026-04-10T16:31:13Z</time></trkpt><trkpt lat="44.566620953203234" lon="7.985753603936456"><ele>487.0</ele><time>2026-04-10T16:31:16Z</time></trkpt><trkpt lat="44.56655819479581" lon="7.985773598110359"><ele>486.0</ele><time>2026-04-10T16:31:19Z</time></trkpt><trkpt lat="44.56647681676915" lon="7.9857899799340455"><ele>485.0</ele><time>2026-04-10T16:31:23Z</time></trkpt><trkpt lat="44.566401941851815" lon="7.985817795504357"><ele>484.0</ele><time>2026-04-10T16:31:27Z</time></trkpt><trkpt lat="44.56634217022998" lon="7.985850663936428"><ele>483.0</ele><time>2026-04-10T16:31:31Z</time></trkpt><trkpt lat="44.56626454252982" lon="7.985863098795702"><ele>485.6666666666667</ele><time>2026-04-10T16:31:35Z</time></trkpt><trkpt lat="44.566183274573696" lon="7.985892351584124"><ele>488.33333333333337</ele><time>2026-04-10T16:31:39Z</time></trkpt><trkpt lat="44.566106346172255" lon="7.9859207069822205"><ele>491.0</ele><time>2026-04-10T16:31:43Z</time></trkpt><trkpt lat="44.56602656838554" lon="7.9859387887538755"><ele>493.6666666666667</ele><time>2026-04-10T16:31:47Z</time></trkpt><trkpt lat="44.56595226480358" lon="7.985960789549222"><ele>496.33333333333337</ele><time>2026-04-10T16:31:51Z</time></trkpt><trkpt lat="44.565873974477945" lon="7.98597659952026"><ele>499.0</ele><time>2026-04-10T16:31:55Z</time></trkpt><trkpt lat="44.56580837777324" lon="7.985985495667461"><ele>499.00000000000006</ele><time>2026-04-10T16:32:00Z</time></trkpt><trkpt lat="44.56573250887506" lon="7.98599328789995"><ele>499.0</ele><time>2026-04-10T16:32:04Z</time></trkpt><trkpt lat="44.56565253952381" lon="7.985993024075381"><ele>499.0</ele><time>2026-04-10T16:32:08Z</time></trkpt><trkpt lat="44.56558936927776" lon="7.985991523587221"><ele>499.0</ele><time>2026-04-10T16:32:11Z</time></trkpt><trkpt lat="44.56551852592261" lon="7.986000012932533"><ele>499.00000000000006</ele><time>2026-04-10T16:32:15Z</time></trkpt><trkpt lat="44.56543898421813" lon="7.986002760968065"><ele>499.0</ele><time>2026-04-10T16:32:19Z</time></trkpt><trkpt lat="44.56535853649095" lon="7.986015817966639"><ele>499.83333333333337</ele><time>2026-04-10T16:32:23Z</time></trkpt><trkpt lat="44.56528745240898" lon="7.98602845426104"><ele>500.6666666666667</ele><time>2026-04-10T16:32:26Z</time></trkpt><trkpt lat="44.56519958007795" lon="7.986046965121862"><ele>501.5</ele><time>2026-04-10T16:32:29Z</time></trkpt><trkpt lat="44.56512885131415" lon="7.9860581693748545"><ele>502.33333333333337</ele><time>2026-04-10T16:32:31Z</time></trkpt><trkpt lat="44.565057568355556" lon="7.9860711180991055"><ele>503.1666666666667</ele><time>2026-04-10T16:32:33Z</time></trkpt><trkpt lat="44.564976050543066" lon="7.986084898258458"><ele>504.0</ele><time>2026-04-10T16:32:35Z</time></trkpt><trkpt lat="44.56488833018824" lon="7.9860912600942395"><ele>504.0</ele><time>2026-04-10T16:32:37Z</time></trkpt><trkpt lat="44.564801132376296" lon="7.986107040697002"><ele>504.0</ele><time>2026-04-10T16:32:39Z</time></trkpt><trkpt lat="44.564713055800496" lon="7.986124088755025"><ele>504.0</ele><time>2026-04-10T16:32:41Z</time></trkpt><trkpt lat="44.56462729632424" lon="7.986140102947793"><ele>504.0</ele><time>2026-04-10T16:32:43Z</time></trkpt><trkpt lat="44.56454144598919" lon="7.986179249400589"><ele>504.0</ele><time>2026-04-10T16:32:45Z</time></trkpt><trkpt lat="44.56446886583602" lon="7.986220420699886"><ele>504.0</ele><time>2026-04-10T16:32:47Z</time></trkpt><trkpt lat="44.56439820941967" lon="7.986261052403877"><ele>503.2857142857143</ele><time>2026-04-10T16:32:49.001Z</time></trkpt><trkpt lat="44.56433376005717" lon="7.986304359284316"><ele>502.57142857142856</ele><time>2026-04-10T16:32:51.001Z</time></trkpt><trkpt lat="44.56426667542889" lon="7.986332543320344"><ele>501.8571428571429</ele><time>2026-04-10T16:32:53.001Z</time></trkpt><trkpt lat="44.564198464398935" lon="7.986371803556615"><ele>501.14285714285717</ele><time>2026-04-10T16:32:55.001Z</time></trkpt><trkpt lat="44.56413344206131" lon="7.986386147861339"><ele>500.42857142857144</ele><time>2026-04-10T16:33:00.001Z</time></trkpt><trkpt lat="44.56404451769043" lon="7.9864217446901575"><ele>499.7142857142858</ele><time>2026-04-10T16:33:04Z</time></trkpt><trkpt lat="44.563979775642196" lon="7.986436910272944"><ele>499.00000000000006</ele><time>2026-04-10T16:33:06Z</time></trkpt><trkpt lat="44.56390570368664" lon="7.986462321767793"><ele>499.0</ele><time>2026-04-10T16:33:08Z</time></trkpt><trkpt lat="44.56381646280146" lon="7.986477365385437"><ele>499.0</ele><time>2026-04-10T16:33:10Z</time></trkpt><trkpt lat="44.5637164680316" lon="7.986496756242809"><ele>499.0</ele><time>2026-04-10T16:33:12Z</time></trkpt><trkpt lat="44.563606918104156" lon="7.986530746763618"><ele>499.0</ele><time>2026-04-10T16:33:14Z</time></trkpt><trkpt lat="44.563479785728454" lon="7.986560118052235"><ele>499.0</ele><time>2026-04-10T16:33:16Z</time></trkpt><trkpt lat="44.56341108184397" lon="7.986582984132046"><ele>498.7142857142858</ele><time>2026-04-10T16:33:17Z</time></trkpt><trkpt lat="44.563340095141214" lon="7.986604009817404"><ele>498.42857142857144</ele><time>2026-04-10T16:33:18Z</time></trkpt><trkpt lat="44.56326442660472" lon="7.986624334560396"><ele>498.14285714285717</ele><time>2026-04-10T16:33:19Z</time></trkpt><trkpt lat="44.56319269146892" lon="7.986649619646559"><ele>497.8571428571429</ele><time>2026-04-10T16:33:20Z</time></trkpt><trkpt lat="44.563124084249075" lon="7.986678244664283"><ele>497.57142857142856</ele><time>2026-04-10T16:33:21Z</time></trkpt><trkpt lat="44.563055710537874" lon="7.986706510026406"><ele>497.2857142857143</ele><time>2026-04-10T16:33:22Z</time></trkpt><trkpt lat="44.562991859554394" lon="7.9867306519385295"><ele>497.0</ele><time>2026-04-10T16:33:23Z</time></trkpt><trkpt lat="44.562877863536514" lon="7.986745565463794"><ele>496.20000000000005</ele><time>2026-04-10T16:33:25Z</time></trkpt><trkpt lat="44.562786966667716" lon="7.986773190291498"><ele>495.40000000000003</ele><time>2026-04-10T16:33:27Z</time></trkpt><trkpt lat="44.56269157287097" lon="7.986735492752198"><ele>494.59999999999997</ele><time>2026-04-10T16:33:29Z</time></trkpt><trkpt lat="44.562607719918596" lon="7.986667815025017"><ele>493.79999999999995</ele><time>2026-04-10T16:33:31Z</time></trkpt><trkpt lat="44.56251524041474" lon="7.986545578621038"><ele>493.0</ele><time>2026-04-10T16:33:33Z</time></trkpt><trkpt lat="44.562463213122854" lon="7.9864681548832515"><ele>493.0</ele><time>2026-04-10T16:33:34Z</time></trkpt><trkpt lat="44.56241226970268" lon="7.9863843073730045"><ele>492.99999999999994</ele><time>2026-04-10T16:33:35Z</time></trkpt><trkpt lat="44.562357959510074" lon="7.986295387190796"><ele>492.99999999999994</ele><time>2026-04-10T16:33:36Z</time></trkpt><trkpt lat="44.56229811692184" lon="7.986193670759083"><ele>493.0</ele><time>2026-04-10T16:33:37Z</time></trkpt><trkpt lat="44.56223961035598" lon="7.986089319526674"><ele>493.0</ele><time>2026-04-10T16:33:38Z</time></trkpt><trkpt lat="44.562166525221286" lon="7.985993468740903"><ele>493.0</ele><time>2026-04-10T16:33:39Z</time></trkpt><trkpt lat="44.56210729349027" lon="7.985881919563929"><ele>492.99999999999994</ele><time>2026-04-10T16:33:40Z</time></trkpt><trkpt lat="44.56205497610401" lon="7.985755781688999"><ele>492.99999999999994</ele><time>2026-04-10T16:33:41Z</time></trkpt><trkpt lat="44.56198475685735" lon="7.985648394504783"><ele>493.0</ele><time>2026-04-10T16:33:42Z</time></trkpt><trkpt lat="44.56192496974983" lon="7.9855213404156835"><ele>493.0</ele><time>2026-04-10T16:33:43Z</time></trkpt><trkpt lat="44.5618746617962" lon="7.985392137259222"><ele>489.59999999999997</ele><time>2026-04-10T16:33:44Z</time></trkpt><trkpt lat="44.561824671127525" lon="7.985255949736085"><ele>486.19999999999993</ele><time>2026-04-10T16:33:45Z</time></trkpt><trkpt lat="44.56177806751956" lon="7.985119457812055"><ele>482.8</ele><time>2026-04-10T16:33:46Z</time></trkpt><trkpt lat="44.561726651039194" lon="7.9849851158891125"><ele>479.4</ele><time>2026-04-10T16:33:47Z</time></trkpt><trkpt lat="44.56167119227286" lon="7.984859832504506"><ele>476.0</ele><time>2026-04-10T16:33:48Z</time></trkpt><trkpt lat="44.56160641007077" lon="7.984754820518082"><ele>475.0</ele><time>2026-04-10T16:33:49Z</time></trkpt><trkpt lat="44.561529680087965" lon="7.9846645077122576"><ele>474.0</ele><time>2026-04-10T16:33:50Z</time></trkpt><trkpt lat="44.561444724075464" lon="7.984591092342857"><ele>473.0</ele><time>2026-04-10T16:33:51Z</time></trkpt><trkpt lat="44.561367351349276" lon="7.984509817734402"><ele>472.0</ele><time>2026-04-10T16:33:52Z</time></trkpt><trkpt lat="44.561282944705226" lon="7.984458653257158"><ele>471.0</ele><time>2026-04-10T16:33:53Z</time></trkpt><trkpt lat="44.56120128734777" lon="7.984419782772489"><ele>470.5</ele><time>2026-04-10T16:33:54Z</time></trkpt><trkpt lat="44.5611243827671" lon="7.984388026382532"><ele>470.0</ele><time>2026-04-10T16:33:55Z</time></trkpt><trkpt lat="44.56105179494682" lon="7.984358025480975"><ele>469.5</ele><time>2026-04-10T16:33:56Z</time></trkpt><trkpt lat="44.560987337992806" lon="7.9843381192922465"><ele>469.0</ele><time>2026-04-10T16:33:57Z</time></trkpt><trkpt lat="44.560875635427514" lon="7.984326515634948"><ele>468.5</ele><time>2026-04-10T16:33:59Z</time></trkpt><trkpt lat="44.560789148698944" lon="7.984329200931641"><ele>468.0</ele><time>2026-04-10T16:34:01Z</time></trkpt><trkpt lat="44.56072420551847" lon="7.9843334771461505"><ele>468.0</ele><time>2026-04-10T16:34:03Z</time></trkpt><trkpt lat="44.56064971059946" lon="7.984339804577406"><ele>468.00000000000006</ele><time>2026-04-10T16:34:06Z</time></trkpt><trkpt lat="44.56058047734409" lon="7.984367399687514"><ele>468.0</ele><time>2026-04-10T16:34:09Z</time></trkpt><trkpt lat="44.56051556119357" lon="7.984371588604835"><ele>468.0</ele><time>2026-04-10T16:34:12Z</time></trkpt><trkpt lat="44.560440322303705" lon="7.984372234379947"><ele>468.00000000000006</ele><time>2026-04-10T16:34:16Z</time></trkpt><trkpt lat="44.56036612022431" lon="7.98438223309724"><ele>468.0</ele><time>2026-04-10T16:34:20Z</time></trkpt><trkpt lat="44.56029391832048" lon="7.98438850457402"><ele>468.0</ele><time>2026-04-10T16:34:24Z</time></trkpt><trkpt lat="44.560222287247974" lon="7.984376108725664"><ele>469.0</ele><time>2026-04-10T16:34:28Z</time></trkpt><trkpt lat="44.56014684330098" lon="7.9843997009127525"><ele>470.0</ele><time>2026-04-10T16:34:32Z</time></trkpt><trkpt lat="44.56007643478714" lon="7.98444766467031"><ele>471.0</ele><time>2026-04-10T16:34:36Z</time></trkpt><trkpt lat="44.5600013695858" lon="7.9844767853900525"><ele>472.0</ele><time>2026-04-10T16:34:40Z</time></trkpt><trkpt lat="44.55993094879658" lon="7.984511374671804"><ele>473.0</ele><time>2026-04-10T16:34:44Z</time></trkpt><trkpt lat="44.559856093788355" lon="7.984542410398411"><ele>474.0</ele><time>2026-04-10T16:34:48Z</time></trkpt><trkpt lat="44.559784736470085" lon="7.984572321716615"><ele>473.99999999999994</ele><time>2026-04-10T16:34:52Z</time></trkpt><trkpt lat="44.559716313944946" lon="7.984602370250766"><ele>474.0</ele><time>2026-04-10T16:34:56Z</time></trkpt><trkpt lat="44.55964221442726" lon="7.984631853503889"><ele>473.99999999999994</ele><time>2026-04-10T16:35:00Z</time></trkpt><trkpt lat="44.559577533560784" lon="7.984662267170113"><ele>473.99999999999994</ele><time>2026-04-10T16:35:04Z</time></trkpt><trkpt lat="44.55950929248521" lon="7.98468551546399"><ele>474.0</ele><time>2026-04-10T16:35:08Z</time></trkpt><trkpt lat="44.559442306781506" lon="7.984712223386429"><ele>473.99999999999994</ele><time>2026-04-10T16:35:13Z</time></trkpt><trkpt lat="44.55937688609546" lon="7.984724030756661"><ele>473.99999999999994</ele><time>2026-04-10T16:35:25Z</time></trkpt><trkpt lat="44.55931317785821" lon="7.984741050528414"><ele>475.1428571428571</ele><time>2026-04-10T16:35:32Z</time></trkpt><trkpt lat="44.559241850770256" lon="7.984755772100001"><ele>476.2857142857143</ele><time>2026-04-10T16:35:39Z</time></trkpt><trkpt lat="44.559170919793495" lon="7.984769452452367"><ele>477.42857142857144</ele><time>2026-04-10T16:35:46Z</time></trkpt><trkpt lat="44.55910523191906" lon="7.984780562230765"><ele>478.57142857142856</ele><time>2026-04-10T16:35:52Z</time></trkpt><trkpt lat="44.55903868835982" lon="7.984787941447503"><ele>479.7142857142858</ele><time>2026-04-10T16:35:58Z</time></trkpt><trkpt lat="44.55896678750234" lon="7.9847987842807635"><ele>480.8571428571429</ele><time>2026-04-10T16:36:04Z</time></trkpt><trkpt lat="44.55889227278733" lon="7.984805662263144"><ele>482.0</ele><time>2026-04-10T16:36:10Z</time></trkpt><trkpt lat="44.55882184158947" lon="7.9848101803936"><ele>482.0</ele><time>2026-04-10T16:36:16Z</time></trkpt><trkpt lat="44.558757324985706" lon="7.984811978408341"><ele>482.00000000000006</ele><time>2026-04-10T16:36:22Z</time></trkpt><trkpt lat="44.55869151169953" lon="7.9848194013094265"><ele>482.0</ele><time>2026-04-10T16:36:28Z</time></trkpt><trkpt lat="44.55862583141381" lon="7.9848344824132695"><ele>482.0</ele><time>2026-04-10T16:36:34Z</time></trkpt><trkpt lat="44.558560522005266" lon="7.984829027576202"><ele>482.00000000000006</ele><time>2026-04-10T16:36:40Z</time></trkpt><trkpt lat="44.55849016630936" lon="7.984841270919157"><ele>482.0</ele><time>2026-04-10T16:36:46Z</time></trkpt><trkpt lat="44.558425255269654" lon="7.984840167475444"><ele>482.0</ele><time>2026-04-10T16:36:52Z</time></trkpt><trkpt lat="44.55835152382273" lon="7.984853794919745"><ele>483.7142857142857</ele><time>2026-04-10T16:36:59Z</time></trkpt><trkpt lat="44.55828637178536" lon="7.984857369532456"><ele>485.42857142857144</ele><time>2026-04-10T16:37:06Z</time></trkpt><trkpt lat="44.55822334283418" lon="7.9848590774711194"><ele>487.14285714285717</ele><time>2026-04-10T16:37:12Z</time></trkpt><trkpt lat="44.558159903559485" lon="7.984859711189506"><ele>488.8571428571429</ele><time>2026-04-10T16:37:18Z</time></trkpt><trkpt lat="44.55809613600682" lon="7.984861027146772"><ele>490.57142857142856</ele><time>2026-04-10T16:37:24Z</time></trkpt><trkpt lat="44.55802637727262" lon="7.984849345956716"><ele>492.28571428571433</ele><time>2026-04-10T16:37:31Z</time></trkpt><trkpt lat="44.557956969097674" lon="7.984849372164738"><ele>494.0</ele><time>2026-04-10T16:37:39Z</time></trkpt><trkpt lat="44.55789473462745" lon="7.9848293779550845"><ele>495.28571428571433</ele><time>2026-04-10T16:37:45Z</time></trkpt><trkpt lat="44.5578292517341" lon="7.984795722701227"><ele>496.57142857142856</ele><time>2026-04-10T16:37:52Z</time></trkpt><trkpt lat="44.55776184014695" lon="7.984759581347765"><ele>497.8571428571429</ele><time>2026-04-10T16:37:59Z</time></trkpt><trkpt lat="44.55769953402057" lon="7.984719468301578"><ele>499.14285714285717</ele><time>2026-04-10T16:38:12Z</time></trkpt><trkpt lat="44.557640568049045" lon="7.9846813708500015"><ele>500.42857142857144</ele><time>2026-04-10T16:38:17Z</time></trkpt><trkpt lat="44.55761139194658" lon="7.984594039283021"><ele>501.7142857142857</ele><time>2026-04-10T16:38:20Z</time></trkpt><trkpt lat="44.557541791536835" lon="7.984585853115822"><ele>503.0</ele><time>2026-04-10T16:38:23Z</time></trkpt><trkpt lat="44.55747033862883" lon="7.984536893507519"><ele>503.0</ele><time>2026-04-10T16:38:27Z</time></trkpt><trkpt lat="44.557407754182066" lon="7.984511959581892"><ele>503.00000000000006</ele><time>2026-04-10T16:38:30Z</time></trkpt><trkpt lat="44.55733877230598" lon="7.984493198358171"><ele>503.0</ele><time>2026-04-10T16:38:34Z</time></trkpt><trkpt lat="44.5572746231198" lon="7.984469842078302"><ele>503.0</ele><time>2026-04-10T16:38:39Z</time></trkpt><trkpt lat="44.55719984971457" lon="7.98445673530841"><ele>503.00000000000006</ele><time>2026-04-10T16:41:50Z</time></trkpt><trkpt lat="44.557134411728015" lon="7.9845013332073265"><ele>503.0</ele><time>2026-04-10T16:41:54Z</time></trkpt><trkpt lat="44.55706245278033" lon="7.984537186361899"><ele>503.0</ele><time>2026-04-10T16:41:57Z</time></trkpt><trkpt lat="44.55699218962972" lon="7.984561028622566"><ele>502.16666666666663</ele><time>2026-04-10T16:41:59Z</time></trkpt><trkpt lat="44.556900882784284" lon="7.984588755544013"><ele>501.3333333333333</ele><time>2026-04-10T16:42:01Z</time></trkpt><trkpt lat="44.556786963994064" lon="7.984625030886666"><ele>500.5</ele><time>2026-04-10T16:42:03Z</time></trkpt><trkpt lat="44.55672037850369" lon="7.984649568504757"><ele>499.66666666666663</ele><time>2026-04-10T16:42:04Z</time></trkpt><trkpt lat="44.5566495798536" lon="7.984673378820989"><ele>498.8333333333333</ele><time>2026-04-10T16:42:05Z</time></trkpt><trkpt lat="44.556580021377776" lon="7.9846966347063555"><ele>498.0</ele><time>2026-04-10T16:42:06Z</time></trkpt><trkpt lat="44.55650036630375" lon="7.984693974632458"><ele>498.0</ele><time>2026-04-10T16:42:07Z</time></trkpt><trkpt lat="44.55642826174044" lon="7.984717967470136"><ele>498.0</ele><time>2026-04-10T16:42:08Z</time></trkpt><trkpt lat="44.55635203834536" lon="7.984742918658141"><ele>498.0</ele><time>2026-04-10T16:42:09Z</time></trkpt><trkpt lat="44.55627306668907" lon="7.984777026334649"><ele>498.0</ele><time>2026-04-10T16:42:10Z</time></trkpt><trkpt lat="44.55619772663649" lon="7.984824226968166"><ele>498.0</ele><time>2026-04-10T16:42:11Z</time></trkpt><trkpt lat="44.55612595833152" lon="7.984871873522333"><ele>498.0</ele><time>2026-04-10T16:42:12Z</time></trkpt><trkpt lat="44.556060098727066" lon="7.984949314145758"><ele>498.0</ele><time>2026-04-10T16:42:13Z</time></trkpt><trkpt lat="44.55599446490022" lon="7.9850115982942285"><ele>497.99999999999994</ele><time>2026-04-10T16:42:14Z</time></trkpt><trkpt lat="44.55593155955005" lon="7.985071293050251"><ele>498.0</ele><time>2026-04-10T16:42:15Z</time></trkpt><trkpt lat="44.55587035281448" lon="7.985124147973013"><ele>498.0</ele><time>2026-04-10T16:42:16Z</time></trkpt><trkpt lat="44.55580883021526" lon="7.98517540350029"><ele>497.99999999999994</ele><time>2026-04-10T16:42:17Z</time></trkpt><trkpt lat="44.55574752186032" lon="7.985225183355633"><ele>498.0</ele><time>2026-04-10T16:42:18Z</time></trkpt><trkpt lat="44.555689893877656" lon="7.985271974949284"><ele>498.0</ele><time>2026-04-10T16:42:19Z</time></trkpt><trkpt lat="44.55563241441109" lon="7.98531670840225"><ele>498.0</ele><time>2026-04-10T16:42:20Z</time></trkpt><trkpt lat="44.55552913739218" lon="7.985392701528973"><ele>498.0</ele><time>2026-04-10T16:42:22Z</time></trkpt><trkpt lat="44.555447851625686" lon="7.985448417882199"><ele>498.0</ele><time>2026-04-10T16:42:24Z</time></trkpt><trkpt lat="44.55537301384268" lon="7.985497317666695"><ele>498.0</ele><time>2026-04-10T16:42:27Z</time></trkpt><trkpt lat="44.555308879968614" lon="7.985534936945707"><ele>498.0</ele><time>2026-04-10T16:42:32Z</time></trkpt><trkpt lat="44.55525902757199" lon="7.9856039937598"><ele>498.0</ele><time>2026-04-10T16:42:36Z</time></trkpt><trkpt lat="44.55519720183459" lon="7.985621857820161"><ele>499.1428571428571</ele><time>2026-04-10T16:42:40Z</time></trkpt><trkpt lat="44.55512929596784" lon="7.985637132093039"><ele>500.2857142857142</ele><time>2026-04-10T16:42:44Z</time></trkpt><trkpt lat="44.55506252887355" lon="7.985664658647387"><ele>501.42857142857144</ele><time>2026-04-10T16:42:48Z</time></trkpt><trkpt lat="44.55499645386999" lon="7.985672378715634"><ele>502.57142857142856</ele><time>2026-04-10T16:42:52Z</time></trkpt><trkpt lat="44.55493337068817" lon="7.985690311926314"><ele>503.7142857142857</ele><time>2026-04-10T16:42:56Z</time></trkpt><trkpt lat="44.55486088932513" lon="7.985699127430744"><ele>504.8571428571429</ele><time>2026-04-10T16:43:00Z</time></trkpt><trkpt lat="44.55479090636898" lon="7.985715827111696"><ele>506.00000000000006</ele><time>2026-04-10T16:43:04Z</time></trkpt><trkpt lat="44.55472451277126" lon="7.98573435968681"><ele>506.00000000000006</ele><time>2026-04-10T16:43:08Z</time></trkpt><trkpt lat="44.554656763198736" lon="7.985757820416448"><ele>506.0</ele><time>2026-04-10T16:43:12Z</time></trkpt><trkpt lat="44.55458568139774" lon="7.985773352865939"><ele>506.00000000000006</ele><time>2026-04-10T16:43:16Z</time></trkpt><trkpt lat="44.554514325689084" lon="7.9857917508044975"><ele>506.00000000000006</ele><time>2026-04-10T16:43:20Z</time></trkpt><trkpt lat="44.55444300889103" lon="7.985801519512656"><ele>506.0</ele><time>2026-04-10T16:43:24Z</time></trkpt><trkpt lat="44.554368580198776" lon="7.9858204419891825"><ele>506.00000000000006</ele><time>2026-04-10T16:43:28Z</time></trkpt><trkpt lat="44.55429742891205" lon="7.985849874625181"><ele>506.00000000000006</ele><time>2026-04-10T16:43:32Z</time></trkpt><trkpt lat="44.55422070168797" lon="7.985850543329123"><ele>505.8571428571429</ele><time>2026-04-10T16:43:36Z</time></trkpt><trkpt lat="44.554141220394776" lon="7.985849049461378"><ele>505.7142857142857</ele><time>2026-04-10T16:43:40Z</time></trkpt><trkpt lat="44.55406580941812" lon="7.985832505080002"><ele>505.57142857142856</ele><time>2026-04-10T16:43:44Z</time></trkpt><trkpt lat="44.554004634644976" lon="7.985809823324781"><ele>505.42857142857144</ele><time>2026-04-10T16:43:47Z</time></trkpt><trkpt lat="44.553942471224325" lon="7.985776145548674"><ele>505.2857142857142</ele><time>2026-04-10T16:43:50Z</time></trkpt><trkpt lat="44.553878503045304" lon="7.985745065051677"><ele>505.1428571428571</ele><time>2026-04-10T16:43:53Z</time></trkpt><trkpt lat="44.55381060947216" lon="7.985697076474902"><ele>505.0</ele><time>2026-04-10T16:43:56Z</time></trkpt><trkpt lat="44.55375023797809" lon="7.9856551967913"><ele>504.33333333333337</ele><time>2026-04-10T16:43:58Z</time></trkpt><trkpt lat="44.5536826827196" lon="7.98558764969871"><ele>503.6666666666667</ele><time>2026-04-10T16:44:00Z</time></trkpt><trkpt lat="44.55359619213168" lon="7.985518071916483"><ele>503.0</ele><time>2026-04-10T16:44:02Z</time></trkpt><trkpt lat="44.55349539023144" lon="7.985424295954742"><ele>502.33333333333337</ele><time>2026-04-10T16:44:04Z</time></trkpt><trkpt lat="44.553440108997485" lon="7.985372328803592"><ele>501.6666666666667</ele><time>2026-04-10T16:44:05Z</time></trkpt><trkpt lat="44.55338640036793" lon="7.985316439853718"><ele>501.0</ele><time>2026-04-10T16:44:06Z</time></trkpt><trkpt lat="44.55332883989468" lon="7.985265385315676"><ele>501.0</ele><time>2026-04-10T16:44:07Z</time></trkpt><trkpt lat="44.553270584647315" lon="7.985212321421192"><ele>501.0</ele><time>2026-04-10T16:44:08Z</time></trkpt><trkpt lat="44.553212262857166" lon="7.985157533944429"><ele>501.0</ele><time>2026-04-10T16:44:09Z</time></trkpt><trkpt lat="44.553170184434634" lon="7.985073402818866"><ele>501.0</ele><time>2026-04-10T16:44:10Z</time></trkpt><trkpt lat="44.55311239438381" lon="7.985013779605286"><ele>501.0</ele><time>2026-04-10T16:44:11Z</time></trkpt><trkpt lat="44.55305459835652" lon="7.984954150184712"><ele>501.0</ele><time>2026-04-10T16:44:12Z</time></trkpt><trkpt lat="44.5529980700759" lon="7.984897096158"><ele>501.0</ele><time>2026-04-10T16:44:13Z</time></trkpt><trkpt lat="44.55294233225628" lon="7.984841460842156"><ele>500.6666666666667</ele><time>2026-04-10T16:44:14Z</time></trkpt><trkpt lat="44.55288782322378" lon="7.984789139369747"><ele>500.33333333333337</ele><time>2026-04-10T16:44:15Z</time></trkpt><trkpt lat="44.552833136409" lon="7.984739761611322"><ele>500.0</ele><time>2026-04-10T16:44:16Z</time></trkpt><trkpt lat="44.552774486441905" lon="7.984705643560136"><ele>499.6666666666667</ele><time>2026-04-10T16:44:17Z</time></trkpt><trkpt lat="44.552725759625574" lon="7.984649356540533"><ele>499.33333333333337</ele><time>2026-04-10T16:44:18Z</time></trkpt><trkpt lat="44.55263243318381" lon="7.984526675937483"><ele>499.0</ele><time>2026-04-10T16:44:20Z</time></trkpt><trkpt lat="44.55258888425363" lon="7.984456774208649"><ele>499.00000000000006</ele><time>2026-04-10T16:44:21Z</time></trkpt><trkpt lat="44.55254723095008" lon="7.984378481402637"><ele>499.0</ele><time>2026-04-10T16:44:22Z</time></trkpt><trkpt lat="44.55250266644192" lon="7.9843015146878455"><ele>499.00000000000006</ele><time>2026-04-10T16:44:23Z</time></trkpt><trkpt lat="44.552455310164405" lon="7.9842222283169"><ele>499.00000000000006</ele><time>2026-04-10T16:44:24Z</time></trkpt><trkpt lat="44.552409974350546" lon="7.9841411255945065"><ele>499.0</ele><time>2026-04-10T16:44:25Z</time></trkpt><trkpt lat="44.552363840200236" lon="7.984060927786757"><ele>499.00000000000006</ele><time>2026-04-10T16:44:26Z</time></trkpt><trkpt lat="44.552315274333495" lon="7.983983638079358"><ele>499.00000000000006</ele><time>2026-04-10T16:44:27Z</time></trkpt><trkpt lat="44.55226714348531" lon="7.983910260541325"><ele>499.00000000000006</ele><time>2026-04-10T16:44:28Z</time></trkpt><trkpt lat="44.55221724555207" lon="7.9838418273675105"><ele>499.0</ele><time>2026-04-10T16:44:29Z</time></trkpt><trkpt lat="44.55216822395896" lon="7.983776164589435"><ele>499.0</ele><time>2026-04-10T16:44:30Z</time></trkpt><trkpt lat="44.55212258481438" lon="7.983711804700936"><ele>499.0</ele><time>2026-04-10T16:44:31Z</time></trkpt><trkpt lat="44.55203232166606" lon="7.983597108196501"><ele>499.00000000000006</ele><time>2026-04-10T16:44:33Z</time></trkpt><trkpt lat="44.55194232212717" lon="7.983494831719976"><ele>499.0</ele><time>2026-04-10T16:44:35Z</time></trkpt><trkpt lat="44.551864239008644" lon="7.983402748130589"><ele>500.6666666666667</ele><time>2026-04-10T16:44:37Z</time></trkpt><trkpt lat="44.551797883654494" lon="7.983329037976623"><ele>502.33333333333337</ele><time>2026-04-10T16:44:39Z</time></trkpt><trkpt lat="44.55173866347688" lon="7.983265262107321"><ele>504.0</ele><time>2026-04-10T16:44:41Z</time></trkpt><trkpt lat="44.55168026218641" lon="7.98321724946296"><ele>505.66666666666663</ele><time>2026-04-10T16:44:43Z</time></trkpt><trkpt lat="44.551626809983404" lon="7.9831656619680045"><ele>507.3333333333333</ele><time>2026-04-10T16:44:45Z</time></trkpt><trkpt lat="44.55155227737763" lon="7.983083555007535"><ele>509.0</ele><time>2026-04-10T16:44:48Z</time></trkpt><trkpt lat="44.551495711631816" lon="7.983026903739892"><ele>508.99999999999994</ele><time>2026-04-10T16:44:50Z</time></trkpt><trkpt lat="44.55144316624264" lon="7.982958854687849"><ele>509.0</ele><time>2026-04-10T16:44:52Z</time></trkpt><trkpt lat="44.551390063609794" lon="7.982886560098749"><ele>508.99999999999994</ele><time>2026-04-10T16:44:54Z</time></trkpt><trkpt lat="44.5513276777497" lon="7.982823837302909"><ele>508.99999999999994</ele><time>2026-04-10T16:44:56Z</time></trkpt><trkpt lat="44.55127351754269" lon="7.982755848112138"><ele>509.0</ele><time>2026-04-10T16:44:58Z</time></trkpt><trkpt lat="44.551224600251345" lon="7.982685038903328"><ele>508.99999999999994</ele><time>2026-04-10T16:45:00Z</time></trkpt><trkpt lat="44.55117780667057" lon="7.982615012660465"><ele>508.99999999999994</ele><time>2026-04-10T16:45:02Z</time></trkpt><trkpt lat="44.55112855694963" lon="7.982556366873688"><ele>508.71428571428567</ele><time>2026-04-10T16:45:04Z</time></trkpt><trkpt lat="44.551076826489684" lon="7.982495278531196"><ele>508.42857142857144</ele><time>2026-04-10T16:45:06Z</time></trkpt><trkpt lat="44.551018892174795" lon="7.982428131443685"><ele>508.1428571428571</ele><time>2026-04-10T16:45:08Z</time></trkpt><trkpt lat="44.550961669912674" lon="7.982366354363408"><ele>507.85714285714283</ele><time>2026-04-10T16:45:10Z</time></trkpt><trkpt lat="44.55090563791977" lon="7.9823159904698695"><ele>507.57142857142856</ele><time>2026-04-10T16:45:12Z</time></trkpt><trkpt lat="44.55084190419336" lon="7.98226941951682"><ele>507.2857142857143</ele><time>2026-04-10T16:45:14Z</time></trkpt><trkpt lat="44.55077062432371" lon="7.982224313137875"><ele>507.0</ele><time>2026-04-10T16:45:16Z</time></trkpt><trkpt lat="44.550704905332275" lon="7.98218427869456"><ele>507.0</ele><time>2026-04-10T16:45:18Z</time></trkpt><trkpt lat="44.55063370029937" lon="7.982167550321933"><ele>507.00000000000006</ele><time>2026-04-10T16:45:20Z</time></trkpt><trkpt lat="44.55055357860652" lon="7.982143377838211"><ele>507.00000000000006</ele><time>2026-04-10T16:45:22Z</time></trkpt><trkpt lat="44.550465690163044" lon="7.982104767427046"><ele>507.0</ele><time>2026-04-10T16:45:24Z</time></trkpt><trkpt lat="44.550373695639514" lon="7.982050194423413"><ele>507.0</ele><time>2026-04-10T16:45:26Z</time></trkpt><trkpt lat="44.55027380308231" lon="7.981993815530529"><ele>506.0</ele><time>2026-04-10T16:45:28Z</time></trkpt><trkpt lat="44.550171656163165" lon="7.981913554364575"><ele>505.0</ele><time>2026-04-10T16:45:30Z</time></trkpt><trkpt lat="44.550079036195214" lon="7.981798546886145"><ele>504.0</ele><time>2026-04-10T16:45:32Z</time></trkpt><trkpt lat="44.549989141082854" lon="7.981678346704906"><ele>503.0</ele><time>2026-04-10T16:45:34Z</time></trkpt><trkpt lat="44.54990723263971" lon="7.981553459640298"><ele>503.0</ele><time>2026-04-10T16:45:36Z</time></trkpt><trkpt lat="44.549833260537135" lon="7.981420358381975"><ele>502.99999999999994</ele><time>2026-04-10T16:45:38Z</time></trkpt><trkpt lat="44.5497649220889" lon="7.981292563740913"><ele>502.99999999999994</ele><time>2026-04-10T16:45:40Z</time></trkpt><trkpt lat="44.54969302531629" lon="7.981175127755976"><ele>503.0</ele><time>2026-04-10T16:45:42Z</time></trkpt><trkpt lat="44.549624651902946" lon="7.98106613572687"><ele>503.0</ele><time>2026-04-10T16:45:44Z</time></trkpt><trkpt lat="44.54955316540296" lon="7.980964671777055"><ele>503.2</ele><time>2026-04-10T16:45:46Z</time></trkpt><trkpt lat="44.54948789852685" lon="7.980868680389052"><ele>503.4</ele><time>2026-04-10T16:45:48Z</time></trkpt><trkpt lat="44.549417301046006" lon="7.980788251225086"><ele>503.59999999999997</ele><time>2026-04-10T16:45:50Z</time></trkpt><trkpt lat="44.54933701489389" lon="7.9807050159345545"><ele>503.79999999999995</ele><time>2026-04-10T16:45:52Z</time></trkpt><trkpt lat="44.54925275020001" lon="7.98063892090297"><ele>504.0</ele><time>2026-04-10T16:45:54Z</time></trkpt><trkpt lat="44.54916401539044" lon="7.980577242606183"><ele>504.0</ele><time>2026-04-10T16:45:56Z</time></trkpt><trkpt lat="44.54906973527732" lon="7.980544375007513"><ele>504.0</ele><time>2026-04-10T16:45:58Z</time></trkpt><trkpt lat="44.54898064327162" lon="7.980508228695677"><ele>504.0</ele><time>2026-04-10T16:46:00Z</time></trkpt><trkpt lat="44.548896220156095" lon="7.980472130073773"><ele>504.0</ele><time>2026-04-10T16:46:02Z</time></trkpt><trkpt lat="44.54881145879679" lon="7.980440049732558"><ele>504.0</ele><time>2026-04-10T16:46:04Z</time></trkpt><trkpt lat="44.54872252339427" lon="7.98041179724739"><ele>503.1666666666667</ele><time>2026-04-10T16:46:06Z</time></trkpt><trkpt lat="44.54863677730173" lon="7.980375809988625"><ele>502.33333333333337</ele><time>2026-04-10T16:46:08Z</time></trkpt><trkpt lat="44.54854842254076" lon="7.980361473081854"><ele>501.5</ele><time>2026-04-10T16:46:10Z</time></trkpt><trkpt lat="44.5484602269501" lon="7.9803541989656415"><ele>500.6666666666667</ele><time>2026-04-10T16:46:12Z</time></trkpt><trkpt lat="44.54837610740549" lon="7.980348048212202"><ele>499.83333333333337</ele><time>2026-04-10T16:46:14Z</time></trkpt><trkpt lat="44.548296462216804" lon="7.980354835454728"><ele>499.0</ele><time>2026-04-10T16:46:16Z</time></trkpt><trkpt lat="44.54821746186338" lon="7.98038405390333"><ele>499.00000000000006</ele><time>2026-04-10T16:46:18Z</time></trkpt><trkpt lat="44.54813782414788" lon="7.980410640288422"><ele>499.0</ele><time>2026-04-10T16:46:20Z</time></trkpt><trkpt lat="44.548054005785744" lon="7.980438236691652"><ele>499.0</ele><time>2026-04-10T16:46:22Z</time></trkpt><trkpt lat="44.54795930932657" lon="7.9804834640813205"><ele>499.0</ele><time>2026-04-10T16:46:24Z</time></trkpt><trkpt lat="44.54786703084407" lon="7.9805551266978"><ele>499.00000000000006</ele><time>2026-04-10T16:46:26Z</time></trkpt><trkpt lat="44.54781241252747" lon="7.980599833293368"><ele>499.0</ele><time>2026-04-10T16:46:27Z</time></trkpt><trkpt lat="44.54770050468756" lon="7.980673211127175"><ele>499.00000000000006</ele><time>2026-04-10T16:46:29Z</time></trkpt><trkpt lat="44.54764201092052" lon="7.980714626975302"><ele>499.0</ele><time>2026-04-10T16:46:30Z</time></trkpt><trkpt lat="44.54757838157857" lon="7.980750961936747"><ele>499.00000000000006</ele><time>2026-04-10T16:46:31Z</time></trkpt><trkpt lat="44.54751555345408" lon="7.980778593015078"><ele>499.00000000000006</ele><time>2026-04-10T16:46:32Z</time></trkpt><trkpt lat="44.54744790505118" lon="7.980796396152548"><ele>499.0</ele><time>2026-04-10T16:46:33Z</time></trkpt><trkpt lat="44.54737955579906" lon="7.98080657620335"><ele>499.00000000000006</ele><time>2026-04-10T16:46:34Z</time></trkpt><trkpt lat="44.54730898155571" lon="7.980792123268911"><ele>499.00000000000006</ele><time>2026-04-10T16:46:35Z</time></trkpt><trkpt lat="44.54723771386896" lon="7.980773600119754"><ele>499.00000000000006</ele><time>2026-04-10T16:46:36Z</time></trkpt><trkpt lat="44.547169662538515" lon="7.980733618018127"><ele>499.0</ele><time>2026-04-10T16:46:37Z</time></trkpt><trkpt lat="44.54710325933086" lon="7.980688879165556"><ele>499.00000000000006</ele><time>2026-04-10T16:46:38Z</time></trkpt><trkpt lat="44.5470387894514" lon="7.980639271633243"><ele>499.00000000000006</ele><time>2026-04-10T16:46:39Z</time></trkpt><trkpt lat="44.54697870676392" lon="7.980580685836511"><ele>499.0</ele><time>2026-04-10T16:46:40Z</time></trkpt><trkpt lat="44.54692304986948" lon="7.980521061681506"><ele>499.00000000000006</ele><time>2026-04-10T16:46:41Z</time></trkpt><trkpt lat="44.54687103263665" lon="7.9804563479110415"><ele>499.00000000000006</ele><time>2026-04-10T16:46:42Z</time></trkpt><trkpt lat="44.54681663654624" lon="7.980386456137602"><ele>497.6666666666667</ele><time>2026-04-10T16:46:43Z</time></trkpt><trkpt lat="44.546755542307146" lon="7.980313629105628"><ele>496.33333333333337</ele><time>2026-04-10T16:46:44Z</time></trkpt><trkpt lat="44.546699620074236" lon="7.980241258845696"><ele>495.0</ele><time>2026-04-10T16:46:45Z</time></trkpt><trkpt lat="44.5466551297786" lon="7.9801679612105225"><ele>493.66666666666663</ele><time>2026-04-10T16:46:46Z</time></trkpt><trkpt lat="44.546598744507286" lon="7.980099235115455"><ele>492.3333333333333</ele><time>2026-04-10T16:46:47Z</time></trkpt><trkpt lat="44.54653192561271" lon="7.980038472323106"><ele>491.0</ele><time>2026-04-10T16:46:48Z</time></trkpt><trkpt lat="44.546458002588665" lon="7.979983655465352"><ele>491.0</ele><time>2026-04-10T16:46:49Z</time></trkpt><trkpt lat="44.54638053127537" lon="7.979932622205382"><ele>491.0</ele><time>2026-04-10T16:46:50Z</time></trkpt><trkpt lat="44.54629334638655" lon="7.979891324318527"><ele>491.0</ele><time>2026-04-10T16:46:51Z</time></trkpt><trkpt lat="44.54619739778284" lon="7.979857737568389"><ele>491.0</ele><time>2026-04-10T16:46:52Z</time></trkpt><trkpt lat="44.5460991102757" lon="7.979826877342559"><ele>491.0</ele><time>2026-04-10T16:46:53Z</time></trkpt><trkpt lat="44.545996648993736" lon="7.979803211296823"><ele>488.8</ele><time>2026-04-10T16:46:54Z</time></trkpt><trkpt lat="44.545894015536504" lon="7.979783914238994"><ele>486.6</ele><time>2026-04-10T16:46:55Z</time></trkpt><trkpt lat="44.54579349507407" lon="7.979772324091965"><ele>484.4</ele><time>2026-04-10T16:46:56Z</time></trkpt><trkpt lat="44.545692878829264" lon="7.979755561500853"><ele>482.2</ele><time>2026-04-10T16:46:57Z</time></trkpt><trkpt lat="44.5455975181594" lon="7.979726965715443"><ele>480.0</ele><time>2026-04-10T16:46:58Z</time></trkpt><trkpt lat="44.54550929850596" lon="7.979686011654469"><ele>480.0</ele><time>2026-04-10T16:46:59Z</time></trkpt><trkpt lat="44.54542657424317" lon="7.979630136080927"><ele>480.0</ele><time>2026-04-10T16:47:00Z</time></trkpt><trkpt lat="44.545348893027054" lon="7.97956876022938"><ele>480.0</ele><time>2026-04-10T16:47:01Z</time></trkpt><trkpt lat="44.54527254512632" lon="7.979495286447749"><ele>480.0</ele><time>2026-04-10T16:47:02Z</time></trkpt><trkpt lat="44.54521188048185" lon="7.979422290075762"><ele>480.0</ele><time>2026-04-10T16:47:03Z</time></trkpt><trkpt lat="44.54514604622879" lon="7.979361405525202"><ele>480.0</ele><time>2026-04-10T16:47:04Z</time></trkpt><trkpt lat="44.54507861333505" lon="7.9793033788106795"><ele>480.0</ele><time>2026-04-10T16:47:05Z</time></trkpt><trkpt lat="44.545019879503776" lon="7.979241707403142"><ele>480.0</ele><time>2026-04-10T16:47:06Z</time></trkpt><trkpt lat="44.54496678653066" lon="7.979184414136111"><ele>480.0</ele><time>2026-04-10T16:47:07Z</time></trkpt><trkpt lat="44.544869568274095" lon="7.9790927450841345"><ele>480.0</ele><time>2026-04-10T16:47:09Z</time></trkpt><trkpt lat="44.54477987259228" lon="7.978994117908168"><ele>480.0</ele><time>2026-04-10T16:47:11Z</time></trkpt><trkpt lat="44.54469655943722" lon="7.978898966686958"><ele>480.0</ele><time>2026-04-10T16:47:13Z</time></trkpt><trkpt lat="44.544619563359554" lon="7.978810117346107"><ele>480.0</ele><time>2026-04-10T16:47:15Z</time></trkpt><trkpt lat="44.544545942362625" lon="7.978729015041256"><ele>480.0</ele><time>2026-04-10T16:47:17Z</time></trkpt><trkpt lat="44.54448101842804" lon="7.978657933117711"><ele>480.0</ele><time>2026-04-10T16:47:19Z</time></trkpt><trkpt lat="44.544415391647135" lon="7.9785994469340125"><ele>480.0</ele><time>2026-04-10T16:47:21Z</time></trkpt><trkpt lat="44.544355525790884" lon="7.978543984577067"><ele>480.0</ele><time>2026-04-10T16:47:23Z</time></trkpt><trkpt lat="44.544293964664725" lon="7.978495182168017"><ele>480.6666666666667</ele><time>2026-04-10T16:47:25Z</time></trkpt><trkpt lat="44.54422580121586" lon="7.9784198013259156"><ele>481.33333333333337</ele><time>2026-04-10T16:47:28Z</time></trkpt><trkpt lat="44.544152397443035" lon="7.978359667662277"><ele>482.0</ele><time>2026-04-10T16:47:31Z</time></trkpt><trkpt lat="44.54407837546237" lon="7.978309358646754"><ele>482.6666666666667</ele><time>2026-04-10T16:47:34Z</time></trkpt><trkpt lat="44.54400778902867" lon="7.97825121699849"><ele>483.33333333333337</ele><time>2026-04-10T16:47:37Z</time></trkpt><trkpt lat="44.543935073752024" lon="7.978190410824706"><ele>484.0</ele><time>2026-04-10T16:47:40Z</time></trkpt><trkpt lat="44.54386705629696" lon="7.978119920906336"><ele>484.00000000000006</ele><time>2026-04-10T16:47:43Z</time></trkpt><trkpt lat="44.54379471707634" lon="7.978060525573841"><ele>484.0</ele><time>2026-04-10T16:47:46Z</time></trkpt><trkpt lat="44.54373445166457" lon="7.977987476317849"><ele>484.0</ele><time>2026-04-10T16:47:49Z</time></trkpt><trkpt lat="44.54366915405515" lon="7.977919984353866"><ele>484.0</ele><time>2026-04-10T16:47:52Z</time></trkpt><trkpt lat="44.54359614411548" lon="7.9778452109353655"><ele>484.00000000000006</ele><time>2026-04-10T16:47:55Z</time></trkpt><trkpt lat="44.54353339246327" lon="7.97779522941248"><ele>484.0</ele><time>2026-04-10T16:47:57Z</time></trkpt><trkpt lat="44.543463718332944" lon="7.977750809873733"><ele>481.83333333333337</ele><time>2026-04-10T16:47:59Z</time></trkpt><trkpt lat="44.543390310309604" lon="7.97770778356602"><ele>479.6666666666667</ele><time>2026-04-10T16:48:01Z</time></trkpt><trkpt lat="44.54331707685634" lon="7.977658411747831"><ele>477.5</ele><time>2026-04-10T16:48:03Z</time></trkpt><trkpt lat="44.54324097412043" lon="7.977634819878882"><ele>475.33333333333337</ele><time>2026-04-10T16:48:05Z</time></trkpt><trkpt lat="44.54316735601345" lon="7.977596103954398"><ele>473.1666666666667</ele><time>2026-04-10T16:48:07Z</time></trkpt><trkpt lat="44.543094082442025" lon="7.977564690151779"><ele>471.0</ele><time>2026-04-10T16:48:09Z</time></trkpt><trkpt lat="44.54301761943829" lon="7.977540207213648"><ele>472.20000000000005</ele><time>2026-04-10T16:48:11Z</time></trkpt><trkpt lat="44.54294314524706" lon="7.977496014909392"><ele>473.40000000000003</ele><time>2026-04-10T16:48:13Z</time></trkpt><trkpt lat="44.542858677578806" lon="7.977450175578033"><ele>474.6</ele><time>2026-04-10T16:48:15Z</time></trkpt><trkpt lat="44.54276224363134" lon="7.977393169963931"><ele>475.8</ele><time>2026-04-10T16:48:17Z</time></trkpt><trkpt lat="44.542670088335704" lon="7.977317384844774"><ele>477.0</ele><time>2026-04-10T16:48:19Z</time></trkpt><trkpt lat="44.54256839058732" lon="7.977247865361048"><ele>477.0</ele><time>2026-04-10T16:48:21Z</time></trkpt><trkpt lat="44.542507001786895" lon="7.9772211997949025"><ele>476.99999999999994</ele><time>2026-04-10T16:48:22Z</time></trkpt><trkpt lat="44.54243670265546" lon="7.977195948109368"><ele>477.0</ele><time>2026-04-10T16:48:23Z</time></trkpt><trkpt lat="44.54236444159565" lon="7.977170351777692"><ele>477.0</ele><time>2026-04-10T16:48:24Z</time></trkpt><trkpt lat="44.54228741666712" lon="7.9771462647230065"><ele>476.99999999999994</ele><time>2026-04-10T16:48:25Z</time></trkpt><trkpt lat="44.54221307338414" lon="7.977109770554288"><ele>477.0</ele><time>2026-04-10T16:48:26Z</time></trkpt><trkpt lat="44.54213605375142" lon="7.977084054993328"><ele>477.0</ele><time>2026-04-10T16:48:27Z</time></trkpt><trkpt lat="44.54205404611182" lon="7.977056969042242"><ele>474.0</ele><time>2026-04-10T16:48:28Z</time></trkpt><trkpt lat="44.54197122799589" lon="7.977028097170551"><ele>471.0</ele><time>2026-04-10T16:48:29Z</time></trkpt><trkpt lat="44.54189105588364" lon="7.976997052942876"><ele>468.0</ele><time>2026-04-10T16:48:30Z</time></trkpt><trkpt lat="44.54181341097168" lon="7.976963274717988"><ele>465.0</ele><time>2026-04-10T16:48:31Z</time></trkpt><trkpt lat="44.541735591402684" lon="7.976925019847778"><ele>462.0</ele><time>2026-04-10T16:48:32Z</time></trkpt><trkpt lat="44.54165870850028" lon="7.976879935435787"><ele>459.0</ele><time>2026-04-10T16:48:33Z</time></trkpt><trkpt lat="44.54158570748808" lon="7.976830136457982"><ele>459.0</ele><time>2026-04-10T16:48:34Z</time></trkpt><trkpt lat="44.541521940249105" lon="7.976775942298979"><ele>459.0</ele><time>2026-04-10T16:48:35Z</time></trkpt><trkpt lat="44.541459824282015" lon="7.9767343608891785"><ele>459.0</ele><time>2026-04-10T16:48:36Z</time></trkpt><trkpt lat="44.5414036310814" lon="7.976690725444521"><ele>459.0</ele><time>2026-04-10T16:48:37Z</time></trkpt><trkpt lat="44.541334707508746" lon="7.976577216319154"><ele>459.0</ele><time>2026-04-10T16:48:39Z</time></trkpt><trkpt lat="44.54133278818614" lon="7.976435548933585"><ele>459.0</ele><time>2026-04-10T16:48:41Z</time></trkpt><trkpt lat="44.541412257211455" lon="7.976296248809014"><ele>460.5</ele><time>2026-04-10T16:48:43Z</time></trkpt><trkpt lat="44.54146145331426" lon="7.976231306093321"><ele>462.0</ele><time>2026-04-10T16:48:44Z</time></trkpt><trkpt lat="44.541545271656474" lon="7.976115678215789"><ele>463.5</ele><time>2026-04-10T16:48:46Z</time></trkpt><trkpt lat="44.54156329981848" lon="7.975958865078618"><ele>465.0</ele><time>2026-04-10T16:48:48Z</time></trkpt><trkpt lat="44.54154244138645" lon="7.975870195593931"><ele>466.5</ele><time>2026-04-10T16:48:49Z</time></trkpt><trkpt lat="44.54150548986305" lon="7.975786295199743"><ele>468.0</ele><time>2026-04-10T16:48:50Z</time></trkpt><trkpt lat="44.54146781519971" lon="7.975709092970027"><ele>468.0</ele><time>2026-04-10T16:48:51Z</time></trkpt><trkpt lat="44.541406312086366" lon="7.9756026519003544"><ele>467.99999999999994</ele><time>2026-04-10T16:48:53Z</time></trkpt><trkpt lat="44.5413320828616" lon="7.975529965306136"><ele>467.99999999999994</ele><time>2026-04-10T16:48:55Z</time></trkpt><trkpt lat="44.5412280829066" lon="7.975572884272263"><ele>468.0</ele><time>2026-04-10T16:48:57Z</time></trkpt><trkpt lat="44.54119866281584" lon="7.975670585783079"><ele>468.0</ele><time>2026-04-10T16:48:58Z</time></trkpt><trkpt lat="44.5412095179794" lon="7.975825684857379"><ele>465.1666666666667</ele><time>2026-04-10T16:49:00Z</time></trkpt><trkpt lat="44.54117912061929" lon="7.975944079210625"><ele>462.33333333333337</ele><time>2026-04-10T16:49:02Z</time></trkpt><trkpt lat="44.541084882415106" lon="7.975961140385173"><ele>459.5</ele><time>2026-04-10T16:49:04Z</time></trkpt><trkpt lat="44.54099435735533" lon="7.9758467444131576"><ele>456.6666666666667</ele><time>2026-04-10T16:49:06Z</time></trkpt><trkpt lat="44.54096095396508" lon="7.9757689132372676"><ele>453.83333333333337</ele><time>2026-04-10T16:49:07Z</time></trkpt><trkpt lat="44.54092521881509" lon="7.975687627112131"><ele>451.0</ele><time>2026-04-10T16:49:08Z</time></trkpt><trkpt lat="44.54089056020365" lon="7.975599898082269"><ele>451.00000000000006</ele><time>2026-04-10T16:49:09Z</time></trkpt><trkpt lat="44.54085965449338" lon="7.975521800273115"><ele>451.0</ele><time>2026-04-10T16:49:10Z</time></trkpt><trkpt lat="44.54080158096707" lon="7.975401117149033"><ele>451.0</ele><time>2026-04-10T16:49:12Z</time></trkpt><trkpt lat="44.5407271235233" lon="7.975353584781753"><ele>451.0</ele><time>2026-04-10T16:49:14Z</time></trkpt><trkpt lat="44.54063523145537" lon="7.975378274221293"><ele>451.00000000000006</ele><time>2026-04-10T16:49:16Z</time></trkpt><trkpt lat="44.54060843087061" lon="7.975477022407027"><ele>451.0</ele><time>2026-04-10T16:49:17Z</time></trkpt><trkpt lat="44.54062094451484" lon="7.975573240334179"><ele>451.0</ele><time>2026-04-10T16:49:18Z</time></trkpt><trkpt lat="44.54065521700945" lon="7.975728067936235"><ele>451.0</ele><time>2026-04-10T16:49:20Z</time></trkpt><trkpt lat="44.540659425336365" lon="7.975846847108966"><ele>451.0</ele><time>2026-04-10T16:49:22Z</time></trkpt><trkpt lat="44.540606586121164" lon="7.975942166590806"><ele>451.0</ele><time>2026-04-10T16:49:24Z</time></trkpt><trkpt lat="44.54051342622266" lon="7.975925446304411"><ele>451.0</ele><time>2026-04-10T16:49:26Z</time></trkpt><trkpt lat="44.54047177817999" lon="7.975764424576193"><ele>451.00000000000006</ele><time>2026-04-10T16:49:28Z</time></trkpt><trkpt lat="44.5404501010489" lon="7.975668199359389"><ele>451.0</ele><time>2026-04-10T16:49:29Z</time></trkpt><trkpt lat="44.540404334167164" lon="7.975578477262629"><ele>451.0</ele><time>2026-04-10T16:49:30Z</time></trkpt><trkpt lat="44.54036045047462" lon="7.9754872614865615"><ele>451.0</ele><time>2026-04-10T16:49:31Z</time></trkpt><trkpt lat="44.54030942679941" lon="7.975407328169505"><ele>451.00000000000006</ele><time>2026-04-10T16:49:32Z</time></trkpt><trkpt lat="44.54024848361747" lon="7.9753313001723525"><ele>451.0</ele><time>2026-04-10T16:49:33Z</time></trkpt><trkpt lat="44.54019398292855" lon="7.975243959941472"><ele>447.50000000000006</ele><time>2026-04-10T16:49:34Z</time></trkpt><trkpt lat="44.54013900697618" lon="7.975157645177674"><ele>444.0</ele><time>2026-04-10T16:49:35Z</time></trkpt><trkpt lat="44.5400854148827" lon="7.975065011008909"><ele>440.5</ele><time>2026-04-10T16:49:36Z</time></trkpt><trkpt lat="44.54003241148064" lon="7.97497038248096"><ele>437.0</ele><time>2026-04-10T16:49:37Z</time></trkpt><trkpt lat="44.53998064374342" lon="7.974880032352737"><ele>433.50000000000006</ele><time>2026-04-10T16:49:38Z</time></trkpt><trkpt lat="44.53993268330895" lon="7.974789662496251"><ele>430.0</ele><time>2026-04-10T16:49:39Z</time></trkpt><trkpt lat="44.539879392633985" lon="7.974699298467144"><ele>430.00000000000006</ele><time>2026-04-10T16:49:40Z</time></trkpt><trkpt lat="44.53982463344203" lon="7.974607404730358"><ele>430.0</ele><time>2026-04-10T16:49:41Z</time></trkpt><trkpt lat="44.539770609617996" lon="7.9745204377402095"><ele>430.0</ele><time>2026-04-10T16:49:42Z</time></trkpt><trkpt lat="44.53971550498686" lon="7.9744355732450165"><ele>430.0</ele><time>2026-04-10T16:49:43Z</time></trkpt><trkpt lat="44.53965131645542" lon="7.9743482722976005"><ele>430.00000000000006</ele><time>2026-04-10T16:49:44Z</time></trkpt><trkpt lat="44.53958694517953" lon="7.974252841918032"><ele>430.0</ele><time>2026-04-10T16:49:45Z</time></trkpt><trkpt lat="44.53952131701751" lon="7.974156986975492"><ele>428.4</ele><time>2026-04-10T16:49:46Z</time></trkpt><trkpt lat="44.539449495120934" lon="7.97405834313195"><ele>426.8</ele><time>2026-04-10T16:49:47Z</time></trkpt><trkpt lat="44.53937494487374" lon="7.973953571215118"><ele>425.20000000000005</ele><time>2026-04-10T16:49:48Z</time></trkpt><trkpt lat="44.539299286994606" lon="7.973844954845699"><ele>423.6</ele><time>2026-04-10T16:49:49Z</time></trkpt><trkpt lat="44.53923201813456" lon="7.973738483489289"><ele>422.0</ele><time>2026-04-10T16:49:50Z</time></trkpt><trkpt lat="44.53917119912707" lon="7.973644895093109"><ele>421.99999999999994</ele><time>2026-04-10T16:49:51Z</time></trkpt><trkpt lat="44.53912127144459" lon="7.9735582270955305"><ele>422.0</ele><time>2026-04-10T16:49:52Z</time></trkpt><trkpt lat="44.53907607215644" lon="7.973493258385695"><ele>422.0</ele><time>2026-04-10T16:49:53Z</time></trkpt><trkpt lat="44.53897756716456" lon="7.973438617858106"><ele>422.0</ele><time>2026-04-10T16:49:55Z</time></trkpt><trkpt lat="44.538861895853465" lon="7.9734232791637725"><ele>421.99999999999994</ele><time>2026-04-10T16:49:57Z</time></trkpt><trkpt lat="44.5387979871247" lon="7.97344139037109"><ele>422.0</ele><time>2026-04-10T16:49:58Z</time></trkpt><trkpt lat="44.53867277716749" lon="7.973474629208488"><ele>419.8571428571429</ele><time>2026-04-10T16:50:00Z</time></trkpt><trkpt lat="44.53860747943357" lon="7.973491963457841"><ele>417.7142857142857</ele><time>2026-04-10T16:50:01Z</time></trkpt><trkpt lat="44.53854302901851" lon="7.973529951460925"><ele>415.57142857142856</ele><time>2026-04-10T16:50:02Z</time></trkpt><trkpt lat="44.538475532789484" lon="7.973529613192262"><ele>413.42857142857144</ele><time>2026-04-10T16:50:03Z</time></trkpt><trkpt lat="44.538411365404215" lon="7.973515503807746"><ele>411.2857142857143</ele><time>2026-04-10T16:50:04Z</time></trkpt><trkpt lat="44.53834949660463" lon="7.973474925116371"><ele>409.14285714285717</ele><time>2026-04-10T16:50:05Z</time></trkpt><trkpt lat="44.53829627852436" lon="7.973413957922781"><ele>407.0</ele><time>2026-04-10T16:50:06Z</time></trkpt><trkpt lat="44.53825171701953" lon="7.973332588349243"><ele>406.99999999999994</ele><time>2026-04-10T16:50:07Z</time></trkpt><trkpt lat="44.53821567321382" lon="7.973242731179753"><ele>407.0</ele><time>2026-04-10T16:50:08Z</time></trkpt><trkpt lat="44.5381780667175" lon="7.973147163663201"><ele>407.0</ele><time>2026-04-10T16:50:09Z</time></trkpt><trkpt lat="44.53813984920207" lon="7.973050687882751"><ele>407.0</ele><time>2026-04-10T16:50:10Z</time></trkpt><trkpt lat="44.538100578982274" lon="7.972949389077627"><ele>406.99999999999994</ele><time>2026-04-10T16:50:11Z</time></trkpt><trkpt lat="44.538064675676836" lon="7.972844973919246"><ele>407.0</ele><time>2026-04-10T16:50:12Z</time></trkpt><trkpt lat="44.538030186097245" lon="7.97274076456954"><ele>406.99999999999994</ele><time>2026-04-10T16:50:13Z</time></trkpt><trkpt lat="44.53799714839387" lon="7.972637844121564"><ele>407.0</ele><time>2026-04-10T16:50:14Z</time></trkpt><trkpt lat="44.537964425211534" lon="7.972539922446863"><ele>407.0</ele><time>2026-04-10T16:50:15Z</time></trkpt><trkpt lat="44.53793413759181" lon="7.972443292786469"><ele>407.0</ele><time>2026-04-10T16:50:16Z</time></trkpt><trkpt lat="44.53790468780877" lon="7.972345045985003"><ele>406.99999999999994</ele><time>2026-04-10T16:50:17Z</time></trkpt><trkpt lat="44.53787129802528" lon="7.9722478618168955"><ele>407.0</ele><time>2026-04-10T16:50:18Z</time></trkpt><trkpt lat="44.537838235050195" lon="7.972162534792886"><ele>405.99999999999994</ele><time>2026-04-10T16:50:19Z</time></trkpt><trkpt lat="44.537788262837765" lon="7.972077348944332"><ele>405.0</ele><time>2026-04-10T16:50:20Z</time></trkpt><trkpt lat="44.537742464233695" lon="7.971983306677652"><ele>404.0</ele><time>2026-04-10T16:50:21Z</time></trkpt><trkpt lat="44.53769114117528" lon="7.9718887877020155"><ele>403.0</ele><time>2026-04-10T16:50:22Z</time></trkpt><trkpt lat="44.53764592588944" lon="7.971790871391107"><ele>401.99999999999994</ele><time>2026-04-10T16:50:23Z</time></trkpt><trkpt lat="44.53760064260531" lon="7.97168998685947"><ele>401.0</ele><time>2026-04-10T16:50:24Z</time></trkpt><trkpt lat="44.53755250230332" lon="7.9715933924006075"><ele>401.0</ele><time>2026-04-10T16:50:25Z</time></trkpt><trkpt lat="44.53749952107883" lon="7.971490656092446"><ele>401.0</ele><time>2026-04-10T16:50:26Z</time></trkpt><trkpt lat="44.53745784071803" lon="7.971371577356825"><ele>401.0</ele><time>2026-04-10T16:50:27Z</time></trkpt><trkpt lat="44.537414723864515" lon="7.9712608128412725"><ele>401.0</ele><time>2026-04-10T16:50:28Z</time></trkpt><trkpt lat="44.537373415390846" lon="7.971141712112858"><ele>401.0</ele><time>2026-04-10T16:50:29Z</time></trkpt><trkpt lat="44.53733343337667" lon="7.9710210523443665"><ele>401.0</ele><time>2026-04-10T16:50:30Z</time></trkpt><trkpt lat="44.53730174541498" lon="7.970906069831882"><ele>401.0</ele><time>2026-04-10T16:50:31Z</time></trkpt><trkpt lat="44.537280602260275" lon="7.970783727523955"><ele>401.0</ele><time>2026-04-10T16:50:32Z</time></trkpt><trkpt lat="44.5372717176408" lon="7.9706525976348495"><ele>401.0</ele><time>2026-04-10T16:50:33Z</time></trkpt><trkpt lat="44.537268076865935" lon="7.970525127775548"><ele>401.0</ele><time>2026-04-10T16:50:34Z</time></trkpt><trkpt lat="44.53725670745083" lon="7.970394376492431"><ele>400.16666666666663</ele><time>2026-04-10T16:50:35Z</time></trkpt><trkpt lat="44.53723430696294" lon="7.970273283650102"><ele>399.3333333333333</ele><time>2026-04-10T16:50:36Z</time></trkpt><trkpt lat="44.537201365759366" lon="7.970155796341099"><ele>398.5</ele><time>2026-04-10T16:50:37Z</time></trkpt><trkpt lat="44.53716125878956" lon="7.97004693537635"><ele>397.66666666666663</ele><time>2026-04-10T16:50:38Z</time></trkpt><trkpt lat="44.53712675637394" lon="7.969950642365661"><ele>396.8333333333333</ele><time>2026-04-10T16:50:39Z</time></trkpt><trkpt lat="44.537105411080134" lon="7.969826168880104"><ele>396.0</ele><time>2026-04-10T16:50:40Z</time></trkpt><trkpt lat="44.53709086806796" lon="7.969692424912636"><ele>394.6</ele><time>2026-04-10T16:50:41Z</time></trkpt><trkpt lat="44.53708501615382" lon="7.9695516557819515"><ele>393.20000000000005</ele><time>2026-04-10T16:50:42Z</time></trkpt><trkpt lat="44.537097989876976" lon="7.969421732853155"><ele>391.79999999999995</ele><time>2026-04-10T16:50:43Z</time></trkpt><trkpt lat="44.537107072741755" lon="7.9692954971635315"><ele>390.4</ele><time>2026-04-10T16:50:44Z</time></trkpt><trkpt lat="44.53710162125585" lon="7.9691655950189855"><ele>389.0</ele><time>2026-04-10T16:50:45Z</time></trkpt><trkpt lat="44.537082442557306" lon="7.969037199272515"><ele>387.4</ele><time>2026-04-10T16:50:46Z</time></trkpt><trkpt lat="44.53705069605287" lon="7.968905192472608"><ele>385.79999999999995</ele><time>2026-04-10T16:50:47Z</time></trkpt><trkpt lat="44.5370082808501" lon="7.968771701992433"><ele>384.20000000000005</ele><time>2026-04-10T16:50:48Z</time></trkpt><trkpt lat="44.536959430180985" lon="7.9686435205681505"><ele>382.6</ele><time>2026-04-10T16:50:49Z</time></trkpt><trkpt lat="44.53690548051011" lon="7.96850650739554"><ele>381.0</ele><time>2026-04-10T16:50:50Z</time></trkpt><trkpt lat="44.53685450103405" lon="7.968365268279212"><ele>379.5</ele><time>2026-04-10T16:50:51Z</time></trkpt><trkpt lat="44.536813734025465" lon="7.96821842792504"><ele>378.0</ele><time>2026-04-10T16:50:52Z</time></trkpt><trkpt lat="44.53676985414565" lon="7.968071150463884"><ele>376.5</ele><time>2026-04-10T16:50:53Z</time></trkpt><trkpt lat="44.53672979814426" lon="7.967921729478449"><ele>375.0</ele><time>2026-04-10T16:50:54Z</time></trkpt><trkpt lat="44.536688163179" lon="7.967774062319923"><ele>375.0</ele><time>2026-04-10T16:50:55Z</time></trkpt><trkpt lat="44.53664843127056" lon="7.967627920407913"><ele>375.0</ele><time>2026-04-10T16:50:56Z</time></trkpt><trkpt lat="44.53661587951731" lon="7.967476381500182"><ele>375.0</ele><time>2026-04-10T16:50:57Z</time></trkpt><trkpt lat="44.53658308624566" lon="7.967328203243757"><ele>375.0</ele><time>2026-04-10T16:50:58Z</time></trkpt><trkpt lat="44.536555675708705" lon="7.967183023520794"><ele>375.0</ele><time>2026-04-10T16:50:59Z</time></trkpt><trkpt lat="44.536521119279925" lon="7.967051953664928"><ele>374.0</ele><time>2026-04-10T16:51:00Z</time></trkpt><trkpt lat="44.53647651788416" lon="7.9669177417966"><ele>373.0</ele><time>2026-04-10T16:51:01Z</time></trkpt><trkpt lat="44.53643273953945" lon="7.966784062107692"><ele>372.0</ele><time>2026-04-10T16:51:02Z</time></trkpt><trkpt lat="44.536382417637334" lon="7.966647956310891"><ele>371.0</ele><time>2026-04-10T16:51:03Z</time></trkpt><trkpt lat="44.53633260131271" lon="7.966522042456117"><ele>370.0</ele><time>2026-04-10T16:51:04Z</time></trkpt><trkpt lat="44.53628737955238" lon="7.966391753278756"><ele>369.8</ele><time>2026-04-10T16:51:05Z</time></trkpt><trkpt lat="44.53624628469462" lon="7.966258287429451"><ele>369.6</ele><time>2026-04-10T16:51:06Z</time></trkpt><trkpt lat="44.536210057541375" lon="7.966121117904565"><ele>369.4</ele><time>2026-04-10T16:51:07Z</time></trkpt><trkpt lat="44.53618701874705" lon="7.965979932620245"><ele>369.2</ele><time>2026-04-10T16:51:08Z</time></trkpt><trkpt lat="44.53617367732093" lon="7.9658373271690825"><ele>369.0</ele><time>2026-04-10T16:51:09Z</time></trkpt><trkpt lat="44.53615586077556" lon="7.965698821888401"><ele>368.4</ele><time>2026-04-10T16:51:10Z</time></trkpt><trkpt lat="44.53613248207104" lon="7.9655662671182945"><ele>367.79999999999995</ele><time>2026-04-10T16:51:11Z</time></trkpt><trkpt lat="44.53610294535177" lon="7.965443727740107"><ele>367.20000000000005</ele><time>2026-04-10T16:51:12Z</time></trkpt><trkpt lat="44.53604350257488" lon="7.9653420120090415"><ele>366.6</ele><time>2026-04-10T16:51:13Z</time></trkpt><trkpt lat="44.53597450632316" lon="7.965255816479746"><ele>366.0</ele><time>2026-04-10T16:51:14Z</time></trkpt><trkpt lat="44.535906404075504" lon="7.965170947099083"><ele>366.0</ele><time>2026-04-10T16:51:15Z</time></trkpt><trkpt lat="44.53584360627293" lon="7.9650799214050405"><ele>366.0</ele><time>2026-04-10T16:51:16Z</time></trkpt><trkpt lat="44.53579255235545" lon="7.964976938993695"><ele>366.0</ele><time>2026-04-10T16:51:17Z</time></trkpt><trkpt lat="44.535752340238616" lon="7.964864251317042"><ele>366.0</ele><time>2026-04-10T16:51:18Z</time></trkpt><trkpt lat="44.5357208073202" lon="7.964749584892485"><ele>366.0</ele><time>2026-04-10T16:51:19Z</time></trkpt><trkpt lat="44.53569495923059" lon="7.964630290028361"><ele>366.0</ele><time>2026-04-10T16:51:20Z</time></trkpt><trkpt lat="44.53567571716697" lon="7.964510295378355"><ele>365.8333333333333</ele><time>2026-04-10T16:51:21Z</time></trkpt><trkpt lat="44.53566979388425" lon="7.964386086433816"><ele>365.6666666666667</ele><time>2026-04-10T16:51:22Z</time></trkpt><trkpt lat="44.53566383854015" lon="7.964259030904152"><ele>365.5</ele><time>2026-04-10T16:51:23Z</time></trkpt><trkpt lat="44.53565841989796" lon="7.96414061118002"><ele>365.33333333333337</ele><time>2026-04-10T16:51:24Z</time></trkpt><trkpt lat="44.53564722356143" lon="7.9640236886353915"><ele>365.1666666666667</ele><time>2026-04-10T16:51:25Z</time></trkpt><trkpt lat="44.535637852706024" lon="7.963907150443024"><ele>365.0</ele><time>2026-04-10T16:51:26Z</time></trkpt><trkpt lat="44.53563041182604" lon="7.963790818160659"><ele>364.5</ele><time>2026-04-10T16:51:27Z</time></trkpt><trkpt lat="44.53562463838169" lon="7.96367387302892"><ele>364.0</ele><time>2026-04-10T16:51:28Z</time></trkpt><trkpt lat="44.53561673136669" lon="7.963552666299388"><ele>363.5</ele><time>2026-04-10T16:51:29Z</time></trkpt><trkpt lat="44.53560543847241" lon="7.96343474618121"><ele>363.0</ele><time>2026-04-10T16:51:30Z</time></trkpt><trkpt lat="44.535594452896284" lon="7.963315365953711"><ele>362.5</ele><time>2026-04-10T16:51:31Z</time></trkpt><trkpt lat="44.53558498459726" lon="7.963197452159095"><ele>362.0</ele><time>2026-04-10T16:51:32Z</time></trkpt><trkpt lat="44.53557918468033" lon="7.963079629714164"><ele>361.1666666666667</ele><time>2026-04-10T16:51:33Z</time></trkpt><trkpt lat="44.53558111060876" lon="7.962960985554105"><ele>360.33333333333337</ele><time>2026-04-10T16:51:34Z</time></trkpt><trkpt lat="44.535593264842355" lon="7.962846404342231"><ele>359.5</ele><time>2026-04-10T16:51:35Z</time></trkpt><trkpt lat="44.53560794521905" lon="7.962727582992462"><ele>358.6666666666667</ele><time>2026-04-10T16:51:36Z</time></trkpt><trkpt lat="44.535626568126986" lon="7.962597780052625"><ele>357.8333333333333</ele><time>2026-04-10T16:51:37Z</time></trkpt><trkpt lat="44.53564672896783" lon="7.962467357145208"><ele>357.0</ele><time>2026-04-10T16:51:38Z</time></trkpt><trkpt lat="44.53567133423768" lon="7.962337616093921"><ele>356.20000000000005</ele><time>2026-04-10T16:51:39Z</time></trkpt><trkpt lat="44.53570423177496" lon="7.962202270852986"><ele>355.4</ele><time>2026-04-10T16:51:40Z</time></trkpt><trkpt lat="44.535730505250356" lon="7.962069116490455"><ele>354.6</ele><time>2026-04-10T16:51:41Z</time></trkpt><trkpt lat="44.53575077247603" lon="7.961931987559566"><ele>353.79999999999995</ele><time>2026-04-10T16:51:42Z</time></trkpt><trkpt lat="44.53576251638007" lon="7.961794140693117"><ele>353.0</ele><time>2026-04-10T16:51:43Z</time></trkpt><trkpt lat="44.53576970237695" lon="7.961655377304266"><ele>351.59999999999997</ele><time>2026-04-10T16:51:44Z</time></trkpt><trkpt lat="44.53577332492691" lon="7.961521118757877"><ele>350.2</ele><time>2026-04-10T16:51:45Z</time></trkpt><trkpt lat="44.5357760254719" lon="7.9613907017037855"><ele>348.8</ele><time>2026-04-10T16:51:46Z</time></trkpt><trkpt lat="44.53577722286703" lon="7.961261177203578"><ele>347.4</ele><time>2026-04-10T16:51:47Z</time></trkpt><trkpt lat="44.535781764972086" lon="7.961135093877266"><ele>346.0</ele><time>2026-04-10T16:51:48Z</time></trkpt><trkpt lat="44.535787060154675" lon="7.961005536531458"><ele>346.0</ele><time>2026-04-10T16:51:49Z</time></trkpt><trkpt lat="44.53579170057604" lon="7.960873067815407"><ele>346.0</ele><time>2026-04-10T16:51:50Z</time></trkpt><trkpt lat="44.535796911276734" lon="7.960750544192835"><ele>346.0</ele><time>2026-04-10T16:51:51Z</time></trkpt><trkpt lat="44.535801098661004" lon="7.960631433701832"><ele>346.0</ele><time>2026-04-10T16:51:52Z</time></trkpt><trkpt lat="44.53580216991245" lon="7.960513100191576"><ele>346.0</ele><time>2026-04-10T16:51:53Z</time></trkpt><trkpt lat="44.53580719942281" lon="7.960393911968468"><ele>346.0</ele><time>2026-04-10T16:51:54Z</time></trkpt><trkpt lat="44.53580625336487" lon="7.960285626889329"><ele>345.16666666666663</ele><time>2026-04-10T16:51:55Z</time></trkpt><trkpt lat="44.53579947714052" lon="7.960180037053125"><ele>344.3333333333333</ele><time>2026-04-10T16:51:56Z</time></trkpt><trkpt lat="44.53578751670309" lon="7.960075924963053"><ele>343.5</ele><time>2026-04-10T16:51:57Z</time></trkpt><trkpt lat="44.53576874461467" lon="7.95997333741357"><ele>342.6666666666667</ele><time>2026-04-10T16:51:58Z</time></trkpt><trkpt lat="44.53575037104457" lon="7.9598646130198984"><ele>341.83333333333337</ele><time>2026-04-10T16:51:59Z</time></trkpt><trkpt lat="44.53572710767601" lon="7.959752292884872"><ele>341.0</ele><time>2026-04-10T16:52:00Z</time></trkpt><trkpt lat="44.535705120737155" lon="7.959640583638152"><ele>339.83333333333337</ele><time>2026-04-10T16:52:01Z</time></trkpt><trkpt lat="44.535688705003565" lon="7.9595352033423845"><ele>338.6666666666667</ele><time>2026-04-10T16:52:02Z</time></trkpt><trkpt lat="44.535673617153016" lon="7.959429077171361"><ele>337.5</ele><time>2026-04-10T16:52:03Z</time></trkpt><trkpt lat="44.53565502834722" lon="7.959321140566297"><ele>336.3333333333333</ele><time>2026-04-10T16:52:04Z</time></trkpt><trkpt lat="44.53563483855433" lon="7.95921207299315"><ele>335.16666666666663</ele><time>2026-04-10T16:52:05Z</time></trkpt><trkpt lat="44.53560371849243" lon="7.959106365360979"><ele>334.0</ele><time>2026-04-10T16:52:06Z</time></trkpt><trkpt lat="44.53556608870036" lon="7.959005879298429"><ele>332.8333333333333</ele><time>2026-04-10T16:52:07Z</time></trkpt><trkpt lat="44.53552839943911" lon="7.9589061064483655"><ele>331.66666666666663</ele><time>2026-04-10T16:52:08Z</time></trkpt><trkpt lat="44.535485003033735" lon="7.958809660111205"><ele>330.5</ele><time>2026-04-10T16:52:09Z</time></trkpt><trkpt lat="44.53544671855116" lon="7.958717794536833"><ele>329.3333333333333</ele><time>2026-04-10T16:52:10Z</time></trkpt><trkpt lat="44.53540521138588" lon="7.958619458302468"><ele>328.1666666666667</ele><time>2026-04-10T16:52:11Z</time></trkpt><trkpt lat="44.53535984459147" lon="7.958530729817659"><ele>327.0</ele><time>2026-04-10T16:52:12Z</time></trkpt><trkpt lat="44.535309478721125" lon="7.958455407592332"><ele>325.1666666666667</ele><time>2026-04-10T16:52:13Z</time></trkpt><trkpt lat="44.535250595258184" lon="7.958388959576478"><ele>323.3333333333333</ele><time>2026-04-10T16:52:14Z</time></trkpt><trkpt lat="44.53519128753591" lon="7.9583256608065325"><ele>321.5</ele><time>2026-04-10T16:52:15Z</time></trkpt><trkpt lat="44.53512280163562" lon="7.958265707104951"><ele>319.66666666666663</ele><time>2026-04-10T16:52:16Z</time></trkpt><trkpt lat="44.535049147954446" lon="7.958209433964933"><ele>317.8333333333333</ele><time>2026-04-10T16:52:17Z</time></trkpt><trkpt lat="44.534974385231244" lon="7.95816126037375"><ele>316.0</ele><time>2026-04-10T16:52:18Z</time></trkpt><trkpt lat="44.534899174422286" lon="7.958117428947218"><ele>316.0</ele><time>2026-04-10T16:52:19Z</time></trkpt><trkpt lat="44.534824921349134" lon="7.958073699057048"><ele>316.0</ele><time>2026-04-10T16:52:20Z</time></trkpt><trkpt lat="44.53475312516798" lon="7.95801731546517"><ele>316.0</ele><time>2026-04-10T16:52:21Z</time></trkpt><trkpt lat="44.53468182518322" lon="7.957948790551545"><ele>316.0</ele><time>2026-04-10T16:52:22Z</time></trkpt><trkpt lat="44.53460953902428" lon="7.957886286073471"><ele>316.0</ele><time>2026-04-10T16:52:23Z</time></trkpt><trkpt lat="44.53453771273016" lon="7.957823704940543"><ele>316.0</ele><time>2026-04-10T16:52:24Z</time></trkpt><trkpt lat="44.53446990585848" lon="7.957753921063184"><ele>315.3333333333333</ele><time>2026-04-10T16:52:25Z</time></trkpt><trkpt lat="44.53440534960031" lon="7.9576832800825725"><ele>314.66666666666663</ele><time>2026-04-10T16:52:26Z</time></trkpt><trkpt lat="44.53434828825137" lon="7.957610997785699"><ele>314.0</ele><time>2026-04-10T16:52:27Z</time></trkpt><trkpt lat="44.53429154148882" lon="7.957536467405541"><ele>313.3333333333333</ele><time>2026-04-10T16:52:28Z</time></trkpt><trkpt lat="44.534231742795825" lon="7.957458195323767"><ele>312.6666666666667</ele><time>2026-04-10T16:52:29Z</time></trkpt><trkpt lat="44.5341686076876" lon="7.957385133289694"><ele>312.0</ele><time>2026-04-10T16:52:30Z</time></trkpt><trkpt lat="44.53410989431875" lon="7.957301462334949"><ele>312.0</ele><time>2026-04-10T16:52:31Z</time></trkpt><trkpt lat="44.534050494785795" lon="7.957225812292469"><ele>312.0</ele><time>2026-04-10T16:52:32Z</time></trkpt><trkpt lat="44.533998798427575" lon="7.95715617787597"><ele>312.0</ele><time>2026-04-10T16:52:33Z</time></trkpt><trkpt lat="44.53391561406634" lon="7.957045658015279"><ele>312.0</ele><time>2026-04-10T16:52:35Z</time></trkpt><trkpt lat="44.53383778044323" lon="7.956993033204619"><ele>312.0</ele><time>2026-04-10T16:52:37Z</time></trkpt><trkpt lat="44.53375830268903" lon="7.95699644921901"><ele>312.0</ele><time>2026-04-10T16:52:40Z</time></trkpt><trkpt lat="44.53369226242178" lon="7.95704640302215"><ele>310.2</ele><time>2026-04-10T16:53:20Z</time></trkpt><trkpt lat="44.53361529026362" lon="7.957087905700245"><ele>308.4</ele><time>2026-04-10T16:53:24Z</time></trkpt><trkpt lat="44.53355284113066" lon="7.9570627125843725"><ele>306.6</ele><time>2026-04-10T16:53:26Z</time></trkpt><trkpt lat="44.53348947678099" lon="7.956913915480735"><ele>304.8</ele><time>2026-04-10T16:53:29Z</time></trkpt><trkpt lat="44.53346122171956" lon="7.956795772149441"><ele>303.0</ele><time>2026-04-10T16:53:31Z</time></trkpt><trkpt lat="44.53343439173694" lon="7.956662962672983"><ele>303.0</ele><time>2026-04-10T16:53:33Z</time></trkpt><trkpt lat="44.53340688795186" lon="7.95652048065107"><ele>303.0</ele><time>2026-04-10T16:53:35Z</time></trkpt><trkpt lat="44.53336766930403" lon="7.95635594310132"><ele>303.0</ele><time>2026-04-10T16:53:37Z</time></trkpt><trkpt lat="44.53332703816204" lon="7.956185844279632"><ele>303.0</ele><time>2026-04-10T16:53:39Z</time></trkpt><trkpt lat="44.53330554835419" lon="7.956096654421056"><ele>303.0</ele><time>2026-04-10T16:53:40Z</time></trkpt><trkpt lat="44.53328378018709" lon="7.956004485143025"><ele>303.0</ele><time>2026-04-10T16:53:41Z</time></trkpt><trkpt lat="44.53326482471305" lon="7.955911704574565"><ele>303.0</ele><time>2026-04-10T16:53:42Z</time></trkpt><trkpt lat="44.533242003999945" lon="7.955813598664006"><ele>303.0</ele><time>2026-04-10T16:53:43Z</time></trkpt><trkpt lat="44.53321648988668" lon="7.95572195592953"><ele>303.0</ele><time>2026-04-10T16:53:44Z</time></trkpt><trkpt lat="44.53318973911433" lon="7.95563057089369"><ele>303.0</ele><time>2026-04-10T16:53:45Z</time></trkpt><trkpt lat="44.53316965986527" lon="7.955532129794493"><ele>303.0</ele><time>2026-04-10T16:53:46Z</time></trkpt><trkpt lat="44.53314941698694" lon="7.955436774976228"><ele>303.0</ele><time>2026-04-10T16:53:47Z</time></trkpt><trkpt lat="44.53312372852179" lon="7.9553369145226025"><ele>302.8333333333333</ele><time>2026-04-10T16:53:48Z</time></trkpt><trkpt lat="44.533102454333495" lon="7.955232628069519"><ele>302.6666666666667</ele><time>2026-04-10T16:53:49Z</time></trkpt><trkpt lat="44.53307726232407" lon="7.955133875173545"><ele>302.5</ele><time>2026-04-10T16:53:50Z</time></trkpt><trkpt lat="44.53304862981189" lon="7.955033790312267"><ele>302.33333333333337</ele><time>2026-04-10T16:53:51Z</time></trkpt><trkpt lat="44.53303245141787" lon="7.954927064733299"><ele>302.1666666666667</ele><time>2026-04-10T16:53:52Z</time></trkpt><trkpt lat="44.53300962321058" lon="7.954823223344255"><ele>302.0</ele><time>2026-04-10T16:53:53Z</time></trkpt><trkpt lat="44.532990550346504" lon="7.954712728165298"><ele>301.7142857142857</ele><time>2026-04-10T16:53:54Z</time></trkpt><trkpt lat="44.53297114270995" lon="7.954611322048349"><ele>301.42857142857144</ele><time>2026-04-10T16:53:55Z</time></trkpt><trkpt lat="44.532950133736435" lon="7.954507457942839"><ele>301.1428571428571</ele><time>2026-04-10T16:53:56Z</time></trkpt><trkpt lat="44.53292793399188" lon="7.954402818449064"><ele>300.8571428571429</ele><time>2026-04-10T16:53:57Z</time></trkpt><trkpt lat="44.53290798521304" lon="7.954300199408202"><ele>300.57142857142856</ele><time>2026-04-10T16:53:58Z</time></trkpt><trkpt lat="44.5328872901553" lon="7.95421109291928"><ele>300.2857142857143</ele><time>2026-04-10T16:53:59Z</time></trkpt><trkpt lat="44.532859624869495" lon="7.954129310653846"><ele>300.0</ele><time>2026-04-10T16:54:00Z</time></trkpt><trkpt lat="44.53284368461601" lon="7.954042500753119"><ele>299.5</ele><time>2026-04-10T16:54:01Z</time></trkpt><trkpt lat="44.53282279532793" lon="7.953956144715084"><ele>299.0</ele><time>2026-04-10T16:54:02Z</time></trkpt><trkpt lat="44.53278223356269" lon="7.953782323873009"><ele>298.5</ele><time>2026-04-10T16:54:04Z</time></trkpt><trkpt lat="44.53275705090864" lon="7.95369853607699"><ele>298.0</ele><time>2026-04-10T16:54:05Z</time></trkpt><trkpt lat="44.53272863276394" lon="7.953613993151523"><ele>297.5</ele><time>2026-04-10T16:54:06Z</time></trkpt><trkpt lat="44.532694239906135" lon="7.9534590524092605"><ele>297.0</ele><time>2026-04-10T16:54:08Z</time></trkpt><trkpt lat="44.53265880959097" lon="7.953308630042689"><ele>297.0</ele><time>2026-04-10T16:54:10Z</time></trkpt><trkpt lat="44.53262336982069" lon="7.953164969166525"><ele>297.0</ele><time>2026-04-10T16:54:12Z</time></trkpt><trkpt lat="44.532586703616204" lon="7.953024134635915"><ele>297.0</ele><time>2026-04-10T16:54:14Z</time></trkpt><trkpt lat="44.532548687318595" lon="7.952887203669649"><ele>297.0</ele><time>2026-04-10T16:54:16Z</time></trkpt><trkpt lat="44.53251669762584" lon="7.95275528561035"><ele>297.0</ele><time>2026-04-10T16:54:18Z</time></trkpt><trkpt lat="44.53248595208013" lon="7.952633724791563"><ele>296.6</ele><time>2026-04-10T16:54:20Z</time></trkpt><trkpt lat="44.53245357773285" lon="7.952511187288201"><ele>296.2</ele><time>2026-04-10T16:54:22Z</time></trkpt><trkpt lat="44.532422298971355" lon="7.95237933637329"><ele>295.8</ele><time>2026-04-10T16:54:24Z</time></trkpt><trkpt lat="44.53238848004123" lon="7.952253769341914"><ele>295.4</ele><time>2026-04-10T16:54:26Z</time></trkpt><trkpt lat="44.532355838756004" lon="7.952125684756261"><ele>295.0</ele><time>2026-04-10T16:54:28Z</time></trkpt><trkpt lat="44.53232085008963" lon="7.951994432056806"><ele>295.0</ele><time>2026-04-10T16:54:30Z</time></trkpt><trkpt lat="44.53228713714244" lon="7.951855374310942"><ele>295.0</ele><time>2026-04-10T16:54:32Z</time></trkpt><trkpt lat="44.53225042837513" lon="7.95172193836408"><ele>295.0</ele><time>2026-04-10T16:54:34Z</time></trkpt><trkpt lat="44.53222324297653" lon="7.951589209896129"><ele>295.0</ele><time>2026-04-10T16:54:36Z</time></trkpt><trkpt lat="44.532193885318534" lon="7.951459747881066"><ele>295.0</ele><time>2026-04-10T16:54:38Z</time></trkpt><trkpt lat="44.532166125847134" lon="7.951334936828435"><ele>295.0</ele><time>2026-04-10T16:54:40Z</time></trkpt><trkpt lat="44.532131269792615" lon="7.951213091023649"><ele>295.0</ele><time>2026-04-10T16:54:42Z</time></trkpt><trkpt lat="44.532100398158605" lon="7.951088888829753"><ele>295.0</ele><time>2026-04-10T16:54:44Z</time></trkpt><trkpt lat="44.53209172746835" lon="7.950946569668952"><ele>295.0</ele><time>2026-04-10T16:54:46Z</time></trkpt><trkpt lat="44.532085857969854" lon="7.950806385423834"><ele>295.0</ele><time>2026-04-10T16:54:48Z</time></trkpt><trkpt lat="44.53208836298146" lon="7.950663357373635"><ele>295.0</ele><time>2026-04-10T16:54:50Z</time></trkpt><trkpt lat="44.53209121251566" lon="7.950529114961769"><ele>295.0</ele><time>2026-04-10T16:54:52Z</time></trkpt><trkpt lat="44.5320850002112" lon="7.950384936125994"><ele>295.0</ele><time>2026-04-10T16:54:54Z</time></trkpt><trkpt lat="44.53207372163389" lon="7.950241638256902"><ele>295.0</ele><time>2026-04-10T16:54:56Z</time></trkpt><trkpt lat="44.532071929745904" lon="7.950105762209873"><ele>295.0</ele><time>2026-04-10T16:54:58Z</time></trkpt><trkpt lat="44.53206265810375" lon="7.9499685631313035"><ele>294.2</ele><time>2026-04-10T16:55:00Z</time></trkpt><trkpt lat="44.53202755374555" lon="7.9498431423088"><ele>293.4</ele><time>2026-04-10T16:55:02Z</time></trkpt><trkpt lat="44.53196865464754" lon="7.949729396835682"><ele>292.6</ele><time>2026-04-10T16:55:04Z</time></trkpt><trkpt lat="44.53188982812279" lon="7.949631813165088"><ele>291.8</ele><time>2026-04-10T16:55:06Z</time></trkpt><trkpt lat="44.531794011358514" lon="7.949546704100451"><ele>291.0</ele><time>2026-04-10T16:55:08Z</time></trkpt><trkpt lat="44.531680053326454" lon="7.949486687190317"><ele>291.0</ele><time>2026-04-10T16:55:10Z</time></trkpt><trkpt lat="44.531568408739155" lon="7.949456439346305"><ele>291.0</ele><time>2026-04-10T16:55:12Z</time></trkpt><trkpt lat="44.53144494791287" lon="7.949437516106107"><ele>291.0</ele><time>2026-04-10T16:55:14Z</time></trkpt><trkpt lat="44.531318633099765" lon="7.949420593981306"><ele>291.0</ele><time>2026-04-10T16:55:16Z</time></trkpt><trkpt lat="44.53125149722111" lon="7.9494108369575605"><ele>291.0</ele><time>2026-04-10T16:55:17Z</time></trkpt><trkpt lat="44.53118149515789" lon="7.94940001366496"><ele>290.5</ele><time>2026-04-10T16:55:18Z</time></trkpt><trkpt lat="44.53111045710096" lon="7.949389852884617"><ele>290.0</ele><time>2026-04-10T16:55:19Z</time></trkpt><trkpt lat="44.531039875343616" lon="7.949387147865795"><ele>289.5</ele><time>2026-04-10T16:55:20Z</time></trkpt><trkpt lat="44.53096955951609" lon="7.949390829606926"><ele>289.0</ele><time>2026-04-10T16:55:21Z</time></trkpt><trkpt lat="44.5308568727695" lon="7.949394554576306"><ele>288.5</ele><time>2026-04-10T16:55:23Z</time></trkpt><trkpt lat="44.530779176765364" lon="7.949370461761883"><ele>288.0</ele><time>2026-04-10T16:55:25Z</time></trkpt><trkpt lat="44.53072903381797" lon="7.949301523661205"><ele>288.2</ele><time>2026-04-10T16:55:27Z</time></trkpt><trkpt lat="44.53073755092052" lon="7.949162969265656"><ele>288.4</ele><time>2026-04-10T16:55:28Z</time></trkpt><trkpt lat="44.530757867935506" lon="7.94901262064956"><ele>288.59999999999997</ele><time>2026-04-10T16:55:30Z</time></trkpt><trkpt lat="44.530770895910216" lon="7.948853368434489"><ele>288.8</ele><time>2026-04-10T16:55:32Z</time></trkpt><trkpt lat="44.53078545257074" lon="7.9486919862456675"><ele>289.0</ele><time>2026-04-10T16:55:34Z</time></trkpt><trkpt lat="44.53080394320437" lon="7.948526089226402"><ele>289.0</ele><time>2026-04-10T16:55:36Z</time></trkpt><trkpt lat="44.530826159025615" lon="7.948361678111371"><ele>289.0</ele><time>2026-04-10T16:55:38Z</time></trkpt><trkpt lat="44.530843945774386" lon="7.948197104925779"><ele>289.0</ele><time>2026-04-10T16:55:40Z</time></trkpt><trkpt lat="44.530860864378646" lon="7.948031169348043"><ele>289.0</ele><time>2026-04-10T16:55:42Z</time></trkpt><trkpt lat="44.53087498840193" lon="7.947867108660071"><ele>289.0</ele><time>2026-04-10T16:55:44Z</time></trkpt><trkpt lat="44.53088994206631" lon="7.94770763519826"><ele>289.0</ele><time>2026-04-10T16:55:46Z</time></trkpt><trkpt lat="44.530906221161" lon="7.9475889394972485"><ele>289.0</ele><time>2026-04-10T16:55:48Z</time></trkpt><trkpt lat="44.53091867258621" lon="7.947492451854532"><ele>289.0</ele><time>2026-04-10T16:55:52Z</time></trkpt><trkpt lat="44.530680997290766" lon="7.947446579624721"><ele>289.0</ele><time>2026-04-10T16:56:08Z</time></trkpt><trkpt lat="44.5306055317696" lon="7.9474717804317345"><ele>289.0</ele><time>2026-04-10T16:56:11Z</time></trkpt><trkpt lat="44.530612050409104" lon="7.947589969587597"><ele>289.0</ele><time>2026-04-10T16:56:21Z</time></trkpt><trkpt lat="44.53062197603423" lon="7.947686951211695"><ele>289.0</ele><time>2026-04-10T16:56:24Z</time></trkpt><trkpt lat="44.53063289220232" lon="7.947793611256697"><ele>289.0</ele><time>2026-04-10T16:56:28Z</time></trkpt><trkpt lat="44.53064270155079" lon="7.94788945675079"><ele>289.0</ele><time>2026-04-10T16:56:31Z</time></trkpt><trkpt lat="44.53065231453337" lon="7.947983383581234"><ele>289.0</ele><time>2026-04-10T16:56:34Z</time></trkpt><trkpt lat="44.53021279485491" lon="7.947858531658286"><ele>290.3333333333333</ele><time>2026-04-10T16:56:39Z</time></trkpt><trkpt lat="44.53029263990545" lon="7.9478377330831735"><ele>291.66666666666663</ele><time>2026-04-10T16:56:43Z</time></trkpt><trkpt lat="44.53028554688698" lon="7.947708913148946"><ele>293.0</ele><time>2026-04-10T16:56:46Z</time></trkpt><trkpt lat="44.53027787314161" lon="7.947594546507599"><ele>294.3333333333333</ele><time>2026-04-10T16:56:49Z</time></trkpt><trkpt lat="44.53021662602777" lon="7.947521018377724"><ele>295.6666666666667</ele><time>2026-04-10T16:56:52Z</time></trkpt><trkpt lat="44.53021203927545" lon="7.947418415290138"><ele>297.0</ele><time>2026-04-10T16:56:55Z</time></trkpt><trkpt lat="44.53016131615091" lon="7.9473229872157924"><ele>297.0</ele><time>2026-04-10T16:56:58Z</time></trkpt><trkpt lat="44.530142967604" lon="7.9472103402703835"><ele>297.0</ele><time>2026-04-10T16:57:01Z</time></trkpt><trkpt lat="44.53012368267562" lon="7.947125835007064"><ele>297.0</ele><time>2026-04-10T16:57:03Z</time></trkpt><trkpt lat="44.53010900792641" lon="7.947025778224299"><ele>297.0</ele><time>2026-04-10T16:57:05Z</time></trkpt><trkpt lat="44.530095948027714" lon="7.946927311473241"><ele>297.0</ele><time>2026-04-10T16:57:07Z</time></trkpt><trkpt lat="44.53008845520442" lon="7.946831514213425"><ele>297.0</ele><time>2026-04-10T16:57:09Z</time></trkpt><trkpt lat="44.53007645018776" lon="7.946738943246247"><ele>297.0</ele><time>2026-04-10T16:57:11Z</time></trkpt><trkpt lat="44.5300648710207" lon="7.94663916414723"><ele>296.5</ele><time>2026-04-10T16:57:13Z</time></trkpt><trkpt lat="44.530002959570545" lon="7.946605893083911"><ele>296.0</ele><time>2026-04-10T16:57:15Z</time></trkpt><trkpt lat="44.52998039775024" lon="7.946478228713002"><ele>295.5</ele><time>2026-04-10T16:57:18Z</time></trkpt><trkpt lat="44.529979213271574" lon="7.946387184575528"><ele>295.0</ele><time>2026-04-10T16:57:20Z</time></trkpt><trkpt lat="44.529980644472424" lon="7.946295288312285"><ele>294.5</ele><time>2026-04-10T16:57:22Z</time></trkpt><trkpt lat="44.529956179696384" lon="7.946192155216245"><ele>294.0</ele><time>2026-04-10T16:57:25Z</time></trkpt><trkpt lat="44.52982261091844" lon="7.946214457281431"><ele>294.0</ele><time>2026-04-10T16:57:32Z</time></trkpt><trkpt lat="44.52988316602471" lon="7.946179617954322"><ele>294.0</ele><time>2026-04-10T16:57:43Z</time></trkpt><trkpt lat="44.52991694717045" lon="7.94609819544018"><ele>294.0</ele><time>2026-04-10T16:57:49Z</time></trkpt><trkpt lat="44.52990350846705" lon="7.946010571518674"><ele>294.0</ele><time>2026-04-10T16:57:53Z</time></trkpt><trkpt lat="44.52992611650354" lon="7.945921215995443"><ele>294.0</ele><time>2026-04-10T16:57:59Z</time></trkpt><trkpt lat="44.52997370650854" lon="7.945862031831234"><ele>294.0</ele><time>2026-04-10T16:58:04Z</time></trkpt><trkpt lat="44.52993663519197" lon="7.945772120625594"><ele>294.0</ele><time>2026-04-10T16:58:09Z</time></trkpt><trkpt lat="44.52987533271504" lon="7.945717886676959"><ele>294.0</ele><time>2026-04-10T16:58:13Z</time></trkpt><trkpt lat="44.52980104853138" lon="7.945695481722958"><ele>294.0</ele><time>2026-04-10T16:58:17Z</time></trkpt><trkpt lat="44.529754288797015" lon="7.945759592754952"><ele>294.0</ele><time>2026-04-10T16:58:20Z</time></trkpt><trkpt lat="44.529688922104576" lon="7.945799324168393"><ele>294.0</ele><time>2026-04-10T16:58:25Z</time></trkpt><trkpt lat="44.529633669717015" lon="7.945846009300503"><ele>294.0</ele><time>2026-04-10T16:58:30Z</time></trkpt><trkpt lat="44.52956979223048" lon="7.945894828626427"><ele>294.0</ele><time>2026-04-10T16:58:35Z</time></trkpt><trkpt lat="44.52951173164204" lon="7.945953520959018"><ele>294.0</ele><time>2026-04-10T16:58:40Z</time></trkpt><trkpt lat="44.52945005201468" lon="7.946004018187869"><ele>296.1666666666667</ele><time>2026-04-10T16:58:45Z</time></trkpt><trkpt lat="44.52940508374734" lon="7.946069375031591"><ele>298.3333333333333</ele><time>2026-04-10T16:58:50Z</time></trkpt><trkpt lat="44.529350505419806" lon="7.946129601359237"><ele>300.5</ele><time>2026-04-10T16:58:55Z</time></trkpt><trkpt lat="44.529296076301094" lon="7.946196677512752"><ele>302.66666666666663</ele><time>2026-04-10T16:59:00Z</time></trkpt><trkpt lat="44.52923884701889" lon="7.946239121519485"><ele>304.8333333333333</ele><time>2026-04-10T16:59:04Z</time></trkpt><trkpt lat="44.52918074340725" lon="7.946290789291176"><ele>307.0</ele><time>2026-04-10T16:59:09Z</time></trkpt><trkpt lat="44.52907816753285" lon="7.946409358720177"><ele>306.99999999999994</ele><time>2026-04-10T16:59:31Z</time></trkpt><trkpt lat="44.52900823321305" lon="7.946412469536511"><ele>307.0</ele><time>2026-04-10T16:59:37Z</time></trkpt><trkpt lat="44.52895644643407" lon="7.946463720890512"><ele>307.0</ele><time>2026-04-10T16:59:45Z</time></trkpt><trkpt lat="44.528891092156165" lon="7.9465106220759525"><ele>307.0</ele><time>2026-04-10T16:59:53Z</time></trkpt><trkpt lat="44.52882957993201" lon="7.9465701127222195"><ele>307.0</ele><time>2026-04-10T17:00:02Z</time></trkpt><trkpt lat="44.52875263558661" lon="7.9465988035195885"><ele>306.99999999999994</ele><time>2026-04-10T17:00:10Z</time></trkpt><trkpt lat="44.52869008095627" lon="7.946639022761732"><ele>307.0</ele><time>2026-04-10T17:00:18Z</time></trkpt><trkpt lat="44.528689446920076" lon="7.946733379030954"><ele>309.57142857142856</ele><time>2026-04-10T17:00:45Z</time></trkpt><trkpt lat="44.528638758157406" lon="7.946795252392322"><ele>312.1428571428571</ele><time>2026-04-10T17:00:52Z</time></trkpt><trkpt lat="44.52858095386998" lon="7.946831618060109"><ele>314.71428571428567</ele><time>2026-04-10T17:00:58Z</time></trkpt><trkpt lat="44.52853327062974" lon="7.946891922019129"><ele>317.2857142857143</ele><time>2026-04-10T17:01:05Z</time></trkpt><trkpt lat="44.52848981746114" lon="7.946959309484017"><ele>319.8571428571429</ele><time>2026-04-10T17:01:13Z</time></trkpt><trkpt lat="44.52843308300067" lon="7.947012419756422"><ele>322.4285714285714</ele><time>2026-04-10T17:01:21Z</time></trkpt><trkpt lat="44.5283975885212" lon="7.947103777058981"><ele>325.0</ele><time>2026-04-10T17:01:29Z</time></trkpt><trkpt lat="44.52834499092336" lon="7.947163918146138"><ele>325.0</ele><time>2026-04-10T17:01:36Z</time></trkpt><trkpt lat="44.52830371178534" lon="7.947235919896275"><ele>325.0</ele><time>2026-04-10T17:01:42Z</time></trkpt><trkpt lat="44.52826504020714" lon="7.9473057070188355"><ele>325.0</ele><time>2026-04-10T17:01:48Z</time></trkpt><trkpt lat="44.528230897948966" lon="7.94738906065597"><ele>325.0</ele><time>2026-04-10T17:01:55Z</time></trkpt><trkpt lat="44.52819179652429" lon="7.947474108081917"><ele>325.0</ele><time>2026-04-10T17:02:03Z</time></trkpt><trkpt lat="44.52814953718446" lon="7.947548226578035"><ele>325.0</ele><time>2026-04-10T17:02:09Z</time></trkpt><trkpt lat="44.52809458084369" lon="7.947617747281841"><ele>325.0</ele><time>2026-04-10T17:02:16Z</time></trkpt><trkpt lat="44.52803551463965" lon="7.9476731119852"><ele>326.2857142857143</ele><time>2026-04-10T17:02:24Z</time></trkpt><trkpt lat="44.52797503615864" lon="7.947703914797901"><ele>327.5714285714286</ele><time>2026-04-10T17:02:30Z</time></trkpt><trkpt lat="44.527909344235" lon="7.947748912946665"><ele>328.8571428571429</ele><time>2026-04-10T17:02:37Z</time></trkpt><trkpt lat="44.52783933808193" lon="7.947787475517372"><ele>330.1428571428571</ele><time>2026-04-10T17:02:44Z</time></trkpt><trkpt lat="44.527770665921835" lon="7.94782687684326"><ele>331.42857142857144</ele><time>2026-04-10T17:02:51Z</time></trkpt><trkpt lat="44.52770309716094" lon="7.9478622339773946"><ele>332.7142857142857</ele><time>2026-04-10T17:02:59Z</time></trkpt><trkpt lat="44.527651921127344" lon="7.9479167608060814"><ele>334.0</ele><time>2026-04-10T17:03:06Z</time></trkpt><trkpt lat="44.52760484409795" lon="7.947978284425623"><ele>334.0</ele><time>2026-04-10T17:03:13Z</time></trkpt><trkpt lat="44.527556736689725" lon="7.948053417535369"><ele>334.0</ele><time>2026-04-10T17:03:22Z</time></trkpt><trkpt lat="44.527522080393" lon="7.948140077921076"><ele>334.0</ele><time>2026-04-10T17:03:35Z</time></trkpt><trkpt lat="44.52747775085126" lon="7.948216647170033"><ele>334.0</ele><time>2026-04-10T17:03:44Z</time></trkpt><trkpt lat="44.52743032164514" lon="7.948286658161458"><ele>334.0</ele><time>2026-04-10T17:03:52Z</time></trkpt><trkpt lat="44.527391986869155" lon="7.948357367465541"><ele>334.0</ele><time>2026-04-10T17:03:59Z</time></trkpt><trkpt lat="44.527331189710004" lon="7.948390579440983"><ele>334.0</ele><time>2026-04-10T17:04:05Z</time></trkpt><trkpt lat="44.527260899356875" lon="7.948365539648168"><ele>334.0</ele><time>2026-04-10T17:04:10Z</time></trkpt><trkpt lat="44.52719308208318" lon="7.948325263207234"><ele>334.0</ele><time>2026-04-10T17:04:16Z</time></trkpt><trkpt lat="44.52712569240921" lon="7.948301215890304"><ele>334.0</ele><time>2026-04-10T17:04:22Z</time></trkpt><trkpt lat="44.52705637672866" lon="7.948266831775627"><ele>334.0</ele><time>2026-04-10T17:04:29Z</time></trkpt><trkpt lat="44.526990091528276" lon="7.9482232637001315"><ele>334.0</ele><time>2026-04-10T17:04:35Z</time></trkpt><trkpt lat="44.5269365278881" lon="7.948159167026478"><ele>334.0</ele><time>2026-04-10T17:04:42Z</time></trkpt><trkpt lat="44.52688004609641" lon="7.948100084777391"><ele>334.0</ele><time>2026-04-10T17:04:48Z</time></trkpt><trkpt lat="44.52681919846705" lon="7.94804588281908"><ele>334.85714285714283</ele><time>2026-04-10T17:04:54Z</time></trkpt><trkpt lat="44.5267519809044" lon="7.948007973617148"><ele>335.7142857142857</ele><time>2026-04-10T17:05:00Z</time></trkpt><trkpt lat="44.52668812839422" lon="7.9479766455814875"><ele>336.57142857142856</ele><time>2026-04-10T17:05:06Z</time></trkpt><trkpt lat="44.526624375245554" lon="7.947957516122156"><ele>337.42857142857144</ele><time>2026-04-10T17:05:12Z</time></trkpt><trkpt lat="44.52656170952276" lon="7.947921845998889"><ele>338.2857142857143</ele><time>2026-04-10T17:05:18Z</time></trkpt><trkpt lat="44.52649588412224" lon="7.947897794838865"><ele>339.14285714285717</ele><time>2026-04-10T17:05:24Z</time></trkpt><trkpt lat="44.52643454972426" lon="7.947876568237577"><ele>340.0</ele><time>2026-04-10T17:05:30Z</time></trkpt><trkpt lat="44.52636278431805" lon="7.947855911491496"><ele>340.0</ele><time>2026-04-10T17:05:36Z</time></trkpt><trkpt lat="44.52629353665736" lon="7.947816833060979"><ele>340.0</ele><time>2026-04-10T17:05:43Z</time></trkpt><trkpt lat="44.526229662736995" lon="7.947787963614592"><ele>340.0</ele><time>2026-04-10T17:05:49Z</time></trkpt><trkpt lat="44.526165846983" lon="7.947750677837366"><ele>340.0</ele><time>2026-04-10T17:05:55Z</time></trkpt><trkpt lat="44.526100287646294" lon="7.947723416891853"><ele>340.0</ele><time>2026-04-10T17:06:02Z</time></trkpt><trkpt lat="44.526056909253924" lon="7.9476501476353105"><ele>340.0</ele><time>2026-04-10T17:06:20Z</time></trkpt><trkpt lat="44.52599380850547" lon="7.947596772278015"><ele>340.0</ele><time>2026-04-10T17:06:25Z</time></trkpt><trkpt lat="44.525927117896316" lon="7.947562508925285"><ele>340.5714285714286</ele><time>2026-04-10T17:06:30Z</time></trkpt><trkpt lat="44.52587173098177" lon="7.947498377273238"><ele>341.1428571428571</ele><time>2026-04-10T17:06:35Z</time></trkpt><trkpt lat="44.52580368594687" lon="7.947457198104669"><ele>341.7142857142857</ele><time>2026-04-10T17:06:40Z</time></trkpt><trkpt lat="44.52573078616132" lon="7.947410693181901"><ele>342.28571428571433</ele><time>2026-04-10T17:06:45Z</time></trkpt><trkpt lat="44.52569697992429" lon="7.947332021547414"><ele>342.8571428571429</ele><time>2026-04-10T17:06:49Z</time></trkpt><trkpt lat="44.52566294650115" lon="7.947257547375948"><ele>343.42857142857144</ele><time>2026-04-10T17:06:53Z</time></trkpt><trkpt lat="44.52563832867633" lon="7.9471550026485005"><ele>344.0</ele><time>2026-04-10T17:06:58Z</time></trkpt><trkpt lat="44.52560504375997" lon="7.94705973152123"><ele>344.00000000000006</ele><time>2026-04-10T17:07:03Z</time></trkpt><trkpt lat="44.525577735115256" lon="7.946963079160277"><ele>344.0</ele><time>2026-04-10T17:07:08Z</time></trkpt><trkpt lat="44.525540462305315" lon="7.946865985573524"><ele>344.0</ele><time>2026-04-10T17:07:13Z</time></trkpt><trkpt lat="44.5255146435908" lon="7.946779938776049"><ele>344.0</ele><time>2026-04-10T17:07:17Z</time></trkpt><trkpt lat="44.52548624985567" lon="7.946678765386398"><ele>344.0</ele><time>2026-04-10T17:07:22Z</time></trkpt><trkpt lat="44.52546345960956" lon="7.946595550378956"><ele>344.00000000000006</ele><time>2026-04-10T17:07:26Z</time></trkpt><trkpt lat="44.52544112394123" lon="7.946505808616276"><ele>344.0</ele><time>2026-04-10T17:07:30Z</time></trkpt><trkpt lat="44.525407911879284" lon="7.946429927705233"><ele>345.42857142857144</ele><time>2026-04-10T17:07:34Z</time></trkpt><trkpt lat="44.525384490018055" lon="7.946342167211479"><ele>346.8571428571429</ele><time>2026-04-10T17:07:38Z</time></trkpt><trkpt lat="44.52535217653075" lon="7.946240735697324"><ele>348.28571428571433</ele><time>2026-04-10T17:07:43Z</time></trkpt><trkpt lat="44.52531692386821" lon="7.9461375086189925"><ele>349.7142857142857</ele><time>2026-04-10T17:07:48Z</time></trkpt><trkpt lat="44.5252861494011" lon="7.946049115264292"><ele>351.1428571428571</ele><time>2026-04-10T17:07:52Z</time></trkpt><trkpt lat="44.52524871498555" lon="7.945965853003426"><ele>352.5714285714286</ele><time>2026-04-10T17:07:56Z</time></trkpt><trkpt lat="44.52522185568792" lon="7.94588289877066"><ele>354.0</ele><time>2026-04-10T17:08:00Z</time></trkpt><trkpt lat="44.52518925757559" lon="7.94580108041942"><ele>354.0</ele><time>2026-04-10T17:08:04Z</time></trkpt><trkpt lat="44.52514400212891" lon="7.945733753046702"><ele>354.0</ele><time>2026-04-10T17:08:52Z</time></trkpt><trkpt lat="44.52508487913925" lon="7.945702359987888"><ele>354.0</ele><time>2026-04-10T17:08:59Z</time></trkpt><trkpt lat="44.525044744313824" lon="7.945608531604233"><ele>354.0</ele><time>2026-04-10T17:09:03Z</time></trkpt><trkpt lat="44.52498941785929" lon="7.94553490792427"><ele>354.0</ele><time>2026-04-10T17:09:08Z</time></trkpt><trkpt lat="44.52493362743144" lon="7.945475525731739"><ele>354.0</ele><time>2026-04-10T17:09:12Z</time></trkpt><trkpt lat="44.524889517997174" lon="7.945396940923737"><ele>354.0</ele><time>2026-04-10T17:09:17Z</time></trkpt><trkpt lat="44.524842578564446" lon="7.945336604213668"><ele>354.0</ele><time>2026-04-10T17:09:21Z</time></trkpt><trkpt lat="44.5247809954294" lon="7.945255893325169"><ele>354.0</ele><time>2026-04-10T17:09:26Z</time></trkpt><trkpt lat="44.52472157272077" lon="7.945184403998018"><ele>354.0</ele><time>2026-04-10T17:09:31Z</time></trkpt><trkpt lat="44.52467156078454" lon="7.945116744276575"><ele>354.0</ele><time>2026-04-10T17:09:35Z</time></trkpt><trkpt lat="44.52462218881488" lon="7.945053151203985"><ele>354.0</ele><time>2026-04-10T17:09:39Z</time></trkpt><trkpt lat="44.52457083689878" lon="7.944971678883903"><ele>354.0</ele><time>2026-04-10T17:09:44Z</time></trkpt><trkpt lat="44.524522458720014" lon="7.944909419907524"><ele>354.0</ele><time>2026-04-10T17:09:49Z</time></trkpt><trkpt lat="44.52446297164083" lon="7.944855319808438"><ele>355.6666666666667</ele><time>2026-04-10T17:09:53Z</time></trkpt><trkpt lat="44.52439888635032" lon="7.944781857251021"><ele>357.3333333333333</ele><time>2026-04-10T17:09:58Z</time></trkpt><trkpt lat="44.524330418702775" lon="7.944730656587892"><ele>359.0</ele><time>2026-04-10T17:10:03Z</time></trkpt><trkpt lat="44.524270690249374" lon="7.944695398310449"><ele>360.66666666666663</ele><time>2026-04-10T17:10:07Z</time></trkpt><trkpt lat="44.52419792397841" lon="7.944658409237677"><ele>362.3333333333333</ele><time>2026-04-10T17:10:12Z</time></trkpt><trkpt lat="44.524124597448505" lon="7.944630137911642"><ele>364.0</ele><time>2026-04-10T17:10:17Z</time></trkpt><trkpt lat="44.52404772393005" lon="7.944610197811795"><ele>364.0</ele><time>2026-04-10T17:10:22Z</time></trkpt><trkpt lat="44.523971679045964" lon="7.9445879677652025"><ele>364.0</ele><time>2026-04-10T17:10:27Z</time></trkpt><trkpt lat="44.523897751881115" lon="7.944584890731186"><ele>364.0</ele><time>2026-04-10T17:10:32Z</time></trkpt><trkpt lat="44.52383506214277" lon="7.944569539627808"><ele>364.0</ele><time>2026-04-10T17:10:36Z</time></trkpt><trkpt lat="44.52377262379836" lon="7.944555303917292"><ele>364.0</ele><time>2026-04-10T17:10:41Z</time></trkpt><trkpt lat="44.52370692685998" lon="7.944603143104004"><ele>364.0</ele><time>2026-04-10T17:11:52Z</time></trkpt><trkpt lat="44.52364480655817" lon="7.9445695121374795"><ele>364.0</ele><time>2026-04-10T17:11:55Z</time></trkpt><trkpt lat="44.5235788130744" lon="7.9445413023939"><ele>365.57142857142856</ele><time>2026-04-10T17:11:59Z</time></trkpt><trkpt lat="44.52351433190571" lon="7.944530200651457"><ele>367.1428571428571</ele><time>2026-04-10T17:12:03Z</time></trkpt><trkpt lat="44.523446935445406" lon="7.944525060103276"><ele>368.7142857142857</ele><time>2026-04-10T17:12:07Z</time></trkpt><trkpt lat="44.523380457114015" lon="7.944517562099"><ele>370.2857142857143</ele><time>2026-04-10T17:12:11Z</time></trkpt><trkpt lat="44.52331285226781" lon="7.944502694009134"><ele>371.85714285714283</ele><time>2026-04-10T17:12:15Z</time></trkpt><trkpt lat="44.523245393504645" lon="7.944493889857086"><ele>373.42857142857144</ele><time>2026-04-10T17:12:19Z</time></trkpt><trkpt lat="44.52317555532648" lon="7.944495277502098"><ele>375.0</ele><time>2026-04-10T17:12:23Z</time></trkpt><trkpt lat="44.52310640189583" lon="7.944487100220823"><ele>375.0</ele><time>2026-04-10T17:12:27Z</time></trkpt><trkpt lat="44.52303483641026" lon="7.9444839481510305"><ele>375.0</ele><time>2026-04-10T17:12:31Z</time></trkpt><trkpt lat="44.52296921744643" lon="7.944478696293615"><ele>375.0</ele><time>2026-04-10T17:12:35Z</time></trkpt><trkpt lat="44.52290274536121" lon="7.944462695584136"><ele>375.0</ele><time>2026-04-10T17:12:39Z</time></trkpt><trkpt lat="44.5228363151529" lon="7.944451179958168"><ele>375.0</ele><time>2026-04-10T17:12:43Z</time></trkpt><trkpt lat="44.522773527556694" lon="7.944438822936164"><ele>375.0</ele><time>2026-04-10T17:12:47Z</time></trkpt><trkpt lat="44.52269905796055" lon="7.9444452470456515"><ele>375.0</ele><time>2026-04-10T17:12:51Z</time></trkpt><trkpt lat="44.522629710168935" lon="7.9444323569435715"><ele>376.14285714285717</ele><time>2026-04-10T17:12:55Z</time></trkpt><trkpt lat="44.52255048557102" lon="7.944421185690499"><ele>377.2857142857143</ele><time>2026-04-10T17:13:00Z</time></trkpt><trkpt lat="44.52248383522939" lon="7.944408421290956"><ele>378.42857142857144</ele><time>2026-04-10T17:13:04Z</time></trkpt><trkpt lat="44.52241183568359" lon="7.94439894352418"><ele>379.57142857142856</ele><time>2026-04-10T17:13:08Z</time></trkpt><trkpt lat="44.52234448756853" lon="7.944382354592401"><ele>380.71428571428567</ele><time>2026-04-10T17:13:12Z</time></trkpt><trkpt lat="44.52227532165823" lon="7.9443533701830695"><ele>381.85714285714283</ele><time>2026-04-10T17:13:16Z</time></trkpt><trkpt lat="44.52220975176056" lon="7.944322538049217"><ele>383.0</ele><time>2026-04-10T17:13:20Z</time></trkpt><trkpt lat="44.52214341414625" lon="7.944292017987021"><ele>383.0</ele><time>2026-04-10T17:13:24Z</time></trkpt><trkpt lat="44.52208057783987" lon="7.944248499069908"><ele>383.0</ele><time>2026-04-10T17:13:28Z</time></trkpt><trkpt lat="44.522013371945576" lon="7.944213913061203"><ele>383.0</ele><time>2026-04-10T17:13:32Z</time></trkpt><trkpt lat="44.52195139291142" lon="7.944160761811346"><ele>383.0</ele><time>2026-04-10T17:13:36Z</time></trkpt><trkpt lat="44.52188524347438" lon="7.9441208313735485"><ele>383.0</ele><time>2026-04-10T17:13:40Z</time></trkpt><trkpt lat="44.52182046903277" lon="7.944068400994666"><ele>383.0</ele><time>2026-04-10T17:13:44Z</time></trkpt><trkpt lat="44.52176346913049" lon="7.94400746238401"><ele>383.0</ele><time>2026-04-10T17:13:48Z</time></trkpt><trkpt lat="44.52170250621639" lon="7.943964270987073"><ele>383.33333333333337</ele><time>2026-04-10T17:13:52Z</time></trkpt><trkpt lat="44.52159713405747" lon="7.943922243812368"><ele>383.6666666666667</ele><time>2026-04-10T17:16:46Z</time></trkpt><trkpt lat="44.521530280150806" lon="7.943942822666437"><ele>384.0</ele><time>2026-04-10T17:16:54Z</time></trkpt><trkpt lat="44.521460814668174" lon="7.94395784311488"><ele>384.33333333333337</ele><time>2026-04-10T17:17:02Z</time></trkpt><trkpt lat="44.52139533803028" lon="7.943990262809636"><ele>384.6666666666667</ele><time>2026-04-10T17:17:10Z</time></trkpt><trkpt lat="44.521327033253826" lon="7.944021423383728"><ele>385.0</ele><time>2026-04-10T17:17:19Z</time></trkpt><trkpt lat="44.521265127930654" lon="7.944052988602436"><ele>386.85714285714283</ele><time>2026-04-10T17:17:27Z</time></trkpt><trkpt lat="44.52119655473871" lon="7.944084922543938"><ele>388.7142857142857</ele><time>2026-04-10T17:17:35Z</time></trkpt><trkpt lat="44.52113462226168" lon="7.944113187348696"><ele>390.57142857142856</ele><time>2026-04-10T17:17:43Z</time></trkpt><trkpt lat="44.52106638814356" lon="7.944143022031703"><ele>392.42857142857144</ele><time>2026-04-10T17:17:51Z</time></trkpt><trkpt lat="44.52100221065919" lon="7.944151770906144"><ele>394.2857142857143</ele><time>2026-04-10T17:17:58Z</time></trkpt><trkpt lat="44.520935308412184" lon="7.944146811976428"><ele>396.1428571428571</ele><time>2026-04-10T17:18:06Z</time></trkpt><trkpt lat="44.520871318379896" lon="7.944173825643755"><ele>398.0</ele><time>2026-04-10T17:18:15Z</time></trkpt><trkpt lat="44.52081166598965" lon="7.9442050487263005"><ele>397.99999999999994</ele><time>2026-04-10T17:18:23Z</time></trkpt><trkpt lat="44.52074215305143" lon="7.94422507639595"><ele>398.0</ele><time>2026-04-10T17:18:32Z</time></trkpt><trkpt lat="44.52067736819205" lon="7.944223719036124"><ele>398.0</ele><time>2026-04-10T17:18:41Z</time></trkpt><trkpt lat="44.52061280555453" lon="7.944192414222731"><ele>398.0</ele><time>2026-04-10T17:18:49Z</time></trkpt><trkpt lat="44.52055172893855" lon="7.944167872599103"><ele>398.0</ele><time>2026-04-10T17:18:57Z</time></trkpt><trkpt lat="44.520495127405354" lon="7.944129181837544"><ele>397.99999999999994</ele><time>2026-04-10T17:19:04Z</time></trkpt><trkpt lat="44.520441909514474" lon="7.944068518216179"><ele>398.0</ele><time>2026-04-10T17:19:12Z</time></trkpt><trkpt lat="44.52039407756423" lon="7.943997772483257"><ele>396.99999999999994</ele><time>2026-04-10T17:19:20Z</time></trkpt><trkpt lat="44.520354378075545" lon="7.943922011949341"><ele>396.0</ele><time>2026-04-10T17:19:36Z</time></trkpt><trkpt lat="44.52032781250915" lon="7.943836027083078"><ele>395.0</ele><time>2026-04-10T17:19:44Z</time></trkpt><trkpt lat="44.52029271794493" lon="7.943753948049983"><ele>394.0</ele><time>2026-04-10T17:19:53Z</time></trkpt><trkpt lat="44.52025940621642" lon="7.943672876452004"><ele>393.0</ele><time>2026-04-10T17:20:00Z</time></trkpt><trkpt lat="44.52022503530001" lon="7.94359613403245"><ele>391.99999999999994</ele><time>2026-04-10T17:20:07Z</time></trkpt><trkpt lat="44.52019266828706" lon="7.9435064782655855"><ele>391.0</ele><time>2026-04-10T17:20:16Z</time></trkpt><trkpt lat="44.52015752941182" lon="7.94342263278655"><ele>392.99999999999994</ele><time>2026-04-10T17:20:25Z</time></trkpt><trkpt lat="44.520127573813" lon="7.9433449619508805"><ele>395.0</ele><time>2026-04-10T17:20:31Z</time></trkpt><trkpt lat="44.52009793528686" lon="7.943256407269535"><ele>397.0</ele><time>2026-04-10T17:20:38Z</time></trkpt><trkpt lat="44.52005625512994" lon="7.943173293198561"><ele>399.0</ele><time>2026-04-10T17:20:44Z</time></trkpt><trkpt lat="44.52002154919394" lon="7.94309111913074"><ele>401.0</ele><time>2026-04-10T17:20:51Z</time></trkpt><trkpt lat="44.51998265726346" lon="7.943006245823399"><ele>402.99999999999994</ele><time>2026-04-10T17:20:58Z</time></trkpt><trkpt lat="44.519943156871825" lon="7.942927226647918"><ele>405.0</ele><time>2026-04-10T17:21:05Z</time></trkpt><trkpt lat="44.51990067164405" lon="7.942854322546183"><ele>404.99999999999994</ele><time>2026-04-10T17:21:12Z</time></trkpt><trkpt lat="44.519847596374504" lon="7.942802351089048"><ele>405.0</ele><time>2026-04-10T17:21:29Z</time></trkpt><trkpt lat="44.51980257204318" lon="7.94272393139133"><ele>405.0</ele><time>2026-04-10T17:21:34Z</time></trkpt><trkpt lat="44.519765363737775" lon="7.942626242384021"><ele>405.0</ele><time>2026-04-10T17:21:39Z</time></trkpt><trkpt lat="44.51973564115301" lon="7.942531954622923"><ele>405.0</ele><time>2026-04-10T17:21:44Z</time></trkpt><trkpt lat="44.519702215734185" lon="7.942449954289448"><ele>404.99999999999994</ele><time>2026-04-10T17:21:48Z</time></trkpt><trkpt lat="44.51966395005815" lon="7.9423686417552535"><ele>405.0</ele><time>2026-04-10T17:21:52Z</time></trkpt><trkpt lat="44.519638804666684" lon="7.942282436395429"><ele>405.2857142857143</ele><time>2026-04-10T17:21:56Z</time></trkpt><trkpt lat="44.51961161836093" lon="7.942192734486831"><ele>405.57142857142856</ele><time>2026-04-10T17:22:00Z</time></trkpt><trkpt lat="44.51959351670639" lon="7.942097309859895"><ele>405.8571428571429</ele><time>2026-04-10T17:22:04Z</time></trkpt><trkpt lat="44.51957148368756" lon="7.9419999269984904"><ele>406.1428571428571</ele><time>2026-04-10T17:22:08Z</time></trkpt><trkpt lat="44.51955491169267" lon="7.941899582052934"><ele>406.42857142857144</ele><time>2026-04-10T17:22:12Z</time></trkpt><trkpt lat="44.51953635532744" lon="7.941804858669276"><ele>406.7142857142857</ele><time>2026-04-10T17:22:16Z</time></trkpt><trkpt lat="44.51951280840489" lon="7.941712211112302"><ele>407.0</ele><time>2026-04-10T17:22:20Z</time></trkpt><trkpt lat="44.51948373704338" lon="7.941627055465269"><ele>406.99999999999994</ele><time>2026-04-10T17:22:23Z</time></trkpt><trkpt lat="44.51945416484484" lon="7.941544226931209"><ele>407.0</ele><time>2026-04-10T17:22:26Z</time></trkpt><trkpt lat="44.51941594968495" lon="7.941467087491134"><ele>407.0</ele><time>2026-04-10T17:22:29Z</time></trkpt><trkpt lat="44.519373537218335" lon="7.941376674023704"><ele>407.0</ele><time>2026-04-10T17:22:32Z</time></trkpt><trkpt lat="44.51932276993434" lon="7.9412930916622075"><ele>406.99999999999994</ele><time>2026-04-10T17:22:35Z</time></trkpt><trkpt lat="44.51925770273668" lon="7.941215587702519"><ele>407.0</ele><time>2026-04-10T17:22:38Z</time></trkpt><trkpt lat="44.51919846663777" lon="7.9411483389640605"><ele>407.00000000000006</ele><time>2026-04-10T17:22:41Z</time></trkpt><trkpt lat="44.51914333406615" lon="7.941080158111591"><ele>407.0</ele><time>2026-04-10T17:22:44Z</time></trkpt><trkpt lat="44.51908349588302" lon="7.9409974753958785"><ele>407.0</ele><time>2026-04-10T17:22:47Z</time></trkpt><trkpt lat="44.51902343728083" lon="7.940931654178875"><ele>407.0</ele><time>2026-04-10T17:22:50Z</time></trkpt><trkpt lat="44.51896973561665" lon="7.94087251938907"><ele>407.0</ele><time>2026-04-10T17:22:53Z</time></trkpt><trkpt lat="44.51892459871536" lon="7.940808449091512"><ele>407.00000000000006</ele><time>2026-04-10T17:22:56Z</time></trkpt><trkpt lat="44.518871861585225" lon="7.94075087029353"><ele>407.0</ele><time>2026-04-10T17:22:59Z</time></trkpt><trkpt lat="44.51882079771987" lon="7.940685147622813"><ele>407.3333333333333</ele><time>2026-04-10T17:23:02Z</time></trkpt><trkpt lat="44.518763756650564" lon="7.940598887003077"><ele>407.66666666666663</ele><time>2026-04-10T17:23:05Z</time></trkpt><trkpt lat="44.51872173284246" lon="7.9404951638541865"><ele>408.0</ele><time>2026-04-10T17:23:08Z</time></trkpt><trkpt lat="44.51867833394963" lon="7.940422581467373"><ele>408.33333333333337</ele><time>2026-04-10T17:23:10Z</time></trkpt><trkpt lat="44.51862439354826" lon="7.940345079459499"><ele>408.6666666666667</ele><time>2026-04-10T17:23:12Z</time></trkpt><trkpt lat="44.51857553846518" lon="7.9402584848272735"><ele>409.0</ele><time>2026-04-10T17:23:14Z</time></trkpt><trkpt lat="44.51853213375471" lon="7.940163618055147"><ele>409.1666666666667</ele><time>2026-04-10T17:23:16Z</time></trkpt><trkpt lat="44.51849328172153" lon="7.9400628933805875"><ele>409.33333333333337</ele><time>2026-04-10T17:23:18Z</time></trkpt><trkpt lat="44.518453038628174" lon="7.9399696320655435"><ele>409.5</ele><time>2026-04-10T17:23:20Z</time></trkpt><trkpt lat="44.51841847811727" lon="7.939882522382734"><ele>409.66666666666663</ele><time>2026-04-10T17:23:22Z</time></trkpt><trkpt lat="44.51839757951157" lon="7.939792661624925"><ele>409.8333333333333</ele><time>2026-04-10T17:23:24Z</time></trkpt><trkpt lat="44.51835992002996" lon="7.9396777166437325"><ele>410.0</ele><time>2026-04-10T17:23:27Z</time></trkpt><trkpt lat="44.51833268791535" lon="7.93957934682228"><ele>410.0</ele><time>2026-04-10T17:23:30Z</time></trkpt><trkpt lat="44.51831919660686" lon="7.939479419717541"><ele>410.0</ele><time>2026-04-10T17:23:33Z</time></trkpt><trkpt lat="44.51831226222362" lon="7.939380508406375"><ele>410.0</ele><time>2026-04-10T17:23:36Z</time></trkpt><trkpt lat="44.51829507983104" lon="7.939287094758924"><ele>410.0</ele><time>2026-04-10T17:23:39Z</time></trkpt><trkpt lat="44.51827596391839" lon="7.9391903847855545"><ele>410.0</ele><time>2026-04-10T17:23:43Z</time></trkpt><trkpt lat="44.51826800110936" lon="7.939099921753253"><ele>410.0</ele><time>2026-04-10T17:23:46Z</time></trkpt><trkpt lat="44.51824867518989" lon="7.938988095281443"><ele>410.0</ele><time>2026-04-10T17:23:50Z</time></trkpt><trkpt lat="44.51823033215148" lon="7.938877679499222"><ele>410.42857142857144</ele><time>2026-04-10T17:23:54Z</time></trkpt><trkpt lat="44.5182157218508" lon="7.9387899678075415"><ele>410.85714285714283</ele><time>2026-04-10T17:23:57Z</time></trkpt><trkpt lat="44.51820085700291" lon="7.9386769790772584"><ele>411.2857142857143</ele><time>2026-04-10T17:24:01Z</time></trkpt><trkpt lat="44.51818615189708" lon="7.9385844770141345"><ele>411.7142857142857</ele><time>2026-04-10T17:24:04Z</time></trkpt><trkpt lat="44.51817311695285" lon="7.938487979038181"><ele>412.1428571428571</ele><time>2026-04-10T17:24:07Z</time></trkpt><trkpt lat="44.51815323685614" lon="7.938402779843609"><ele>412.57142857142856</ele><time>2026-04-10T17:24:10Z</time></trkpt><trkpt lat="44.518144572845976" lon="7.938301444669293"><ele>413.0</ele><time>2026-04-10T17:24:13Z</time></trkpt><trkpt lat="44.51813384371025" lon="7.9381831256536275"><ele>413.42857142857144</ele><time>2026-04-10T17:24:17Z</time></trkpt><trkpt lat="44.51812359686165" lon="7.938092624452288"><ele>413.8571428571429</ele><time>2026-04-10T17:24:20Z</time></trkpt><trkpt lat="44.51811570458627" lon="7.937989178661388"><ele>414.2857142857143</ele><time>2026-04-10T17:24:24Z</time></trkpt><trkpt lat="44.518111544413074" lon="7.937872303865327"><ele>414.7142857142857</ele><time>2026-04-10T17:24:28Z</time></trkpt><trkpt lat="44.51810743964712" lon="7.93778314015433"><ele>415.14285714285717</ele><time>2026-04-10T17:24:31Z</time></trkpt><trkpt lat="44.51810439761873" lon="7.937678501135177"><ele>415.57142857142856</ele><time>2026-04-10T17:24:35Z</time></trkpt><trkpt lat="44.51809207271471" lon="7.937583842259331"><ele>416.0</ele><time>2026-04-10T17:24:38Z</time></trkpt><trkpt lat="44.51810201613237" lon="7.937490150345367"><ele>416.57142857142856</ele><time>2026-04-10T17:24:41Z</time></trkpt><trkpt lat="44.51810954164058" lon="7.937385835613661"><ele>417.14285714285717</ele><time>2026-04-10T17:24:44Z</time></trkpt><trkpt lat="44.51811788063058" lon="7.937279343966116"><ele>417.7142857142857</ele><time>2026-04-10T17:24:48Z</time></trkpt><trkpt lat="44.518125328207525" lon="7.937170854333731"><ele>418.2857142857143</ele><time>2026-04-10T17:24:53Z</time></trkpt><trkpt lat="44.518134092424454" lon="7.937080235244402"><ele>418.8571428571429</ele><time>2026-04-10T17:24:57Z</time></trkpt><trkpt lat="44.518152471573494" lon="7.936987126484179"><ele>419.42857142857144</ele><time>2026-04-10T17:25:01Z</time></trkpt><trkpt lat="44.518146570890714" lon="7.936868043851181"><ele>420.0</ele><time>2026-04-10T17:25:05Z</time></trkpt><trkpt lat="44.5181704124806" lon="7.936772813376108"><ele>420.2857142857143</ele><time>2026-04-10T17:25:08Z</time></trkpt><trkpt lat="44.5181908175225" lon="7.936683423860365"><ele>420.57142857142856</ele><time>2026-04-10T17:25:11Z</time></trkpt><trkpt lat="44.51819600454626" lon="7.936585390605197"><ele>420.8571428571429</ele><time>2026-04-10T17:25:14Z</time></trkpt><trkpt lat="44.51822202842" lon="7.936477320610679"><ele>421.1428571428571</ele><time>2026-04-10T17:25:17Z</time></trkpt><trkpt lat="44.51825919896536" lon="7.936381155356007"><ele>421.42857142857144</ele><time>2026-04-10T17:25:20Z</time></trkpt><trkpt lat="44.51828965732117" lon="7.936296991234096"><ele>421.7142857142857</ele><time>2026-04-10T17:25:23Z</time></trkpt><trkpt lat="44.51833739564666" lon="7.936236072072646"><ele>422.0</ele><time>2026-04-10T17:25:26Z</time></trkpt><trkpt lat="44.51839309059839" lon="7.936160035656812"><ele>421.99999999999994</ele><time>2026-04-10T17:25:29Z</time></trkpt><trkpt lat="44.51844315914688" lon="7.936099611902911"><ele>422.0</ele><time>2026-04-10T17:25:32Z</time></trkpt><trkpt lat="44.51850104277615" lon="7.936026568394791"><ele>422.0</ele><time>2026-04-10T17:25:35Z</time></trkpt><trkpt lat="44.51855741821588" lon="7.935965687886828"><ele>422.0</ele><time>2026-04-10T17:25:38Z</time></trkpt><trkpt lat="44.51860849771179" lon="7.935894204397857"><ele>421.99999999999994</ele><time>2026-04-10T17:25:41Z</time></trkpt><trkpt lat="44.51864649612971" lon="7.935813896122088"><ele>422.0</ele><time>2026-04-10T17:25:44Z</time></trkpt><trkpt lat="44.51869469032672" lon="7.9356999134624395"><ele>422.3333333333333</ele><time>2026-04-10T17:25:47Z</time></trkpt><trkpt lat="44.518710174224836" lon="7.935593359511909"><ele>422.66666666666663</ele><time>2026-04-10T17:25:50Z</time></trkpt><trkpt lat="44.51872186435719" lon="7.935499511010951"><ele>423.0</ele><time>2026-04-10T17:25:52Z</time></trkpt><trkpt lat="44.518760167808956" lon="7.935382242358927"><ele>423.33333333333337</ele><time>2026-04-10T17:25:54Z</time></trkpt><trkpt lat="44.51880983145893" lon="7.935285048652577"><ele>423.6666666666667</ele><time>2026-04-10T17:25:56Z</time></trkpt><trkpt lat="44.51882930369455" lon="7.935196229769346"><ele>424.0</ele><time>2026-04-10T17:25:58Z</time></trkpt><trkpt lat="44.51886547899097" lon="7.935081873364856"><ele>423.00000000000006</ele><time>2026-04-10T17:26:00Z</time></trkpt><trkpt lat="44.5189030276053" lon="7.934971571782059"><ele>422.0</ele><time>2026-04-10T17:26:02Z</time></trkpt><trkpt lat="44.51892775305216" lon="7.934877082039885"><ele>421.0</ele><time>2026-04-10T17:26:05Z</time></trkpt><trkpt lat="44.51895259913324" lon="7.934776328852424"><ele>420.0</ele><time>2026-04-10T17:26:08Z</time></trkpt><trkpt lat="44.51897129004002" lon="7.934688744501212"><ele>419.00000000000006</ele><time>2026-04-10T17:26:11Z</time></trkpt><trkpt lat="44.51900274880324" lon="7.934588591584299"><ele>418.0</ele><time>2026-04-10T17:26:15Z</time></trkpt><trkpt lat="44.51902497246691" lon="7.934487390502671"><ele>418.0</ele><time>2026-04-10T17:26:20Z</time></trkpt><trkpt lat="44.51905306017355" lon="7.9343942940819305"><ele>418.0</ele><time>2026-04-10T17:26:30Z</time></trkpt><trkpt lat="44.51907390394886" lon="7.934295565111552"><ele>418.0</ele><time>2026-04-10T17:26:37Z</time></trkpt><trkpt lat="44.519096122623694" lon="7.9342111852059585"><ele>418.0</ele><time>2026-04-10T17:26:43Z</time></trkpt><trkpt lat="44.51911334360805" lon="7.934119031651474"><ele>418.0</ele><time>2026-04-10T17:26:49Z</time></trkpt><trkpt lat="44.5191346833361" lon="7.934028309396142"><ele>418.0</ele><time>2026-04-10T17:26:56Z</time></trkpt><trkpt lat="44.51914489456116" lon="7.93393197441798"><ele>418.0</ele><time>2026-04-10T17:27:03Z</time></trkpt><trkpt lat="44.51916535131017" lon="7.93384491635988"><ele>419.2857142857143</ele><time>2026-04-10T17:27:10Z</time></trkpt><trkpt lat="44.519190276053266" lon="7.933758945745616"><ele>420.57142857142856</ele><time>2026-04-10T17:27:16Z</time></trkpt><trkpt lat="44.51920782503936" lon="7.933673346868579"><ele>421.8571428571429</ele><time>2026-04-10T17:27:22Z</time></trkpt><trkpt lat="44.51923705215041" lon="7.933583118902157"><ele>423.1428571428571</ele><time>2026-04-10T17:27:29Z</time></trkpt><trkpt lat="44.519270992896935" lon="7.933498420688658"><ele>424.42857142857144</ele><time>2026-04-10T17:27:35Z</time></trkpt><trkpt lat="44.51927342369118" lon="7.933393347060726"><ele>425.7142857142857</ele><time>2026-04-10T17:27:47Z</time></trkpt><trkpt lat="44.519294992234656" lon="7.933291708635238"><ele>427.0</ele><time>2026-04-10T17:27:53Z</time></trkpt><trkpt lat="44.519245342927476" lon="7.9332176567560095"><ele>428.20000000000005</ele><time>2026-04-10T17:27:57Z</time></trkpt><trkpt lat="44.519145677192384" lon="7.933182473042617"><ele>429.40000000000003</ele><time>2026-04-10T17:28:00Z</time></trkpt><trkpt lat="44.519067214086085" lon="7.933136901259304"><ele>430.59999999999997</ele><time>2026-04-10T17:28:02Z</time></trkpt><trkpt lat="44.51898160946881" lon="7.933089382651155"><ele>431.79999999999995</ele><time>2026-04-10T17:28:04Z</time></trkpt><trkpt lat="44.51888621142893" lon="7.933032842789282"><ele>433.0</ele><time>2026-04-10T17:28:06Z</time></trkpt><trkpt lat="44.518794077806746" lon="7.932981031532379"><ele>429.59999999999997</ele><time>2026-04-10T17:28:08Z</time></trkpt><trkpt lat="44.5186925047254" lon="7.93292568720874"><ele>426.19999999999993</ele><time>2026-04-10T17:28:10Z</time></trkpt><trkpt lat="44.51864438484988" lon="7.932862656641187"><ele>422.8</ele><time>2026-04-10T17:28:11Z</time></trkpt><trkpt lat="44.5185345455557" lon="7.932823333772242"><ele>419.4</ele><time>2026-04-10T17:28:13Z</time></trkpt><trkpt lat="44.51843574951779" lon="7.932811932161525"><ele>416.0</ele><time>2026-04-10T17:28:15Z</time></trkpt><trkpt lat="44.51835533606815" lon="7.932714242318049"><ele>416.0</ele><time>2026-04-10T17:28:17Z</time></trkpt><trkpt lat="44.51830280222405" lon="7.932660447389058"><ele>416.0</ele><time>2026-04-10T17:28:18Z</time></trkpt><trkpt lat="44.51823868975853" lon="7.93261852842607"><ele>416.0</ele><time>2026-04-10T17:28:19Z</time></trkpt><trkpt lat="44.51819062831052" lon="7.932537095724143"><ele>416.0</ele><time>2026-04-10T17:28:20Z</time></trkpt><trkpt lat="44.51812727883168" lon="7.9324972805470395"><ele>416.0</ele><time>2026-04-10T17:28:21Z</time></trkpt><trkpt lat="44.518068400485305" lon="7.932448007055211"><ele>416.0</ele><time>2026-04-10T17:28:22Z</time></trkpt><trkpt lat="44.51801418203531" lon="7.932376516290046"><ele>416.0</ele><time>2026-04-10T17:28:23Z</time></trkpt><trkpt lat="44.517953577345764" lon="7.932351495573468"><ele>415.66666666666663</ele><time>2026-04-10T17:28:24Z</time></trkpt><trkpt lat="44.51789648906602" lon="7.9323075733405375"><ele>415.3333333333333</ele><time>2026-04-10T17:28:25Z</time></trkpt><trkpt lat="44.51784186799489" lon="7.932242718992879"><ele>415.0</ele><time>2026-04-10T17:28:26Z</time></trkpt><trkpt lat="44.51773966229116" lon="7.932179551469758"><ele>414.66666666666663</ele><time>2026-04-10T17:28:28Z</time></trkpt><trkpt lat="44.517662369400725" lon="7.932119114359834"><ele>414.3333333333333</ele><time>2026-04-10T17:28:30Z</time></trkpt><trkpt lat="44.5176023987512" lon="7.932071511916992"><ele>414.0</ele><time>2026-04-10T17:28:32Z</time></trkpt><trkpt lat="44.517525760994715" lon="7.9320173475673945"><ele>414.00000000000006</ele><time>2026-04-10T17:28:35Z</time></trkpt><trkpt lat="44.51746901788826" lon="7.931969849386447"><ele>414.0</ele><time>2026-04-10T17:28:38Z</time></trkpt><trkpt lat="44.51739630620477" lon="7.931943890324195"><ele>414.0</ele><time>2026-04-10T17:28:43Z</time></trkpt><trkpt lat="44.517457802834315" lon="7.931976349049903"><ele>414.0</ele><time>2026-04-10T17:29:08Z</time></trkpt><trkpt lat="44.51740303221125" lon="7.9319109509367545"><ele>414.0</ele><time>2026-04-10T17:30:49Z</time></trkpt><trkpt lat="44.51734053616779" lon="7.931869663128256"><ele>414.00000000000006</ele><time>2026-04-10T17:30:56Z</time></trkpt><trkpt lat="44.517318535997155" lon="7.93174955161198"><ele>414.0</ele><time>2026-04-10T17:31:27Z</time></trkpt><trkpt lat="44.5174397554024" lon="7.931873839919085"><ele>414.0</ele><time>2026-04-10T17:31:54Z</time></trkpt><trkpt lat="44.51749998890253" lon="7.9319175993201005"><ele>414.0</ele><time>2026-04-10T17:31:57Z</time></trkpt><trkpt lat="44.51746371363789" lon="7.931844099452014"><ele>414.0</ele><time>2026-04-10T17:32:03Z</time></trkpt><trkpt lat="44.51737544965797" lon="7.931800947658071"><ele>414.0</ele><time>2026-04-10T17:32:07Z</time></trkpt><trkpt lat="44.517439591081036" lon="7.9318421019979475"><ele>414.0</ele><time>2026-04-10T17:33:48Z</time></trkpt><trkpt lat="44.517499697947635" lon="7.931986913949675"><ele>414.0</ele><time>2026-04-10T17:33:59Z</time></trkpt></trkseg></trk></gpx>